<?xml version="1.0" encoding="UTF-8" standalone="no" ?>
<gpx xmlns="http://www.topografix.com/GPX/1/1" xmlns:xsi="http://www.w3.org/2001/XMLSchema-instance" xsi:schemaLocation="http://www.topografix.com/GPX/1/1 http://www.topografix.com/GPX/1/1/gpx.xsd" version="1.1" creator="VisuGPX - https://www.visugpx.com">
  <metadata>
    <name>Vélo du matin</name>
  </metadata>
  <trk>
    <name><![CDATA[Vélo du matin]]></name>
    <trkseg>
      <trkpt lat="49.4438" lon="1.09612">
        <ele>24.7</ele>
        <time>2022-02-27T08:34:34Z</time>
      </trkpt>
      <trkpt lat="49.44375" lon="1.09609">
        <ele>24.7</ele>
        <time>2022-02-27T08:34:35Z</time>
      </trkpt>
      <trkpt lat="49.44372" lon="1.09608">
        <ele>24.6</ele>
        <time>2022-02-27T08:34:36Z</time>
      </trkpt>
      <trkpt lat="49.44366" lon="1.09605">
        <ele>24.6</ele>
        <time>2022-02-27T08:34:38Z</time>
      </trkpt>
      <trkpt lat="49.44363" lon="1.09605">
        <ele>24.6</ele>
        <time>2022-02-27T08:34:39Z</time>
      </trkpt>
      <trkpt lat="49.4436" lon="1.09601">
        <ele>24.5</ele>
        <time>2022-02-27T08:34:40Z</time>
      </trkpt>
      <trkpt lat="49.44359" lon="1.096">
        <ele>24.5</ele>
        <time>2022-02-27T08:34:41Z</time>
      </trkpt>
      <trkpt lat="49.44356" lon="1.09599">
        <ele>24.5</ele>
        <time>2022-02-27T08:34:42Z</time>
      </trkpt>
      <trkpt lat="49.44354" lon="1.09597">
        <ele>24.4</ele>
        <time>2022-02-27T08:34:43Z</time>
      </trkpt>
      <trkpt lat="49.4435" lon="1.09595">
        <ele>24.4</ele>
        <time>2022-02-27T08:34:44Z</time>
      </trkpt>
      <trkpt lat="49.44348" lon="1.09592">
        <ele>24.4</ele>
        <time>2022-02-27T08:34:45Z</time>
      </trkpt>
      <trkpt lat="49.44344" lon="1.0959">
        <ele>24.3</ele>
        <time>2022-02-27T08:34:46Z</time>
      </trkpt>
      <trkpt lat="49.44343" lon="1.09589">
        <ele>24.3</ele>
        <time>2022-02-27T08:34:47Z</time>
      </trkpt>
      <trkpt lat="49.4434" lon="1.09587">
        <ele>24.3</ele>
        <time>2022-02-27T08:34:48Z</time>
      </trkpt>
      <trkpt lat="49.44339" lon="1.09585">
        <ele>24.3</ele>
        <time>2022-02-27T08:34:49Z</time>
      </trkpt>
      <trkpt lat="49.44336" lon="1.09583">
        <ele>24.2</ele>
        <time>2022-02-27T08:34:51Z</time>
      </trkpt>
      <trkpt lat="49.44334" lon="1.09582">
        <ele>24.2</ele>
        <time>2022-02-27T08:34:52Z</time>
      </trkpt>
      <trkpt lat="49.44331" lon="1.09579">
        <ele>24.2</ele>
        <time>2022-02-27T08:34:53Z</time>
      </trkpt>
      <trkpt lat="49.4433" lon="1.09578">
        <ele>24.2</ele>
        <time>2022-02-27T08:34:54Z</time>
      </trkpt>
      <trkpt lat="49.44329" lon="1.09578">
        <ele>24.2</ele>
        <time>2022-02-27T08:34:56Z</time>
      </trkpt>
      <trkpt lat="49.44328" lon="1.09578">
        <ele>24.1</ele>
        <time>2022-02-27T08:34:57Z</time>
      </trkpt>
      <trkpt lat="49.44325" lon="1.09577">
        <ele>24.1</ele>
        <time>2022-02-27T08:34:58Z</time>
      </trkpt>
      <trkpt lat="49.44324" lon="1.09576">
        <ele>24.1</ele>
        <time>2022-02-27T08:34:59Z</time>
      </trkpt>
      <trkpt lat="49.44323" lon="1.09575">
        <ele>24.1</ele>
        <time>2022-02-27T08:35:00Z</time>
      </trkpt>
      <trkpt lat="49.44321" lon="1.09574">
        <ele>24.1</ele>
        <time>2022-02-27T08:35:02Z</time>
      </trkpt>
      <trkpt lat="49.4432" lon="1.09573">
        <ele>24.1</ele>
        <time>2022-02-27T08:35:03Z</time>
      </trkpt>
      <trkpt lat="49.44318" lon="1.09571">
        <ele>24.1</ele>
        <time>2022-02-27T08:35:04Z</time>
      </trkpt>
      <trkpt lat="49.44317" lon="1.0957">
        <ele>24.1</ele>
        <time>2022-02-27T08:35:05Z</time>
      </trkpt>
      <trkpt lat="49.44317" lon="1.09569">
        <ele>24</ele>
        <time>2022-02-27T08:35:06Z</time>
      </trkpt>
      <trkpt lat="49.44312" lon="1.09564">
        <ele>24</ele>
        <time>2022-02-27T08:35:07Z</time>
      </trkpt>
      <trkpt lat="49.44309" lon="1.09561">
        <ele>24</ele>
        <time>2022-02-27T08:35:09Z</time>
      </trkpt>
      <trkpt lat="49.44293" lon="1.09543">
        <ele>24.1</ele>
        <time>2022-02-27T08:35:11Z</time>
      </trkpt>
      <trkpt lat="49.44289" lon="1.09538">
        <ele>24.2</ele>
        <time>2022-02-27T08:35:12Z</time>
      </trkpt>
      <trkpt lat="49.44286" lon="1.09535">
        <ele>24.2</ele>
        <time>2022-02-27T08:35:13Z</time>
      </trkpt>
      <trkpt lat="49.44283" lon="1.09533">
        <ele>24.2</ele>
        <time>2022-02-27T08:35:14Z</time>
      </trkpt>
      <trkpt lat="49.4428" lon="1.09531">
        <ele>24.2</ele>
        <time>2022-02-27T08:35:15Z</time>
      </trkpt>
      <trkpt lat="49.44277" lon="1.09529">
        <ele>24.2</ele>
        <time>2022-02-27T08:35:16Z</time>
      </trkpt>
      <trkpt lat="49.44271" lon="1.09527">
        <ele>24.2</ele>
        <time>2022-02-27T08:35:18Z</time>
      </trkpt>
      <trkpt lat="49.44267" lon="1.09525">
        <ele>24.2</ele>
        <time>2022-02-27T08:35:19Z</time>
      </trkpt>
      <trkpt lat="49.44264" lon="1.09524">
        <ele>24.2</ele>
        <time>2022-02-27T08:35:20Z</time>
      </trkpt>
      <trkpt lat="49.4426" lon="1.09522">
        <ele>24.2</ele>
        <time>2022-02-27T08:35:21Z</time>
      </trkpt>
      <trkpt lat="49.44255" lon="1.09518">
        <ele>24.2</ele>
        <time>2022-02-27T08:35:22Z</time>
      </trkpt>
      <trkpt lat="49.44251" lon="1.09512">
        <ele>24.2</ele>
        <time>2022-02-27T08:35:24Z</time>
      </trkpt>
      <trkpt lat="49.44246" lon="1.09507">
        <ele>24.1</ele>
        <time>2022-02-27T08:35:25Z</time>
      </trkpt>
      <trkpt lat="49.4424" lon="1.09504">
        <ele>24</ele>
        <time>2022-02-27T08:35:26Z</time>
      </trkpt>
      <trkpt lat="49.44234" lon="1.095">
        <ele>23.9</ele>
        <time>2022-02-27T08:35:28Z</time>
      </trkpt>
      <trkpt lat="49.44228" lon="1.09497">
        <ele>23.8</ele>
        <time>2022-02-27T08:35:29Z</time>
      </trkpt>
      <trkpt lat="49.44209" lon="1.09487">
        <ele>23.4</ele>
        <time>2022-02-27T08:35:31Z</time>
      </trkpt>
      <trkpt lat="49.44202" lon="1.09485">
        <ele>23.3</ele>
        <time>2022-02-27T08:35:32Z</time>
      </trkpt>
      <trkpt lat="49.44197" lon="1.09485">
        <ele>23.3</ele>
        <time>2022-02-27T08:35:33Z</time>
      </trkpt>
      <trkpt lat="49.44193" lon="1.09485">
        <ele>23.2</ele>
        <time>2022-02-27T08:35:34Z</time>
      </trkpt>
      <trkpt lat="49.44191" lon="1.09483">
        <ele>23.2</ele>
        <time>2022-02-27T08:35:35Z</time>
      </trkpt>
      <trkpt lat="49.44187" lon="1.09481">
        <ele>23.1</ele>
        <time>2022-02-27T08:35:37Z</time>
      </trkpt>
      <trkpt lat="49.44184" lon="1.09479">
        <ele>23</ele>
        <time>2022-02-27T08:35:38Z</time>
      </trkpt>
      <trkpt lat="49.44181" lon="1.09475">
        <ele>23</ele>
        <time>2022-02-27T08:35:39Z</time>
      </trkpt>
      <trkpt lat="49.4418" lon="1.09474">
        <ele>22.9</ele>
        <time>2022-02-27T08:35:40Z</time>
      </trkpt>
      <trkpt lat="49.44177" lon="1.09471">
        <ele>22.9</ele>
        <time>2022-02-27T08:35:41Z</time>
      </trkpt>
      <trkpt lat="49.44173" lon="1.09465">
        <ele>22.8</ele>
        <time>2022-02-27T08:35:42Z</time>
      </trkpt>
      <trkpt lat="49.44171" lon="1.09462">
        <ele>22.7</ele>
        <time>2022-02-27T08:35:43Z</time>
      </trkpt>
      <trkpt lat="49.44167" lon="1.09458">
        <ele>22.7</ele>
        <time>2022-02-27T08:35:45Z</time>
      </trkpt>
      <trkpt lat="49.44161" lon="1.09453">
        <ele>22.6</ele>
        <time>2022-02-27T08:35:46Z</time>
      </trkpt>
      <trkpt lat="49.44156" lon="1.0945">
        <ele>22.6</ele>
        <time>2022-02-27T08:35:47Z</time>
      </trkpt>
      <trkpt lat="49.44149" lon="1.09446">
        <ele>22.6</ele>
        <time>2022-02-27T08:35:48Z</time>
      </trkpt>
      <trkpt lat="49.44143" lon="1.09442">
        <ele>22.5</ele>
        <time>2022-02-27T08:35:50Z</time>
      </trkpt>
      <trkpt lat="49.44132" lon="1.09433">
        <ele>22.3</ele>
        <time>2022-02-27T08:35:51Z</time>
      </trkpt>
      <trkpt lat="49.44127" lon="1.09429">
        <ele>22.2</ele>
        <time>2022-02-27T08:35:52Z</time>
      </trkpt>
      <trkpt lat="49.44121" lon="1.09426">
        <ele>22.1</ele>
        <time>2022-02-27T08:35:53Z</time>
      </trkpt>
      <trkpt lat="49.44117" lon="1.09423">
        <ele>22</ele>
        <time>2022-02-27T08:35:54Z</time>
      </trkpt>
      <trkpt lat="49.44114" lon="1.09419">
        <ele>22</ele>
        <time>2022-02-27T08:35:55Z</time>
      </trkpt>
      <trkpt lat="49.44112" lon="1.09417">
        <ele>21.9</ele>
        <time>2022-02-27T08:35:56Z</time>
      </trkpt>
      <trkpt lat="49.44108" lon="1.09414">
        <ele>21.9</ele>
        <time>2022-02-27T08:35:58Z</time>
      </trkpt>
      <trkpt lat="49.44102" lon="1.09412">
        <ele>21.7</ele>
        <time>2022-02-27T08:35:59Z</time>
      </trkpt>
      <trkpt lat="49.44098" lon="1.09411">
        <ele>21.6</ele>
        <time>2022-02-27T08:36:00Z</time>
      </trkpt>
      <trkpt lat="49.44094" lon="1.09411">
        <ele>21.6</ele>
        <time>2022-02-27T08:36:01Z</time>
      </trkpt>
      <trkpt lat="49.44085" lon="1.09411">
        <ele>21.4</ele>
        <time>2022-02-27T08:36:02Z</time>
      </trkpt>
      <trkpt lat="49.44078" lon="1.09416">
        <ele>21.2</ele>
        <time>2022-02-27T08:36:03Z</time>
      </trkpt>
      <trkpt lat="49.4407" lon="1.09417">
        <ele>20.9</ele>
        <time>2022-02-27T08:36:04Z</time>
      </trkpt>
      <trkpt lat="49.44062" lon="1.09415">
        <ele>20.6</ele>
        <time>2022-02-27T08:36:05Z</time>
      </trkpt>
      <trkpt lat="49.44055" lon="1.09414">
        <ele>20.3</ele>
        <time>2022-02-27T08:36:06Z</time>
      </trkpt>
      <trkpt lat="49.44049" lon="1.09411">
        <ele>20</ele>
        <time>2022-02-27T08:36:07Z</time>
      </trkpt>
      <trkpt lat="49.44045" lon="1.09403">
        <ele>19.7</ele>
        <time>2022-02-27T08:36:08Z</time>
      </trkpt>
      <trkpt lat="49.44041" lon="1.09396">
        <ele>19.4</ele>
        <time>2022-02-27T08:36:09Z</time>
      </trkpt>
      <trkpt lat="49.44037" lon="1.09391">
        <ele>19.1</ele>
        <time>2022-02-27T08:36:10Z</time>
      </trkpt>
      <trkpt lat="49.44033" lon="1.09388">
        <ele>18.9</ele>
        <time>2022-02-27T08:36:11Z</time>
      </trkpt>
      <trkpt lat="49.4403" lon="1.09385">
        <ele>18.7</ele>
        <time>2022-02-27T08:36:12Z</time>
      </trkpt>
      <trkpt lat="49.44027" lon="1.09379">
        <ele>18.5</ele>
        <time>2022-02-27T08:36:14Z</time>
      </trkpt>
      <trkpt lat="49.44025" lon="1.09373">
        <ele>18.4</ele>
        <time>2022-02-27T08:36:15Z</time>
      </trkpt>
      <trkpt lat="49.44024" lon="1.09369">
        <ele>18.3</ele>
        <time>2022-02-27T08:36:16Z</time>
      </trkpt>
      <trkpt lat="49.44024" lon="1.09361">
        <ele>18.2</ele>
        <time>2022-02-27T08:36:17Z</time>
      </trkpt>
      <trkpt lat="49.44023" lon="1.09357">
        <ele>18.1</ele>
        <time>2022-02-27T08:36:18Z</time>
      </trkpt>
      <trkpt lat="49.44026" lon="1.09353">
        <ele>18</ele>
        <time>2022-02-27T08:36:20Z</time>
      </trkpt>
      <trkpt lat="49.44027" lon="1.09351">
        <ele>18</ele>
        <time>2022-02-27T08:36:21Z</time>
      </trkpt>
      <trkpt lat="49.4403" lon="1.09347">
        <ele>17.9</ele>
        <time>2022-02-27T08:36:22Z</time>
      </trkpt>
      <trkpt lat="49.44028" lon="1.09344">
        <ele>17.8</ele>
        <time>2022-02-27T08:36:23Z</time>
      </trkpt>
      <trkpt lat="49.44027" lon="1.09343">
        <ele>17.8</ele>
        <time>2022-02-27T08:36:24Z</time>
      </trkpt>
      <trkpt lat="49.44027" lon="1.09337">
        <ele>17.7</ele>
        <time>2022-02-27T08:36:26Z</time>
      </trkpt>
      <trkpt lat="49.44023" lon="1.09332">
        <ele>17.5</ele>
        <time>2022-02-27T08:36:27Z</time>
      </trkpt>
      <trkpt lat="49.44021" lon="1.0933">
        <ele>17.5</ele>
        <time>2022-02-27T08:36:28Z</time>
      </trkpt>
      <trkpt lat="49.44018" lon="1.09328">
        <ele>17.4</ele>
        <time>2022-02-27T08:36:29Z</time>
      </trkpt>
      <trkpt lat="49.44014" lon="1.09328">
        <ele>17.3</ele>
        <time>2022-02-27T08:36:30Z</time>
      </trkpt>
      <trkpt lat="49.44012" lon="1.09329">
        <ele>17.2</ele>
        <time>2022-02-27T08:36:31Z</time>
      </trkpt>
      <trkpt lat="49.44012" lon="1.09329">
        <ele>17.2</ele>
        <time>2022-02-27T08:36:32Z</time>
      </trkpt>
      <trkpt lat="49.44012" lon="1.0933">
        <ele>17.2</ele>
        <time>2022-02-27T08:36:33Z</time>
      </trkpt>
      <trkpt lat="49.4401" lon="1.09329">
        <ele>17.1</ele>
        <time>2022-02-27T08:36:35Z</time>
      </trkpt>
      <trkpt lat="49.44007" lon="1.09325">
        <ele>16.9</ele>
        <time>2022-02-27T08:36:36Z</time>
      </trkpt>
      <trkpt lat="49.44004" lon="1.09321">
        <ele>16.6</ele>
        <time>2022-02-27T08:36:37Z</time>
      </trkpt>
      <trkpt lat="49.44002" lon="1.09318">
        <ele>16.5</ele>
        <time>2022-02-27T08:36:38Z</time>
      </trkpt>
      <trkpt lat="49.43998" lon="1.09315">
        <ele>16.3</ele>
        <time>2022-02-27T08:36:39Z</time>
      </trkpt>
      <trkpt lat="49.43995" lon="1.09311">
        <ele>16.2</ele>
        <time>2022-02-27T08:36:40Z</time>
      </trkpt>
      <trkpt lat="49.43992" lon="1.09308">
        <ele>16</ele>
        <time>2022-02-27T08:36:41Z</time>
      </trkpt>
      <trkpt lat="49.43987" lon="1.09304">
        <ele>15.8</ele>
        <time>2022-02-27T08:36:43Z</time>
      </trkpt>
      <trkpt lat="49.43986" lon="1.09303">
        <ele>15.8</ele>
        <time>2022-02-27T08:36:44Z</time>
      </trkpt>
      <trkpt lat="49.43984" lon="1.09302">
        <ele>15.7</ele>
        <time>2022-02-27T08:36:45Z</time>
      </trkpt>
      <trkpt lat="49.43981" lon="1.09301">
        <ele>15.6</ele>
        <time>2022-02-27T08:36:46Z</time>
      </trkpt>
      <trkpt lat="49.43977" lon="1.09301">
        <ele>15.4</ele>
        <time>2022-02-27T08:36:47Z</time>
      </trkpt>
      <trkpt lat="49.43973" lon="1.09299">
        <ele>15.3</ele>
        <time>2022-02-27T08:36:48Z</time>
      </trkpt>
      <trkpt lat="49.43967" lon="1.09293">
        <ele>14.9</ele>
        <time>2022-02-27T08:36:50Z</time>
      </trkpt>
      <trkpt lat="49.43963" lon="1.09289">
        <ele>14.7</ele>
        <time>2022-02-27T08:36:51Z</time>
      </trkpt>
      <trkpt lat="49.43959" lon="1.09284">
        <ele>14.5</ele>
        <time>2022-02-27T08:36:52Z</time>
      </trkpt>
      <trkpt lat="49.43954" lon="1.09279">
        <ele>14.2</ele>
        <time>2022-02-27T08:36:53Z</time>
      </trkpt>
      <trkpt lat="49.43947" lon="1.09273">
        <ele>13.9</ele>
        <time>2022-02-27T08:36:54Z</time>
      </trkpt>
      <trkpt lat="49.43943" lon="1.0927">
        <ele>13.7</ele>
        <time>2022-02-27T08:36:55Z</time>
      </trkpt>
      <trkpt lat="49.43939" lon="1.09267">
        <ele>13.5</ele>
        <time>2022-02-27T08:36:57Z</time>
      </trkpt>
      <trkpt lat="49.43934" lon="1.09264">
        <ele>13.3</ele>
        <time>2022-02-27T08:36:58Z</time>
      </trkpt>
      <trkpt lat="49.43929" lon="1.09261">
        <ele>13.2</ele>
        <time>2022-02-27T08:36:59Z</time>
      </trkpt>
      <trkpt lat="49.43925" lon="1.09259">
        <ele>13</ele>
        <time>2022-02-27T08:37:00Z</time>
      </trkpt>
      <trkpt lat="49.43921" lon="1.09256">
        <ele>12.9</ele>
        <time>2022-02-27T08:37:01Z</time>
      </trkpt>
      <trkpt lat="49.43918" lon="1.09252">
        <ele>12.9</ele>
        <time>2022-02-27T08:37:02Z</time>
      </trkpt>
      <trkpt lat="49.43913" lon="1.0925">
        <ele>12.8</ele>
        <time>2022-02-27T08:37:03Z</time>
      </trkpt>
      <trkpt lat="49.43907" lon="1.09248">
        <ele>12.8</ele>
        <time>2022-02-27T08:37:05Z</time>
      </trkpt>
      <trkpt lat="49.43903" lon="1.09246">
        <ele>12.8</ele>
        <time>2022-02-27T08:37:06Z</time>
      </trkpt>
      <trkpt lat="49.43898" lon="1.09242">
        <ele>12.8</ele>
        <time>2022-02-27T08:37:07Z</time>
      </trkpt>
      <trkpt lat="49.43891" lon="1.09238">
        <ele>12.8</ele>
        <time>2022-02-27T08:37:08Z</time>
      </trkpt>
      <trkpt lat="49.43872" lon="1.09216">
        <ele>13</ele>
        <time>2022-02-27T08:37:10Z</time>
      </trkpt>
      <trkpt lat="49.43867" lon="1.09212">
        <ele>12.9</ele>
        <time>2022-02-27T08:37:11Z</time>
      </trkpt>
      <trkpt lat="49.43863" lon="1.0921">
        <ele>12.9</ele>
        <time>2022-02-27T08:37:12Z</time>
      </trkpt>
      <trkpt lat="49.43855" lon="1.09207">
        <ele>13</ele>
        <time>2022-02-27T08:37:14Z</time>
      </trkpt>
      <trkpt lat="49.43852" lon="1.09207">
        <ele>13</ele>
        <time>2022-02-27T08:37:15Z</time>
      </trkpt>
      <trkpt lat="49.4385" lon="1.09207">
        <ele>13</ele>
        <time>2022-02-27T08:37:16Z</time>
      </trkpt>
      <trkpt lat="49.43847" lon="1.09206">
        <ele>13</ele>
        <time>2022-02-27T08:37:17Z</time>
      </trkpt>
      <trkpt lat="49.43845" lon="1.09206">
        <ele>13</ele>
        <time>2022-02-27T08:37:18Z</time>
      </trkpt>
      <trkpt lat="49.4384" lon="1.09204">
        <ele>13</ele>
        <time>2022-02-27T08:37:20Z</time>
      </trkpt>
      <trkpt lat="49.43837" lon="1.09201">
        <ele>13</ele>
        <time>2022-02-27T08:37:21Z</time>
      </trkpt>
      <trkpt lat="49.43833" lon="1.092">
        <ele>12.8</ele>
        <time>2022-02-27T08:37:22Z</time>
      </trkpt>
      <trkpt lat="49.43827" lon="1.09197">
        <ele>12.7</ele>
        <time>2022-02-27T08:37:23Z</time>
      </trkpt>
      <trkpt lat="49.43821" lon="1.0919">
        <ele>12.7</ele>
        <time>2022-02-27T08:37:24Z</time>
      </trkpt>
      <trkpt lat="49.43816" lon="1.09187">
        <ele>12.7</ele>
        <time>2022-02-27T08:37:25Z</time>
      </trkpt>
      <trkpt lat="49.43813" lon="1.09188">
        <ele>12.8</ele>
        <time>2022-02-27T08:37:26Z</time>
      </trkpt>
      <trkpt lat="49.43809" lon="1.09189">
        <ele>12.8</ele>
        <time>2022-02-27T08:37:28Z</time>
      </trkpt>
      <trkpt lat="49.43808" lon="1.09188">
        <ele>12.8</ele>
        <time>2022-02-27T08:37:29Z</time>
      </trkpt>
      <trkpt lat="49.43807" lon="1.09187">
        <ele>12.8</ele>
        <time>2022-02-27T08:37:30Z</time>
      </trkpt>
      <trkpt lat="49.43806" lon="1.09187">
        <ele>12.9</ele>
        <time>2022-02-27T08:37:31Z</time>
      </trkpt>
      <trkpt lat="49.43803" lon="1.09183">
        <ele>12.9</ele>
        <time>2022-02-27T08:37:32Z</time>
      </trkpt>
      <trkpt lat="49.43802" lon="1.09182">
        <ele>12.7</ele>
        <time>2022-02-27T08:37:33Z</time>
      </trkpt>
      <trkpt lat="49.43799" lon="1.09179">
        <ele>12.5</ele>
        <time>2022-02-27T08:37:34Z</time>
      </trkpt>
      <trkpt lat="49.43798" lon="1.09178">
        <ele>12.3</ele>
        <time>2022-02-27T08:37:35Z</time>
      </trkpt>
      <trkpt lat="49.43797" lon="1.09178">
        <ele>12.2</ele>
        <time>2022-02-27T08:37:36Z</time>
      </trkpt>
      <trkpt lat="49.43797" lon="1.09178">
        <ele>12.2</ele>
        <time>2022-02-27T08:37:37Z</time>
      </trkpt>
      <trkpt lat="49.43796" lon="1.09179">
        <ele>12.2</ele>
        <time>2022-02-27T08:37:39Z</time>
      </trkpt>
      <trkpt lat="49.43796" lon="1.0918">
        <ele>12.2</ele>
        <time>2022-02-27T08:37:40Z</time>
      </trkpt>
      <trkpt lat="49.43796" lon="1.09184">
        <ele>12.1</ele>
        <time>2022-02-27T08:37:41Z</time>
      </trkpt>
      <trkpt lat="49.43795" lon="1.09188">
        <ele>12</ele>
        <time>2022-02-27T08:37:53Z</time>
      </trkpt>
      <trkpt lat="49.43795" lon="1.09192">
        <ele>11.9</ele>
        <time>2022-02-27T08:37:54Z</time>
      </trkpt>
      <trkpt lat="49.43795" lon="1.09197">
        <ele>11.8</ele>
        <time>2022-02-27T08:37:55Z</time>
      </trkpt>
      <trkpt lat="49.43796" lon="1.09225">
        <ele>12</ele>
        <time>2022-02-27T08:37:56Z</time>
      </trkpt>
      <trkpt lat="49.43796" lon="1.09233">
        <ele>11.8</ele>
        <time>2022-02-27T08:37:57Z</time>
      </trkpt>
      <trkpt lat="49.43794" lon="1.09247">
        <ele>11.6</ele>
        <time>2022-02-27T08:37:58Z</time>
      </trkpt>
      <trkpt lat="49.43793" lon="1.09258">
        <ele>11.4</ele>
        <time>2022-02-27T08:37:59Z</time>
      </trkpt>
      <trkpt lat="49.43791" lon="1.09268">
        <ele>11.2</ele>
        <time>2022-02-27T08:38:00Z</time>
      </trkpt>
      <trkpt lat="49.43788" lon="1.09278">
        <ele>11.1</ele>
        <time>2022-02-27T08:38:01Z</time>
      </trkpt>
      <trkpt lat="49.43787" lon="1.09288">
        <ele>10.9</ele>
        <time>2022-02-27T08:38:02Z</time>
      </trkpt>
      <trkpt lat="49.43785" lon="1.09299">
        <ele>10.8</ele>
        <time>2022-02-27T08:38:03Z</time>
      </trkpt>
      <trkpt lat="49.43785" lon="1.0931">
        <ele>10.6</ele>
        <time>2022-02-27T08:38:04Z</time>
      </trkpt>
      <trkpt lat="49.43784" lon="1.0932">
        <ele>10.5</ele>
        <time>2022-02-27T08:38:05Z</time>
      </trkpt>
      <trkpt lat="49.43782" lon="1.09329">
        <ele>10.3</ele>
        <time>2022-02-27T08:38:06Z</time>
      </trkpt>
      <trkpt lat="49.4378" lon="1.09338">
        <ele>10.2</ele>
        <time>2022-02-27T08:38:07Z</time>
      </trkpt>
      <trkpt lat="49.43778" lon="1.09346">
        <ele>10.1</ele>
        <time>2022-02-27T08:38:08Z</time>
      </trkpt>
      <trkpt lat="49.43775" lon="1.09355">
        <ele>10.1</ele>
        <time>2022-02-27T08:38:09Z</time>
      </trkpt>
      <trkpt lat="49.43773" lon="1.09363">
        <ele>10</ele>
        <time>2022-02-27T08:38:10Z</time>
      </trkpt>
      <trkpt lat="49.43771" lon="1.09372">
        <ele>10</ele>
        <time>2022-02-27T08:38:11Z</time>
      </trkpt>
      <trkpt lat="49.43769" lon="1.0938">
        <ele>10</ele>
        <time>2022-02-27T08:38:12Z</time>
      </trkpt>
      <trkpt lat="49.43767" lon="1.09388">
        <ele>10.1</ele>
        <time>2022-02-27T08:38:13Z</time>
      </trkpt>
      <trkpt lat="49.43765" lon="1.09398">
        <ele>10.1</ele>
        <time>2022-02-27T08:38:14Z</time>
      </trkpt>
      <trkpt lat="49.43762" lon="1.09407">
        <ele>10.1</ele>
        <time>2022-02-27T08:38:15Z</time>
      </trkpt>
      <trkpt lat="49.4376" lon="1.09416">
        <ele>10.1</ele>
        <time>2022-02-27T08:38:16Z</time>
      </trkpt>
      <trkpt lat="49.43758" lon="1.09424">
        <ele>10.1</ele>
        <time>2022-02-27T08:38:17Z</time>
      </trkpt>
      <trkpt lat="49.43756" lon="1.09432">
        <ele>10.2</ele>
        <time>2022-02-27T08:38:18Z</time>
      </trkpt>
      <trkpt lat="49.43755" lon="1.0944">
        <ele>10.2</ele>
        <time>2022-02-27T08:38:19Z</time>
      </trkpt>
      <trkpt lat="49.43754" lon="1.09447">
        <ele>10.3</ele>
        <time>2022-02-27T08:38:20Z</time>
      </trkpt>
      <trkpt lat="49.43753" lon="1.09454">
        <ele>10.4</ele>
        <time>2022-02-27T08:38:21Z</time>
      </trkpt>
      <trkpt lat="49.43751" lon="1.09462">
        <ele>10.5</ele>
        <time>2022-02-27T08:38:22Z</time>
      </trkpt>
      <trkpt lat="49.43749" lon="1.0947">
        <ele>10.6</ele>
        <time>2022-02-27T08:38:23Z</time>
      </trkpt>
      <trkpt lat="49.43747" lon="1.09478">
        <ele>10.7</ele>
        <time>2022-02-27T08:38:24Z</time>
      </trkpt>
      <trkpt lat="49.43744" lon="1.09485">
        <ele>10.8</ele>
        <time>2022-02-27T08:38:25Z</time>
      </trkpt>
      <trkpt lat="49.43743" lon="1.09492">
        <ele>10.8</ele>
        <time>2022-02-27T08:38:26Z</time>
      </trkpt>
      <trkpt lat="49.43742" lon="1.09499">
        <ele>10.8</ele>
        <time>2022-02-27T08:38:27Z</time>
      </trkpt>
      <trkpt lat="49.43741" lon="1.09505">
        <ele>10.8</ele>
        <time>2022-02-27T08:38:28Z</time>
      </trkpt>
      <trkpt lat="49.43739" lon="1.09509">
        <ele>10.8</ele>
        <time>2022-02-27T08:38:29Z</time>
      </trkpt>
      <trkpt lat="49.43738" lon="1.09515">
        <ele>10.8</ele>
        <time>2022-02-27T08:38:30Z</time>
      </trkpt>
      <trkpt lat="49.43737" lon="1.09522">
        <ele>10.9</ele>
        <time>2022-02-27T08:38:31Z</time>
      </trkpt>
      <trkpt lat="49.43736" lon="1.09528">
        <ele>10.9</ele>
        <time>2022-02-27T08:38:32Z</time>
      </trkpt>
      <trkpt lat="49.43734" lon="1.09534">
        <ele>10.9</ele>
        <time>2022-02-27T08:38:33Z</time>
      </trkpt>
      <trkpt lat="49.43731" lon="1.09546">
        <ele>10.9</ele>
        <time>2022-02-27T08:38:35Z</time>
      </trkpt>
      <trkpt lat="49.43731" lon="1.09552">
        <ele>11</ele>
        <time>2022-02-27T08:38:36Z</time>
      </trkpt>
      <trkpt lat="49.43729" lon="1.09562">
        <ele>11</ele>
        <time>2022-02-27T08:38:38Z</time>
      </trkpt>
      <trkpt lat="49.43728" lon="1.09566">
        <ele>11.1</ele>
        <time>2022-02-27T08:38:39Z</time>
      </trkpt>
      <trkpt lat="49.43728" lon="1.09572">
        <ele>11.1</ele>
        <time>2022-02-27T08:38:40Z</time>
      </trkpt>
      <trkpt lat="49.43728" lon="1.09574">
        <ele>11.1</ele>
        <time>2022-02-27T08:38:41Z</time>
      </trkpt>
      <trkpt lat="49.43727" lon="1.09579">
        <ele>11.2</ele>
        <time>2022-02-27T08:38:42Z</time>
      </trkpt>
      <trkpt lat="49.43727" lon="1.0958">
        <ele>11.2</ele>
        <time>2022-02-27T08:38:43Z</time>
      </trkpt>
      <trkpt lat="49.43726" lon="1.09585">
        <ele>11.2</ele>
        <time>2022-02-27T08:38:45Z</time>
      </trkpt>
      <trkpt lat="49.43725" lon="1.09586">
        <ele>11.2</ele>
        <time>2022-02-27T08:38:46Z</time>
      </trkpt>
      <trkpt lat="49.43724" lon="1.09587">
        <ele>11.2</ele>
        <time>2022-02-27T08:38:47Z</time>
      </trkpt>
      <trkpt lat="49.43724" lon="1.09588">
        <ele>11.2</ele>
        <time>2022-02-27T08:38:48Z</time>
      </trkpt>
      <trkpt lat="49.43725" lon="1.09589">
        <ele>11.2</ele>
        <time>2022-02-27T08:38:49Z</time>
      </trkpt>
      <trkpt lat="49.43725" lon="1.09589">
        <ele>11.2</ele>
        <time>2022-02-27T08:38:50Z</time>
      </trkpt>
      <trkpt lat="49.43725" lon="1.09589">
        <ele>11.2</ele>
        <time>2022-02-27T08:38:51Z</time>
      </trkpt>
      <trkpt lat="49.43725" lon="1.09589">
        <ele>11.2</ele>
        <time>2022-02-27T08:38:52Z</time>
      </trkpt>
      <trkpt lat="49.43725" lon="1.09589">
        <ele>11.2</ele>
        <time>2022-02-27T08:38:53Z</time>
      </trkpt>
      <trkpt lat="49.43725" lon="1.09589">
        <ele>11.2</ele>
        <time>2022-02-27T08:38:54Z</time>
      </trkpt>
      <trkpt lat="49.43725" lon="1.09589">
        <ele>11.2</ele>
        <time>2022-02-27T08:38:55Z</time>
      </trkpt>
      <trkpt lat="49.43725" lon="1.09589">
        <ele>11.2</ele>
        <time>2022-02-27T08:38:56Z</time>
      </trkpt>
      <trkpt lat="49.43725" lon="1.09589">
        <ele>11.2</ele>
        <time>2022-02-27T08:38:57Z</time>
      </trkpt>
      <trkpt lat="49.43725" lon="1.0959">
        <ele>11.2</ele>
        <time>2022-02-27T08:38:58Z</time>
      </trkpt>
      <trkpt lat="49.43725" lon="1.0959">
        <ele>11.2</ele>
        <time>2022-02-27T08:38:59Z</time>
      </trkpt>
      <trkpt lat="49.43723" lon="1.09595">
        <ele>11.1</ele>
        <time>2022-02-27T08:39:08Z</time>
      </trkpt>
      <trkpt lat="49.43721" lon="1.09599">
        <ele>11.1</ele>
        <time>2022-02-27T08:39:09Z</time>
      </trkpt>
      <trkpt lat="49.43719" lon="1.09606">
        <ele>11.1</ele>
        <time>2022-02-27T08:39:11Z</time>
      </trkpt>
      <trkpt lat="49.43716" lon="1.09615">
        <ele>11.1</ele>
        <time>2022-02-27T08:39:12Z</time>
      </trkpt>
      <trkpt lat="49.43715" lon="1.09623">
        <ele>11.1</ele>
        <time>2022-02-27T08:39:13Z</time>
      </trkpt>
      <trkpt lat="49.43713" lon="1.09631">
        <ele>11.1</ele>
        <time>2022-02-27T08:39:14Z</time>
      </trkpt>
      <trkpt lat="49.43711" lon="1.09637">
        <ele>11.1</ele>
        <time>2022-02-27T08:39:15Z</time>
      </trkpt>
      <trkpt lat="49.4371" lon="1.09646">
        <ele>11.2</ele>
        <time>2022-02-27T08:39:16Z</time>
      </trkpt>
      <trkpt lat="49.43709" lon="1.09655">
        <ele>11.1</ele>
        <time>2022-02-27T08:39:17Z</time>
      </trkpt>
      <trkpt lat="49.43707" lon="1.09665">
        <ele>11</ele>
        <time>2022-02-27T08:39:18Z</time>
      </trkpt>
      <trkpt lat="49.43706" lon="1.09676">
        <ele>10.9</ele>
        <time>2022-02-27T08:39:19Z</time>
      </trkpt>
      <trkpt lat="49.43704" lon="1.09685">
        <ele>10.9</ele>
        <time>2022-02-27T08:39:20Z</time>
      </trkpt>
      <trkpt lat="49.43702" lon="1.09696">
        <ele>10.8</ele>
        <time>2022-02-27T08:39:21Z</time>
      </trkpt>
      <trkpt lat="49.437" lon="1.09706">
        <ele>10.8</ele>
        <time>2022-02-27T08:39:22Z</time>
      </trkpt>
      <trkpt lat="49.43697" lon="1.09716">
        <ele>10.8</ele>
        <time>2022-02-27T08:39:23Z</time>
      </trkpt>
      <trkpt lat="49.43695" lon="1.09726">
        <ele>10.8</ele>
        <time>2022-02-27T08:39:24Z</time>
      </trkpt>
      <trkpt lat="49.43694" lon="1.09736">
        <ele>10.8</ele>
        <time>2022-02-27T08:39:25Z</time>
      </trkpt>
      <trkpt lat="49.43692" lon="1.09746">
        <ele>10.7</ele>
        <time>2022-02-27T08:39:26Z</time>
      </trkpt>
      <trkpt lat="49.4369" lon="1.09755">
        <ele>10.7</ele>
        <time>2022-02-27T08:39:27Z</time>
      </trkpt>
      <trkpt lat="49.43688" lon="1.09764">
        <ele>10.6</ele>
        <time>2022-02-27T08:39:28Z</time>
      </trkpt>
      <trkpt lat="49.43686" lon="1.09773">
        <ele>10.6</ele>
        <time>2022-02-27T08:39:29Z</time>
      </trkpt>
      <trkpt lat="49.43684" lon="1.09782">
        <ele>10.5</ele>
        <time>2022-02-27T08:39:30Z</time>
      </trkpt>
      <trkpt lat="49.43682" lon="1.09791">
        <ele>10.5</ele>
        <time>2022-02-27T08:39:31Z</time>
      </trkpt>
      <trkpt lat="49.4368" lon="1.09801">
        <ele>10.4</ele>
        <time>2022-02-27T08:39:32Z</time>
      </trkpt>
      <trkpt lat="49.43678" lon="1.0981">
        <ele>10.4</ele>
        <time>2022-02-27T08:39:33Z</time>
      </trkpt>
      <trkpt lat="49.43676" lon="1.09819">
        <ele>10.4</ele>
        <time>2022-02-27T08:39:34Z</time>
      </trkpt>
      <trkpt lat="49.43673" lon="1.09828">
        <ele>10.3</ele>
        <time>2022-02-27T08:39:35Z</time>
      </trkpt>
      <trkpt lat="49.43671" lon="1.09838">
        <ele>10.3</ele>
        <time>2022-02-27T08:39:36Z</time>
      </trkpt>
      <trkpt lat="49.4367" lon="1.09848">
        <ele>10.2</ele>
        <time>2022-02-27T08:39:37Z</time>
      </trkpt>
      <trkpt lat="49.43668" lon="1.09858">
        <ele>10.2</ele>
        <time>2022-02-27T08:39:38Z</time>
      </trkpt>
      <trkpt lat="49.43666" lon="1.09869">
        <ele>10.2</ele>
        <time>2022-02-27T08:39:39Z</time>
      </trkpt>
      <trkpt lat="49.43665" lon="1.09882">
        <ele>10.1</ele>
        <time>2022-02-27T08:39:40Z</time>
      </trkpt>
      <trkpt lat="49.43662" lon="1.09892">
        <ele>10.1</ele>
        <time>2022-02-27T08:39:41Z</time>
      </trkpt>
      <trkpt lat="49.4366" lon="1.09903">
        <ele>10.1</ele>
        <time>2022-02-27T08:39:42Z</time>
      </trkpt>
      <trkpt lat="49.43658" lon="1.09913">
        <ele>10</ele>
        <time>2022-02-27T08:39:43Z</time>
      </trkpt>
      <trkpt lat="49.43655" lon="1.09924">
        <ele>10</ele>
        <time>2022-02-27T08:39:44Z</time>
      </trkpt>
      <trkpt lat="49.43653" lon="1.09935">
        <ele>10</ele>
        <time>2022-02-27T08:39:45Z</time>
      </trkpt>
      <trkpt lat="49.43651" lon="1.09946">
        <ele>9.9</ele>
        <time>2022-02-27T08:39:46Z</time>
      </trkpt>
      <trkpt lat="49.43649" lon="1.09956">
        <ele>9.9</ele>
        <time>2022-02-27T08:39:47Z</time>
      </trkpt>
      <trkpt lat="49.43648" lon="1.09965">
        <ele>9.9</ele>
        <time>2022-02-27T08:39:48Z</time>
      </trkpt>
      <trkpt lat="49.43646" lon="1.09975">
        <ele>9.9</ele>
        <time>2022-02-27T08:39:49Z</time>
      </trkpt>
      <trkpt lat="49.43644" lon="1.09985">
        <ele>9.8</ele>
        <time>2022-02-27T08:39:50Z</time>
      </trkpt>
      <trkpt lat="49.43642" lon="1.09994">
        <ele>9.8</ele>
        <time>2022-02-27T08:39:51Z</time>
      </trkpt>
      <trkpt lat="49.4364" lon="1.10003">
        <ele>9.9</ele>
        <time>2022-02-27T08:39:52Z</time>
      </trkpt>
      <trkpt lat="49.43638" lon="1.10012">
        <ele>9.9</ele>
        <time>2022-02-27T08:39:53Z</time>
      </trkpt>
      <trkpt lat="49.43635" lon="1.10021">
        <ele>10</ele>
        <time>2022-02-27T08:39:54Z</time>
      </trkpt>
      <trkpt lat="49.43633" lon="1.10031">
        <ele>10.1</ele>
        <time>2022-02-27T08:39:55Z</time>
      </trkpt>
      <trkpt lat="49.4363" lon="1.10041">
        <ele>10.2</ele>
        <time>2022-02-27T08:39:56Z</time>
      </trkpt>
      <trkpt lat="49.43627" lon="1.1005">
        <ele>10.3</ele>
        <time>2022-02-27T08:39:57Z</time>
      </trkpt>
      <trkpt lat="49.43625" lon="1.1006">
        <ele>10.4</ele>
        <time>2022-02-27T08:39:58Z</time>
      </trkpt>
      <trkpt lat="49.43622" lon="1.10069">
        <ele>10.5</ele>
        <time>2022-02-27T08:39:59Z</time>
      </trkpt>
      <trkpt lat="49.4362" lon="1.10077">
        <ele>10.7</ele>
        <time>2022-02-27T08:40:00Z</time>
      </trkpt>
      <trkpt lat="49.43618" lon="1.10085">
        <ele>10.8</ele>
        <time>2022-02-27T08:40:01Z</time>
      </trkpt>
      <trkpt lat="49.43613" lon="1.10089">
        <ele>10.9</ele>
        <time>2022-02-27T08:40:02Z</time>
      </trkpt>
      <trkpt lat="49.43607" lon="1.10093">
        <ele>11</ele>
        <time>2022-02-27T08:40:03Z</time>
      </trkpt>
      <trkpt lat="49.43605" lon="1.101">
        <ele>11.1</ele>
        <time>2022-02-27T08:40:04Z</time>
      </trkpt>
      <trkpt lat="49.43605" lon="1.10108">
        <ele>11.2</ele>
        <time>2022-02-27T08:40:05Z</time>
      </trkpt>
      <trkpt lat="49.43605" lon="1.10114">
        <ele>11.3</ele>
        <time>2022-02-27T08:40:06Z</time>
      </trkpt>
      <trkpt lat="49.43603" lon="1.10119">
        <ele>11.3</ele>
        <time>2022-02-27T08:40:07Z</time>
      </trkpt>
      <trkpt lat="49.436" lon="1.10126">
        <ele>11.4</ele>
        <time>2022-02-27T08:40:08Z</time>
      </trkpt>
      <trkpt lat="49.43597" lon="1.10132">
        <ele>11.4</ele>
        <time>2022-02-27T08:40:09Z</time>
      </trkpt>
      <trkpt lat="49.43596" lon="1.10138">
        <ele>11.5</ele>
        <time>2022-02-27T08:40:10Z</time>
      </trkpt>
      <trkpt lat="49.43595" lon="1.10145">
        <ele>11.6</ele>
        <time>2022-02-27T08:40:11Z</time>
      </trkpt>
      <trkpt lat="49.43594" lon="1.10147">
        <ele>11.6</ele>
        <time>2022-02-27T08:40:12Z</time>
      </trkpt>
      <trkpt lat="49.43592" lon="1.10155">
        <ele>11.7</ele>
        <time>2022-02-27T08:40:13Z</time>
      </trkpt>
      <trkpt lat="49.4359" lon="1.10163">
        <ele>11.8</ele>
        <time>2022-02-27T08:40:14Z</time>
      </trkpt>
      <trkpt lat="49.43588" lon="1.10169">
        <ele>11.8</ele>
        <time>2022-02-27T08:40:15Z</time>
      </trkpt>
      <trkpt lat="49.43588" lon="1.10169">
        <ele>11.9</ele>
        <time>2022-02-27T08:40:17Z</time>
      </trkpt>
      <trkpt lat="49.43585" lon="1.10183">
        <ele>12</ele>
        <time>2022-02-27T08:40:19Z</time>
      </trkpt>
      <trkpt lat="49.43582" lon="1.10189">
        <ele>12</ele>
        <time>2022-02-27T08:40:20Z</time>
      </trkpt>
      <trkpt lat="49.43581" lon="1.10193">
        <ele>12.1</ele>
        <time>2022-02-27T08:40:21Z</time>
      </trkpt>
      <trkpt lat="49.43579" lon="1.102">
        <ele>12.2</ele>
        <time>2022-02-27T08:40:22Z</time>
      </trkpt>
      <trkpt lat="49.43577" lon="1.10206">
        <ele>12.2</ele>
        <time>2022-02-27T08:40:24Z</time>
      </trkpt>
      <trkpt lat="49.43574" lon="1.10212">
        <ele>12.3</ele>
        <time>2022-02-27T08:40:25Z</time>
      </trkpt>
      <trkpt lat="49.43573" lon="1.10217">
        <ele>12.4</ele>
        <time>2022-02-27T08:40:26Z</time>
      </trkpt>
      <trkpt lat="49.43571" lon="1.10221">
        <ele>12.4</ele>
        <time>2022-02-27T08:40:27Z</time>
      </trkpt>
      <trkpt lat="49.43567" lon="1.10229">
        <ele>12.4</ele>
        <time>2022-02-27T08:40:28Z</time>
      </trkpt>
      <trkpt lat="49.43564" lon="1.10237">
        <ele>12.3</ele>
        <time>2022-02-27T08:40:29Z</time>
      </trkpt>
      <trkpt lat="49.4356" lon="1.10245">
        <ele>12.2</ele>
        <time>2022-02-27T08:40:30Z</time>
      </trkpt>
      <trkpt lat="49.43556" lon="1.10252">
        <ele>12.1</ele>
        <time>2022-02-27T08:40:31Z</time>
      </trkpt>
      <trkpt lat="49.43553" lon="1.10258">
        <ele>12</ele>
        <time>2022-02-27T08:40:32Z</time>
      </trkpt>
      <trkpt lat="49.4355" lon="1.10263">
        <ele>11.9</ele>
        <time>2022-02-27T08:40:33Z</time>
      </trkpt>
      <trkpt lat="49.43547" lon="1.1027">
        <ele>11.8</ele>
        <time>2022-02-27T08:40:34Z</time>
      </trkpt>
      <trkpt lat="49.43543" lon="1.10278">
        <ele>11.6</ele>
        <time>2022-02-27T08:40:35Z</time>
      </trkpt>
      <trkpt lat="49.43539" lon="1.10286">
        <ele>11.5</ele>
        <time>2022-02-27T08:40:36Z</time>
      </trkpt>
      <trkpt lat="49.43535" lon="1.10295">
        <ele>11.3</ele>
        <time>2022-02-27T08:40:37Z</time>
      </trkpt>
      <trkpt lat="49.4353" lon="1.10304">
        <ele>11.1</ele>
        <time>2022-02-27T08:40:38Z</time>
      </trkpt>
      <trkpt lat="49.43524" lon="1.10312">
        <ele>10.9</ele>
        <time>2022-02-27T08:40:39Z</time>
      </trkpt>
      <trkpt lat="49.43519" lon="1.10321">
        <ele>10.7</ele>
        <time>2022-02-27T08:40:40Z</time>
      </trkpt>
      <trkpt lat="49.43514" lon="1.10328">
        <ele>10.4</ele>
        <time>2022-02-27T08:40:41Z</time>
      </trkpt>
      <trkpt lat="49.43508" lon="1.10331">
        <ele>10.2</ele>
        <time>2022-02-27T08:40:42Z</time>
      </trkpt>
      <trkpt lat="49.43503" lon="1.10335">
        <ele>10</ele>
        <time>2022-02-27T08:40:43Z</time>
      </trkpt>
      <trkpt lat="49.43498" lon="1.10341">
        <ele>9.7</ele>
        <time>2022-02-27T08:40:44Z</time>
      </trkpt>
      <trkpt lat="49.43493" lon="1.10346">
        <ele>9.5</ele>
        <time>2022-02-27T08:40:45Z</time>
      </trkpt>
      <trkpt lat="49.43487" lon="1.10352">
        <ele>9.2</ele>
        <time>2022-02-27T08:40:46Z</time>
      </trkpt>
      <trkpt lat="49.43482" lon="1.10357">
        <ele>8.9</ele>
        <time>2022-02-27T08:40:47Z</time>
      </trkpt>
      <trkpt lat="49.43477" lon="1.10362">
        <ele>8.6</ele>
        <time>2022-02-27T08:40:48Z</time>
      </trkpt>
      <trkpt lat="49.43473" lon="1.10368">
        <ele>8.4</ele>
        <time>2022-02-27T08:40:49Z</time>
      </trkpt>
      <trkpt lat="49.43467" lon="1.10374">
        <ele>8.1</ele>
        <time>2022-02-27T08:40:50Z</time>
      </trkpt>
      <trkpt lat="49.43462" lon="1.1038">
        <ele>7.8</ele>
        <time>2022-02-27T08:40:51Z</time>
      </trkpt>
      <trkpt lat="49.43457" lon="1.10386">
        <ele>7.6</ele>
        <time>2022-02-27T08:40:52Z</time>
      </trkpt>
      <trkpt lat="49.43452" lon="1.10391">
        <ele>7.3</ele>
        <time>2022-02-27T08:40:53Z</time>
      </trkpt>
      <trkpt lat="49.43446" lon="1.10396">
        <ele>7.1</ele>
        <time>2022-02-27T08:40:54Z</time>
      </trkpt>
      <trkpt lat="49.4344" lon="1.10402">
        <ele>6.9</ele>
        <time>2022-02-27T08:40:55Z</time>
      </trkpt>
      <trkpt lat="49.43435" lon="1.10406">
        <ele>6.7</ele>
        <time>2022-02-27T08:40:56Z</time>
      </trkpt>
      <trkpt lat="49.4343" lon="1.1041">
        <ele>6.5</ele>
        <time>2022-02-27T08:40:57Z</time>
      </trkpt>
      <trkpt lat="49.43424" lon="1.10413">
        <ele>6.3</ele>
        <time>2022-02-27T08:40:58Z</time>
      </trkpt>
      <trkpt lat="49.43419" lon="1.10418">
        <ele>6.2</ele>
        <time>2022-02-27T08:40:59Z</time>
      </trkpt>
      <trkpt lat="49.43414" lon="1.10423">
        <ele>6.2</ele>
        <time>2022-02-27T08:41:00Z</time>
      </trkpt>
      <trkpt lat="49.43409" lon="1.10427">
        <ele>6.1</ele>
        <time>2022-02-27T08:41:01Z</time>
      </trkpt>
      <trkpt lat="49.43404" lon="1.10431">
        <ele>6.1</ele>
        <time>2022-02-27T08:41:02Z</time>
      </trkpt>
      <trkpt lat="49.43399" lon="1.10432">
        <ele>6.1</ele>
        <time>2022-02-27T08:41:03Z</time>
      </trkpt>
      <trkpt lat="49.43396" lon="1.10431">
        <ele>6.1</ele>
        <time>2022-02-27T08:41:04Z</time>
      </trkpt>
      <trkpt lat="49.43392" lon="1.1043">
        <ele>6.1</ele>
        <time>2022-02-27T08:41:05Z</time>
      </trkpt>
      <trkpt lat="49.43391" lon="1.10429">
        <ele>6.1</ele>
        <time>2022-02-27T08:41:06Z</time>
      </trkpt>
      <trkpt lat="49.43386" lon="1.1043">
        <ele>6.1</ele>
        <time>2022-02-27T08:41:07Z</time>
      </trkpt>
      <trkpt lat="49.43383" lon="1.10434">
        <ele>6.1</ele>
        <time>2022-02-27T08:41:08Z</time>
      </trkpt>
      <trkpt lat="49.43379" lon="1.10438">
        <ele>6.1</ele>
        <time>2022-02-27T08:41:09Z</time>
      </trkpt>
      <trkpt lat="49.43375" lon="1.10442">
        <ele>6.1</ele>
        <time>2022-02-27T08:41:10Z</time>
      </trkpt>
      <trkpt lat="49.43372" lon="1.10444">
        <ele>6.1</ele>
        <time>2022-02-27T08:41:11Z</time>
      </trkpt>
      <trkpt lat="49.43368" lon="1.10449">
        <ele>6.1</ele>
        <time>2022-02-27T08:41:13Z</time>
      </trkpt>
      <trkpt lat="49.43364" lon="1.10452">
        <ele>6</ele>
        <time>2022-02-27T08:41:14Z</time>
      </trkpt>
      <trkpt lat="49.43363" lon="1.10454">
        <ele>6</ele>
        <time>2022-02-27T08:41:15Z</time>
      </trkpt>
      <trkpt lat="49.43361" lon="1.10457">
        <ele>6</ele>
        <time>2022-02-27T08:41:16Z</time>
      </trkpt>
      <trkpt lat="49.43358" lon="1.10461">
        <ele>6</ele>
        <time>2022-02-27T08:41:17Z</time>
      </trkpt>
      <trkpt lat="49.43355" lon="1.10463">
        <ele>6</ele>
        <time>2022-02-27T08:41:18Z</time>
      </trkpt>
      <trkpt lat="49.43353" lon="1.10467">
        <ele>6</ele>
        <time>2022-02-27T08:41:19Z</time>
      </trkpt>
      <trkpt lat="49.43352" lon="1.10468">
        <ele>6</ele>
        <time>2022-02-27T08:41:20Z</time>
      </trkpt>
      <trkpt lat="49.43349" lon="1.10472">
        <ele>6</ele>
        <time>2022-02-27T08:41:21Z</time>
      </trkpt>
      <trkpt lat="49.43346" lon="1.10476">
        <ele>6.1</ele>
        <time>2022-02-27T08:41:22Z</time>
      </trkpt>
      <trkpt lat="49.43343" lon="1.10479">
        <ele>6.1</ele>
        <time>2022-02-27T08:41:23Z</time>
      </trkpt>
      <trkpt lat="49.4334" lon="1.10481">
        <ele>6.1</ele>
        <time>2022-02-27T08:41:24Z</time>
      </trkpt>
      <trkpt lat="49.43337" lon="1.10483">
        <ele>6.1</ele>
        <time>2022-02-27T08:41:25Z</time>
      </trkpt>
      <trkpt lat="49.43332" lon="1.10486">
        <ele>6.1</ele>
        <time>2022-02-27T08:41:26Z</time>
      </trkpt>
      <trkpt lat="49.43321" lon="1.10492">
        <ele>6.1</ele>
        <time>2022-02-27T08:41:27Z</time>
      </trkpt>
      <trkpt lat="49.43314" lon="1.10499">
        <ele>6.1</ele>
        <time>2022-02-27T08:41:28Z</time>
      </trkpt>
      <trkpt lat="49.4331" lon="1.10503">
        <ele>6.1</ele>
        <time>2022-02-27T08:41:29Z</time>
      </trkpt>
      <trkpt lat="49.43304" lon="1.10509">
        <ele>6.1</ele>
        <time>2022-02-27T08:41:30Z</time>
      </trkpt>
      <trkpt lat="49.43299" lon="1.10515">
        <ele>6</ele>
        <time>2022-02-27T08:41:31Z</time>
      </trkpt>
      <trkpt lat="49.43294" lon="1.10521">
        <ele>6</ele>
        <time>2022-02-27T08:41:32Z</time>
      </trkpt>
      <trkpt lat="49.4329" lon="1.10526">
        <ele>6</ele>
        <time>2022-02-27T08:41:33Z</time>
      </trkpt>
      <trkpt lat="49.43285" lon="1.10533">
        <ele>6</ele>
        <time>2022-02-27T08:41:34Z</time>
      </trkpt>
      <trkpt lat="49.4328" lon="1.10539">
        <ele>6</ele>
        <time>2022-02-27T08:41:35Z</time>
      </trkpt>
      <trkpt lat="49.43276" lon="1.10545">
        <ele>6</ele>
        <time>2022-02-27T08:41:36Z</time>
      </trkpt>
      <trkpt lat="49.43272" lon="1.1055">
        <ele>6.1</ele>
        <time>2022-02-27T08:41:37Z</time>
      </trkpt>
      <trkpt lat="49.43267" lon="1.10555">
        <ele>6.1</ele>
        <time>2022-02-27T08:41:38Z</time>
      </trkpt>
      <trkpt lat="49.43263" lon="1.1056">
        <ele>6.1</ele>
        <time>2022-02-27T08:41:39Z</time>
      </trkpt>
      <trkpt lat="49.43259" lon="1.10565">
        <ele>6.1</ele>
        <time>2022-02-27T08:41:40Z</time>
      </trkpt>
      <trkpt lat="49.43255" lon="1.10569">
        <ele>6.1</ele>
        <time>2022-02-27T08:41:41Z</time>
      </trkpt>
      <trkpt lat="49.4325" lon="1.10573">
        <ele>6.1</ele>
        <time>2022-02-27T08:41:42Z</time>
      </trkpt>
      <trkpt lat="49.43246" lon="1.10578">
        <ele>6.1</ele>
        <time>2022-02-27T08:41:43Z</time>
      </trkpt>
      <trkpt lat="49.43243" lon="1.10581">
        <ele>6.1</ele>
        <time>2022-02-27T08:41:44Z</time>
      </trkpt>
      <trkpt lat="49.43239" lon="1.10585">
        <ele>6.1</ele>
        <time>2022-02-27T08:41:45Z</time>
      </trkpt>
      <trkpt lat="49.43235" lon="1.1059">
        <ele>6.1</ele>
        <time>2022-02-27T08:41:46Z</time>
      </trkpt>
      <trkpt lat="49.43231" lon="1.10596">
        <ele>6.1</ele>
        <time>2022-02-27T08:41:47Z</time>
      </trkpt>
      <trkpt lat="49.43227" lon="1.106">
        <ele>6.1</ele>
        <time>2022-02-27T08:41:48Z</time>
      </trkpt>
      <trkpt lat="49.43223" lon="1.10605">
        <ele>6.1</ele>
        <time>2022-02-27T08:41:49Z</time>
      </trkpt>
      <trkpt lat="49.43219" lon="1.1061">
        <ele>6.2</ele>
        <time>2022-02-27T08:41:50Z</time>
      </trkpt>
      <trkpt lat="49.43215" lon="1.10615">
        <ele>6.2</ele>
        <time>2022-02-27T08:41:51Z</time>
      </trkpt>
      <trkpt lat="49.43211" lon="1.1062">
        <ele>6.2</ele>
        <time>2022-02-27T08:41:52Z</time>
      </trkpt>
      <trkpt lat="49.43207" lon="1.10624">
        <ele>6.2</ele>
        <time>2022-02-27T08:41:53Z</time>
      </trkpt>
      <trkpt lat="49.43203" lon="1.10628">
        <ele>6.2</ele>
        <time>2022-02-27T08:41:54Z</time>
      </trkpt>
      <trkpt lat="49.43199" lon="1.10632">
        <ele>6.2</ele>
        <time>2022-02-27T08:41:55Z</time>
      </trkpt>
      <trkpt lat="49.43195" lon="1.10636">
        <ele>6.2</ele>
        <time>2022-02-27T08:41:56Z</time>
      </trkpt>
      <trkpt lat="49.43191" lon="1.10641">
        <ele>6.2</ele>
        <time>2022-02-27T08:41:57Z</time>
      </trkpt>
      <trkpt lat="49.43187" lon="1.10645">
        <ele>6.2</ele>
        <time>2022-02-27T08:41:58Z</time>
      </trkpt>
      <trkpt lat="49.43185" lon="1.10648">
        <ele>6.2</ele>
        <time>2022-02-27T08:41:59Z</time>
      </trkpt>
      <trkpt lat="49.43181" lon="1.10651">
        <ele>6.2</ele>
        <time>2022-02-27T08:42:00Z</time>
      </trkpt>
      <trkpt lat="49.43177" lon="1.10655">
        <ele>6.2</ele>
        <time>2022-02-27T08:42:01Z</time>
      </trkpt>
      <trkpt lat="49.43172" lon="1.1066">
        <ele>6.2</ele>
        <time>2022-02-27T08:42:02Z</time>
      </trkpt>
      <trkpt lat="49.43168" lon="1.10665">
        <ele>6.2</ele>
        <time>2022-02-27T08:42:03Z</time>
      </trkpt>
      <trkpt lat="49.43163" lon="1.1067">
        <ele>6.2</ele>
        <time>2022-02-27T08:42:04Z</time>
      </trkpt>
      <trkpt lat="49.43158" lon="1.10674">
        <ele>6.2</ele>
        <time>2022-02-27T08:42:05Z</time>
      </trkpt>
      <trkpt lat="49.43154" lon="1.10679">
        <ele>6.3</ele>
        <time>2022-02-27T08:42:06Z</time>
      </trkpt>
      <trkpt lat="49.4315" lon="1.10683">
        <ele>6.3</ele>
        <time>2022-02-27T08:42:07Z</time>
      </trkpt>
      <trkpt lat="49.43146" lon="1.10688">
        <ele>6.3</ele>
        <time>2022-02-27T08:42:08Z</time>
      </trkpt>
      <trkpt lat="49.43142" lon="1.10692">
        <ele>6.3</ele>
        <time>2022-02-27T08:42:09Z</time>
      </trkpt>
      <trkpt lat="49.43138" lon="1.10696">
        <ele>6.3</ele>
        <time>2022-02-27T08:42:10Z</time>
      </trkpt>
      <trkpt lat="49.43134" lon="1.10701">
        <ele>6.3</ele>
        <time>2022-02-27T08:42:11Z</time>
      </trkpt>
      <trkpt lat="49.4313" lon="1.10705">
        <ele>6.3</ele>
        <time>2022-02-27T08:42:12Z</time>
      </trkpt>
      <trkpt lat="49.43125" lon="1.1071">
        <ele>6.3</ele>
        <time>2022-02-27T08:42:13Z</time>
      </trkpt>
      <trkpt lat="49.43121" lon="1.10715">
        <ele>6.3</ele>
        <time>2022-02-27T08:42:14Z</time>
      </trkpt>
      <trkpt lat="49.43117" lon="1.10719">
        <ele>6.3</ele>
        <time>2022-02-27T08:42:15Z</time>
      </trkpt>
      <trkpt lat="49.43112" lon="1.10724">
        <ele>6.3</ele>
        <time>2022-02-27T08:42:16Z</time>
      </trkpt>
      <trkpt lat="49.43109" lon="1.10729">
        <ele>6.3</ele>
        <time>2022-02-27T08:42:17Z</time>
      </trkpt>
      <trkpt lat="49.43105" lon="1.10733">
        <ele>6.3</ele>
        <time>2022-02-27T08:42:18Z</time>
      </trkpt>
      <trkpt lat="49.43101" lon="1.10738">
        <ele>6.3</ele>
        <time>2022-02-27T08:42:19Z</time>
      </trkpt>
      <trkpt lat="49.43097" lon="1.10743">
        <ele>6.3</ele>
        <time>2022-02-27T08:42:20Z</time>
      </trkpt>
      <trkpt lat="49.43093" lon="1.10748">
        <ele>6.3</ele>
        <time>2022-02-27T08:42:21Z</time>
      </trkpt>
      <trkpt lat="49.43088" lon="1.10753">
        <ele>6.3</ele>
        <time>2022-02-27T08:42:22Z</time>
      </trkpt>
      <trkpt lat="49.43084" lon="1.10757">
        <ele>6.3</ele>
        <time>2022-02-27T08:42:23Z</time>
      </trkpt>
      <trkpt lat="49.43079" lon="1.10762">
        <ele>6.3</ele>
        <time>2022-02-27T08:42:24Z</time>
      </trkpt>
      <trkpt lat="49.43075" lon="1.10766">
        <ele>6.3</ele>
        <time>2022-02-27T08:42:25Z</time>
      </trkpt>
      <trkpt lat="49.4307" lon="1.1077">
        <ele>6.3</ele>
        <time>2022-02-27T08:42:26Z</time>
      </trkpt>
      <trkpt lat="49.43066" lon="1.10775">
        <ele>6.3</ele>
        <time>2022-02-27T08:42:27Z</time>
      </trkpt>
      <trkpt lat="49.43061" lon="1.1078">
        <ele>6.3</ele>
        <time>2022-02-27T08:42:28Z</time>
      </trkpt>
      <trkpt lat="49.43057" lon="1.10785">
        <ele>6.3</ele>
        <time>2022-02-27T08:42:29Z</time>
      </trkpt>
      <trkpt lat="49.43053" lon="1.1079">
        <ele>6.3</ele>
        <time>2022-02-27T08:42:30Z</time>
      </trkpt>
      <trkpt lat="49.4305" lon="1.10794">
        <ele>6.3</ele>
        <time>2022-02-27T08:42:31Z</time>
      </trkpt>
      <trkpt lat="49.43046" lon="1.10798">
        <ele>6.3</ele>
        <time>2022-02-27T08:42:32Z</time>
      </trkpt>
      <trkpt lat="49.43043" lon="1.10803">
        <ele>6.3</ele>
        <time>2022-02-27T08:42:33Z</time>
      </trkpt>
      <trkpt lat="49.43039" lon="1.10808">
        <ele>6.3</ele>
        <time>2022-02-27T08:42:34Z</time>
      </trkpt>
      <trkpt lat="49.43035" lon="1.10812">
        <ele>6.3</ele>
        <time>2022-02-27T08:42:35Z</time>
      </trkpt>
      <trkpt lat="49.43031" lon="1.10817">
        <ele>6.3</ele>
        <time>2022-02-27T08:42:36Z</time>
      </trkpt>
      <trkpt lat="49.43026" lon="1.10821">
        <ele>6.3</ele>
        <time>2022-02-27T08:42:37Z</time>
      </trkpt>
      <trkpt lat="49.43022" lon="1.10824">
        <ele>6.3</ele>
        <time>2022-02-27T08:42:38Z</time>
      </trkpt>
      <trkpt lat="49.43017" lon="1.10827">
        <ele>6.3</ele>
        <time>2022-02-27T08:42:39Z</time>
      </trkpt>
      <trkpt lat="49.43013" lon="1.1083">
        <ele>6.4</ele>
        <time>2022-02-27T08:42:40Z</time>
      </trkpt>
      <trkpt lat="49.43007" lon="1.10834">
        <ele>6.4</ele>
        <time>2022-02-27T08:42:41Z</time>
      </trkpt>
      <trkpt lat="49.43002" lon="1.10838">
        <ele>6.4</ele>
        <time>2022-02-27T08:42:42Z</time>
      </trkpt>
      <trkpt lat="49.42998" lon="1.10842">
        <ele>6.4</ele>
        <time>2022-02-27T08:42:43Z</time>
      </trkpt>
      <trkpt lat="49.42994" lon="1.10847">
        <ele>6.4</ele>
        <time>2022-02-27T08:42:44Z</time>
      </trkpt>
      <trkpt lat="49.42991" lon="1.10851">
        <ele>6.4</ele>
        <time>2022-02-27T08:42:45Z</time>
      </trkpt>
      <trkpt lat="49.42987" lon="1.10855">
        <ele>6.4</ele>
        <time>2022-02-27T08:42:46Z</time>
      </trkpt>
      <trkpt lat="49.42982" lon="1.10859">
        <ele>6.4</ele>
        <time>2022-02-27T08:42:47Z</time>
      </trkpt>
      <trkpt lat="49.42977" lon="1.10863">
        <ele>6.4</ele>
        <time>2022-02-27T08:42:48Z</time>
      </trkpt>
      <trkpt lat="49.42973" lon="1.10868">
        <ele>6.4</ele>
        <time>2022-02-27T08:42:49Z</time>
      </trkpt>
      <trkpt lat="49.42969" lon="1.10874">
        <ele>6.4</ele>
        <time>2022-02-27T08:42:50Z</time>
      </trkpt>
      <trkpt lat="49.42964" lon="1.10878">
        <ele>6.4</ele>
        <time>2022-02-27T08:42:51Z</time>
      </trkpt>
      <trkpt lat="49.4296" lon="1.10883">
        <ele>6.4</ele>
        <time>2022-02-27T08:42:52Z</time>
      </trkpt>
      <trkpt lat="49.42956" lon="1.10888">
        <ele>6.3</ele>
        <time>2022-02-27T08:42:53Z</time>
      </trkpt>
      <trkpt lat="49.42952" lon="1.10893">
        <ele>6.3</ele>
        <time>2022-02-27T08:42:54Z</time>
      </trkpt>
      <trkpt lat="49.42948" lon="1.10898">
        <ele>6.3</ele>
        <time>2022-02-27T08:42:55Z</time>
      </trkpt>
      <trkpt lat="49.42943" lon="1.10902">
        <ele>6.3</ele>
        <time>2022-02-27T08:42:56Z</time>
      </trkpt>
      <trkpt lat="49.42939" lon="1.10905">
        <ele>6.3</ele>
        <time>2022-02-27T08:42:57Z</time>
      </trkpt>
      <trkpt lat="49.42935" lon="1.10909">
        <ele>6.3</ele>
        <time>2022-02-27T08:42:58Z</time>
      </trkpt>
      <trkpt lat="49.42931" lon="1.10912">
        <ele>6.3</ele>
        <time>2022-02-27T08:42:59Z</time>
      </trkpt>
      <trkpt lat="49.42926" lon="1.10916">
        <ele>6.3</ele>
        <time>2022-02-27T08:43:00Z</time>
      </trkpt>
      <trkpt lat="49.42922" lon="1.10921">
        <ele>6.3</ele>
        <time>2022-02-27T08:43:01Z</time>
      </trkpt>
      <trkpt lat="49.42918" lon="1.10925">
        <ele>6.3</ele>
        <time>2022-02-27T08:43:02Z</time>
      </trkpt>
      <trkpt lat="49.42914" lon="1.10929">
        <ele>6.3</ele>
        <time>2022-02-27T08:43:03Z</time>
      </trkpt>
      <trkpt lat="49.4291" lon="1.10934">
        <ele>6.3</ele>
        <time>2022-02-27T08:43:04Z</time>
      </trkpt>
      <trkpt lat="49.42906" lon="1.10939">
        <ele>6.3</ele>
        <time>2022-02-27T08:43:05Z</time>
      </trkpt>
      <trkpt lat="49.42901" lon="1.10943">
        <ele>6.2</ele>
        <time>2022-02-27T08:43:06Z</time>
      </trkpt>
      <trkpt lat="49.42897" lon="1.10947">
        <ele>6.2</ele>
        <time>2022-02-27T08:43:07Z</time>
      </trkpt>
      <trkpt lat="49.42892" lon="1.10952">
        <ele>6.2</ele>
        <time>2022-02-27T08:43:08Z</time>
      </trkpt>
      <trkpt lat="49.42888" lon="1.10956">
        <ele>6.2</ele>
        <time>2022-02-27T08:43:09Z</time>
      </trkpt>
      <trkpt lat="49.42885" lon="1.10962">
        <ele>6.2</ele>
        <time>2022-02-27T08:43:10Z</time>
      </trkpt>
      <trkpt lat="49.42881" lon="1.10967">
        <ele>6.2</ele>
        <time>2022-02-27T08:43:11Z</time>
      </trkpt>
      <trkpt lat="49.42877" lon="1.10971">
        <ele>6.2</ele>
        <time>2022-02-27T08:43:12Z</time>
      </trkpt>
      <trkpt lat="49.42873" lon="1.10975">
        <ele>6.2</ele>
        <time>2022-02-27T08:43:13Z</time>
      </trkpt>
      <trkpt lat="49.42869" lon="1.1098">
        <ele>6.2</ele>
        <time>2022-02-27T08:43:14Z</time>
      </trkpt>
      <trkpt lat="49.42865" lon="1.10984">
        <ele>6.2</ele>
        <time>2022-02-27T08:43:15Z</time>
      </trkpt>
      <trkpt lat="49.42861" lon="1.10988">
        <ele>6.2</ele>
        <time>2022-02-27T08:43:16Z</time>
      </trkpt>
      <trkpt lat="49.42857" lon="1.10993">
        <ele>6.2</ele>
        <time>2022-02-27T08:43:17Z</time>
      </trkpt>
      <trkpt lat="49.42852" lon="1.10996">
        <ele>6.2</ele>
        <time>2022-02-27T08:43:18Z</time>
      </trkpt>
      <trkpt lat="49.42848" lon="1.11">
        <ele>6.2</ele>
        <time>2022-02-27T08:43:19Z</time>
      </trkpt>
      <trkpt lat="49.42844" lon="1.11005">
        <ele>6.2</ele>
        <time>2022-02-27T08:43:20Z</time>
      </trkpt>
      <trkpt lat="49.4284" lon="1.11009">
        <ele>6.2</ele>
        <time>2022-02-27T08:43:21Z</time>
      </trkpt>
      <trkpt lat="49.42835" lon="1.11014">
        <ele>6.2</ele>
        <time>2022-02-27T08:43:22Z</time>
      </trkpt>
      <trkpt lat="49.42831" lon="1.11018">
        <ele>6.2</ele>
        <time>2022-02-27T08:43:23Z</time>
      </trkpt>
      <trkpt lat="49.42826" lon="1.11022">
        <ele>6.2</ele>
        <time>2022-02-27T08:43:24Z</time>
      </trkpt>
      <trkpt lat="49.42822" lon="1.11025">
        <ele>6.1</ele>
        <time>2022-02-27T08:43:25Z</time>
      </trkpt>
      <trkpt lat="49.42817" lon="1.11028">
        <ele>6.1</ele>
        <time>2022-02-27T08:43:26Z</time>
      </trkpt>
      <trkpt lat="49.42812" lon="1.11032">
        <ele>6.1</ele>
        <time>2022-02-27T08:43:27Z</time>
      </trkpt>
      <trkpt lat="49.42808" lon="1.11035">
        <ele>6.1</ele>
        <time>2022-02-27T08:43:28Z</time>
      </trkpt>
      <trkpt lat="49.42805" lon="1.11038">
        <ele>6.1</ele>
        <time>2022-02-27T08:43:29Z</time>
      </trkpt>
      <trkpt lat="49.42801" lon="1.1104">
        <ele>6.1</ele>
        <time>2022-02-27T08:43:30Z</time>
      </trkpt>
      <trkpt lat="49.42797" lon="1.11043">
        <ele>6.1</ele>
        <time>2022-02-27T08:43:31Z</time>
      </trkpt>
      <trkpt lat="49.42793" lon="1.11047">
        <ele>6.1</ele>
        <time>2022-02-27T08:43:32Z</time>
      </trkpt>
      <trkpt lat="49.42788" lon="1.1105">
        <ele>6.1</ele>
        <time>2022-02-27T08:43:33Z</time>
      </trkpt>
      <trkpt lat="49.42784" lon="1.11054">
        <ele>6.1</ele>
        <time>2022-02-27T08:43:34Z</time>
      </trkpt>
      <trkpt lat="49.42779" lon="1.11058">
        <ele>6.2</ele>
        <time>2022-02-27T08:43:35Z</time>
      </trkpt>
      <trkpt lat="49.42774" lon="1.11063">
        <ele>6.2</ele>
        <time>2022-02-27T08:43:36Z</time>
      </trkpt>
      <trkpt lat="49.42772" lon="1.11065">
        <ele>6.2</ele>
        <time>2022-02-27T08:43:37Z</time>
      </trkpt>
      <trkpt lat="49.42768" lon="1.11068">
        <ele>6.2</ele>
        <time>2022-02-27T08:43:38Z</time>
      </trkpt>
      <trkpt lat="49.42767" lon="1.1107">
        <ele>6.2</ele>
        <time>2022-02-27T08:43:39Z</time>
      </trkpt>
      <trkpt lat="49.42762" lon="1.11077">
        <ele>6.2</ele>
        <time>2022-02-27T08:43:41Z</time>
      </trkpt>
      <trkpt lat="49.42748" lon="1.11087">
        <ele>6.2</ele>
        <time>2022-02-27T08:43:42Z</time>
      </trkpt>
      <trkpt lat="49.42741" lon="1.11089">
        <ele>6.1</ele>
        <time>2022-02-27T08:43:43Z</time>
      </trkpt>
      <trkpt lat="49.42735" lon="1.11091">
        <ele>6.1</ele>
        <time>2022-02-27T08:43:44Z</time>
      </trkpt>
      <trkpt lat="49.42729" lon="1.11093">
        <ele>6</ele>
        <time>2022-02-27T08:43:45Z</time>
      </trkpt>
      <trkpt lat="49.42723" lon="1.11095">
        <ele>6</ele>
        <time>2022-02-27T08:43:46Z</time>
      </trkpt>
      <trkpt lat="49.42718" lon="1.11096">
        <ele>6</ele>
        <time>2022-02-27T08:43:47Z</time>
      </trkpt>
      <trkpt lat="49.42712" lon="1.11098">
        <ele>6</ele>
        <time>2022-02-27T08:43:48Z</time>
      </trkpt>
      <trkpt lat="49.42708" lon="1.11101">
        <ele>5.9</ele>
        <time>2022-02-27T08:43:49Z</time>
      </trkpt>
      <trkpt lat="49.42704" lon="1.11104">
        <ele>5.9</ele>
        <time>2022-02-27T08:43:50Z</time>
      </trkpt>
      <trkpt lat="49.42699" lon="1.11107">
        <ele>5.9</ele>
        <time>2022-02-27T08:43:51Z</time>
      </trkpt>
      <trkpt lat="49.42695" lon="1.11109">
        <ele>5.9</ele>
        <time>2022-02-27T08:43:52Z</time>
      </trkpt>
      <trkpt lat="49.4269" lon="1.11111">
        <ele>5.9</ele>
        <time>2022-02-27T08:43:53Z</time>
      </trkpt>
      <trkpt lat="49.42688" lon="1.11113">
        <ele>5.9</ele>
        <time>2022-02-27T08:43:54Z</time>
      </trkpt>
      <trkpt lat="49.42683" lon="1.11117">
        <ele>5.9</ele>
        <time>2022-02-27T08:43:55Z</time>
      </trkpt>
      <trkpt lat="49.4268" lon="1.11121">
        <ele>5.9</ele>
        <time>2022-02-27T08:43:56Z</time>
      </trkpt>
      <trkpt lat="49.42676" lon="1.11124">
        <ele>5.9</ele>
        <time>2022-02-27T08:43:57Z</time>
      </trkpt>
      <trkpt lat="49.42672" lon="1.11128">
        <ele>5.9</ele>
        <time>2022-02-27T08:43:58Z</time>
      </trkpt>
      <trkpt lat="49.42668" lon="1.11131">
        <ele>5.8</ele>
        <time>2022-02-27T08:43:59Z</time>
      </trkpt>
      <trkpt lat="49.42663" lon="1.11133">
        <ele>5.8</ele>
        <time>2022-02-27T08:44:00Z</time>
      </trkpt>
      <trkpt lat="49.42658" lon="1.11135">
        <ele>5.9</ele>
        <time>2022-02-27T08:44:01Z</time>
      </trkpt>
      <trkpt lat="49.42653" lon="1.11136">
        <ele>5.9</ele>
        <time>2022-02-27T08:44:02Z</time>
      </trkpt>
      <trkpt lat="49.42648" lon="1.11139">
        <ele>5.9</ele>
        <time>2022-02-27T08:44:03Z</time>
      </trkpt>
      <trkpt lat="49.42643" lon="1.11141">
        <ele>5.9</ele>
        <time>2022-02-27T08:44:04Z</time>
      </trkpt>
      <trkpt lat="49.42637" lon="1.11142">
        <ele>5.9</ele>
        <time>2022-02-27T08:44:05Z</time>
      </trkpt>
      <trkpt lat="49.42632" lon="1.11143">
        <ele>5.9</ele>
        <time>2022-02-27T08:44:06Z</time>
      </trkpt>
      <trkpt lat="49.42628" lon="1.11146">
        <ele>5.9</ele>
        <time>2022-02-27T08:44:07Z</time>
      </trkpt>
      <trkpt lat="49.42623" lon="1.11148">
        <ele>5.9</ele>
        <time>2022-02-27T08:44:08Z</time>
      </trkpt>
      <trkpt lat="49.42617" lon="1.11151">
        <ele>5.9</ele>
        <time>2022-02-27T08:44:09Z</time>
      </trkpt>
      <trkpt lat="49.42612" lon="1.11151">
        <ele>5.9</ele>
        <time>2022-02-27T08:44:10Z</time>
      </trkpt>
      <trkpt lat="49.42607" lon="1.11153">
        <ele>5.9</ele>
        <time>2022-02-27T08:44:11Z</time>
      </trkpt>
      <trkpt lat="49.42602" lon="1.11155">
        <ele>5.9</ele>
        <time>2022-02-27T08:44:12Z</time>
      </trkpt>
      <trkpt lat="49.42597" lon="1.11157">
        <ele>5.9</ele>
        <time>2022-02-27T08:44:13Z</time>
      </trkpt>
      <trkpt lat="49.42592" lon="1.1116">
        <ele>5.9</ele>
        <time>2022-02-27T08:44:14Z</time>
      </trkpt>
      <trkpt lat="49.42587" lon="1.11162">
        <ele>5.9</ele>
        <time>2022-02-27T08:44:15Z</time>
      </trkpt>
      <trkpt lat="49.42582" lon="1.11165">
        <ele>5.8</ele>
        <time>2022-02-27T08:44:16Z</time>
      </trkpt>
      <trkpt lat="49.42577" lon="1.11168">
        <ele>5.8</ele>
        <time>2022-02-27T08:44:17Z</time>
      </trkpt>
      <trkpt lat="49.42571" lon="1.1117">
        <ele>5.8</ele>
        <time>2022-02-27T08:44:18Z</time>
      </trkpt>
      <trkpt lat="49.42566" lon="1.11173">
        <ele>5.8</ele>
        <time>2022-02-27T08:44:19Z</time>
      </trkpt>
      <trkpt lat="49.42561" lon="1.11175">
        <ele>5.8</ele>
        <time>2022-02-27T08:44:20Z</time>
      </trkpt>
      <trkpt lat="49.42555" lon="1.11177">
        <ele>5.8</ele>
        <time>2022-02-27T08:44:21Z</time>
      </trkpt>
      <trkpt lat="49.4255" lon="1.11179">
        <ele>5.8</ele>
        <time>2022-02-27T08:44:22Z</time>
      </trkpt>
      <trkpt lat="49.42545" lon="1.11181">
        <ele>5.8</ele>
        <time>2022-02-27T08:44:23Z</time>
      </trkpt>
      <trkpt lat="49.4254" lon="1.11184">
        <ele>5.8</ele>
        <time>2022-02-27T08:44:24Z</time>
      </trkpt>
      <trkpt lat="49.42535" lon="1.11187">
        <ele>5.8</ele>
        <time>2022-02-27T08:44:25Z</time>
      </trkpt>
      <trkpt lat="49.4253" lon="1.1119">
        <ele>5.9</ele>
        <time>2022-02-27T08:44:26Z</time>
      </trkpt>
      <trkpt lat="49.42526" lon="1.11193">
        <ele>5.9</ele>
        <time>2022-02-27T08:44:27Z</time>
      </trkpt>
      <trkpt lat="49.42521" lon="1.11196">
        <ele>5.9</ele>
        <time>2022-02-27T08:44:28Z</time>
      </trkpt>
      <trkpt lat="49.42517" lon="1.11199">
        <ele>5.9</ele>
        <time>2022-02-27T08:44:29Z</time>
      </trkpt>
      <trkpt lat="49.42513" lon="1.11202">
        <ele>5.9</ele>
        <time>2022-02-27T08:44:30Z</time>
      </trkpt>
      <trkpt lat="49.42509" lon="1.11205">
        <ele>5.9</ele>
        <time>2022-02-27T08:44:31Z</time>
      </trkpt>
      <trkpt lat="49.42504" lon="1.11207">
        <ele>6</ele>
        <time>2022-02-27T08:44:32Z</time>
      </trkpt>
      <trkpt lat="49.42499" lon="1.1121">
        <ele>6</ele>
        <time>2022-02-27T08:44:33Z</time>
      </trkpt>
      <trkpt lat="49.42494" lon="1.11213">
        <ele>6</ele>
        <time>2022-02-27T08:44:34Z</time>
      </trkpt>
      <trkpt lat="49.42488" lon="1.11216">
        <ele>6</ele>
        <time>2022-02-27T08:44:35Z</time>
      </trkpt>
      <trkpt lat="49.42483" lon="1.11219">
        <ele>6</ele>
        <time>2022-02-27T08:44:36Z</time>
      </trkpt>
      <trkpt lat="49.42478" lon="1.11222">
        <ele>6</ele>
        <time>2022-02-27T08:44:37Z</time>
      </trkpt>
      <trkpt lat="49.42472" lon="1.11225">
        <ele>6</ele>
        <time>2022-02-27T08:44:38Z</time>
      </trkpt>
      <trkpt lat="49.42467" lon="1.11228">
        <ele>6</ele>
        <time>2022-02-27T08:44:39Z</time>
      </trkpt>
      <trkpt lat="49.42462" lon="1.11231">
        <ele>6</ele>
        <time>2022-02-27T08:44:40Z</time>
      </trkpt>
      <trkpt lat="49.42457" lon="1.11233">
        <ele>6</ele>
        <time>2022-02-27T08:44:41Z</time>
      </trkpt>
      <trkpt lat="49.42452" lon="1.11235">
        <ele>6.1</ele>
        <time>2022-02-27T08:44:42Z</time>
      </trkpt>
      <trkpt lat="49.42447" lon="1.11237">
        <ele>6.1</ele>
        <time>2022-02-27T08:44:43Z</time>
      </trkpt>
      <trkpt lat="49.42442" lon="1.11239">
        <ele>6.1</ele>
        <time>2022-02-27T08:44:44Z</time>
      </trkpt>
      <trkpt lat="49.42438" lon="1.11242">
        <ele>6.1</ele>
        <time>2022-02-27T08:44:45Z</time>
      </trkpt>
      <trkpt lat="49.42433" lon="1.11245">
        <ele>6.1</ele>
        <time>2022-02-27T08:44:46Z</time>
      </trkpt>
      <trkpt lat="49.42429" lon="1.11248">
        <ele>6.1</ele>
        <time>2022-02-27T08:44:47Z</time>
      </trkpt>
      <trkpt lat="49.42424" lon="1.11252">
        <ele>6.1</ele>
        <time>2022-02-27T08:44:48Z</time>
      </trkpt>
      <trkpt lat="49.4242" lon="1.11255">
        <ele>6.1</ele>
        <time>2022-02-27T08:44:49Z</time>
      </trkpt>
      <trkpt lat="49.42416" lon="1.11258">
        <ele>6.1</ele>
        <time>2022-02-27T08:44:50Z</time>
      </trkpt>
      <trkpt lat="49.42411" lon="1.11261">
        <ele>6.1</ele>
        <time>2022-02-27T08:44:51Z</time>
      </trkpt>
      <trkpt lat="49.42407" lon="1.11265">
        <ele>6.2</ele>
        <time>2022-02-27T08:44:52Z</time>
      </trkpt>
      <trkpt lat="49.42403" lon="1.11269">
        <ele>6.2</ele>
        <time>2022-02-27T08:44:53Z</time>
      </trkpt>
      <trkpt lat="49.424" lon="1.11271">
        <ele>6.2</ele>
        <time>2022-02-27T08:44:54Z</time>
      </trkpt>
      <trkpt lat="49.42398" lon="1.11274">
        <ele>6.2</ele>
        <time>2022-02-27T08:44:55Z</time>
      </trkpt>
      <trkpt lat="49.42394" lon="1.11276">
        <ele>6.2</ele>
        <time>2022-02-27T08:44:56Z</time>
      </trkpt>
      <trkpt lat="49.42391" lon="1.1128">
        <ele>6.2</ele>
        <time>2022-02-27T08:44:57Z</time>
      </trkpt>
      <trkpt lat="49.42387" lon="1.11283">
        <ele>6.2</ele>
        <time>2022-02-27T08:44:58Z</time>
      </trkpt>
      <trkpt lat="49.42383" lon="1.11287">
        <ele>6.2</ele>
        <time>2022-02-27T08:44:59Z</time>
      </trkpt>
      <trkpt lat="49.42378" lon="1.11291">
        <ele>6.2</ele>
        <time>2022-02-27T08:45:00Z</time>
      </trkpt>
      <trkpt lat="49.42373" lon="1.11294">
        <ele>6.2</ele>
        <time>2022-02-27T08:45:01Z</time>
      </trkpt>
      <trkpt lat="49.42367" lon="1.11297">
        <ele>6.2</ele>
        <time>2022-02-27T08:45:02Z</time>
      </trkpt>
      <trkpt lat="49.42362" lon="1.113">
        <ele>6.1</ele>
        <time>2022-02-27T08:45:03Z</time>
      </trkpt>
      <trkpt lat="49.42357" lon="1.11303">
        <ele>6.1</ele>
        <time>2022-02-27T08:45:04Z</time>
      </trkpt>
      <trkpt lat="49.42353" lon="1.11306">
        <ele>6.1</ele>
        <time>2022-02-27T08:45:05Z</time>
      </trkpt>
      <trkpt lat="49.42348" lon="1.1131">
        <ele>6.1</ele>
        <time>2022-02-27T08:45:06Z</time>
      </trkpt>
      <trkpt lat="49.42343" lon="1.11313">
        <ele>6.1</ele>
        <time>2022-02-27T08:45:07Z</time>
      </trkpt>
      <trkpt lat="49.42339" lon="1.11315">
        <ele>6.1</ele>
        <time>2022-02-27T08:45:08Z</time>
      </trkpt>
      <trkpt lat="49.42335" lon="1.11318">
        <ele>6.1</ele>
        <time>2022-02-27T08:45:09Z</time>
      </trkpt>
      <trkpt lat="49.4233" lon="1.11321">
        <ele>6.2</ele>
        <time>2022-02-27T08:45:10Z</time>
      </trkpt>
      <trkpt lat="49.42326" lon="1.11324">
        <ele>6.2</ele>
        <time>2022-02-27T08:45:11Z</time>
      </trkpt>
      <trkpt lat="49.42321" lon="1.11327">
        <ele>6.2</ele>
        <time>2022-02-27T08:45:12Z</time>
      </trkpt>
      <trkpt lat="49.42316" lon="1.11331">
        <ele>6.2</ele>
        <time>2022-02-27T08:45:13Z</time>
      </trkpt>
      <trkpt lat="49.42311" lon="1.11334">
        <ele>6.2</ele>
        <time>2022-02-27T08:45:14Z</time>
      </trkpt>
      <trkpt lat="49.42306" lon="1.11337">
        <ele>6.2</ele>
        <time>2022-02-27T08:45:15Z</time>
      </trkpt>
      <trkpt lat="49.42301" lon="1.11341">
        <ele>6.1</ele>
        <time>2022-02-27T08:45:16Z</time>
      </trkpt>
      <trkpt lat="49.42296" lon="1.11344">
        <ele>6.1</ele>
        <time>2022-02-27T08:45:17Z</time>
      </trkpt>
      <trkpt lat="49.42291" lon="1.11346">
        <ele>6.1</ele>
        <time>2022-02-27T08:45:18Z</time>
      </trkpt>
      <trkpt lat="49.42286" lon="1.11349">
        <ele>6</ele>
        <time>2022-02-27T08:45:19Z</time>
      </trkpt>
      <trkpt lat="49.42281" lon="1.11351">
        <ele>6</ele>
        <time>2022-02-27T08:45:20Z</time>
      </trkpt>
      <trkpt lat="49.42278" lon="1.11353">
        <ele>6</ele>
        <time>2022-02-27T08:45:21Z</time>
      </trkpt>
      <trkpt lat="49.42275" lon="1.11355">
        <ele>6</ele>
        <time>2022-02-27T08:45:22Z</time>
      </trkpt>
      <trkpt lat="49.42274" lon="1.11359">
        <ele>6</ele>
        <time>2022-02-27T08:45:23Z</time>
      </trkpt>
      <trkpt lat="49.42273" lon="1.11364">
        <ele>5.9</ele>
        <time>2022-02-27T08:45:24Z</time>
      </trkpt>
      <trkpt lat="49.42274" lon="1.11369">
        <ele>6.1</ele>
        <time>2022-02-27T08:45:25Z</time>
      </trkpt>
      <trkpt lat="49.42274" lon="1.11371">
        <ele>6.1</ele>
        <time>2022-02-27T08:45:26Z</time>
      </trkpt>
      <trkpt lat="49.42274" lon="1.11373">
        <ele>6.1</ele>
        <time>2022-02-27T08:45:27Z</time>
      </trkpt>
      <trkpt lat="49.42275" lon="1.11379">
        <ele>6.2</ele>
        <time>2022-02-27T08:45:29Z</time>
      </trkpt>
      <trkpt lat="49.42278" lon="1.11386">
        <ele>6.3</ele>
        <time>2022-02-27T08:45:30Z</time>
      </trkpt>
      <trkpt lat="49.4228" lon="1.11391">
        <ele>6.4</ele>
        <time>2022-02-27T08:45:31Z</time>
      </trkpt>
      <trkpt lat="49.42283" lon="1.11398">
        <ele>6.6</ele>
        <time>2022-02-27T08:45:32Z</time>
      </trkpt>
      <trkpt lat="49.42286" lon="1.11403">
        <ele>6.7</ele>
        <time>2022-02-27T08:45:33Z</time>
      </trkpt>
      <trkpt lat="49.42288" lon="1.11408">
        <ele>6.8</ele>
        <time>2022-02-27T08:45:34Z</time>
      </trkpt>
      <trkpt lat="49.4229" lon="1.11414">
        <ele>6.9</ele>
        <time>2022-02-27T08:45:35Z</time>
      </trkpt>
      <trkpt lat="49.42291" lon="1.1142">
        <ele>7.1</ele>
        <time>2022-02-27T08:45:36Z</time>
      </trkpt>
      <trkpt lat="49.42293" lon="1.11426">
        <ele>7.2</ele>
        <time>2022-02-27T08:45:37Z</time>
      </trkpt>
      <trkpt lat="49.42296" lon="1.11433">
        <ele>7.3</ele>
        <time>2022-02-27T08:45:38Z</time>
      </trkpt>
      <trkpt lat="49.42299" lon="1.11443">
        <ele>7.5</ele>
        <time>2022-02-27T08:45:39Z</time>
      </trkpt>
      <trkpt lat="49.42302" lon="1.11449">
        <ele>7.7</ele>
        <time>2022-02-27T08:45:40Z</time>
      </trkpt>
      <trkpt lat="49.42304" lon="1.11455">
        <ele>7.8</ele>
        <time>2022-02-27T08:45:41Z</time>
      </trkpt>
      <trkpt lat="49.42307" lon="1.1146">
        <ele>7.9</ele>
        <time>2022-02-27T08:45:42Z</time>
      </trkpt>
      <trkpt lat="49.42307" lon="1.11463">
        <ele>8</ele>
        <time>2022-02-27T08:45:43Z</time>
      </trkpt>
      <trkpt lat="49.42309" lon="1.11468">
        <ele>8.1</ele>
        <time>2022-02-27T08:45:44Z</time>
      </trkpt>
      <trkpt lat="49.42311" lon="1.11474">
        <ele>8.2</ele>
        <time>2022-02-27T08:45:45Z</time>
      </trkpt>
      <trkpt lat="49.42311" lon="1.11479">
        <ele>8.3</ele>
        <time>2022-02-27T08:45:46Z</time>
      </trkpt>
      <trkpt lat="49.42311" lon="1.11485">
        <ele>8.4</ele>
        <time>2022-02-27T08:45:47Z</time>
      </trkpt>
      <trkpt lat="49.42311" lon="1.11491">
        <ele>8.4</ele>
        <time>2022-02-27T08:45:49Z</time>
      </trkpt>
      <trkpt lat="49.42309" lon="1.11493">
        <ele>8.5</ele>
        <time>2022-02-27T08:45:50Z</time>
      </trkpt>
      <trkpt lat="49.42304" lon="1.11492">
        <ele>8.5</ele>
        <time>2022-02-27T08:45:52Z</time>
      </trkpt>
      <trkpt lat="49.423" lon="1.11495">
        <ele>8.5</ele>
        <time>2022-02-27T08:45:53Z</time>
      </trkpt>
      <trkpt lat="49.42296" lon="1.11496">
        <ele>8.6</ele>
        <time>2022-02-27T08:45:54Z</time>
      </trkpt>
      <trkpt lat="49.42292" lon="1.11497">
        <ele>8.6</ele>
        <time>2022-02-27T08:45:55Z</time>
      </trkpt>
      <trkpt lat="49.42287" lon="1.11498">
        <ele>8.6</ele>
        <time>2022-02-27T08:45:56Z</time>
      </trkpt>
      <trkpt lat="49.42282" lon="1.11501">
        <ele>8.7</ele>
        <time>2022-02-27T08:45:57Z</time>
      </trkpt>
      <trkpt lat="49.42276" lon="1.11504">
        <ele>8.7</ele>
        <time>2022-02-27T08:45:59Z</time>
      </trkpt>
      <trkpt lat="49.42273" lon="1.11506">
        <ele>8.8</ele>
        <time>2022-02-27T08:46:00Z</time>
      </trkpt>
      <trkpt lat="49.4227" lon="1.11508">
        <ele>8.8</ele>
        <time>2022-02-27T08:46:01Z</time>
      </trkpt>
      <trkpt lat="49.42266" lon="1.11511">
        <ele>8.8</ele>
        <time>2022-02-27T08:46:02Z</time>
      </trkpt>
      <trkpt lat="49.42261" lon="1.11514">
        <ele>8.9</ele>
        <time>2022-02-27T08:46:03Z</time>
      </trkpt>
      <trkpt lat="49.42255" lon="1.11519">
        <ele>9</ele>
        <time>2022-02-27T08:46:05Z</time>
      </trkpt>
      <trkpt lat="49.42251" lon="1.11522">
        <ele>9</ele>
        <time>2022-02-27T08:46:06Z</time>
      </trkpt>
      <trkpt lat="49.42247" lon="1.11522">
        <ele>9.1</ele>
        <time>2022-02-27T08:46:07Z</time>
      </trkpt>
      <trkpt lat="49.42243" lon="1.11523">
        <ele>9.1</ele>
        <time>2022-02-27T08:46:08Z</time>
      </trkpt>
      <trkpt lat="49.4224" lon="1.11527">
        <ele>9.2</ele>
        <time>2022-02-27T08:46:09Z</time>
      </trkpt>
      <trkpt lat="49.42237" lon="1.1153">
        <ele>9.2</ele>
        <time>2022-02-27T08:46:10Z</time>
      </trkpt>
      <trkpt lat="49.4223" lon="1.11536">
        <ele>9.3</ele>
        <time>2022-02-27T08:46:12Z</time>
      </trkpt>
      <trkpt lat="49.42226" lon="1.11539">
        <ele>9.3</ele>
        <time>2022-02-27T08:46:13Z</time>
      </trkpt>
      <trkpt lat="49.42223" lon="1.11542">
        <ele>9.4</ele>
        <time>2022-02-27T08:46:14Z</time>
      </trkpt>
      <trkpt lat="49.42218" lon="1.11545">
        <ele>9.4</ele>
        <time>2022-02-27T08:46:15Z</time>
      </trkpt>
      <trkpt lat="49.42214" lon="1.11548">
        <ele>9.5</ele>
        <time>2022-02-27T08:46:16Z</time>
      </trkpt>
      <trkpt lat="49.4221" lon="1.11551">
        <ele>9.5</ele>
        <time>2022-02-27T08:46:17Z</time>
      </trkpt>
      <trkpt lat="49.42205" lon="1.11554">
        <ele>9.6</ele>
        <time>2022-02-27T08:46:18Z</time>
      </trkpt>
      <trkpt lat="49.422" lon="1.11556">
        <ele>9.6</ele>
        <time>2022-02-27T08:46:19Z</time>
      </trkpt>
      <trkpt lat="49.42196" lon="1.11558">
        <ele>9.7</ele>
        <time>2022-02-27T08:46:20Z</time>
      </trkpt>
      <trkpt lat="49.42192" lon="1.11561">
        <ele>9.8</ele>
        <time>2022-02-27T08:46:21Z</time>
      </trkpt>
      <trkpt lat="49.42188" lon="1.11563">
        <ele>9.8</ele>
        <time>2022-02-27T08:46:22Z</time>
      </trkpt>
      <trkpt lat="49.42185" lon="1.11566">
        <ele>9.9</ele>
        <time>2022-02-27T08:46:23Z</time>
      </trkpt>
      <trkpt lat="49.42184" lon="1.11568">
        <ele>9.9</ele>
        <time>2022-02-27T08:46:24Z</time>
      </trkpt>
      <trkpt lat="49.42183" lon="1.11569">
        <ele>9.9</ele>
        <time>2022-02-27T08:46:25Z</time>
      </trkpt>
      <trkpt lat="49.42181" lon="1.11574">
        <ele>10</ele>
        <time>2022-02-27T08:46:26Z</time>
      </trkpt>
      <trkpt lat="49.42182" lon="1.11579">
        <ele>10.3</ele>
        <time>2022-02-27T08:46:27Z</time>
      </trkpt>
      <trkpt lat="49.42184" lon="1.11584">
        <ele>10.4</ele>
        <time>2022-02-27T08:46:28Z</time>
      </trkpt>
      <trkpt lat="49.42185" lon="1.11589">
        <ele>10.5</ele>
        <time>2022-02-27T08:46:29Z</time>
      </trkpt>
      <trkpt lat="49.42183" lon="1.11593">
        <ele>10.7</ele>
        <time>2022-02-27T08:46:30Z</time>
      </trkpt>
      <trkpt lat="49.42182" lon="1.11595">
        <ele>10.7</ele>
        <time>2022-02-27T08:46:31Z</time>
      </trkpt>
      <trkpt lat="49.4218" lon="1.11598">
        <ele>10.9</ele>
        <time>2022-02-27T08:46:32Z</time>
      </trkpt>
      <trkpt lat="49.42176" lon="1.11601">
        <ele>11.1</ele>
        <time>2022-02-27T08:46:33Z</time>
      </trkpt>
      <trkpt lat="49.42175" lon="1.11603">
        <ele>11.2</ele>
        <time>2022-02-27T08:46:34Z</time>
      </trkpt>
      <trkpt lat="49.42172" lon="1.11605">
        <ele>11.4</ele>
        <time>2022-02-27T08:46:35Z</time>
      </trkpt>
      <trkpt lat="49.4217" lon="1.11608">
        <ele>11.6</ele>
        <time>2022-02-27T08:46:36Z</time>
      </trkpt>
      <trkpt lat="49.42166" lon="1.11611">
        <ele>11.9</ele>
        <time>2022-02-27T08:46:37Z</time>
      </trkpt>
      <trkpt lat="49.42163" lon="1.11614">
        <ele>12.1</ele>
        <time>2022-02-27T08:46:38Z</time>
      </trkpt>
      <trkpt lat="49.42161" lon="1.11615">
        <ele>12.3</ele>
        <time>2022-02-27T08:46:39Z</time>
      </trkpt>
      <trkpt lat="49.42159" lon="1.11619">
        <ele>12.5</ele>
        <time>2022-02-27T08:46:41Z</time>
      </trkpt>
      <trkpt lat="49.42159" lon="1.11623">
        <ele>12.8</ele>
        <time>2022-02-27T08:46:42Z</time>
      </trkpt>
      <trkpt lat="49.4216" lon="1.11625">
        <ele>15.1</ele>
        <time>2022-02-27T08:46:43Z</time>
      </trkpt>
      <trkpt lat="49.42158" lon="1.11631">
        <ele>15.7</ele>
        <time>2022-02-27T08:46:44Z</time>
      </trkpt>
      <trkpt lat="49.42158" lon="1.11636">
        <ele>16.1</ele>
        <time>2022-02-27T08:46:46Z</time>
      </trkpt>
      <trkpt lat="49.42158" lon="1.11639">
        <ele>16.4</ele>
        <time>2022-02-27T08:46:47Z</time>
      </trkpt>
      <trkpt lat="49.42159" lon="1.11647">
        <ele>17.1</ele>
        <time>2022-02-27T08:46:49Z</time>
      </trkpt>
      <trkpt lat="49.4216" lon="1.11648">
        <ele>17.2</ele>
        <time>2022-02-27T08:46:50Z</time>
      </trkpt>
      <trkpt lat="49.42159" lon="1.11649">
        <ele>17.2</ele>
        <time>2022-02-27T08:46:51Z</time>
      </trkpt>
      <trkpt lat="49.4216" lon="1.11652">
        <ele>17.6</ele>
        <time>2022-02-27T08:46:53Z</time>
      </trkpt>
      <trkpt lat="49.42161" lon="1.11653">
        <ele>17.7</ele>
        <time>2022-02-27T08:46:54Z</time>
      </trkpt>
      <trkpt lat="49.42161" lon="1.11654">
        <ele>17.8</ele>
        <time>2022-02-27T08:46:55Z</time>
      </trkpt>
      <trkpt lat="49.42162" lon="1.11655">
        <ele>17.9</ele>
        <time>2022-02-27T08:46:56Z</time>
      </trkpt>
      <trkpt lat="49.42163" lon="1.11658">
        <ele>18.2</ele>
        <time>2022-02-27T08:46:57Z</time>
      </trkpt>
      <trkpt lat="49.42163" lon="1.1166">
        <ele>18.3</ele>
        <time>2022-02-27T08:46:58Z</time>
      </trkpt>
      <trkpt lat="49.42164" lon="1.11662">
        <ele>18.5</ele>
        <time>2022-02-27T08:46:59Z</time>
      </trkpt>
      <trkpt lat="49.42164" lon="1.11665">
        <ele>18.8</ele>
        <time>2022-02-27T08:47:01Z</time>
      </trkpt>
      <trkpt lat="49.42165" lon="1.11671">
        <ele>19.4</ele>
        <time>2022-02-27T08:47:02Z</time>
      </trkpt>
      <trkpt lat="49.42165" lon="1.11674">
        <ele>19.6</ele>
        <time>2022-02-27T08:47:03Z</time>
      </trkpt>
      <trkpt lat="49.42165" lon="1.11676">
        <ele>19.8</ele>
        <time>2022-02-27T08:47:04Z</time>
      </trkpt>
      <trkpt lat="49.42165" lon="1.11679">
        <ele>20</ele>
        <time>2022-02-27T08:47:05Z</time>
      </trkpt>
      <trkpt lat="49.42165" lon="1.11681">
        <ele>20.2</ele>
        <time>2022-02-27T08:47:06Z</time>
      </trkpt>
      <trkpt lat="49.42165" lon="1.11684">
        <ele>20.4</ele>
        <time>2022-02-27T08:47:07Z</time>
      </trkpt>
      <trkpt lat="49.42165" lon="1.11689">
        <ele>20.9</ele>
        <time>2022-02-27T08:47:09Z</time>
      </trkpt>
      <trkpt lat="49.42165" lon="1.11691">
        <ele>21.1</ele>
        <time>2022-02-27T08:47:10Z</time>
      </trkpt>
      <trkpt lat="49.42165" lon="1.11697">
        <ele>21.6</ele>
        <time>2022-02-27T08:47:11Z</time>
      </trkpt>
      <trkpt lat="49.42165" lon="1.11698">
        <ele>21.7</ele>
        <time>2022-02-27T08:47:12Z</time>
      </trkpt>
      <trkpt lat="49.42165" lon="1.11699">
        <ele>21.8</ele>
        <time>2022-02-27T08:47:13Z</time>
      </trkpt>
      <trkpt lat="49.42166" lon="1.11701">
        <ele>22</ele>
        <time>2022-02-27T08:47:15Z</time>
      </trkpt>
      <trkpt lat="49.42166" lon="1.11703">
        <ele>22.2</ele>
        <time>2022-02-27T08:47:16Z</time>
      </trkpt>
      <trkpt lat="49.42167" lon="1.11707">
        <ele>22.6</ele>
        <time>2022-02-27T08:47:17Z</time>
      </trkpt>
      <trkpt lat="49.42168" lon="1.11708">
        <ele>22.8</ele>
        <time>2022-02-27T08:47:18Z</time>
      </trkpt>
      <trkpt lat="49.4217" lon="1.11708">
        <ele>23</ele>
        <time>2022-02-27T08:47:19Z</time>
      </trkpt>
      <trkpt lat="49.42172" lon="1.1171">
        <ele>23.4</ele>
        <time>2022-02-27T08:47:20Z</time>
      </trkpt>
      <trkpt lat="49.42173" lon="1.1171">
        <ele>23.6</ele>
        <time>2022-02-27T08:47:22Z</time>
      </trkpt>
      <trkpt lat="49.42174" lon="1.11711">
        <ele>23.7</ele>
        <time>2022-02-27T08:47:23Z</time>
      </trkpt>
      <trkpt lat="49.42175" lon="1.11711">
        <ele>23.9</ele>
        <time>2022-02-27T08:47:24Z</time>
      </trkpt>
      <trkpt lat="49.42177" lon="1.11712">
        <ele>24.1</ele>
        <time>2022-02-27T08:47:25Z</time>
      </trkpt>
      <trkpt lat="49.42179" lon="1.11711">
        <ele>24.4</ele>
        <time>2022-02-27T08:47:26Z</time>
      </trkpt>
      <trkpt lat="49.42179" lon="1.11711">
        <ele>24.5</ele>
        <time>2022-02-27T08:47:27Z</time>
      </trkpt>
      <trkpt lat="49.4218" lon="1.11711">
        <ele>24.6</ele>
        <time>2022-02-27T08:47:28Z</time>
      </trkpt>
      <trkpt lat="49.42184" lon="1.1171">
        <ele>25.1</ele>
        <time>2022-02-27T08:47:30Z</time>
      </trkpt>
      <trkpt lat="49.42184" lon="1.1171">
        <ele>25.2</ele>
        <time>2022-02-27T08:47:31Z</time>
      </trkpt>
      <trkpt lat="49.42185" lon="1.1171">
        <ele>25.4</ele>
        <time>2022-02-27T08:47:32Z</time>
      </trkpt>
      <trkpt lat="49.42186" lon="1.11708">
        <ele>25.5</ele>
        <time>2022-02-27T08:47:33Z</time>
      </trkpt>
      <trkpt lat="49.42186" lon="1.11709">
        <ele>25.6</ele>
        <time>2022-02-27T08:47:34Z</time>
      </trkpt>
      <trkpt lat="49.42186" lon="1.11709">
        <ele>25.6</ele>
        <time>2022-02-27T08:47:35Z</time>
      </trkpt>
      <trkpt lat="49.42186" lon="1.11709">
        <ele>25.6</ele>
        <time>2022-02-27T08:47:36Z</time>
      </trkpt>
      <trkpt lat="49.42186" lon="1.11709">
        <ele>25.6</ele>
        <time>2022-02-27T08:47:37Z</time>
      </trkpt>
      <trkpt lat="49.42185" lon="1.11709">
        <ele>25.7</ele>
        <time>2022-02-27T08:47:38Z</time>
      </trkpt>
      <trkpt lat="49.42185" lon="1.11708">
        <ele>25.7</ele>
        <time>2022-02-27T08:47:40Z</time>
      </trkpt>
      <trkpt lat="49.42186" lon="1.11708">
        <ele>25.7</ele>
        <time>2022-02-27T08:47:41Z</time>
      </trkpt>
      <trkpt lat="49.42186" lon="1.11708">
        <ele>25.7</ele>
        <time>2022-02-27T08:47:42Z</time>
      </trkpt>
      <trkpt lat="49.42186" lon="1.11708">
        <ele>25.8</ele>
        <time>2022-02-27T08:47:43Z</time>
      </trkpt>
      <trkpt lat="49.42186" lon="1.11708">
        <ele>25.8</ele>
        <time>2022-02-27T08:47:44Z</time>
      </trkpt>
      <trkpt lat="49.42187" lon="1.11708">
        <ele>25.8</ele>
        <time>2022-02-27T08:47:45Z</time>
      </trkpt>
      <trkpt lat="49.42188" lon="1.11706">
        <ele>26.1</ele>
        <time>2022-02-27T08:47:46Z</time>
      </trkpt>
      <trkpt lat="49.42189" lon="1.11704">
        <ele>26.3</ele>
        <time>2022-02-27T08:49:12Z</time>
      </trkpt>
      <trkpt lat="49.42191" lon="1.11702">
        <ele>26.5</ele>
        <time>2022-02-27T08:49:13Z</time>
      </trkpt>
      <trkpt lat="49.42192" lon="1.117">
        <ele>26.7</ele>
        <time>2022-02-27T08:49:14Z</time>
      </trkpt>
      <trkpt lat="49.42193" lon="1.11699">
        <ele>26.9</ele>
        <time>2022-02-27T08:49:15Z</time>
      </trkpt>
      <trkpt lat="49.42194" lon="1.11697">
        <ele>27</ele>
        <time>2022-02-27T08:49:16Z</time>
      </trkpt>
      <trkpt lat="49.42196" lon="1.11697">
        <ele>27.1</ele>
        <time>2022-02-27T08:49:17Z</time>
      </trkpt>
      <trkpt lat="49.42197" lon="1.11697">
        <ele>27.3</ele>
        <time>2022-02-27T08:49:18Z</time>
      </trkpt>
      <trkpt lat="49.422" lon="1.11699">
        <ele>27.5</ele>
        <time>2022-02-27T08:49:19Z</time>
      </trkpt>
      <trkpt lat="49.42201" lon="1.117">
        <ele>27.6</ele>
        <time>2022-02-27T08:49:20Z</time>
      </trkpt>
      <trkpt lat="49.42203" lon="1.11701">
        <ele>27.7</ele>
        <time>2022-02-27T08:49:21Z</time>
      </trkpt>
      <trkpt lat="49.42206" lon="1.11702">
        <ele>28</ele>
        <time>2022-02-27T08:49:23Z</time>
      </trkpt>
      <trkpt lat="49.4221" lon="1.11704">
        <ele>28.2</ele>
        <time>2022-02-27T08:49:25Z</time>
      </trkpt>
      <trkpt lat="49.42213" lon="1.11704">
        <ele>28.4</ele>
        <time>2022-02-27T08:49:26Z</time>
      </trkpt>
      <trkpt lat="49.42217" lon="1.11703">
        <ele>28.6</ele>
        <time>2022-02-27T08:49:27Z</time>
      </trkpt>
      <trkpt lat="49.4222" lon="1.11703">
        <ele>28.8</ele>
        <time>2022-02-27T08:49:28Z</time>
      </trkpt>
      <trkpt lat="49.42223" lon="1.11703">
        <ele>29</ele>
        <time>2022-02-27T08:49:30Z</time>
      </trkpt>
      <trkpt lat="49.42227" lon="1.11703">
        <ele>29.2</ele>
        <time>2022-02-27T08:49:31Z</time>
      </trkpt>
      <trkpt lat="49.4223" lon="1.11704">
        <ele>29.4</ele>
        <time>2022-02-27T08:49:32Z</time>
      </trkpt>
      <trkpt lat="49.42233" lon="1.11705">
        <ele>29.6</ele>
        <time>2022-02-27T08:49:33Z</time>
      </trkpt>
      <trkpt lat="49.42233" lon="1.11706">
        <ele>29.6</ele>
        <time>2022-02-27T08:49:34Z</time>
      </trkpt>
      <trkpt lat="49.42234" lon="1.11707">
        <ele>29.7</ele>
        <time>2022-02-27T08:49:35Z</time>
      </trkpt>
      <trkpt lat="49.42234" lon="1.11709">
        <ele>29.7</ele>
        <time>2022-02-27T08:49:36Z</time>
      </trkpt>
      <trkpt lat="49.42232" lon="1.11711">
        <ele>29.8</ele>
        <time>2022-02-27T08:49:38Z</time>
      </trkpt>
      <trkpt lat="49.42229" lon="1.11713">
        <ele>30</ele>
        <time>2022-02-27T08:49:39Z</time>
      </trkpt>
      <trkpt lat="49.42229" lon="1.11713">
        <ele>30.1</ele>
        <time>2022-02-27T08:49:40Z</time>
      </trkpt>
      <trkpt lat="49.42227" lon="1.11713">
        <ele>30.1</ele>
        <time>2022-02-27T08:49:41Z</time>
      </trkpt>
      <trkpt lat="49.42226" lon="1.11713">
        <ele>30.2</ele>
        <time>2022-02-27T08:49:42Z</time>
      </trkpt>
      <trkpt lat="49.42225" lon="1.11714">
        <ele>30.3</ele>
        <time>2022-02-27T08:49:44Z</time>
      </trkpt>
      <trkpt lat="49.42225" lon="1.11716">
        <ele>30.3</ele>
        <time>2022-02-27T08:49:45Z</time>
      </trkpt>
      <trkpt lat="49.42223" lon="1.11716">
        <ele>30.4</ele>
        <time>2022-02-27T08:49:46Z</time>
      </trkpt>
      <trkpt lat="49.42222" lon="1.11716">
        <ele>30.5</ele>
        <time>2022-02-27T08:49:47Z</time>
      </trkpt>
      <trkpt lat="49.42224" lon="1.11717">
        <ele>30.6</ele>
        <time>2022-02-27T08:49:48Z</time>
      </trkpt>
      <trkpt lat="49.42226" lon="1.11717">
        <ele>30.7</ele>
        <time>2022-02-27T08:49:49Z</time>
      </trkpt>
      <trkpt lat="49.42228" lon="1.11717">
        <ele>30.9</ele>
        <time>2022-02-27T08:49:50Z</time>
      </trkpt>
      <trkpt lat="49.4223" lon="1.11718">
        <ele>31</ele>
        <time>2022-02-27T08:49:51Z</time>
      </trkpt>
      <trkpt lat="49.42232" lon="1.11717">
        <ele>31.2</ele>
        <time>2022-02-27T08:49:53Z</time>
      </trkpt>
      <trkpt lat="49.42233" lon="1.11718">
        <ele>31.2</ele>
        <time>2022-02-27T08:49:54Z</time>
      </trkpt>
      <trkpt lat="49.42233" lon="1.11718">
        <ele>31.2</ele>
        <time>2022-02-27T08:49:55Z</time>
      </trkpt>
      <trkpt lat="49.42234" lon="1.1172">
        <ele>32.9</ele>
        <time>2022-02-27T08:49:56Z</time>
      </trkpt>
      <trkpt lat="49.42233" lon="1.11722">
        <ele>33</ele>
        <time>2022-02-27T08:49:57Z</time>
      </trkpt>
      <trkpt lat="49.42233" lon="1.11723">
        <ele>33.2</ele>
        <time>2022-02-27T08:49:58Z</time>
      </trkpt>
      <trkpt lat="49.42232" lon="1.11724">
        <ele>33.3</ele>
        <time>2022-02-27T08:50:00Z</time>
      </trkpt>
      <trkpt lat="49.42232" lon="1.11725">
        <ele>33.5</ele>
        <time>2022-02-27T08:50:01Z</time>
      </trkpt>
      <trkpt lat="49.42231" lon="1.11727">
        <ele>33.7</ele>
        <time>2022-02-27T08:50:02Z</time>
      </trkpt>
      <trkpt lat="49.42231" lon="1.11728">
        <ele>33.9</ele>
        <time>2022-02-27T08:50:03Z</time>
      </trkpt>
      <trkpt lat="49.4223" lon="1.11731">
        <ele>34.3</ele>
        <time>2022-02-27T08:50:04Z</time>
      </trkpt>
      <trkpt lat="49.42229" lon="1.11732">
        <ele>34.5</ele>
        <time>2022-02-27T08:50:05Z</time>
      </trkpt>
      <trkpt lat="49.42228" lon="1.11733">
        <ele>34.6</ele>
        <time>2022-02-27T08:50:06Z</time>
      </trkpt>
      <trkpt lat="49.42228" lon="1.11734">
        <ele>34.9</ele>
        <time>2022-02-27T08:50:07Z</time>
      </trkpt>
      <trkpt lat="49.42226" lon="1.11736">
        <ele>35.1</ele>
        <time>2022-02-27T08:50:09Z</time>
      </trkpt>
      <trkpt lat="49.42225" lon="1.11736">
        <ele>35.3</ele>
        <time>2022-02-27T08:50:10Z</time>
      </trkpt>
      <trkpt lat="49.42224" lon="1.11738">
        <ele>35.7</ele>
        <time>2022-02-27T08:50:11Z</time>
      </trkpt>
      <trkpt lat="49.42222" lon="1.1174">
        <ele>36.2</ele>
        <time>2022-02-27T08:50:12Z</time>
      </trkpt>
      <trkpt lat="49.42221" lon="1.1174">
        <ele>36.3</ele>
        <time>2022-02-27T08:50:13Z</time>
      </trkpt>
      <trkpt lat="49.42218" lon="1.11742">
        <ele>36.8</ele>
        <time>2022-02-27T08:50:15Z</time>
      </trkpt>
      <trkpt lat="49.42217" lon="1.11742">
        <ele>37</ele>
        <time>2022-02-27T08:50:16Z</time>
      </trkpt>
      <trkpt lat="49.42214" lon="1.11745">
        <ele>37.5</ele>
        <time>2022-02-27T08:50:17Z</time>
      </trkpt>
      <trkpt lat="49.42212" lon="1.11747">
        <ele>38</ele>
        <time>2022-02-27T08:50:18Z</time>
      </trkpt>
      <trkpt lat="49.42209" lon="1.1175">
        <ele>38.5</ele>
        <time>2022-02-27T08:50:19Z</time>
      </trkpt>
      <trkpt lat="49.42206" lon="1.11754">
        <ele>39.1</ele>
        <time>2022-02-27T08:50:20Z</time>
      </trkpt>
      <trkpt lat="49.42205" lon="1.11756">
        <ele>39.3</ele>
        <time>2022-02-27T08:50:21Z</time>
      </trkpt>
      <trkpt lat="49.42203" lon="1.11761">
        <ele>39.9</ele>
        <time>2022-02-27T08:50:23Z</time>
      </trkpt>
      <trkpt lat="49.422" lon="1.11764">
        <ele>40.4</ele>
        <time>2022-02-27T08:50:24Z</time>
      </trkpt>
      <trkpt lat="49.422" lon="1.11765">
        <ele>40.5</ele>
        <time>2022-02-27T08:50:25Z</time>
      </trkpt>
      <trkpt lat="49.42199" lon="1.11768">
        <ele>40.8</ele>
        <time>2022-02-27T08:50:26Z</time>
      </trkpt>
      <trkpt lat="49.42197" lon="1.11772">
        <ele>41.3</ele>
        <time>2022-02-27T08:50:28Z</time>
      </trkpt>
      <trkpt lat="49.42195" lon="1.11775">
        <ele>41.7</ele>
        <time>2022-02-27T08:50:29Z</time>
      </trkpt>
      <trkpt lat="49.42191" lon="1.11779">
        <ele>42.3</ele>
        <time>2022-02-27T08:50:31Z</time>
      </trkpt>
      <trkpt lat="49.42187" lon="1.11781">
        <ele>42.8</ele>
        <time>2022-02-27T08:50:32Z</time>
      </trkpt>
      <trkpt lat="49.42186" lon="1.11783">
        <ele>43</ele>
        <time>2022-02-27T08:50:33Z</time>
      </trkpt>
      <trkpt lat="49.42182" lon="1.11786">
        <ele>43.4</ele>
        <time>2022-02-27T08:50:35Z</time>
      </trkpt>
      <trkpt lat="49.42181" lon="1.11787">
        <ele>43.6</ele>
        <time>2022-02-27T08:50:36Z</time>
      </trkpt>
      <trkpt lat="49.42178" lon="1.11789">
        <ele>44</ele>
        <time>2022-02-27T08:50:38Z</time>
      </trkpt>
      <trkpt lat="49.42175" lon="1.11792">
        <ele>44.4</ele>
        <time>2022-02-27T08:50:39Z</time>
      </trkpt>
      <trkpt lat="49.42173" lon="1.11793">
        <ele>44.6</ele>
        <time>2022-02-27T08:50:40Z</time>
      </trkpt>
      <trkpt lat="49.4217" lon="1.11795">
        <ele>45</ele>
        <time>2022-02-27T08:50:42Z</time>
      </trkpt>
      <trkpt lat="49.42167" lon="1.11798">
        <ele>45.3</ele>
        <time>2022-02-27T08:50:43Z</time>
      </trkpt>
      <trkpt lat="49.42164" lon="1.11801">
        <ele>45.7</ele>
        <time>2022-02-27T08:50:44Z</time>
      </trkpt>
      <trkpt lat="49.42163" lon="1.11802">
        <ele>45.8</ele>
        <time>2022-02-27T08:50:45Z</time>
      </trkpt>
      <trkpt lat="49.4216" lon="1.11803">
        <ele>46</ele>
        <time>2022-02-27T08:50:46Z</time>
      </trkpt>
      <trkpt lat="49.42159" lon="1.11804">
        <ele>46.1</ele>
        <time>2022-02-27T08:50:47Z</time>
      </trkpt>
      <trkpt lat="49.42157" lon="1.11804">
        <ele>46.3</ele>
        <time>2022-02-27T08:50:48Z</time>
      </trkpt>
      <trkpt lat="49.42155" lon="1.11802">
        <ele>46.5</ele>
        <time>2022-02-27T08:50:50Z</time>
      </trkpt>
      <trkpt lat="49.42155" lon="1.11798">
        <ele>46.8</ele>
        <time>2022-02-27T08:50:51Z</time>
      </trkpt>
      <trkpt lat="49.42155" lon="1.11797">
        <ele>46.9</ele>
        <time>2022-02-27T08:50:52Z</time>
      </trkpt>
      <trkpt lat="49.42156" lon="1.11792">
        <ele>47.2</ele>
        <time>2022-02-27T08:50:53Z</time>
      </trkpt>
      <trkpt lat="49.42156" lon="1.1179">
        <ele>47.4</ele>
        <time>2022-02-27T08:50:54Z</time>
      </trkpt>
      <trkpt lat="49.42156" lon="1.11788">
        <ele>47.6</ele>
        <time>2022-02-27T08:50:55Z</time>
      </trkpt>
      <trkpt lat="49.42154" lon="1.11787">
        <ele>47.7</ele>
        <time>2022-02-27T08:50:56Z</time>
      </trkpt>
      <trkpt lat="49.42153" lon="1.11786">
        <ele>47.9</ele>
        <time>2022-02-27T08:50:57Z</time>
      </trkpt>
      <trkpt lat="49.42152" lon="1.11784">
        <ele>48.2</ele>
        <time>2022-02-27T08:50:59Z</time>
      </trkpt>
      <trkpt lat="49.42151" lon="1.11783">
        <ele>48.3</ele>
        <time>2022-02-27T08:51:00Z</time>
      </trkpt>
      <trkpt lat="49.4215" lon="1.11782">
        <ele>48.5</ele>
        <time>2022-02-27T08:51:01Z</time>
      </trkpt>
      <trkpt lat="49.42149" lon="1.11781">
        <ele>48.6</ele>
        <time>2022-02-27T08:51:02Z</time>
      </trkpt>
      <trkpt lat="49.42149" lon="1.1178">
        <ele>48.7</ele>
        <time>2022-02-27T08:51:03Z</time>
      </trkpt>
      <trkpt lat="49.42148" lon="1.1178">
        <ele>48.7</ele>
        <time>2022-02-27T08:51:04Z</time>
      </trkpt>
      <trkpt lat="49.42147" lon="1.11779">
        <ele>48.8</ele>
        <time>2022-02-27T08:51:05Z</time>
      </trkpt>
      <trkpt lat="49.42146" lon="1.11778">
        <ele>49</ele>
        <time>2022-02-27T08:51:07Z</time>
      </trkpt>
      <trkpt lat="49.42145" lon="1.11777">
        <ele>49.2</ele>
        <time>2022-02-27T08:51:09Z</time>
      </trkpt>
      <trkpt lat="49.42144" lon="1.11776">
        <ele>49.3</ele>
        <time>2022-02-27T08:51:10Z</time>
      </trkpt>
      <trkpt lat="49.42144" lon="1.11776">
        <ele>49.4</ele>
        <time>2022-02-27T08:51:11Z</time>
      </trkpt>
      <trkpt lat="49.42142" lon="1.11776">
        <ele>49.5</ele>
        <time>2022-02-27T08:51:12Z</time>
      </trkpt>
      <trkpt lat="49.42141" lon="1.11776">
        <ele>49.6</ele>
        <time>2022-02-27T08:51:13Z</time>
      </trkpt>
      <trkpt lat="49.4214" lon="1.11776">
        <ele>49.7</ele>
        <time>2022-02-27T08:51:14Z</time>
      </trkpt>
      <trkpt lat="49.4214" lon="1.11776">
        <ele>49.8</ele>
        <time>2022-02-27T08:51:15Z</time>
      </trkpt>
      <trkpt lat="49.42139" lon="1.11777">
        <ele>49.9</ele>
        <time>2022-02-27T08:51:16Z</time>
      </trkpt>
      <trkpt lat="49.42138" lon="1.11777">
        <ele>50</ele>
        <time>2022-02-27T08:51:17Z</time>
      </trkpt>
      <trkpt lat="49.42137" lon="1.11777">
        <ele>50.1</ele>
        <time>2022-02-27T08:51:19Z</time>
      </trkpt>
      <trkpt lat="49.42136" lon="1.11777">
        <ele>50.1</ele>
        <time>2022-02-27T08:51:20Z</time>
      </trkpt>
      <trkpt lat="49.42135" lon="1.11777">
        <ele>50.2</ele>
        <time>2022-02-27T08:51:22Z</time>
      </trkpt>
      <trkpt lat="49.42134" lon="1.11778">
        <ele>50.3</ele>
        <time>2022-02-27T08:51:23Z</time>
      </trkpt>
      <trkpt lat="49.42133" lon="1.11778">
        <ele>50.3</ele>
        <time>2022-02-27T08:51:24Z</time>
      </trkpt>
      <trkpt lat="49.4213" lon="1.11779">
        <ele>50.5</ele>
        <time>2022-02-27T08:51:25Z</time>
      </trkpt>
      <trkpt lat="49.42129" lon="1.11779">
        <ele>50.5</ele>
        <time>2022-02-27T08:51:26Z</time>
      </trkpt>
      <trkpt lat="49.42125" lon="1.1178">
        <ele>50.7</ele>
        <time>2022-02-27T08:51:27Z</time>
      </trkpt>
      <trkpt lat="49.42124" lon="1.11781">
        <ele>50.7</ele>
        <time>2022-02-27T08:51:28Z</time>
      </trkpt>
      <trkpt lat="49.42121" lon="1.11782">
        <ele>50.8</ele>
        <time>2022-02-27T08:51:29Z</time>
      </trkpt>
      <trkpt lat="49.4212" lon="1.11782">
        <ele>50.8</ele>
        <time>2022-02-27T08:51:30Z</time>
      </trkpt>
      <trkpt lat="49.42116" lon="1.11785">
        <ele>50.9</ele>
        <time>2022-02-27T08:51:32Z</time>
      </trkpt>
      <trkpt lat="49.42113" lon="1.11788">
        <ele>51</ele>
        <time>2022-02-27T08:51:33Z</time>
      </trkpt>
      <trkpt lat="49.4211" lon="1.11789">
        <ele>51.1</ele>
        <time>2022-02-27T08:51:34Z</time>
      </trkpt>
      <trkpt lat="49.42107" lon="1.11791">
        <ele>51.2</ele>
        <time>2022-02-27T08:51:35Z</time>
      </trkpt>
      <trkpt lat="49.42104" lon="1.11793">
        <ele>51.4</ele>
        <time>2022-02-27T08:51:36Z</time>
      </trkpt>
      <trkpt lat="49.42103" lon="1.11794">
        <ele>51.4</ele>
        <time>2022-02-27T08:51:37Z</time>
      </trkpt>
      <trkpt lat="49.42099" lon="1.11797">
        <ele>51.6</ele>
        <time>2022-02-27T08:51:39Z</time>
      </trkpt>
      <trkpt lat="49.42097" lon="1.11799">
        <ele>51.8</ele>
        <time>2022-02-27T08:51:40Z</time>
      </trkpt>
      <trkpt lat="49.42093" lon="1.11802">
        <ele>52</ele>
        <time>2022-02-27T08:51:41Z</time>
      </trkpt>
      <trkpt lat="49.42092" lon="1.11803">
        <ele>52.1</ele>
        <time>2022-02-27T08:51:42Z</time>
      </trkpt>
      <trkpt lat="49.42088" lon="1.11804">
        <ele>52.3</ele>
        <time>2022-02-27T08:51:43Z</time>
      </trkpt>
      <trkpt lat="49.42087" lon="1.11805">
        <ele>52.4</ele>
        <time>2022-02-27T08:51:44Z</time>
      </trkpt>
      <trkpt lat="49.42083" lon="1.11807">
        <ele>52.7</ele>
        <time>2022-02-27T08:51:45Z</time>
      </trkpt>
      <trkpt lat="49.42081" lon="1.11807">
        <ele>52.8</ele>
        <time>2022-02-27T08:51:46Z</time>
      </trkpt>
      <trkpt lat="49.42078" lon="1.1181">
        <ele>53</ele>
        <time>2022-02-27T08:51:48Z</time>
      </trkpt>
      <trkpt lat="49.42076" lon="1.11812">
        <ele>53.2</ele>
        <time>2022-02-27T08:51:49Z</time>
      </trkpt>
      <trkpt lat="49.42073" lon="1.11815">
        <ele>53.5</ele>
        <time>2022-02-27T08:51:50Z</time>
      </trkpt>
      <trkpt lat="49.42072" lon="1.11816">
        <ele>53.6</ele>
        <time>2022-02-27T08:51:51Z</time>
      </trkpt>
      <trkpt lat="49.4207" lon="1.11819">
        <ele>53.8</ele>
        <time>2022-02-27T08:51:52Z</time>
      </trkpt>
      <trkpt lat="49.42069" lon="1.11819">
        <ele>53.9</ele>
        <time>2022-02-27T08:51:53Z</time>
      </trkpt>
      <trkpt lat="49.42065" lon="1.11822">
        <ele>54.1</ele>
        <time>2022-02-27T08:51:54Z</time>
      </trkpt>
      <trkpt lat="49.42064" lon="1.11823">
        <ele>54.2</ele>
        <time>2022-02-27T08:51:55Z</time>
      </trkpt>
      <trkpt lat="49.42061" lon="1.11827">
        <ele>54.6</ele>
        <time>2022-02-27T08:51:56Z</time>
      </trkpt>
      <trkpt lat="49.4206" lon="1.11828">
        <ele>54.7</ele>
        <time>2022-02-27T08:51:57Z</time>
      </trkpt>
      <trkpt lat="49.42057" lon="1.11831">
        <ele>54.9</ele>
        <time>2022-02-27T08:51:58Z</time>
      </trkpt>
      <trkpt lat="49.42056" lon="1.11831">
        <ele>55</ele>
        <time>2022-02-27T08:51:59Z</time>
      </trkpt>
      <trkpt lat="49.42054" lon="1.11834">
        <ele>55.2</ele>
        <time>2022-02-27T08:52:00Z</time>
      </trkpt>
      <trkpt lat="49.42053" lon="1.11835">
        <ele>55.3</ele>
        <time>2022-02-27T08:52:01Z</time>
      </trkpt>
      <trkpt lat="49.4205" lon="1.1184">
        <ele>55.6</ele>
        <time>2022-02-27T08:52:02Z</time>
      </trkpt>
      <trkpt lat="49.42049" lon="1.11842">
        <ele>55.8</ele>
        <time>2022-02-27T08:52:03Z</time>
      </trkpt>
      <trkpt lat="49.42048" lon="1.11844">
        <ele>55.9</ele>
        <time>2022-02-27T08:52:04Z</time>
      </trkpt>
      <trkpt lat="49.42045" lon="1.11847">
        <ele>56.2</ele>
        <time>2022-02-27T08:52:06Z</time>
      </trkpt>
      <trkpt lat="49.42043" lon="1.1185">
        <ele>56.4</ele>
        <time>2022-02-27T08:52:07Z</time>
      </trkpt>
      <trkpt lat="49.42042" lon="1.11851">
        <ele>56.5</ele>
        <time>2022-02-27T08:52:08Z</time>
      </trkpt>
      <trkpt lat="49.42038" lon="1.11855">
        <ele>56.9</ele>
        <time>2022-02-27T08:52:09Z</time>
      </trkpt>
      <trkpt lat="49.42037" lon="1.11856">
        <ele>57</ele>
        <time>2022-02-27T08:52:10Z</time>
      </trkpt>
      <trkpt lat="49.42032" lon="1.1186">
        <ele>57.4</ele>
        <time>2022-02-27T08:52:12Z</time>
      </trkpt>
      <trkpt lat="49.42029" lon="1.11862">
        <ele>57.7</ele>
        <time>2022-02-27T08:52:13Z</time>
      </trkpt>
      <trkpt lat="49.42025" lon="1.11865">
        <ele>58</ele>
        <time>2022-02-27T08:52:14Z</time>
      </trkpt>
      <trkpt lat="49.4202" lon="1.11868">
        <ele>58.3</ele>
        <time>2022-02-27T08:52:15Z</time>
      </trkpt>
      <trkpt lat="49.42016" lon="1.11871">
        <ele>58.6</ele>
        <time>2022-02-27T08:52:16Z</time>
      </trkpt>
      <trkpt lat="49.42012" lon="1.11874">
        <ele>58.9</ele>
        <time>2022-02-27T08:52:18Z</time>
      </trkpt>
      <trkpt lat="49.42009" lon="1.11876">
        <ele>59.1</ele>
        <time>2022-02-27T08:52:19Z</time>
      </trkpt>
      <trkpt lat="49.42005" lon="1.1188">
        <ele>59.4</ele>
        <time>2022-02-27T08:52:20Z</time>
      </trkpt>
      <trkpt lat="49.42001" lon="1.11884">
        <ele>59.6</ele>
        <time>2022-02-27T08:52:22Z</time>
      </trkpt>
      <trkpt lat="49.41998" lon="1.11886">
        <ele>59.8</ele>
        <time>2022-02-27T08:52:23Z</time>
      </trkpt>
      <trkpt lat="49.41996" lon="1.11888">
        <ele>60</ele>
        <time>2022-02-27T08:52:24Z</time>
      </trkpt>
      <trkpt lat="49.41993" lon="1.11893">
        <ele>60.2</ele>
        <time>2022-02-27T08:52:25Z</time>
      </trkpt>
      <trkpt lat="49.41991" lon="1.11895">
        <ele>60.3</ele>
        <time>2022-02-27T08:52:26Z</time>
      </trkpt>
      <trkpt lat="49.41988" lon="1.11899">
        <ele>60.6</ele>
        <time>2022-02-27T08:52:28Z</time>
      </trkpt>
      <trkpt lat="49.41986" lon="1.11903">
        <ele>60.8</ele>
        <time>2022-02-27T08:52:29Z</time>
      </trkpt>
      <trkpt lat="49.41984" lon="1.11907">
        <ele>60.9</ele>
        <time>2022-02-27T08:52:30Z</time>
      </trkpt>
      <trkpt lat="49.41982" lon="1.11911">
        <ele>61.1</ele>
        <time>2022-02-27T08:52:32Z</time>
      </trkpt>
      <trkpt lat="49.41981" lon="1.11916">
        <ele>61.3</ele>
        <time>2022-02-27T08:52:33Z</time>
      </trkpt>
      <trkpt lat="49.41981" lon="1.11917">
        <ele>61.4</ele>
        <time>2022-02-27T08:52:34Z</time>
      </trkpt>
      <trkpt lat="49.41981" lon="1.11923">
        <ele>61.6</ele>
        <time>2022-02-27T08:52:35Z</time>
      </trkpt>
      <trkpt lat="49.41981" lon="1.11925">
        <ele>61.7</ele>
        <time>2022-02-27T08:52:36Z</time>
      </trkpt>
      <trkpt lat="49.4198" lon="1.1193">
        <ele>62</ele>
        <time>2022-02-27T08:52:37Z</time>
      </trkpt>
      <trkpt lat="49.4198" lon="1.11932">
        <ele>62</ele>
        <time>2022-02-27T08:52:38Z</time>
      </trkpt>
      <trkpt lat="49.41979" lon="1.11937">
        <ele>62.3</ele>
        <time>2022-02-27T08:52:39Z</time>
      </trkpt>
      <trkpt lat="49.41979" lon="1.11938">
        <ele>62.3</ele>
        <time>2022-02-27T08:52:40Z</time>
      </trkpt>
      <trkpt lat="49.41978" lon="1.11942">
        <ele>62.5</ele>
        <time>2022-02-27T08:52:41Z</time>
      </trkpt>
      <trkpt lat="49.41977" lon="1.11948">
        <ele>62.8</ele>
        <time>2022-02-27T08:52:42Z</time>
      </trkpt>
      <trkpt lat="49.41977" lon="1.1195">
        <ele>62.9</ele>
        <time>2022-02-27T08:52:43Z</time>
      </trkpt>
      <trkpt lat="49.41975" lon="1.11955">
        <ele>63.2</ele>
        <time>2022-02-27T08:52:44Z</time>
      </trkpt>
      <trkpt lat="49.41975" lon="1.11957">
        <ele>63.2</ele>
        <time>2022-02-27T08:52:45Z</time>
      </trkpt>
      <trkpt lat="49.41974" lon="1.11962">
        <ele>63.5</ele>
        <time>2022-02-27T08:52:46Z</time>
      </trkpt>
      <trkpt lat="49.41973" lon="1.11964">
        <ele>63.6</ele>
        <time>2022-02-27T08:52:47Z</time>
      </trkpt>
      <trkpt lat="49.41973" lon="1.11969">
        <ele>63.8</ele>
        <time>2022-02-27T08:52:48Z</time>
      </trkpt>
      <trkpt lat="49.41972" lon="1.11975">
        <ele>64.1</ele>
        <time>2022-02-27T08:52:49Z</time>
      </trkpt>
      <trkpt lat="49.41972" lon="1.11977">
        <ele>64.2</ele>
        <time>2022-02-27T08:52:50Z</time>
      </trkpt>
      <trkpt lat="49.41972" lon="1.11981">
        <ele>64.4</ele>
        <time>2022-02-27T08:52:51Z</time>
      </trkpt>
      <trkpt lat="49.41971" lon="1.11988">
        <ele>64.7</ele>
        <time>2022-02-27T08:52:53Z</time>
      </trkpt>
      <trkpt lat="49.41971" lon="1.11995">
        <ele>65</ele>
        <time>2022-02-27T08:52:54Z</time>
      </trkpt>
      <trkpt lat="49.4197" lon="1.11998">
        <ele>65.2</ele>
        <time>2022-02-27T08:52:55Z</time>
      </trkpt>
      <trkpt lat="49.41969" lon="1.12003">
        <ele>65.4</ele>
        <time>2022-02-27T08:52:57Z</time>
      </trkpt>
      <trkpt lat="49.41969" lon="1.12006">
        <ele>65.6</ele>
        <time>2022-02-27T08:52:58Z</time>
      </trkpt>
      <trkpt lat="49.41967" lon="1.12011">
        <ele>65.8</ele>
        <time>2022-02-27T08:53:00Z</time>
      </trkpt>
      <trkpt lat="49.41965" lon="1.12015">
        <ele>66</ele>
        <time>2022-02-27T08:53:01Z</time>
      </trkpt>
      <trkpt lat="49.41963" lon="1.1202">
        <ele>66.3</ele>
        <time>2022-02-27T08:53:02Z</time>
      </trkpt>
      <trkpt lat="49.41963" lon="1.12021">
        <ele>66.4</ele>
        <time>2022-02-27T08:53:03Z</time>
      </trkpt>
      <trkpt lat="49.41961" lon="1.12026">
        <ele>66.7</ele>
        <time>2022-02-27T08:53:04Z</time>
      </trkpt>
      <trkpt lat="49.41959" lon="1.12033">
        <ele>67.1</ele>
        <time>2022-02-27T08:53:06Z</time>
      </trkpt>
      <trkpt lat="49.41958" lon="1.12035">
        <ele>67.2</ele>
        <time>2022-02-27T08:53:07Z</time>
      </trkpt>
      <trkpt lat="49.41958" lon="1.12037">
        <ele>67.3</ele>
        <time>2022-02-27T08:53:08Z</time>
      </trkpt>
      <trkpt lat="49.41957" lon="1.1204">
        <ele>67.4</ele>
        <time>2022-02-27T08:53:09Z</time>
      </trkpt>
      <trkpt lat="49.41957" lon="1.12042">
        <ele>67.5</ele>
        <time>2022-02-27T08:53:10Z</time>
      </trkpt>
      <trkpt lat="49.41956" lon="1.12045">
        <ele>67.6</ele>
        <time>2022-02-27T08:53:11Z</time>
      </trkpt>
      <trkpt lat="49.41955" lon="1.12046">
        <ele>67.8</ele>
        <time>2022-02-27T08:53:12Z</time>
      </trkpt>
      <trkpt lat="49.41952" lon="1.12048">
        <ele>68</ele>
        <time>2022-02-27T08:53:13Z</time>
      </trkpt>
      <trkpt lat="49.41951" lon="1.12049">
        <ele>68</ele>
        <time>2022-02-27T08:53:14Z</time>
      </trkpt>
      <trkpt lat="49.41949" lon="1.12049">
        <ele>68.2</ele>
        <time>2022-02-27T08:53:15Z</time>
      </trkpt>
      <trkpt lat="49.41948" lon="1.12049">
        <ele>68.3</ele>
        <time>2022-02-27T08:53:16Z</time>
      </trkpt>
      <trkpt lat="49.41945" lon="1.12049">
        <ele>68.5</ele>
        <time>2022-02-27T08:53:18Z</time>
      </trkpt>
      <trkpt lat="49.41942" lon="1.1205">
        <ele>68.7</ele>
        <time>2022-02-27T08:53:19Z</time>
      </trkpt>
      <trkpt lat="49.4194" lon="1.12051">
        <ele>68.9</ele>
        <time>2022-02-27T08:53:20Z</time>
      </trkpt>
      <trkpt lat="49.41936" lon="1.12051">
        <ele>69.2</ele>
        <time>2022-02-27T08:53:22Z</time>
      </trkpt>
      <trkpt lat="49.41933" lon="1.12052">
        <ele>69.4</ele>
        <time>2022-02-27T08:53:23Z</time>
      </trkpt>
      <trkpt lat="49.41932" lon="1.12052">
        <ele>69.5</ele>
        <time>2022-02-27T08:53:24Z</time>
      </trkpt>
      <trkpt lat="49.41928" lon="1.12051">
        <ele>69.8</ele>
        <time>2022-02-27T08:53:25Z</time>
      </trkpt>
      <trkpt lat="49.41926" lon="1.12051">
        <ele>69.9</ele>
        <time>2022-02-27T08:53:26Z</time>
      </trkpt>
      <trkpt lat="49.41923" lon="1.12052">
        <ele>70.2</ele>
        <time>2022-02-27T08:53:27Z</time>
      </trkpt>
      <trkpt lat="49.41919" lon="1.12053">
        <ele>70.5</ele>
        <time>2022-02-27T08:53:29Z</time>
      </trkpt>
      <trkpt lat="49.41915" lon="1.12054">
        <ele>70.8</ele>
        <time>2022-02-27T08:53:30Z</time>
      </trkpt>
      <trkpt lat="49.41914" lon="1.12053">
        <ele>70.9</ele>
        <time>2022-02-27T08:53:31Z</time>
      </trkpt>
      <trkpt lat="49.4191" lon="1.12051">
        <ele>71.2</ele>
        <time>2022-02-27T08:53:32Z</time>
      </trkpt>
      <trkpt lat="49.41908" lon="1.1205">
        <ele>71.4</ele>
        <time>2022-02-27T08:53:33Z</time>
      </trkpt>
      <trkpt lat="49.41904" lon="1.12046">
        <ele>71.7</ele>
        <time>2022-02-27T08:53:35Z</time>
      </trkpt>
      <trkpt lat="49.41902" lon="1.12043">
        <ele>72</ele>
        <time>2022-02-27T08:53:36Z</time>
      </trkpt>
      <trkpt lat="49.419" lon="1.1204">
        <ele>72.2</ele>
        <time>2022-02-27T08:53:37Z</time>
      </trkpt>
      <trkpt lat="49.41898" lon="1.12034">
        <ele>72.5</ele>
        <time>2022-02-27T08:53:38Z</time>
      </trkpt>
      <trkpt lat="49.41897" lon="1.12032">
        <ele>72.7</ele>
        <time>2022-02-27T08:53:39Z</time>
      </trkpt>
      <trkpt lat="49.41894" lon="1.12027">
        <ele>73</ele>
        <time>2022-02-27T08:53:41Z</time>
      </trkpt>
      <trkpt lat="49.41891" lon="1.12023">
        <ele>73.3</ele>
        <time>2022-02-27T08:53:42Z</time>
      </trkpt>
      <trkpt lat="49.41889" lon="1.12018">
        <ele>73.6</ele>
        <time>2022-02-27T08:53:44Z</time>
      </trkpt>
      <trkpt lat="49.41887" lon="1.12015">
        <ele>73.8</ele>
        <time>2022-02-27T08:53:45Z</time>
      </trkpt>
      <trkpt lat="49.41884" lon="1.12011">
        <ele>74.1</ele>
        <time>2022-02-27T08:53:46Z</time>
      </trkpt>
      <trkpt lat="49.41883" lon="1.12009">
        <ele>74.2</ele>
        <time>2022-02-27T08:53:47Z</time>
      </trkpt>
      <trkpt lat="49.4188" lon="1.12005">
        <ele>74.5</ele>
        <time>2022-02-27T08:53:49Z</time>
      </trkpt>
      <trkpt lat="49.41879" lon="1.12004">
        <ele>74.6</ele>
        <time>2022-02-27T08:53:50Z</time>
      </trkpt>
      <trkpt lat="49.41878" lon="1.12003">
        <ele>74.7</ele>
        <time>2022-02-27T08:53:51Z</time>
      </trkpt>
      <trkpt lat="49.41875" lon="1.12001">
        <ele>74.9</ele>
        <time>2022-02-27T08:53:52Z</time>
      </trkpt>
      <trkpt lat="49.41874" lon="1.12">
        <ele>75</ele>
        <time>2022-02-27T08:53:53Z</time>
      </trkpt>
      <trkpt lat="49.41871" lon="1.11997">
        <ele>75.2</ele>
        <time>2022-02-27T08:53:54Z</time>
      </trkpt>
      <trkpt lat="49.4187" lon="1.11996">
        <ele>75.3</ele>
        <time>2022-02-27T08:53:55Z</time>
      </trkpt>
      <trkpt lat="49.41867" lon="1.11994">
        <ele>75.6</ele>
        <time>2022-02-27T08:53:56Z</time>
      </trkpt>
      <trkpt lat="49.41866" lon="1.11994">
        <ele>75.6</ele>
        <time>2022-02-27T08:53:57Z</time>
      </trkpt>
      <trkpt lat="49.41863" lon="1.11991">
        <ele>75.9</ele>
        <time>2022-02-27T08:53:59Z</time>
      </trkpt>
      <trkpt lat="49.41862" lon="1.11989">
        <ele>75.9</ele>
        <time>2022-02-27T08:54:00Z</time>
      </trkpt>
      <trkpt lat="49.41861" lon="1.11988">
        <ele>76</ele>
        <time>2022-02-27T08:54:01Z</time>
      </trkpt>
      <trkpt lat="49.4186" lon="1.11988">
        <ele>76.1</ele>
        <time>2022-02-27T08:54:02Z</time>
      </trkpt>
      <trkpt lat="49.4186" lon="1.11988">
        <ele>76.2</ele>
        <time>2022-02-27T08:54:03Z</time>
      </trkpt>
      <trkpt lat="49.41859" lon="1.11987">
        <ele>76.2</ele>
        <time>2022-02-27T08:54:05Z</time>
      </trkpt>
      <trkpt lat="49.41859" lon="1.11987">
        <ele>76.2</ele>
        <time>2022-02-27T08:54:06Z</time>
      </trkpt>
      <trkpt lat="49.41858" lon="1.11987">
        <ele>76.2</ele>
        <time>2022-02-27T08:54:07Z</time>
      </trkpt>
      <trkpt lat="49.41858" lon="1.11986">
        <ele>76.3</ele>
        <time>2022-02-27T08:54:09Z</time>
      </trkpt>
      <trkpt lat="49.41858" lon="1.11986">
        <ele>76.3</ele>
        <time>2022-02-27T08:54:10Z</time>
      </trkpt>
      <trkpt lat="49.41858" lon="1.11986">
        <ele>76.3</ele>
        <time>2022-02-27T08:54:11Z</time>
      </trkpt>
      <trkpt lat="49.41857" lon="1.11987">
        <ele>76.4</ele>
        <time>2022-02-27T08:54:12Z</time>
      </trkpt>
      <trkpt lat="49.41855" lon="1.11987">
        <ele>76.5</ele>
        <time>2022-02-27T08:54:13Z</time>
      </trkpt>
      <trkpt lat="49.41854" lon="1.11988">
        <ele>76.6</ele>
        <time>2022-02-27T08:54:14Z</time>
      </trkpt>
      <trkpt lat="49.41853" lon="1.11989">
        <ele>76.7</ele>
        <time>2022-02-27T08:54:15Z</time>
      </trkpt>
      <trkpt lat="49.41852" lon="1.11989">
        <ele>76.8</ele>
        <time>2022-02-27T08:54:16Z</time>
      </trkpt>
      <trkpt lat="49.4185" lon="1.1199">
        <ele>76.9</ele>
        <time>2022-02-27T08:54:17Z</time>
      </trkpt>
      <trkpt lat="49.41849" lon="1.1199">
        <ele>76.9</ele>
        <time>2022-02-27T08:55:37Z</time>
      </trkpt>
      <trkpt lat="49.41848" lon="1.11991">
        <ele>77</ele>
        <time>2022-02-27T08:55:38Z</time>
      </trkpt>
      <trkpt lat="49.41847" lon="1.11992">
        <ele>77.1</ele>
        <time>2022-02-27T08:55:39Z</time>
      </trkpt>
      <trkpt lat="49.41845" lon="1.11992">
        <ele>77.2</ele>
        <time>2022-02-27T08:55:40Z</time>
      </trkpt>
      <trkpt lat="49.41844" lon="1.11992">
        <ele>77.4</ele>
        <time>2022-02-27T08:55:41Z</time>
      </trkpt>
      <trkpt lat="49.41839" lon="1.11996">
        <ele>77.8</ele>
        <time>2022-02-27T08:55:43Z</time>
      </trkpt>
      <trkpt lat="49.41834" lon="1.11998">
        <ele>78.1</ele>
        <time>2022-02-27T08:55:44Z</time>
      </trkpt>
      <trkpt lat="49.41831" lon="1.11999">
        <ele>78.3</ele>
        <time>2022-02-27T08:55:46Z</time>
      </trkpt>
      <trkpt lat="49.41828" lon="1.12">
        <ele>78.5</ele>
        <time>2022-02-27T08:55:47Z</time>
      </trkpt>
      <trkpt lat="49.41824" lon="1.12002">
        <ele>78.7</ele>
        <time>2022-02-27T08:55:48Z</time>
      </trkpt>
      <trkpt lat="49.41823" lon="1.12002">
        <ele>78.8</ele>
        <time>2022-02-27T08:55:49Z</time>
      </trkpt>
      <trkpt lat="49.4182" lon="1.12003">
        <ele>78.9</ele>
        <time>2022-02-27T08:55:50Z</time>
      </trkpt>
      <trkpt lat="49.41816" lon="1.12005">
        <ele>79.2</ele>
        <time>2022-02-27T08:55:51Z</time>
      </trkpt>
      <trkpt lat="49.41814" lon="1.12006">
        <ele>79.3</ele>
        <time>2022-02-27T08:55:52Z</time>
      </trkpt>
      <trkpt lat="49.4181" lon="1.12007">
        <ele>79.5</ele>
        <time>2022-02-27T08:55:54Z</time>
      </trkpt>
      <trkpt lat="49.41806" lon="1.12009">
        <ele>79.8</ele>
        <time>2022-02-27T08:55:55Z</time>
      </trkpt>
      <trkpt lat="49.41801" lon="1.1201">
        <ele>80.1</ele>
        <time>2022-02-27T08:55:56Z</time>
      </trkpt>
      <trkpt lat="49.41798" lon="1.12011">
        <ele>80.3</ele>
        <time>2022-02-27T08:55:57Z</time>
      </trkpt>
      <trkpt lat="49.41792" lon="1.12012">
        <ele>80.7</ele>
        <time>2022-02-27T08:55:58Z</time>
      </trkpt>
      <trkpt lat="49.41787" lon="1.12014">
        <ele>81.1</ele>
        <time>2022-02-27T08:56:00Z</time>
      </trkpt>
      <trkpt lat="49.41783" lon="1.12015">
        <ele>81.4</ele>
        <time>2022-02-27T08:56:01Z</time>
      </trkpt>
      <trkpt lat="49.4178" lon="1.12016">
        <ele>81.6</ele>
        <time>2022-02-27T08:56:02Z</time>
      </trkpt>
      <trkpt lat="49.41777" lon="1.12017">
        <ele>81.8</ele>
        <time>2022-02-27T08:56:03Z</time>
      </trkpt>
      <trkpt lat="49.41772" lon="1.12019">
        <ele>82.2</ele>
        <time>2022-02-27T08:56:04Z</time>
      </trkpt>
      <trkpt lat="49.4177" lon="1.1202">
        <ele>82.3</ele>
        <time>2022-02-27T08:56:05Z</time>
      </trkpt>
      <trkpt lat="49.41765" lon="1.12023">
        <ele>82.7</ele>
        <time>2022-02-27T08:56:07Z</time>
      </trkpt>
      <trkpt lat="49.41762" lon="1.12025">
        <ele>82.9</ele>
        <time>2022-02-27T08:56:08Z</time>
      </trkpt>
      <trkpt lat="49.41759" lon="1.12027">
        <ele>83.1</ele>
        <time>2022-02-27T08:56:09Z</time>
      </trkpt>
      <trkpt lat="49.41755" lon="1.1203">
        <ele>83.4</ele>
        <time>2022-02-27T08:56:10Z</time>
      </trkpt>
      <trkpt lat="49.41751" lon="1.12033">
        <ele>83.7</ele>
        <time>2022-02-27T08:56:12Z</time>
      </trkpt>
      <trkpt lat="49.41747" lon="1.12036">
        <ele>84</ele>
        <time>2022-02-27T08:56:13Z</time>
      </trkpt>
      <trkpt lat="49.41744" lon="1.12039">
        <ele>84.3</ele>
        <time>2022-02-27T08:56:14Z</time>
      </trkpt>
      <trkpt lat="49.41741" lon="1.12042">
        <ele>84.6</ele>
        <time>2022-02-27T08:56:16Z</time>
      </trkpt>
      <trkpt lat="49.41737" lon="1.12046">
        <ele>85</ele>
        <time>2022-02-27T08:56:17Z</time>
      </trkpt>
      <trkpt lat="49.41734" lon="1.1205">
        <ele>85.3</ele>
        <time>2022-02-27T08:56:19Z</time>
      </trkpt>
      <trkpt lat="49.41732" lon="1.12053">
        <ele>85.6</ele>
        <time>2022-02-27T08:56:20Z</time>
      </trkpt>
      <trkpt lat="49.41729" lon="1.12057">
        <ele>86</ele>
        <time>2022-02-27T08:56:21Z</time>
      </trkpt>
      <trkpt lat="49.41728" lon="1.12058">
        <ele>86.1</ele>
        <time>2022-02-27T08:56:22Z</time>
      </trkpt>
      <trkpt lat="49.41725" lon="1.12061">
        <ele>86.4</ele>
        <time>2022-02-27T08:56:23Z</time>
      </trkpt>
      <trkpt lat="49.41724" lon="1.12062">
        <ele>86.5</ele>
        <time>2022-02-27T08:56:24Z</time>
      </trkpt>
      <trkpt lat="49.41722" lon="1.12064">
        <ele>86.8</ele>
        <time>2022-02-27T08:56:25Z</time>
      </trkpt>
      <trkpt lat="49.41721" lon="1.12065">
        <ele>86.9</ele>
        <time>2022-02-27T08:56:26Z</time>
      </trkpt>
      <trkpt lat="49.41719" lon="1.12066">
        <ele>87</ele>
        <time>2022-02-27T08:56:27Z</time>
      </trkpt>
      <trkpt lat="49.41717" lon="1.1207">
        <ele>87.3</ele>
        <time>2022-02-27T08:56:29Z</time>
      </trkpt>
      <trkpt lat="49.41716" lon="1.12072">
        <ele>87.4</ele>
        <time>2022-02-27T08:56:30Z</time>
      </trkpt>
      <trkpt lat="49.41714" lon="1.12073">
        <ele>87.5</ele>
        <time>2022-02-27T08:56:31Z</time>
      </trkpt>
      <trkpt lat="49.41712" lon="1.12075">
        <ele>87.7</ele>
        <time>2022-02-27T08:56:32Z</time>
      </trkpt>
      <trkpt lat="49.41709" lon="1.12078">
        <ele>87.9</ele>
        <time>2022-02-27T08:56:33Z</time>
      </trkpt>
      <trkpt lat="49.41708" lon="1.12079">
        <ele>88</ele>
        <time>2022-02-27T08:56:34Z</time>
      </trkpt>
      <trkpt lat="49.41705" lon="1.12081">
        <ele>88.1</ele>
        <time>2022-02-27T08:56:35Z</time>
      </trkpt>
      <trkpt lat="49.41701" lon="1.12086">
        <ele>88.4</ele>
        <time>2022-02-27T08:56:36Z</time>
      </trkpt>
      <trkpt lat="49.41699" lon="1.12089">
        <ele>88.6</ele>
        <time>2022-02-27T08:56:37Z</time>
      </trkpt>
      <trkpt lat="49.41695" lon="1.12093">
        <ele>88.8</ele>
        <time>2022-02-27T08:56:39Z</time>
      </trkpt>
      <trkpt lat="49.41691" lon="1.12097">
        <ele>89.1</ele>
        <time>2022-02-27T08:56:40Z</time>
      </trkpt>
      <trkpt lat="49.41688" lon="1.12101">
        <ele>89.3</ele>
        <time>2022-02-27T08:56:41Z</time>
      </trkpt>
      <trkpt lat="49.41686" lon="1.12104">
        <ele>89.5</ele>
        <time>2022-02-27T08:56:42Z</time>
      </trkpt>
      <trkpt lat="49.41683" lon="1.12107">
        <ele>89.7</ele>
        <time>2022-02-27T08:56:43Z</time>
      </trkpt>
      <trkpt lat="49.4168" lon="1.12111">
        <ele>90</ele>
        <time>2022-02-27T08:56:44Z</time>
      </trkpt>
      <trkpt lat="49.41678" lon="1.12114">
        <ele>90.2</ele>
        <time>2022-02-27T08:56:45Z</time>
      </trkpt>
      <trkpt lat="49.41675" lon="1.12117">
        <ele>90.4</ele>
        <time>2022-02-27T08:56:46Z</time>
      </trkpt>
      <trkpt lat="49.41673" lon="1.1212">
        <ele>90.5</ele>
        <time>2022-02-27T08:56:47Z</time>
      </trkpt>
      <trkpt lat="49.41671" lon="1.12123">
        <ele>90.7</ele>
        <time>2022-02-27T08:56:48Z</time>
      </trkpt>
      <trkpt lat="49.41669" lon="1.12126">
        <ele>91</ele>
        <time>2022-02-27T08:56:49Z</time>
      </trkpt>
      <trkpt lat="49.41667" lon="1.1213">
        <ele>91.2</ele>
        <time>2022-02-27T08:56:50Z</time>
      </trkpt>
      <trkpt lat="49.41664" lon="1.12135">
        <ele>91.5</ele>
        <time>2022-02-27T08:56:52Z</time>
      </trkpt>
      <trkpt lat="49.41662" lon="1.12139">
        <ele>91.8</ele>
        <time>2022-02-27T08:56:53Z</time>
      </trkpt>
      <trkpt lat="49.41661" lon="1.12141">
        <ele>91.9</ele>
        <time>2022-02-27T08:56:54Z</time>
      </trkpt>
      <trkpt lat="49.41658" lon="1.12145">
        <ele>92.2</ele>
        <time>2022-02-27T08:56:56Z</time>
      </trkpt>
      <trkpt lat="49.41655" lon="1.1215">
        <ele>92.5</ele>
        <time>2022-02-27T08:56:57Z</time>
      </trkpt>
      <trkpt lat="49.41654" lon="1.12153">
        <ele>92.6</ele>
        <time>2022-02-27T08:56:58Z</time>
      </trkpt>
      <trkpt lat="49.41652" lon="1.12157">
        <ele>92.9</ele>
        <time>2022-02-27T08:57:00Z</time>
      </trkpt>
      <trkpt lat="49.4165" lon="1.12162">
        <ele>93.1</ele>
        <time>2022-02-27T08:57:01Z</time>
      </trkpt>
      <trkpt lat="49.4165" lon="1.12164">
        <ele>93.2</ele>
        <time>2022-02-27T08:57:02Z</time>
      </trkpt>
      <trkpt lat="49.41647" lon="1.1217">
        <ele>93.5</ele>
        <time>2022-02-27T08:57:04Z</time>
      </trkpt>
      <trkpt lat="49.41646" lon="1.12176">
        <ele>93.8</ele>
        <time>2022-02-27T08:57:05Z</time>
      </trkpt>
      <trkpt lat="49.41645" lon="1.12178">
        <ele>94</ele>
        <time>2022-02-27T08:57:06Z</time>
      </trkpt>
      <trkpt lat="49.41642" lon="1.12185">
        <ele>94.3</ele>
        <time>2022-02-27T08:57:08Z</time>
      </trkpt>
      <trkpt lat="49.41641" lon="1.12187">
        <ele>94.5</ele>
        <time>2022-02-27T08:57:09Z</time>
      </trkpt>
      <trkpt lat="49.4164" lon="1.12189">
        <ele>94.6</ele>
        <time>2022-02-27T08:57:10Z</time>
      </trkpt>
      <trkpt lat="49.41639" lon="1.12193">
        <ele>94.8</ele>
        <time>2022-02-27T08:57:11Z</time>
      </trkpt>
      <trkpt lat="49.41638" lon="1.12195">
        <ele>94.9</ele>
        <time>2022-02-27T08:57:12Z</time>
      </trkpt>
      <trkpt lat="49.41637" lon="1.12199">
        <ele>95.1</ele>
        <time>2022-02-27T08:57:13Z</time>
      </trkpt>
      <trkpt lat="49.41637" lon="1.122">
        <ele>95.2</ele>
        <time>2022-02-27T08:57:14Z</time>
      </trkpt>
      <trkpt lat="49.41636" lon="1.12205">
        <ele>95.4</ele>
        <time>2022-02-27T08:57:15Z</time>
      </trkpt>
      <trkpt lat="49.41636" lon="1.12206">
        <ele>95.5</ele>
        <time>2022-02-27T08:57:16Z</time>
      </trkpt>
      <trkpt lat="49.41635" lon="1.1221">
        <ele>95.7</ele>
        <time>2022-02-27T08:57:17Z</time>
      </trkpt>
      <trkpt lat="49.41635" lon="1.12212">
        <ele>95.8</ele>
        <time>2022-02-27T08:57:18Z</time>
      </trkpt>
      <trkpt lat="49.41635" lon="1.12216">
        <ele>96.1</ele>
        <time>2022-02-27T08:57:19Z</time>
      </trkpt>
      <trkpt lat="49.41635" lon="1.12217">
        <ele>96.1</ele>
        <time>2022-02-27T08:57:20Z</time>
      </trkpt>
      <trkpt lat="49.41634" lon="1.12222">
        <ele>96.4</ele>
        <time>2022-02-27T08:57:21Z</time>
      </trkpt>
      <trkpt lat="49.41634" lon="1.12223">
        <ele>96.5</ele>
        <time>2022-02-27T08:57:22Z</time>
      </trkpt>
      <trkpt lat="49.41634" lon="1.12227">
        <ele>96.7</ele>
        <time>2022-02-27T08:57:23Z</time>
      </trkpt>
      <trkpt lat="49.41633" lon="1.12229">
        <ele>96.8</ele>
        <time>2022-02-27T08:57:24Z</time>
      </trkpt>
      <trkpt lat="49.41633" lon="1.12231">
        <ele>96.9</ele>
        <time>2022-02-27T08:57:25Z</time>
      </trkpt>
      <trkpt lat="49.41632" lon="1.12234">
        <ele>97.1</ele>
        <time>2022-02-27T08:57:26Z</time>
      </trkpt>
      <trkpt lat="49.41631" lon="1.12239">
        <ele>97.4</ele>
        <time>2022-02-27T08:57:27Z</time>
      </trkpt>
      <trkpt lat="49.4163" lon="1.1224">
        <ele>97.5</ele>
        <time>2022-02-27T08:57:28Z</time>
      </trkpt>
      <trkpt lat="49.41629" lon="1.12245">
        <ele>97.8</ele>
        <time>2022-02-27T08:57:29Z</time>
      </trkpt>
      <trkpt lat="49.41629" lon="1.12247">
        <ele>97.9</ele>
        <time>2022-02-27T08:57:30Z</time>
      </trkpt>
      <trkpt lat="49.41629" lon="1.12249">
        <ele>98</ele>
        <time>2022-02-27T08:57:31Z</time>
      </trkpt>
      <trkpt lat="49.41629" lon="1.12253">
        <ele>98.2</ele>
        <time>2022-02-27T08:57:33Z</time>
      </trkpt>
      <trkpt lat="49.41629" lon="1.12258">
        <ele>98.5</ele>
        <time>2022-02-27T08:57:34Z</time>
      </trkpt>
      <trkpt lat="49.41629" lon="1.1226">
        <ele>98.6</ele>
        <time>2022-02-27T08:57:35Z</time>
      </trkpt>
      <trkpt lat="49.41629" lon="1.12265">
        <ele>98.9</ele>
        <time>2022-02-27T08:57:36Z</time>
      </trkpt>
      <trkpt lat="49.41629" lon="1.12267">
        <ele>99</ele>
        <time>2022-02-27T08:57:37Z</time>
      </trkpt>
      <trkpt lat="49.41629" lon="1.12271">
        <ele>99.2</ele>
        <time>2022-02-27T08:57:38Z</time>
      </trkpt>
      <trkpt lat="49.41628" lon="1.12279">
        <ele>99.6</ele>
        <time>2022-02-27T08:57:40Z</time>
      </trkpt>
      <trkpt lat="49.41629" lon="1.12284">
        <ele>99.9</ele>
        <time>2022-02-27T08:57:41Z</time>
      </trkpt>
      <trkpt lat="49.41628" lon="1.12289">
        <ele>100.2</ele>
        <time>2022-02-27T08:57:42Z</time>
      </trkpt>
      <trkpt lat="49.41628" lon="1.12291">
        <ele>100.3</ele>
        <time>2022-02-27T08:57:43Z</time>
      </trkpt>
      <trkpt lat="49.41628" lon="1.12297">
        <ele>100.5</ele>
        <time>2022-02-27T08:57:44Z</time>
      </trkpt>
      <trkpt lat="49.41628" lon="1.12298">
        <ele>100.6</ele>
        <time>2022-02-27T08:57:45Z</time>
      </trkpt>
      <trkpt lat="49.41627" lon="1.12304">
        <ele>100.9</ele>
        <time>2022-02-27T08:57:46Z</time>
      </trkpt>
      <trkpt lat="49.41627" lon="1.12306">
        <ele>101</ele>
        <time>2022-02-27T08:57:47Z</time>
      </trkpt>
      <trkpt lat="49.41627" lon="1.12312">
        <ele>101.3</ele>
        <time>2022-02-27T08:57:49Z</time>
      </trkpt>
      <trkpt lat="49.41627" lon="1.12317">
        <ele>101.5</ele>
        <time>2022-02-27T08:57:50Z</time>
      </trkpt>
      <trkpt lat="49.41627" lon="1.12318">
        <ele>101.6</ele>
        <time>2022-02-27T08:57:51Z</time>
      </trkpt>
      <trkpt lat="49.41627" lon="1.1232">
        <ele>101.7</ele>
        <time>2022-02-27T08:57:52Z</time>
      </trkpt>
      <trkpt lat="49.41627" lon="1.12322">
        <ele>101.8</ele>
        <time>2022-02-27T08:57:53Z</time>
      </trkpt>
      <trkpt lat="49.41626" lon="1.12322">
        <ele>101.8</ele>
        <time>2022-02-27T08:57:54Z</time>
      </trkpt>
      <trkpt lat="49.41627" lon="1.12321">
        <ele>101.8</ele>
        <time>2022-02-27T08:57:56Z</time>
      </trkpt>
      <trkpt lat="49.41627" lon="1.12321">
        <ele>101.8</ele>
        <time>2022-02-27T08:57:58Z</time>
      </trkpt>
      <trkpt lat="49.41627" lon="1.12322">
        <ele>101.9</ele>
        <time>2022-02-27T08:57:59Z</time>
      </trkpt>
      <trkpt lat="49.41627" lon="1.12324">
        <ele>102</ele>
        <time>2022-02-27T08:58:00Z</time>
      </trkpt>
      <trkpt lat="49.41627" lon="1.12325">
        <ele>102</ele>
        <time>2022-02-27T08:58:01Z</time>
      </trkpt>
      <trkpt lat="49.41627" lon="1.12327">
        <ele>102.1</ele>
        <time>2022-02-27T08:58:02Z</time>
      </trkpt>
      <trkpt lat="49.41627" lon="1.12331">
        <ele>102.3</ele>
        <time>2022-02-27T08:58:04Z</time>
      </trkpt>
      <trkpt lat="49.41627" lon="1.12333">
        <ele>102.4</ele>
        <time>2022-02-27T08:58:05Z</time>
      </trkpt>
      <trkpt lat="49.41628" lon="1.12336">
        <ele>102.7</ele>
        <time>2022-02-27T08:58:06Z</time>
      </trkpt>
      <trkpt lat="49.41628" lon="1.1234">
        <ele>102.9</ele>
        <time>2022-02-27T08:58:07Z</time>
      </trkpt>
      <trkpt lat="49.41628" lon="1.12342">
        <ele>103</ele>
        <time>2022-02-27T08:58:08Z</time>
      </trkpt>
      <trkpt lat="49.41628" lon="1.12347">
        <ele>103.2</ele>
        <time>2022-02-27T08:58:09Z</time>
      </trkpt>
      <trkpt lat="49.41627" lon="1.12351">
        <ele>103.5</ele>
        <time>2022-02-27T08:58:10Z</time>
      </trkpt>
      <trkpt lat="49.41627" lon="1.12357">
        <ele>103.7</ele>
        <time>2022-02-27T08:58:11Z</time>
      </trkpt>
      <trkpt lat="49.41627" lon="1.12361">
        <ele>104</ele>
        <time>2022-02-27T08:58:12Z</time>
      </trkpt>
      <trkpt lat="49.41627" lon="1.12366">
        <ele>104.2</ele>
        <time>2022-02-27T08:58:13Z</time>
      </trkpt>
      <trkpt lat="49.41626" lon="1.12374">
        <ele>104.6</ele>
        <time>2022-02-27T08:58:14Z</time>
      </trkpt>
      <trkpt lat="49.41626" lon="1.12383">
        <ele>105.1</ele>
        <time>2022-02-27T08:58:16Z</time>
      </trkpt>
      <trkpt lat="49.41625" lon="1.12389">
        <ele>105.4</ele>
        <time>2022-02-27T08:58:17Z</time>
      </trkpt>
      <trkpt lat="49.41625" lon="1.12397">
        <ele>105.8</ele>
        <time>2022-02-27T08:58:18Z</time>
      </trkpt>
      <trkpt lat="49.41626" lon="1.12405">
        <ele>106.2</ele>
        <time>2022-02-27T08:58:20Z</time>
      </trkpt>
      <trkpt lat="49.41627" lon="1.1241">
        <ele>106.4</ele>
        <time>2022-02-27T08:58:21Z</time>
      </trkpt>
      <trkpt lat="49.41627" lon="1.12415">
        <ele>106.6</ele>
        <time>2022-02-27T08:58:22Z</time>
      </trkpt>
      <trkpt lat="49.41628" lon="1.1242">
        <ele>106.8</ele>
        <time>2022-02-27T08:58:23Z</time>
      </trkpt>
      <trkpt lat="49.41628" lon="1.12426">
        <ele>107.1</ele>
        <time>2022-02-27T08:58:24Z</time>
      </trkpt>
      <trkpt lat="49.41629" lon="1.12432">
        <ele>107.3</ele>
        <time>2022-02-27T08:58:26Z</time>
      </trkpt>
      <trkpt lat="49.41629" lon="1.12438">
        <ele>107.6</ele>
        <time>2022-02-27T08:58:27Z</time>
      </trkpt>
      <trkpt lat="49.41629" lon="1.1244">
        <ele>107.7</ele>
        <time>2022-02-27T08:58:28Z</time>
      </trkpt>
      <trkpt lat="49.41628" lon="1.12446">
        <ele>107.9</ele>
        <time>2022-02-27T08:58:29Z</time>
      </trkpt>
      <trkpt lat="49.41629" lon="1.12448">
        <ele>108</ele>
        <time>2022-02-27T08:58:30Z</time>
      </trkpt>
      <trkpt lat="49.41629" lon="1.12454">
        <ele>108.2</ele>
        <time>2022-02-27T08:58:31Z</time>
      </trkpt>
      <trkpt lat="49.4163" lon="1.12456">
        <ele>108.3</ele>
        <time>2022-02-27T08:58:32Z</time>
      </trkpt>
      <trkpt lat="49.4163" lon="1.12461">
        <ele>108.6</ele>
        <time>2022-02-27T08:58:33Z</time>
      </trkpt>
      <trkpt lat="49.4163" lon="1.12468">
        <ele>108.8</ele>
        <time>2022-02-27T08:58:35Z</time>
      </trkpt>
      <trkpt lat="49.4163" lon="1.12473">
        <ele>109.1</ele>
        <time>2022-02-27T08:58:36Z</time>
      </trkpt>
      <trkpt lat="49.4163" lon="1.12475">
        <ele>109.2</ele>
        <time>2022-02-27T08:58:37Z</time>
      </trkpt>
      <trkpt lat="49.4163" lon="1.1248">
        <ele>109.4</ele>
        <time>2022-02-27T08:58:38Z</time>
      </trkpt>
      <trkpt lat="49.41629" lon="1.12482">
        <ele>109.5</ele>
        <time>2022-02-27T08:58:39Z</time>
      </trkpt>
      <trkpt lat="49.4163" lon="1.12484">
        <ele>109.6</ele>
        <time>2022-02-27T08:58:40Z</time>
      </trkpt>
      <trkpt lat="49.4163" lon="1.12487">
        <ele>109.7</ele>
        <time>2022-02-27T08:58:41Z</time>
      </trkpt>
      <trkpt lat="49.4163" lon="1.12492">
        <ele>109.9</ele>
        <time>2022-02-27T08:58:42Z</time>
      </trkpt>
      <trkpt lat="49.4163" lon="1.12493">
        <ele>110</ele>
        <time>2022-02-27T08:58:43Z</time>
      </trkpt>
      <trkpt lat="49.41631" lon="1.12498">
        <ele>110.2</ele>
        <time>2022-02-27T08:58:44Z</time>
      </trkpt>
      <trkpt lat="49.41631" lon="1.125">
        <ele>110.3</ele>
        <time>2022-02-27T08:58:45Z</time>
      </trkpt>
      <trkpt lat="49.41632" lon="1.12504">
        <ele>110.5</ele>
        <time>2022-02-27T08:58:46Z</time>
      </trkpt>
      <trkpt lat="49.41632" lon="1.12506">
        <ele>110.6</ele>
        <time>2022-02-27T08:58:47Z</time>
      </trkpt>
      <trkpt lat="49.41632" lon="1.12512">
        <ele>110.8</ele>
        <time>2022-02-27T08:58:49Z</time>
      </trkpt>
      <trkpt lat="49.41632" lon="1.12517">
        <ele>111</ele>
        <time>2022-02-27T08:58:50Z</time>
      </trkpt>
      <trkpt lat="49.41633" lon="1.12524">
        <ele>111.3</ele>
        <time>2022-02-27T08:58:51Z</time>
      </trkpt>
      <trkpt lat="49.41634" lon="1.12526">
        <ele>111.4</ele>
        <time>2022-02-27T08:58:52Z</time>
      </trkpt>
      <trkpt lat="49.41635" lon="1.12533">
        <ele>111.7</ele>
        <time>2022-02-27T08:58:54Z</time>
      </trkpt>
      <trkpt lat="49.41635" lon="1.12539">
        <ele>112</ele>
        <time>2022-02-27T08:58:55Z</time>
      </trkpt>
      <trkpt lat="49.41636" lon="1.12544">
        <ele>112.2</ele>
        <time>2022-02-27T08:58:56Z</time>
      </trkpt>
      <trkpt lat="49.41637" lon="1.12548">
        <ele>112.4</ele>
        <time>2022-02-27T08:58:57Z</time>
      </trkpt>
      <trkpt lat="49.41638" lon="1.12555">
        <ele>112.7</ele>
        <time>2022-02-27T08:58:59Z</time>
      </trkpt>
      <trkpt lat="49.41639" lon="1.12561">
        <ele>113</ele>
        <time>2022-02-27T08:59:00Z</time>
      </trkpt>
      <trkpt lat="49.4164" lon="1.12568">
        <ele>113.4</ele>
        <time>2022-02-27T08:59:01Z</time>
      </trkpt>
      <trkpt lat="49.41641" lon="1.12574">
        <ele>113.7</ele>
        <time>2022-02-27T08:59:03Z</time>
      </trkpt>
      <trkpt lat="49.41642" lon="1.12578">
        <ele>113.9</ele>
        <time>2022-02-27T08:59:04Z</time>
      </trkpt>
      <trkpt lat="49.41644" lon="1.12584">
        <ele>114.3</ele>
        <time>2022-02-27T08:59:05Z</time>
      </trkpt>
      <trkpt lat="49.41646" lon="1.12589">
        <ele>114.7</ele>
        <time>2022-02-27T08:59:07Z</time>
      </trkpt>
      <trkpt lat="49.41648" lon="1.12592">
        <ele>114.9</ele>
        <time>2022-02-27T08:59:08Z</time>
      </trkpt>
      <trkpt lat="49.4165" lon="1.12596">
        <ele>115.3</ele>
        <time>2022-02-27T08:59:10Z</time>
      </trkpt>
      <trkpt lat="49.41653" lon="1.12599">
        <ele>115.6</ele>
        <time>2022-02-27T08:59:11Z</time>
      </trkpt>
      <trkpt lat="49.41655" lon="1.12602">
        <ele>115.9</ele>
        <time>2022-02-27T08:59:12Z</time>
      </trkpt>
      <trkpt lat="49.41656" lon="1.12603">
        <ele>116</ele>
        <time>2022-02-27T08:59:13Z</time>
      </trkpt>
      <trkpt lat="49.41659" lon="1.12606">
        <ele>116.3</ele>
        <time>2022-02-27T08:59:14Z</time>
      </trkpt>
      <trkpt lat="49.4166" lon="1.12607">
        <ele>116.5</ele>
        <time>2022-02-27T08:59:15Z</time>
      </trkpt>
      <trkpt lat="49.41662" lon="1.1261">
        <ele>116.7</ele>
        <time>2022-02-27T08:59:16Z</time>
      </trkpt>
      <trkpt lat="49.41665" lon="1.12613">
        <ele>117.1</ele>
        <time>2022-02-27T08:59:18Z</time>
      </trkpt>
      <trkpt lat="49.41668" lon="1.12617">
        <ele>117.6</ele>
        <time>2022-02-27T08:59:19Z</time>
      </trkpt>
      <trkpt lat="49.41669" lon="1.12619">
        <ele>117.8</ele>
        <time>2022-02-27T08:59:20Z</time>
      </trkpt>
      <trkpt lat="49.41672" lon="1.12625">
        <ele>118.5</ele>
        <time>2022-02-27T08:59:22Z</time>
      </trkpt>
      <trkpt lat="49.41673" lon="1.12627">
        <ele>118.7</ele>
        <time>2022-02-27T08:59:23Z</time>
      </trkpt>
      <trkpt lat="49.41674" lon="1.12629">
        <ele>119</ele>
        <time>2022-02-27T08:59:24Z</time>
      </trkpt>
      <trkpt lat="49.41675" lon="1.12633">
        <ele>119.6</ele>
        <time>2022-02-27T08:59:25Z</time>
      </trkpt>
      <trkpt lat="49.41676" lon="1.12635">
        <ele>119.8</ele>
        <time>2022-02-27T08:59:26Z</time>
      </trkpt>
      <trkpt lat="49.41678" lon="1.12638">
        <ele>120.4</ele>
        <time>2022-02-27T08:59:27Z</time>
      </trkpt>
      <trkpt lat="49.41679" lon="1.12639">
        <ele>120.6</ele>
        <time>2022-02-27T08:59:28Z</time>
      </trkpt>
      <trkpt lat="49.4168" lon="1.12641">
        <ele>121.1</ele>
        <time>2022-02-27T08:59:29Z</time>
      </trkpt>
      <trkpt lat="49.41681" lon="1.12643">
        <ele>121.5</ele>
        <time>2022-02-27T08:59:30Z</time>
      </trkpt>
      <trkpt lat="49.41681" lon="1.12647">
        <ele>122.2</ele>
        <time>2022-02-27T08:59:32Z</time>
      </trkpt>
      <trkpt lat="49.41681" lon="1.1265">
        <ele>122.6</ele>
        <time>2022-02-27T08:59:33Z</time>
      </trkpt>
      <trkpt lat="49.41681" lon="1.12651">
        <ele>122.9</ele>
        <time>2022-02-27T08:59:34Z</time>
      </trkpt>
      <trkpt lat="49.41681" lon="1.12652">
        <ele>123.1</ele>
        <time>2022-02-27T08:59:35Z</time>
      </trkpt>
      <trkpt lat="49.41681" lon="1.12653">
        <ele>123.3</ele>
        <time>2022-02-27T08:59:36Z</time>
      </trkpt>
      <trkpt lat="49.41682" lon="1.12653">
        <ele>123.4</ele>
        <time>2022-02-27T08:59:37Z</time>
      </trkpt>
      <trkpt lat="49.41682" lon="1.12652">
        <ele>123.6</ele>
        <time>2022-02-27T08:59:38Z</time>
      </trkpt>
      <trkpt lat="49.41683" lon="1.12652">
        <ele>123.7</ele>
        <time>2022-02-27T08:59:39Z</time>
      </trkpt>
      <trkpt lat="49.41683" lon="1.12652">
        <ele>123.9</ele>
        <time>2022-02-27T08:59:40Z</time>
      </trkpt>
      <trkpt lat="49.41683" lon="1.12651">
        <ele>124</ele>
        <time>2022-02-27T08:59:41Z</time>
      </trkpt>
      <trkpt lat="49.41684" lon="1.12651">
        <ele>124.2</ele>
        <time>2022-02-27T08:59:42Z</time>
      </trkpt>
      <trkpt lat="49.41684" lon="1.12651">
        <ele>124.4</ele>
        <time>2022-02-27T08:59:43Z</time>
      </trkpt>
      <trkpt lat="49.41685" lon="1.1265">
        <ele>124.5</ele>
        <time>2022-02-27T08:59:44Z</time>
      </trkpt>
      <trkpt lat="49.41685" lon="1.1265">
        <ele>124.7</ele>
        <time>2022-02-27T08:59:45Z</time>
      </trkpt>
      <trkpt lat="49.41686" lon="1.1265">
        <ele>124.8</ele>
        <time>2022-02-27T08:59:46Z</time>
      </trkpt>
      <trkpt lat="49.41686" lon="1.1265">
        <ele>125</ele>
        <time>2022-02-27T08:59:47Z</time>
      </trkpt>
      <trkpt lat="49.41687" lon="1.12649">
        <ele>125.1</ele>
        <time>2022-02-27T08:59:48Z</time>
      </trkpt>
      <trkpt lat="49.41687" lon="1.12649">
        <ele>125.3</ele>
        <time>2022-02-27T09:00:45Z</time>
      </trkpt>
      <trkpt lat="49.41687" lon="1.12649">
        <ele>125.5</ele>
        <time>2022-02-27T09:00:46Z</time>
      </trkpt>
      <trkpt lat="49.41688" lon="1.12648">
        <ele>125.6</ele>
        <time>2022-02-27T09:00:47Z</time>
      </trkpt>
      <trkpt lat="49.41689" lon="1.12648">
        <ele>126.1</ele>
        <time>2022-02-27T09:00:48Z</time>
      </trkpt>
      <trkpt lat="49.41691" lon="1.12649">
        <ele>126.7</ele>
        <time>2022-02-27T09:00:49Z</time>
      </trkpt>
      <trkpt lat="49.41694" lon="1.1265">
        <ele>127.7</ele>
        <time>2022-02-27T09:00:50Z</time>
      </trkpt>
      <trkpt lat="49.41695" lon="1.12651">
        <ele>128.1</ele>
        <time>2022-02-27T09:00:51Z</time>
      </trkpt>
      <trkpt lat="49.41697" lon="1.12652">
        <ele>128.6</ele>
        <time>2022-02-27T09:00:53Z</time>
      </trkpt>
      <trkpt lat="49.41698" lon="1.12654">
        <ele>129</ele>
        <time>2022-02-27T09:00:54Z</time>
      </trkpt>
      <trkpt lat="49.41698" lon="1.12655">
        <ele>129.4</ele>
        <time>2022-02-27T09:00:55Z</time>
      </trkpt>
      <trkpt lat="49.417" lon="1.12658">
        <ele>129.7</ele>
        <time>2022-02-27T09:00:57Z</time>
      </trkpt>
      <trkpt lat="49.417" lon="1.12659">
        <ele>129.7</ele>
        <time>2022-02-27T09:00:58Z</time>
      </trkpt>
      <trkpt lat="49.417" lon="1.1266">
        <ele>129.8</ele>
        <time>2022-02-27T09:01:00Z</time>
      </trkpt>
      <trkpt lat="49.417" lon="1.12661">
        <ele>129.8</ele>
        <time>2022-02-27T09:01:01Z</time>
      </trkpt>
      <trkpt lat="49.417" lon="1.12661">
        <ele>129.9</ele>
        <time>2022-02-27T09:01:02Z</time>
      </trkpt>
      <trkpt lat="49.417" lon="1.12661">
        <ele>129.9</ele>
        <time>2022-02-27T09:01:03Z</time>
      </trkpt>
      <trkpt lat="49.417" lon="1.12662">
        <ele>129.9</ele>
        <time>2022-02-27T09:01:04Z</time>
      </trkpt>
      <trkpt lat="49.417" lon="1.12662">
        <ele>129.9</ele>
        <time>2022-02-27T09:01:05Z</time>
      </trkpt>
      <trkpt lat="49.417" lon="1.12663">
        <ele>130</ele>
        <time>2022-02-27T09:01:06Z</time>
      </trkpt>
      <trkpt lat="49.41701" lon="1.12664">
        <ele>130</ele>
        <time>2022-02-27T09:01:08Z</time>
      </trkpt>
      <trkpt lat="49.41701" lon="1.12665">
        <ele>130.1</ele>
        <time>2022-02-27T09:01:09Z</time>
      </trkpt>
      <trkpt lat="49.41701" lon="1.12665">
        <ele>130.1</ele>
        <time>2022-02-27T09:01:10Z</time>
      </trkpt>
      <trkpt lat="49.41701" lon="1.12666">
        <ele>130.1</ele>
        <time>2022-02-27T09:01:11Z</time>
      </trkpt>
      <trkpt lat="49.41701" lon="1.12666">
        <ele>130.2</ele>
        <time>2022-02-27T09:01:12Z</time>
      </trkpt>
      <trkpt lat="49.41701" lon="1.12667">
        <ele>130.2</ele>
        <time>2022-02-27T09:01:13Z</time>
      </trkpt>
      <trkpt lat="49.41701" lon="1.12668">
        <ele>130.2</ele>
        <time>2022-02-27T09:01:14Z</time>
      </trkpt>
      <trkpt lat="49.41701" lon="1.12669">
        <ele>130.3</ele>
        <time>2022-02-27T09:01:15Z</time>
      </trkpt>
      <trkpt lat="49.41701" lon="1.1267">
        <ele>130.3</ele>
        <time>2022-02-27T09:01:16Z</time>
      </trkpt>
      <trkpt lat="49.41702" lon="1.12671">
        <ele>130.4</ele>
        <time>2022-02-27T09:01:17Z</time>
      </trkpt>
      <trkpt lat="49.41702" lon="1.12672">
        <ele>130.4</ele>
        <time>2022-02-27T09:01:18Z</time>
      </trkpt>
      <trkpt lat="49.41702" lon="1.12673">
        <ele>130.5</ele>
        <time>2022-02-27T09:01:19Z</time>
      </trkpt>
      <trkpt lat="49.41702" lon="1.12674">
        <ele>130.5</ele>
        <time>2022-02-27T09:01:20Z</time>
      </trkpt>
      <trkpt lat="49.41702" lon="1.12675">
        <ele>130.6</ele>
        <time>2022-02-27T09:01:21Z</time>
      </trkpt>
      <trkpt lat="49.41701" lon="1.12676">
        <ele>130.6</ele>
        <time>2022-02-27T09:01:22Z</time>
      </trkpt>
      <trkpt lat="49.41701" lon="1.12676">
        <ele>130.7</ele>
        <time>2022-02-27T09:01:23Z</time>
      </trkpt>
      <trkpt lat="49.41701" lon="1.12676">
        <ele>130.7</ele>
        <time>2022-02-27T09:01:24Z</time>
      </trkpt>
      <trkpt lat="49.417" lon="1.12676">
        <ele>130.7</ele>
        <time>2022-02-27T09:01:26Z</time>
      </trkpt>
      <trkpt lat="49.41701" lon="1.12675">
        <ele>130.7</ele>
        <time>2022-02-27T09:01:27Z</time>
      </trkpt>
      <trkpt lat="49.41702" lon="1.12675">
        <ele>130.8</ele>
        <time>2022-02-27T09:01:28Z</time>
      </trkpt>
      <trkpt lat="49.41702" lon="1.12675">
        <ele>130.8</ele>
        <time>2022-02-27T09:01:29Z</time>
      </trkpt>
      <trkpt lat="49.41702" lon="1.12675">
        <ele>130.8</ele>
        <time>2022-02-27T09:01:30Z</time>
      </trkpt>
      <trkpt lat="49.41702" lon="1.12675">
        <ele>130.9</ele>
        <time>2022-02-27T09:01:31Z</time>
      </trkpt>
      <trkpt lat="49.41703" lon="1.12674">
        <ele>130.9</ele>
        <time>2022-02-27T09:01:32Z</time>
      </trkpt>
      <trkpt lat="49.41704" lon="1.12675">
        <ele>130.9</ele>
        <time>2022-02-27T09:01:33Z</time>
      </trkpt>
      <trkpt lat="49.41704" lon="1.12675">
        <ele>130.9</ele>
        <time>2022-02-27T09:01:34Z</time>
      </trkpt>
      <trkpt lat="49.41704" lon="1.12675">
        <ele>131</ele>
        <time>2022-02-27T09:01:35Z</time>
      </trkpt>
      <trkpt lat="49.41705" lon="1.12675">
        <ele>131</ele>
        <time>2022-02-27T09:01:36Z</time>
      </trkpt>
      <trkpt lat="49.41705" lon="1.12675">
        <ele>131</ele>
        <time>2022-02-27T09:01:37Z</time>
      </trkpt>
      <trkpt lat="49.41706" lon="1.12675">
        <ele>131</ele>
        <time>2022-02-27T09:01:38Z</time>
      </trkpt>
      <trkpt lat="49.41706" lon="1.12675">
        <ele>131.1</ele>
        <time>2022-02-27T09:01:39Z</time>
      </trkpt>
      <trkpt lat="49.41706" lon="1.12675">
        <ele>131.1</ele>
        <time>2022-02-27T09:01:40Z</time>
      </trkpt>
      <trkpt lat="49.41706" lon="1.12675">
        <ele>131.1</ele>
        <time>2022-02-27T09:01:41Z</time>
      </trkpt>
      <trkpt lat="49.41706" lon="1.12676">
        <ele>131.1</ele>
        <time>2022-02-27T09:01:42Z</time>
      </trkpt>
      <trkpt lat="49.41706" lon="1.12675">
        <ele>131.1</ele>
        <time>2022-02-27T09:01:43Z</time>
      </trkpt>
      <trkpt lat="49.41712" lon="1.12678">
        <ele>131.4</ele>
        <time>2022-02-27T09:02:42Z</time>
      </trkpt>
      <trkpt lat="49.41713" lon="1.12679">
        <ele>131.5</ele>
        <time>2022-02-27T09:02:43Z</time>
      </trkpt>
      <trkpt lat="49.41714" lon="1.1268">
        <ele>131.5</ele>
        <time>2022-02-27T09:02:44Z</time>
      </trkpt>
      <trkpt lat="49.41714" lon="1.1268">
        <ele>131.5</ele>
        <time>2022-02-27T09:02:45Z</time>
      </trkpt>
      <trkpt lat="49.41715" lon="1.1268">
        <ele>131.5</ele>
        <time>2022-02-27T09:02:46Z</time>
      </trkpt>
      <trkpt lat="49.41715" lon="1.12679">
        <ele>131.5</ele>
        <time>2022-02-27T09:02:47Z</time>
      </trkpt>
      <trkpt lat="49.41715" lon="1.12679">
        <ele>131.6</ele>
        <time>2022-02-27T09:02:48Z</time>
      </trkpt>
      <trkpt lat="49.41715" lon="1.12679">
        <ele>131.6</ele>
        <time>2022-02-27T09:02:49Z</time>
      </trkpt>
      <trkpt lat="49.41715" lon="1.12678">
        <ele>131.6</ele>
        <time>2022-02-27T09:02:50Z</time>
      </trkpt>
      <trkpt lat="49.41715" lon="1.12678">
        <ele>131.6</ele>
        <time>2022-02-27T09:02:51Z</time>
      </trkpt>
      <trkpt lat="49.41715" lon="1.12678">
        <ele>131.6</ele>
        <time>2022-02-27T09:02:52Z</time>
      </trkpt>
      <trkpt lat="49.41716" lon="1.12678">
        <ele>131.6</ele>
        <time>2022-02-27T09:02:53Z</time>
      </trkpt>
      <trkpt lat="49.41716" lon="1.12678">
        <ele>131.6</ele>
        <time>2022-02-27T09:02:54Z</time>
      </trkpt>
      <trkpt lat="49.41716" lon="1.12678">
        <ele>131.7</ele>
        <time>2022-02-27T09:02:55Z</time>
      </trkpt>
      <trkpt lat="49.41716" lon="1.12678">
        <ele>131.7</ele>
        <time>2022-02-27T09:02:56Z</time>
      </trkpt>
      <trkpt lat="49.41716" lon="1.12678">
        <ele>131.7</ele>
        <time>2022-02-27T09:02:57Z</time>
      </trkpt>
      <trkpt lat="49.41716" lon="1.12678">
        <ele>131.7</ele>
        <time>2022-02-27T09:02:58Z</time>
      </trkpt>
      <trkpt lat="49.41716" lon="1.12678">
        <ele>131.7</ele>
        <time>2022-02-27T09:02:59Z</time>
      </trkpt>
      <trkpt lat="49.41716" lon="1.12678">
        <ele>131.7</ele>
        <time>2022-02-27T09:03:00Z</time>
      </trkpt>
      <trkpt lat="49.41716" lon="1.12678">
        <ele>131.7</ele>
        <time>2022-02-27T09:03:01Z</time>
      </trkpt>
      <trkpt lat="49.41716" lon="1.12678">
        <ele>131.7</ele>
        <time>2022-02-27T09:03:03Z</time>
      </trkpt>
      <trkpt lat="49.41717" lon="1.12678">
        <ele>131.7</ele>
        <time>2022-02-27T09:03:04Z</time>
      </trkpt>
      <trkpt lat="49.41717" lon="1.12678">
        <ele>131.7</ele>
        <time>2022-02-27T09:03:05Z</time>
      </trkpt>
      <trkpt lat="49.41717" lon="1.12678">
        <ele>131.7</ele>
        <time>2022-02-27T09:03:06Z</time>
      </trkpt>
      <trkpt lat="49.41722" lon="1.12674">
        <ele>131.9</ele>
        <time>2022-02-27T09:03:46Z</time>
      </trkpt>
      <trkpt lat="49.41723" lon="1.12673">
        <ele>131.9</ele>
        <time>2022-02-27T09:03:47Z</time>
      </trkpt>
      <trkpt lat="49.41721" lon="1.12674">
        <ele>132</ele>
        <time>2022-02-27T09:03:48Z</time>
      </trkpt>
      <trkpt lat="49.41721" lon="1.12674">
        <ele>132</ele>
        <time>2022-02-27T09:03:49Z</time>
      </trkpt>
      <trkpt lat="49.41722" lon="1.12674">
        <ele>132</ele>
        <time>2022-02-27T09:03:50Z</time>
      </trkpt>
      <trkpt lat="49.41722" lon="1.12674">
        <ele>132</ele>
        <time>2022-02-27T09:03:51Z</time>
      </trkpt>
      <trkpt lat="49.41722" lon="1.12674">
        <ele>132</ele>
        <time>2022-02-27T09:03:53Z</time>
      </trkpt>
      <trkpt lat="49.41722" lon="1.12674">
        <ele>132</ele>
        <time>2022-02-27T09:03:54Z</time>
      </trkpt>
      <trkpt lat="49.41722" lon="1.12674">
        <ele>132</ele>
        <time>2022-02-27T09:03:55Z</time>
      </trkpt>
      <trkpt lat="49.41722" lon="1.12674">
        <ele>132</ele>
        <time>2022-02-27T09:03:56Z</time>
      </trkpt>
      <trkpt lat="49.41723" lon="1.12674">
        <ele>132.1</ele>
        <time>2022-02-27T09:03:57Z</time>
      </trkpt>
      <trkpt lat="49.41723" lon="1.12674">
        <ele>132.1</ele>
        <time>2022-02-27T09:03:58Z</time>
      </trkpt>
      <trkpt lat="49.41723" lon="1.12674">
        <ele>132.1</ele>
        <time>2022-02-27T09:03:59Z</time>
      </trkpt>
      <trkpt lat="49.41724" lon="1.12674">
        <ele>132.1</ele>
        <time>2022-02-27T09:04:00Z</time>
      </trkpt>
      <trkpt lat="49.41725" lon="1.12673">
        <ele>132.1</ele>
        <time>2022-02-27T09:04:01Z</time>
      </trkpt>
      <trkpt lat="49.41726" lon="1.12674">
        <ele>132.2</ele>
        <time>2022-02-27T09:04:02Z</time>
      </trkpt>
      <trkpt lat="49.41728" lon="1.12676">
        <ele>132.3</ele>
        <time>2022-02-27T09:04:03Z</time>
      </trkpt>
      <trkpt lat="49.41729" lon="1.12679">
        <ele>132.4</ele>
        <time>2022-02-27T09:04:04Z</time>
      </trkpt>
      <trkpt lat="49.41729" lon="1.1268">
        <ele>132.4</ele>
        <time>2022-02-27T09:04:06Z</time>
      </trkpt>
      <trkpt lat="49.41729" lon="1.12682">
        <ele>132.5</ele>
        <time>2022-02-27T09:04:07Z</time>
      </trkpt>
      <trkpt lat="49.41728" lon="1.12686">
        <ele>132.7</ele>
        <time>2022-02-27T09:04:08Z</time>
      </trkpt>
      <trkpt lat="49.41728" lon="1.12688">
        <ele>132.7</ele>
        <time>2022-02-27T09:04:09Z</time>
      </trkpt>
      <trkpt lat="49.41727" lon="1.1269">
        <ele>132.8</ele>
        <time>2022-02-27T09:04:10Z</time>
      </trkpt>
      <trkpt lat="49.41726" lon="1.12694">
        <ele>133</ele>
        <time>2022-02-27T09:04:12Z</time>
      </trkpt>
      <trkpt lat="49.41724" lon="1.12697">
        <ele>133.2</ele>
        <time>2022-02-27T09:04:13Z</time>
      </trkpt>
      <trkpt lat="49.41723" lon="1.12699">
        <ele>133.3</ele>
        <time>2022-02-27T09:04:14Z</time>
      </trkpt>
      <trkpt lat="49.41722" lon="1.12702">
        <ele>133.5</ele>
        <time>2022-02-27T09:04:15Z</time>
      </trkpt>
      <trkpt lat="49.41719" lon="1.12706">
        <ele>133.8</ele>
        <time>2022-02-27T09:04:16Z</time>
      </trkpt>
      <trkpt lat="49.41716" lon="1.12708">
        <ele>134</ele>
        <time>2022-02-27T09:04:17Z</time>
      </trkpt>
      <trkpt lat="49.41713" lon="1.12714">
        <ele>134.3</ele>
        <time>2022-02-27T09:04:19Z</time>
      </trkpt>
      <trkpt lat="49.41712" lon="1.12716">
        <ele>134.4</ele>
        <time>2022-02-27T09:04:20Z</time>
      </trkpt>
      <trkpt lat="49.41711" lon="1.12718">
        <ele>134.5</ele>
        <time>2022-02-27T09:04:21Z</time>
      </trkpt>
      <trkpt lat="49.41709" lon="1.12722">
        <ele>134.7</ele>
        <time>2022-02-27T09:04:22Z</time>
      </trkpt>
      <trkpt lat="49.41709" lon="1.12724">
        <ele>134.8</ele>
        <time>2022-02-27T09:04:23Z</time>
      </trkpt>
      <trkpt lat="49.41706" lon="1.12729">
        <ele>135</ele>
        <time>2022-02-27T09:04:24Z</time>
      </trkpt>
      <trkpt lat="49.41704" lon="1.12735">
        <ele>135.3</ele>
        <time>2022-02-27T09:04:26Z</time>
      </trkpt>
      <trkpt lat="49.41702" lon="1.12739">
        <ele>135.4</ele>
        <time>2022-02-27T09:04:27Z</time>
      </trkpt>
      <trkpt lat="49.41701" lon="1.12743">
        <ele>135.5</ele>
        <time>2022-02-27T09:04:28Z</time>
      </trkpt>
      <trkpt lat="49.41698" lon="1.12749">
        <ele>135.7</ele>
        <time>2022-02-27T09:04:29Z</time>
      </trkpt>
      <trkpt lat="49.41697" lon="1.12752">
        <ele>135.8</ele>
        <time>2022-02-27T09:04:30Z</time>
      </trkpt>
      <trkpt lat="49.41695" lon="1.12757">
        <ele>136</ele>
        <time>2022-02-27T09:04:32Z</time>
      </trkpt>
      <trkpt lat="49.41693" lon="1.12761">
        <ele>136.1</ele>
        <time>2022-02-27T09:04:33Z</time>
      </trkpt>
      <trkpt lat="49.41692" lon="1.12762">
        <ele>136.1</ele>
        <time>2022-02-27T09:04:34Z</time>
      </trkpt>
      <trkpt lat="49.41689" lon="1.12768">
        <ele>136.3</ele>
        <time>2022-02-27T09:04:35Z</time>
      </trkpt>
      <trkpt lat="49.41688" lon="1.12771">
        <ele>136.4</ele>
        <time>2022-02-27T09:04:36Z</time>
      </trkpt>
      <trkpt lat="49.41686" lon="1.12775">
        <ele>136.5</ele>
        <time>2022-02-27T09:04:38Z</time>
      </trkpt>
      <trkpt lat="49.41684" lon="1.12779">
        <ele>136.6</ele>
        <time>2022-02-27T09:04:39Z</time>
      </trkpt>
      <trkpt lat="49.41683" lon="1.12784">
        <ele>136.8</ele>
        <time>2022-02-27T09:04:40Z</time>
      </trkpt>
      <trkpt lat="49.41682" lon="1.12785">
        <ele>136.8</ele>
        <time>2022-02-27T09:04:41Z</time>
      </trkpt>
      <trkpt lat="49.41681" lon="1.12789">
        <ele>136.9</ele>
        <time>2022-02-27T09:04:42Z</time>
      </trkpt>
      <trkpt lat="49.41681" lon="1.1279">
        <ele>136.9</ele>
        <time>2022-02-27T09:04:43Z</time>
      </trkpt>
      <trkpt lat="49.41679" lon="1.12795">
        <ele>137.1</ele>
        <time>2022-02-27T09:04:45Z</time>
      </trkpt>
      <trkpt lat="49.41679" lon="1.12797">
        <ele>137.1</ele>
        <time>2022-02-27T09:04:46Z</time>
      </trkpt>
      <trkpt lat="49.41679" lon="1.128">
        <ele>137.2</ele>
        <time>2022-02-27T09:04:47Z</time>
      </trkpt>
      <trkpt lat="49.41678" lon="1.12803">
        <ele>137.3</ele>
        <time>2022-02-27T09:04:48Z</time>
      </trkpt>
      <trkpt lat="49.41678" lon="1.12805">
        <ele>137.3</ele>
        <time>2022-02-27T09:04:49Z</time>
      </trkpt>
      <trkpt lat="49.41677" lon="1.12807">
        <ele>137.3</ele>
        <time>2022-02-27T09:04:50Z</time>
      </trkpt>
      <trkpt lat="49.41677" lon="1.12808">
        <ele>137.4</ele>
        <time>2022-02-27T09:04:51Z</time>
      </trkpt>
      <trkpt lat="49.41677" lon="1.12809">
        <ele>137.5</ele>
        <time>2022-02-27T09:04:52Z</time>
      </trkpt>
      <trkpt lat="49.41677" lon="1.12811">
        <ele>137.5</ele>
        <time>2022-02-27T09:04:53Z</time>
      </trkpt>
      <trkpt lat="49.41677" lon="1.12813">
        <ele>137.6</ele>
        <time>2022-02-27T09:04:54Z</time>
      </trkpt>
      <trkpt lat="49.41677" lon="1.12814">
        <ele>137.6</ele>
        <time>2022-02-27T09:04:55Z</time>
      </trkpt>
      <trkpt lat="49.41677" lon="1.12817">
        <ele>137.7</ele>
        <time>2022-02-27T09:04:58Z</time>
      </trkpt>
      <trkpt lat="49.41676" lon="1.12818">
        <ele>137.7</ele>
        <time>2022-02-27T09:04:59Z</time>
      </trkpt>
      <trkpt lat="49.41676" lon="1.12819">
        <ele>137.7</ele>
        <time>2022-02-27T09:05:00Z</time>
      </trkpt>
      <trkpt lat="49.41676" lon="1.12819">
        <ele>137.8</ele>
        <time>2022-02-27T09:05:01Z</time>
      </trkpt>
      <trkpt lat="49.41676" lon="1.1282">
        <ele>137.8</ele>
        <time>2022-02-27T09:05:02Z</time>
      </trkpt>
      <trkpt lat="49.41676" lon="1.12821">
        <ele>137.8</ele>
        <time>2022-02-27T09:05:03Z</time>
      </trkpt>
      <trkpt lat="49.41676" lon="1.12821">
        <ele>137.8</ele>
        <time>2022-02-27T09:05:04Z</time>
      </trkpt>
      <trkpt lat="49.41676" lon="1.12822">
        <ele>137.9</ele>
        <time>2022-02-27T09:05:05Z</time>
      </trkpt>
      <trkpt lat="49.41675" lon="1.12823">
        <ele>137.9</ele>
        <time>2022-02-27T09:05:06Z</time>
      </trkpt>
      <trkpt lat="49.41675" lon="1.12827">
        <ele>138</ele>
        <time>2022-02-27T09:05:08Z</time>
      </trkpt>
      <trkpt lat="49.41674" lon="1.12828">
        <ele>138</ele>
        <time>2022-02-27T09:05:09Z</time>
      </trkpt>
      <trkpt lat="49.41673" lon="1.12834">
        <ele>138.2</ele>
        <time>2022-02-27T09:05:10Z</time>
      </trkpt>
      <trkpt lat="49.41672" lon="1.12837">
        <ele>138.3</ele>
        <time>2022-02-27T09:05:12Z</time>
      </trkpt>
      <trkpt lat="49.41672" lon="1.12841">
        <ele>138.4</ele>
        <time>2022-02-27T09:05:13Z</time>
      </trkpt>
      <trkpt lat="49.41671" lon="1.12845">
        <ele>138.5</ele>
        <time>2022-02-27T09:05:14Z</time>
      </trkpt>
      <trkpt lat="49.4167" lon="1.12851">
        <ele>138.7</ele>
        <time>2022-02-27T09:05:15Z</time>
      </trkpt>
      <trkpt lat="49.41669" lon="1.12858">
        <ele>138.9</ele>
        <time>2022-02-27T09:05:17Z</time>
      </trkpt>
      <trkpt lat="49.41669" lon="1.12864">
        <ele>139.1</ele>
        <time>2022-02-27T09:05:18Z</time>
      </trkpt>
      <trkpt lat="49.41668" lon="1.12869">
        <ele>139.2</ele>
        <time>2022-02-27T09:05:19Z</time>
      </trkpt>
      <trkpt lat="49.41668" lon="1.12876">
        <ele>139.4</ele>
        <time>2022-02-27T09:05:20Z</time>
      </trkpt>
      <trkpt lat="49.41667" lon="1.12879">
        <ele>139.5</ele>
        <time>2022-02-27T09:05:21Z</time>
      </trkpt>
      <trkpt lat="49.41667" lon="1.12886">
        <ele>139.6</ele>
        <time>2022-02-27T09:05:23Z</time>
      </trkpt>
      <trkpt lat="49.41666" lon="1.12892">
        <ele>139.8</ele>
        <time>2022-02-27T09:05:24Z</time>
      </trkpt>
      <trkpt lat="49.41665" lon="1.12898">
        <ele>140</ele>
        <time>2022-02-27T09:05:25Z</time>
      </trkpt>
      <trkpt lat="49.41665" lon="1.12904">
        <ele>140.1</ele>
        <time>2022-02-27T09:05:26Z</time>
      </trkpt>
      <trkpt lat="49.41665" lon="1.12909">
        <ele>140.3</ele>
        <time>2022-02-27T09:05:27Z</time>
      </trkpt>
      <trkpt lat="49.41664" lon="1.1292">
        <ele>140.6</ele>
        <time>2022-02-27T09:05:28Z</time>
      </trkpt>
      <trkpt lat="49.41663" lon="1.12929">
        <ele>140.9</ele>
        <time>2022-02-27T09:05:30Z</time>
      </trkpt>
      <trkpt lat="49.41663" lon="1.12937">
        <ele>141.1</ele>
        <time>2022-02-27T09:05:31Z</time>
      </trkpt>
      <trkpt lat="49.41662" lon="1.12942">
        <ele>141.3</ele>
        <time>2022-02-27T09:05:32Z</time>
      </trkpt>
      <trkpt lat="49.41662" lon="1.12951">
        <ele>141.5</ele>
        <time>2022-02-27T09:05:33Z</time>
      </trkpt>
      <trkpt lat="49.41662" lon="1.12961">
        <ele>141.8</ele>
        <time>2022-02-27T09:05:35Z</time>
      </trkpt>
      <trkpt lat="49.41662" lon="1.12968">
        <ele>142</ele>
        <time>2022-02-27T09:05:36Z</time>
      </trkpt>
      <trkpt lat="49.41662" lon="1.12974">
        <ele>142.2</ele>
        <time>2022-02-27T09:05:37Z</time>
      </trkpt>
      <trkpt lat="49.41662" lon="1.12982">
        <ele>142.4</ele>
        <time>2022-02-27T09:05:38Z</time>
      </trkpt>
      <trkpt lat="49.41662" lon="1.12988">
        <ele>142.6</ele>
        <time>2022-02-27T09:05:40Z</time>
      </trkpt>
      <trkpt lat="49.41663" lon="1.12994">
        <ele>142.8</ele>
        <time>2022-02-27T09:05:41Z</time>
      </trkpt>
      <trkpt lat="49.41663" lon="1.12998">
        <ele>142.9</ele>
        <time>2022-02-27T09:05:42Z</time>
      </trkpt>
      <trkpt lat="49.41663" lon="1.13004">
        <ele>143</ele>
        <time>2022-02-27T09:05:43Z</time>
      </trkpt>
      <trkpt lat="49.41664" lon="1.13009">
        <ele>143.2</ele>
        <time>2022-02-27T09:05:44Z</time>
      </trkpt>
      <trkpt lat="49.41664" lon="1.13016">
        <ele>143.4</ele>
        <time>2022-02-27T09:05:45Z</time>
      </trkpt>
      <trkpt lat="49.41665" lon="1.13023">
        <ele>143.6</ele>
        <time>2022-02-27T09:05:47Z</time>
      </trkpt>
      <trkpt lat="49.41665" lon="1.13029">
        <ele>143.8</ele>
        <time>2022-02-27T09:05:48Z</time>
      </trkpt>
      <trkpt lat="49.41666" lon="1.13035">
        <ele>144</ele>
        <time>2022-02-27T09:05:49Z</time>
      </trkpt>
      <trkpt lat="49.41666" lon="1.13043">
        <ele>144.2</ele>
        <time>2022-02-27T09:05:51Z</time>
      </trkpt>
      <trkpt lat="49.41667" lon="1.13049">
        <ele>144.4</ele>
        <time>2022-02-27T09:05:52Z</time>
      </trkpt>
      <trkpt lat="49.41667" lon="1.13054">
        <ele>144.6</ele>
        <time>2022-02-27T09:05:53Z</time>
      </trkpt>
      <trkpt lat="49.41668" lon="1.13058">
        <ele>144.7</ele>
        <time>2022-02-27T09:05:54Z</time>
      </trkpt>
      <trkpt lat="49.41668" lon="1.13063">
        <ele>144.8</ele>
        <time>2022-02-27T09:05:55Z</time>
      </trkpt>
      <trkpt lat="49.41669" lon="1.13067">
        <ele>144.9</ele>
        <time>2022-02-27T09:05:56Z</time>
      </trkpt>
      <trkpt lat="49.4167" lon="1.13071">
        <ele>144.9</ele>
        <time>2022-02-27T09:05:57Z</time>
      </trkpt>
      <trkpt lat="49.41673" lon="1.13077">
        <ele>145.3</ele>
        <time>2022-02-27T09:05:59Z</time>
      </trkpt>
      <trkpt lat="49.41676" lon="1.13078">
        <ele>145.3</ele>
        <time>2022-02-27T09:06:00Z</time>
      </trkpt>
      <trkpt lat="49.41678" lon="1.13077">
        <ele>145.3</ele>
        <time>2022-02-27T09:06:01Z</time>
      </trkpt>
      <trkpt lat="49.4168" lon="1.13076">
        <ele>145.9</ele>
        <time>2022-02-27T09:06:03Z</time>
      </trkpt>
      <trkpt lat="49.41682" lon="1.13075">
        <ele>145.9</ele>
        <time>2022-02-27T09:06:04Z</time>
      </trkpt>
      <trkpt lat="49.41686" lon="1.13073">
        <ele>146</ele>
        <time>2022-02-27T09:06:06Z</time>
      </trkpt>
      <trkpt lat="49.41688" lon="1.13072">
        <ele>146</ele>
        <time>2022-02-27T09:06:08Z</time>
      </trkpt>
      <trkpt lat="49.41692" lon="1.1307">
        <ele>146.1</ele>
        <time>2022-02-27T09:06:09Z</time>
      </trkpt>
      <trkpt lat="49.41693" lon="1.1307">
        <ele>146.1</ele>
        <time>2022-02-27T09:06:10Z</time>
      </trkpt>
      <trkpt lat="49.41697" lon="1.13068">
        <ele>146.2</ele>
        <time>2022-02-27T09:06:11Z</time>
      </trkpt>
      <trkpt lat="49.41699" lon="1.13067">
        <ele>146.2</ele>
        <time>2022-02-27T09:06:12Z</time>
      </trkpt>
      <trkpt lat="49.41703" lon="1.13065">
        <ele>146.3</ele>
        <time>2022-02-27T09:06:14Z</time>
      </trkpt>
      <trkpt lat="49.41707" lon="1.13063">
        <ele>146.4</ele>
        <time>2022-02-27T09:06:15Z</time>
      </trkpt>
      <trkpt lat="49.41708" lon="1.13062">
        <ele>146.4</ele>
        <time>2022-02-27T09:06:16Z</time>
      </trkpt>
      <trkpt lat="49.4171" lon="1.1306">
        <ele>146.5</ele>
        <time>2022-02-27T09:06:17Z</time>
      </trkpt>
      <trkpt lat="49.41714" lon="1.13057">
        <ele>146.6</ele>
        <time>2022-02-27T09:06:18Z</time>
      </trkpt>
      <trkpt lat="49.41717" lon="1.13053">
        <ele>146.6</ele>
        <time>2022-02-27T09:06:20Z</time>
      </trkpt>
      <trkpt lat="49.41721" lon="1.1305">
        <ele>146.7</ele>
        <time>2022-02-27T09:06:21Z</time>
      </trkpt>
      <trkpt lat="49.41722" lon="1.13048">
        <ele>146.8</ele>
        <time>2022-02-27T09:06:22Z</time>
      </trkpt>
      <trkpt lat="49.41724" lon="1.13046">
        <ele>146.8</ele>
        <time>2022-02-27T09:06:23Z</time>
      </trkpt>
      <trkpt lat="49.41728" lon="1.13041">
        <ele>146.9</ele>
        <time>2022-02-27T09:06:25Z</time>
      </trkpt>
      <trkpt lat="49.41731" lon="1.13038">
        <ele>147</ele>
        <time>2022-02-27T09:06:26Z</time>
      </trkpt>
      <trkpt lat="49.41733" lon="1.13035">
        <ele>147.1</ele>
        <time>2022-02-27T09:06:27Z</time>
      </trkpt>
      <trkpt lat="49.41736" lon="1.13031">
        <ele>147.2</ele>
        <time>2022-02-27T09:06:28Z</time>
      </trkpt>
      <trkpt lat="49.41739" lon="1.13027">
        <ele>147.3</ele>
        <time>2022-02-27T09:06:29Z</time>
      </trkpt>
      <trkpt lat="49.41743" lon="1.13022">
        <ele>147.4</ele>
        <time>2022-02-27T09:06:31Z</time>
      </trkpt>
      <trkpt lat="49.41746" lon="1.13019">
        <ele>147.5</ele>
        <time>2022-02-27T09:06:32Z</time>
      </trkpt>
      <trkpt lat="49.41748" lon="1.13015">
        <ele>147.6</ele>
        <time>2022-02-27T09:06:33Z</time>
      </trkpt>
      <trkpt lat="49.41751" lon="1.13012">
        <ele>147.7</ele>
        <time>2022-02-27T09:06:34Z</time>
      </trkpt>
      <trkpt lat="49.41754" lon="1.13008">
        <ele>147.9</ele>
        <time>2022-02-27T09:06:35Z</time>
      </trkpt>
      <trkpt lat="49.41756" lon="1.13005">
        <ele>148</ele>
        <time>2022-02-27T09:06:36Z</time>
      </trkpt>
      <trkpt lat="49.41758" lon="1.13002">
        <ele>148</ele>
        <time>2022-02-27T09:06:37Z</time>
      </trkpt>
      <trkpt lat="49.41762" lon="1.12998">
        <ele>148.2</ele>
        <time>2022-02-27T09:06:38Z</time>
      </trkpt>
      <trkpt lat="49.41766" lon="1.12993">
        <ele>148.3</ele>
        <time>2022-02-27T09:06:40Z</time>
      </trkpt>
      <trkpt lat="49.41768" lon="1.1299">
        <ele>148.3</ele>
        <time>2022-02-27T09:06:41Z</time>
      </trkpt>
      <trkpt lat="49.4177" lon="1.12986">
        <ele>148.4</ele>
        <time>2022-02-27T09:06:42Z</time>
      </trkpt>
      <trkpt lat="49.41772" lon="1.12982">
        <ele>148.4</ele>
        <time>2022-02-27T09:06:43Z</time>
      </trkpt>
      <trkpt lat="49.41775" lon="1.12976">
        <ele>148.4</ele>
        <time>2022-02-27T09:06:44Z</time>
      </trkpt>
      <trkpt lat="49.41777" lon="1.1297">
        <ele>148.4</ele>
        <time>2022-02-27T09:06:46Z</time>
      </trkpt>
      <trkpt lat="49.4178" lon="1.12965">
        <ele>148.4</ele>
        <time>2022-02-27T09:06:47Z</time>
      </trkpt>
      <trkpt lat="49.41782" lon="1.1296">
        <ele>148.4</ele>
        <time>2022-02-27T09:06:48Z</time>
      </trkpt>
      <trkpt lat="49.41784" lon="1.12955">
        <ele>148.4</ele>
        <time>2022-02-27T09:06:49Z</time>
      </trkpt>
      <trkpt lat="49.41787" lon="1.12949">
        <ele>148.3</ele>
        <time>2022-02-27T09:06:50Z</time>
      </trkpt>
      <trkpt lat="49.4179" lon="1.12942">
        <ele>148.3</ele>
        <time>2022-02-27T09:06:51Z</time>
      </trkpt>
      <trkpt lat="49.41793" lon="1.12936">
        <ele>148.2</ele>
        <time>2022-02-27T09:06:52Z</time>
      </trkpt>
      <trkpt lat="49.41795" lon="1.12929">
        <ele>148.2</ele>
        <time>2022-02-27T09:06:53Z</time>
      </trkpt>
      <trkpt lat="49.41802" lon="1.12913">
        <ele>148</ele>
        <time>2022-02-27T09:06:55Z</time>
      </trkpt>
      <trkpt lat="49.41804" lon="1.12906">
        <ele>148</ele>
        <time>2022-02-27T09:06:57Z</time>
      </trkpt>
      <trkpt lat="49.41807" lon="1.12899">
        <ele>148</ele>
        <time>2022-02-27T09:06:58Z</time>
      </trkpt>
      <trkpt lat="49.41809" lon="1.12894">
        <ele>148</ele>
        <time>2022-02-27T09:06:59Z</time>
      </trkpt>
      <trkpt lat="49.41811" lon="1.1289">
        <ele>147.9</ele>
        <time>2022-02-27T09:07:00Z</time>
      </trkpt>
      <trkpt lat="49.41813" lon="1.12885">
        <ele>147.9</ele>
        <time>2022-02-27T09:07:01Z</time>
      </trkpt>
      <trkpt lat="49.41815" lon="1.1288">
        <ele>147.9</ele>
        <time>2022-02-27T09:07:02Z</time>
      </trkpt>
      <trkpt lat="49.41818" lon="1.12873">
        <ele>147.8</ele>
        <time>2022-02-27T09:07:03Z</time>
      </trkpt>
      <trkpt lat="49.4182" lon="1.12867">
        <ele>147.8</ele>
        <time>2022-02-27T09:07:04Z</time>
      </trkpt>
      <trkpt lat="49.41822" lon="1.1286">
        <ele>147.8</ele>
        <time>2022-02-27T09:07:05Z</time>
      </trkpt>
      <trkpt lat="49.41824" lon="1.12855">
        <ele>147.7</ele>
        <time>2022-02-27T09:07:06Z</time>
      </trkpt>
      <trkpt lat="49.41827" lon="1.12849">
        <ele>147.7</ele>
        <time>2022-02-27T09:07:07Z</time>
      </trkpt>
      <trkpt lat="49.4183" lon="1.12843">
        <ele>147.7</ele>
        <time>2022-02-27T09:07:09Z</time>
      </trkpt>
      <trkpt lat="49.41832" lon="1.12837">
        <ele>147.7</ele>
        <time>2022-02-27T09:07:10Z</time>
      </trkpt>
      <trkpt lat="49.41835" lon="1.1283">
        <ele>147.7</ele>
        <time>2022-02-27T09:07:11Z</time>
      </trkpt>
      <trkpt lat="49.41839" lon="1.12827">
        <ele>147.7</ele>
        <time>2022-02-27T09:07:12Z</time>
      </trkpt>
      <trkpt lat="49.4184" lon="1.12826">
        <ele>147.7</ele>
        <time>2022-02-27T09:07:13Z</time>
      </trkpt>
      <trkpt lat="49.41841" lon="1.12824">
        <ele>147.7</ele>
        <time>2022-02-27T09:07:14Z</time>
      </trkpt>
      <trkpt lat="49.41842" lon="1.12823">
        <ele>147.7</ele>
        <time>2022-02-27T09:07:15Z</time>
      </trkpt>
      <trkpt lat="49.41842" lon="1.12823">
        <ele>147.7</ele>
        <time>2022-02-27T09:07:16Z</time>
      </trkpt>
      <trkpt lat="49.41842" lon="1.12823">
        <ele>147.7</ele>
        <time>2022-02-27T09:07:17Z</time>
      </trkpt>
      <trkpt lat="49.41842" lon="1.12823">
        <ele>147.7</ele>
        <time>2022-02-27T09:07:18Z</time>
      </trkpt>
      <trkpt lat="49.41843" lon="1.12814">
        <ele>147.7</ele>
        <time>2022-02-27T09:07:20Z</time>
      </trkpt>
      <trkpt lat="49.41846" lon="1.12803">
        <ele>147.7</ele>
        <time>2022-02-27T09:07:21Z</time>
      </trkpt>
      <trkpt lat="49.41849" lon="1.1279">
        <ele>147.8</ele>
        <time>2022-02-27T09:07:22Z</time>
      </trkpt>
      <trkpt lat="49.41853" lon="1.12778">
        <ele>147.8</ele>
        <time>2022-02-27T09:07:23Z</time>
      </trkpt>
      <trkpt lat="49.41858" lon="1.12763">
        <ele>147.9</ele>
        <time>2022-02-27T09:07:24Z</time>
      </trkpt>
      <trkpt lat="49.41862" lon="1.12754">
        <ele>147.9</ele>
        <time>2022-02-27T09:07:26Z</time>
      </trkpt>
      <trkpt lat="49.41865" lon="1.12746">
        <ele>147.9</ele>
        <time>2022-02-27T09:07:27Z</time>
      </trkpt>
      <trkpt lat="49.41868" lon="1.12738">
        <ele>148</ele>
        <time>2022-02-27T09:07:28Z</time>
      </trkpt>
      <trkpt lat="49.4187" lon="1.1273">
        <ele>148</ele>
        <time>2022-02-27T09:07:29Z</time>
      </trkpt>
      <trkpt lat="49.41873" lon="1.12723">
        <ele>148</ele>
        <time>2022-02-27T09:07:30Z</time>
      </trkpt>
      <trkpt lat="49.41876" lon="1.12717">
        <ele>148.1</ele>
        <time>2022-02-27T09:07:31Z</time>
      </trkpt>
      <trkpt lat="49.41878" lon="1.12711">
        <ele>148.1</ele>
        <time>2022-02-27T09:07:32Z</time>
      </trkpt>
      <trkpt lat="49.4188" lon="1.12705">
        <ele>148.1</ele>
        <time>2022-02-27T09:07:33Z</time>
      </trkpt>
      <trkpt lat="49.41883" lon="1.12701">
        <ele>148.2</ele>
        <time>2022-02-27T09:07:34Z</time>
      </trkpt>
      <trkpt lat="49.41886" lon="1.12697">
        <ele>148.2</ele>
        <time>2022-02-27T09:07:35Z</time>
      </trkpt>
      <trkpt lat="49.41889" lon="1.12692">
        <ele>148.2</ele>
        <time>2022-02-27T09:07:36Z</time>
      </trkpt>
      <trkpt lat="49.41892" lon="1.12687">
        <ele>148.3</ele>
        <time>2022-02-27T09:07:37Z</time>
      </trkpt>
      <trkpt lat="49.41896" lon="1.12682">
        <ele>148.3</ele>
        <time>2022-02-27T09:07:38Z</time>
      </trkpt>
      <trkpt lat="49.41899" lon="1.12677">
        <ele>148.3</ele>
        <time>2022-02-27T09:07:39Z</time>
      </trkpt>
      <trkpt lat="49.41903" lon="1.12672">
        <ele>148.3</ele>
        <time>2022-02-27T09:07:40Z</time>
      </trkpt>
      <trkpt lat="49.41907" lon="1.12668">
        <ele>148.4</ele>
        <time>2022-02-27T09:07:41Z</time>
      </trkpt>
      <trkpt lat="49.4191" lon="1.12663">
        <ele>148.4</ele>
        <time>2022-02-27T09:07:42Z</time>
      </trkpt>
      <trkpt lat="49.41914" lon="1.12659">
        <ele>148.4</ele>
        <time>2022-02-27T09:07:43Z</time>
      </trkpt>
      <trkpt lat="49.41918" lon="1.12654">
        <ele>148.4</ele>
        <time>2022-02-27T09:07:44Z</time>
      </trkpt>
      <trkpt lat="49.41923" lon="1.12646">
        <ele>148.4</ele>
        <time>2022-02-27T09:07:46Z</time>
      </trkpt>
      <trkpt lat="49.41927" lon="1.12641">
        <ele>148.4</ele>
        <time>2022-02-27T09:07:47Z</time>
      </trkpt>
      <trkpt lat="49.4193" lon="1.12636">
        <ele>148.4</ele>
        <time>2022-02-27T09:07:48Z</time>
      </trkpt>
      <trkpt lat="49.41934" lon="1.12631">
        <ele>148.4</ele>
        <time>2022-02-27T09:07:49Z</time>
      </trkpt>
      <trkpt lat="49.41937" lon="1.12626">
        <ele>148.4</ele>
        <time>2022-02-27T09:07:50Z</time>
      </trkpt>
      <trkpt lat="49.41941" lon="1.12622">
        <ele>148.5</ele>
        <time>2022-02-27T09:07:51Z</time>
      </trkpt>
      <trkpt lat="49.41944" lon="1.12618">
        <ele>148.5</ele>
        <time>2022-02-27T09:07:52Z</time>
      </trkpt>
      <trkpt lat="49.41947" lon="1.12614">
        <ele>148.5</ele>
        <time>2022-02-27T09:07:53Z</time>
      </trkpt>
      <trkpt lat="49.4195" lon="1.12611">
        <ele>148.5</ele>
        <time>2022-02-27T09:07:54Z</time>
      </trkpt>
      <trkpt lat="49.41954" lon="1.12608">
        <ele>148.5</ele>
        <time>2022-02-27T09:07:55Z</time>
      </trkpt>
      <trkpt lat="49.41958" lon="1.12605">
        <ele>148.5</ele>
        <time>2022-02-27T09:07:56Z</time>
      </trkpt>
      <trkpt lat="49.41961" lon="1.126">
        <ele>148.5</ele>
        <time>2022-02-27T09:07:57Z</time>
      </trkpt>
      <trkpt lat="49.41965" lon="1.12595">
        <ele>148.5</ele>
        <time>2022-02-27T09:07:58Z</time>
      </trkpt>
      <trkpt lat="49.41968" lon="1.12591">
        <ele>148.5</ele>
        <time>2022-02-27T09:07:59Z</time>
      </trkpt>
      <trkpt lat="49.41972" lon="1.12586">
        <ele>148.5</ele>
        <time>2022-02-27T09:08:00Z</time>
      </trkpt>
      <trkpt lat="49.41978" lon="1.12579">
        <ele>148.5</ele>
        <time>2022-02-27T09:08:01Z</time>
      </trkpt>
      <trkpt lat="49.4198" lon="1.12574">
        <ele>148.5</ele>
        <time>2022-02-27T09:08:02Z</time>
      </trkpt>
      <trkpt lat="49.41984" lon="1.12567">
        <ele>148.5</ele>
        <time>2022-02-27T09:08:03Z</time>
      </trkpt>
      <trkpt lat="49.41987" lon="1.12563">
        <ele>148.5</ele>
        <time>2022-02-27T09:08:04Z</time>
      </trkpt>
      <trkpt lat="49.41994" lon="1.12555">
        <ele>148.4</ele>
        <time>2022-02-27T09:08:06Z</time>
      </trkpt>
      <trkpt lat="49.41998" lon="1.12549">
        <ele>148.4</ele>
        <time>2022-02-27T09:08:07Z</time>
      </trkpt>
      <trkpt lat="49.42001" lon="1.12545">
        <ele>148.4</ele>
        <time>2022-02-27T09:08:08Z</time>
      </trkpt>
      <trkpt lat="49.42005" lon="1.1254">
        <ele>148.4</ele>
        <time>2022-02-27T09:08:09Z</time>
      </trkpt>
      <trkpt lat="49.42009" lon="1.12536">
        <ele>148.4</ele>
        <time>2022-02-27T09:08:10Z</time>
      </trkpt>
      <trkpt lat="49.42016" lon="1.12531">
        <ele>148.3</ele>
        <time>2022-02-27T09:08:11Z</time>
      </trkpt>
      <trkpt lat="49.42018" lon="1.12528">
        <ele>148.3</ele>
        <time>2022-02-27T09:08:12Z</time>
      </trkpt>
      <trkpt lat="49.42027" lon="1.12521">
        <ele>148.3</ele>
        <time>2022-02-27T09:08:14Z</time>
      </trkpt>
      <trkpt lat="49.42033" lon="1.12517">
        <ele>148.2</ele>
        <time>2022-02-27T09:08:16Z</time>
      </trkpt>
      <trkpt lat="49.42041" lon="1.12512">
        <ele>148.2</ele>
        <time>2022-02-27T09:08:17Z</time>
      </trkpt>
      <trkpt lat="49.42047" lon="1.12509">
        <ele>148.1</ele>
        <time>2022-02-27T09:08:18Z</time>
      </trkpt>
      <trkpt lat="49.42051" lon="1.12506">
        <ele>148.1</ele>
        <time>2022-02-27T09:08:19Z</time>
      </trkpt>
      <trkpt lat="49.42056" lon="1.12503">
        <ele>148.1</ele>
        <time>2022-02-27T09:08:20Z</time>
      </trkpt>
      <trkpt lat="49.42061" lon="1.125">
        <ele>148</ele>
        <time>2022-02-27T09:08:21Z</time>
      </trkpt>
      <trkpt lat="49.42065" lon="1.12496">
        <ele>148</ele>
        <time>2022-02-27T09:08:22Z</time>
      </trkpt>
      <trkpt lat="49.42069" lon="1.12494">
        <ele>148</ele>
        <time>2022-02-27T09:08:23Z</time>
      </trkpt>
      <trkpt lat="49.42073" lon="1.12492">
        <ele>148</ele>
        <time>2022-02-27T09:08:24Z</time>
      </trkpt>
      <trkpt lat="49.42078" lon="1.12491">
        <ele>148</ele>
        <time>2022-02-27T09:08:25Z</time>
      </trkpt>
      <trkpt lat="49.42083" lon="1.12491">
        <ele>148</ele>
        <time>2022-02-27T09:08:26Z</time>
      </trkpt>
      <trkpt lat="49.42087" lon="1.12491">
        <ele>148.1</ele>
        <time>2022-02-27T09:08:27Z</time>
      </trkpt>
      <trkpt lat="49.42091" lon="1.12493">
        <ele>148.1</ele>
        <time>2022-02-27T09:08:28Z</time>
      </trkpt>
      <trkpt lat="49.42093" lon="1.12492">
        <ele>148.1</ele>
        <time>2022-02-27T09:08:29Z</time>
      </trkpt>
      <trkpt lat="49.42098" lon="1.12495">
        <ele>148.2</ele>
        <time>2022-02-27T09:08:30Z</time>
      </trkpt>
      <trkpt lat="49.42106" lon="1.12498">
        <ele>148.3</ele>
        <time>2022-02-27T09:08:32Z</time>
      </trkpt>
      <trkpt lat="49.42111" lon="1.125">
        <ele>148.3</ele>
        <time>2022-02-27T09:08:33Z</time>
      </trkpt>
      <trkpt lat="49.42115" lon="1.12501">
        <ele>148.3</ele>
        <time>2022-02-27T09:08:34Z</time>
      </trkpt>
      <trkpt lat="49.42121" lon="1.12502">
        <ele>148.4</ele>
        <time>2022-02-27T09:08:35Z</time>
      </trkpt>
      <trkpt lat="49.42126" lon="1.12502">
        <ele>148.4</ele>
        <time>2022-02-27T09:08:36Z</time>
      </trkpt>
      <trkpt lat="49.42132" lon="1.12501">
        <ele>148.4</ele>
        <time>2022-02-27T09:08:37Z</time>
      </trkpt>
      <trkpt lat="49.42136" lon="1.125">
        <ele>148.4</ele>
        <time>2022-02-27T09:08:38Z</time>
      </trkpt>
      <trkpt lat="49.42141" lon="1.12499">
        <ele>148.4</ele>
        <time>2022-02-27T09:08:40Z</time>
      </trkpt>
      <trkpt lat="49.42146" lon="1.12498">
        <ele>148.3</ele>
        <time>2022-02-27T09:08:41Z</time>
      </trkpt>
      <trkpt lat="49.42151" lon="1.12499">
        <ele>148.3</ele>
        <time>2022-02-27T09:08:42Z</time>
      </trkpt>
      <trkpt lat="49.42154" lon="1.12501">
        <ele>148.3</ele>
        <time>2022-02-27T09:08:43Z</time>
      </trkpt>
      <trkpt lat="49.42157" lon="1.12507">
        <ele>148.3</ele>
        <time>2022-02-27T09:08:44Z</time>
      </trkpt>
      <trkpt lat="49.42161" lon="1.12514">
        <ele>148.3</ele>
        <time>2022-02-27T09:08:46Z</time>
      </trkpt>
      <trkpt lat="49.42164" lon="1.1252">
        <ele>148.3</ele>
        <time>2022-02-27T09:08:47Z</time>
      </trkpt>
      <trkpt lat="49.42166" lon="1.12524">
        <ele>148.3</ele>
        <time>2022-02-27T09:08:48Z</time>
      </trkpt>
      <trkpt lat="49.42168" lon="1.12528">
        <ele>148.4</ele>
        <time>2022-02-27T09:08:49Z</time>
      </trkpt>
      <trkpt lat="49.4217" lon="1.12532">
        <ele>148.4</ele>
        <time>2022-02-27T09:08:50Z</time>
      </trkpt>
      <trkpt lat="49.42173" lon="1.12536">
        <ele>148.4</ele>
        <time>2022-02-27T09:08:51Z</time>
      </trkpt>
      <trkpt lat="49.42176" lon="1.12542">
        <ele>148.4</ele>
        <time>2022-02-27T09:08:53Z</time>
      </trkpt>
      <trkpt lat="49.42177" lon="1.12545">
        <ele>148.4</ele>
        <time>2022-02-27T09:08:54Z</time>
      </trkpt>
      <trkpt lat="49.42178" lon="1.1255">
        <ele>148.5</ele>
        <time>2022-02-27T09:08:55Z</time>
      </trkpt>
      <trkpt lat="49.42177" lon="1.12555">
        <ele>148.5</ele>
        <time>2022-02-27T09:08:56Z</time>
      </trkpt>
      <trkpt lat="49.42176" lon="1.12556">
        <ele>148.5</ele>
        <time>2022-02-27T09:08:57Z</time>
      </trkpt>
      <trkpt lat="49.42174" lon="1.1256">
        <ele>148.5</ele>
        <time>2022-02-27T09:08:58Z</time>
      </trkpt>
      <trkpt lat="49.42173" lon="1.12561">
        <ele>148.5</ele>
        <time>2022-02-27T09:08:59Z</time>
      </trkpt>
      <trkpt lat="49.42169" lon="1.12564">
        <ele>148.6</ele>
        <time>2022-02-27T09:09:00Z</time>
      </trkpt>
      <trkpt lat="49.42168" lon="1.12566">
        <ele>148.6</ele>
        <time>2022-02-27T09:09:01Z</time>
      </trkpt>
      <trkpt lat="49.42165" lon="1.12568">
        <ele>148.6</ele>
        <time>2022-02-27T09:09:02Z</time>
      </trkpt>
      <trkpt lat="49.42162" lon="1.12571">
        <ele>148.7</ele>
        <time>2022-02-27T09:09:03Z</time>
      </trkpt>
      <trkpt lat="49.4216" lon="1.12573">
        <ele>148.7</ele>
        <time>2022-02-27T09:09:04Z</time>
      </trkpt>
      <trkpt lat="49.4216" lon="1.12573">
        <ele>148.7</ele>
        <time>2022-02-27T09:09:06Z</time>
      </trkpt>
      <trkpt lat="49.4216" lon="1.12572">
        <ele>148.7</ele>
        <time>2022-02-27T09:09:07Z</time>
      </trkpt>
      <trkpt lat="49.4216" lon="1.12572">
        <ele>148.7</ele>
        <time>2022-02-27T09:09:08Z</time>
      </trkpt>
      <trkpt lat="49.4216" lon="1.12573">
        <ele>148.7</ele>
        <time>2022-02-27T09:09:09Z</time>
      </trkpt>
      <trkpt lat="49.4216" lon="1.12573">
        <ele>148.7</ele>
        <time>2022-02-27T09:09:10Z</time>
      </trkpt>
      <trkpt lat="49.4216" lon="1.12573">
        <ele>148.7</ele>
        <time>2022-02-27T09:09:11Z</time>
      </trkpt>
      <trkpt lat="49.4216" lon="1.12573">
        <ele>148.7</ele>
        <time>2022-02-27T09:09:12Z</time>
      </trkpt>
      <trkpt lat="49.4216" lon="1.12574">
        <ele>148.7</ele>
        <time>2022-02-27T09:09:14Z</time>
      </trkpt>
      <trkpt lat="49.42154" lon="1.12692">
        <ele>150.3</ele>
        <time>2022-02-27T09:09:39Z</time>
      </trkpt>
      <trkpt lat="49.42155" lon="1.12699">
        <ele>150.5</ele>
        <time>2022-02-27T09:09:41Z</time>
      </trkpt>
      <trkpt lat="49.42155" lon="1.12702">
        <ele>150.5</ele>
        <time>2022-02-27T09:09:42Z</time>
      </trkpt>
      <trkpt lat="49.42156" lon="1.12704">
        <ele>150.5</ele>
        <time>2022-02-27T09:09:43Z</time>
      </trkpt>
      <trkpt lat="49.42156" lon="1.12708">
        <ele>150.4</ele>
        <time>2022-02-27T09:09:44Z</time>
      </trkpt>
      <trkpt lat="49.42158" lon="1.12718">
        <ele>150.5</ele>
        <time>2022-02-27T09:09:46Z</time>
      </trkpt>
      <trkpt lat="49.42159" lon="1.12723">
        <ele>150.5</ele>
        <time>2022-02-27T09:09:47Z</time>
      </trkpt>
      <trkpt lat="49.4216" lon="1.12728">
        <ele>150.5</ele>
        <time>2022-02-27T09:09:48Z</time>
      </trkpt>
      <trkpt lat="49.4216" lon="1.1273">
        <ele>150.5</ele>
        <time>2022-02-27T09:09:49Z</time>
      </trkpt>
      <trkpt lat="49.42162" lon="1.12736">
        <ele>150.6</ele>
        <time>2022-02-27T09:09:50Z</time>
      </trkpt>
      <trkpt lat="49.42164" lon="1.12743">
        <ele>150.6</ele>
        <time>2022-02-27T09:09:52Z</time>
      </trkpt>
      <trkpt lat="49.42166" lon="1.12751">
        <ele>150.7</ele>
        <time>2022-02-27T09:09:53Z</time>
      </trkpt>
      <trkpt lat="49.42169" lon="1.12762">
        <ele>150.9</ele>
        <time>2022-02-27T09:09:54Z</time>
      </trkpt>
      <trkpt lat="49.42171" lon="1.12769">
        <ele>151</ele>
        <time>2022-02-27T09:09:55Z</time>
      </trkpt>
      <trkpt lat="49.42174" lon="1.12778">
        <ele>151.1</ele>
        <time>2022-02-27T09:09:56Z</time>
      </trkpt>
      <trkpt lat="49.42175" lon="1.12785">
        <ele>151.2</ele>
        <time>2022-02-27T09:09:57Z</time>
      </trkpt>
      <trkpt lat="49.42178" lon="1.12793">
        <ele>151.3</ele>
        <time>2022-02-27T09:09:58Z</time>
      </trkpt>
      <trkpt lat="49.42178" lon="1.128">
        <ele>151.4</ele>
        <time>2022-02-27T09:10:00Z</time>
      </trkpt>
      <trkpt lat="49.4218" lon="1.12806">
        <ele>151.5</ele>
        <time>2022-02-27T09:10:01Z</time>
      </trkpt>
      <trkpt lat="49.42181" lon="1.12813">
        <ele>151.5</ele>
        <time>2022-02-27T09:10:02Z</time>
      </trkpt>
      <trkpt lat="49.42182" lon="1.1282">
        <ele>151.6</ele>
        <time>2022-02-27T09:10:03Z</time>
      </trkpt>
      <trkpt lat="49.42183" lon="1.12827">
        <ele>151.7</ele>
        <time>2022-02-27T09:10:04Z</time>
      </trkpt>
      <trkpt lat="49.42185" lon="1.12833">
        <ele>151.8</ele>
        <time>2022-02-27T09:10:06Z</time>
      </trkpt>
      <trkpt lat="49.42187" lon="1.1284">
        <ele>151.9</ele>
        <time>2022-02-27T09:10:07Z</time>
      </trkpt>
      <trkpt lat="49.4219" lon="1.12847">
        <ele>151.9</ele>
        <time>2022-02-27T09:10:08Z</time>
      </trkpt>
      <trkpt lat="49.42192" lon="1.12855">
        <ele>152</ele>
        <time>2022-02-27T09:10:10Z</time>
      </trkpt>
      <trkpt lat="49.42194" lon="1.12865">
        <ele>152.1</ele>
        <time>2022-02-27T09:10:12Z</time>
      </trkpt>
      <trkpt lat="49.42195" lon="1.12872">
        <ele>152.2</ele>
        <time>2022-02-27T09:10:13Z</time>
      </trkpt>
      <trkpt lat="49.42195" lon="1.12873">
        <ele>152.2</ele>
        <time>2022-02-27T09:10:15Z</time>
      </trkpt>
      <trkpt lat="49.42196" lon="1.12874">
        <ele>152.2</ele>
        <time>2022-02-27T09:10:16Z</time>
      </trkpt>
      <trkpt lat="49.42196" lon="1.12875">
        <ele>152.2</ele>
        <time>2022-02-27T09:10:17Z</time>
      </trkpt>
      <trkpt lat="49.42196" lon="1.12875">
        <ele>152.2</ele>
        <time>2022-02-27T09:10:19Z</time>
      </trkpt>
      <trkpt lat="49.42197" lon="1.12875">
        <ele>152.2</ele>
        <time>2022-02-27T09:10:20Z</time>
      </trkpt>
      <trkpt lat="49.42198" lon="1.12882">
        <ele>152.3</ele>
        <time>2022-02-27T09:10:22Z</time>
      </trkpt>
      <trkpt lat="49.422" lon="1.1289">
        <ele>152.4</ele>
        <time>2022-02-27T09:10:23Z</time>
      </trkpt>
      <trkpt lat="49.42202" lon="1.12898">
        <ele>152.5</ele>
        <time>2022-02-27T09:10:24Z</time>
      </trkpt>
      <trkpt lat="49.42205" lon="1.12911">
        <ele>152.6</ele>
        <time>2022-02-27T09:10:25Z</time>
      </trkpt>
      <trkpt lat="49.42207" lon="1.12919">
        <ele>152.7</ele>
        <time>2022-02-27T09:10:27Z</time>
      </trkpt>
      <trkpt lat="49.42209" lon="1.12927">
        <ele>152.7</ele>
        <time>2022-02-27T09:10:28Z</time>
      </trkpt>
      <trkpt lat="49.4221" lon="1.12933">
        <ele>152.8</ele>
        <time>2022-02-27T09:10:29Z</time>
      </trkpt>
      <trkpt lat="49.42212" lon="1.12939">
        <ele>152.9</ele>
        <time>2022-02-27T09:10:30Z</time>
      </trkpt>
      <trkpt lat="49.42214" lon="1.12944">
        <ele>152.9</ele>
        <time>2022-02-27T09:10:31Z</time>
      </trkpt>
      <trkpt lat="49.42216" lon="1.12953">
        <ele>153.1</ele>
        <time>2022-02-27T09:10:33Z</time>
      </trkpt>
      <trkpt lat="49.42217" lon="1.12959">
        <ele>153.1</ele>
        <time>2022-02-27T09:10:34Z</time>
      </trkpt>
      <trkpt lat="49.42219" lon="1.12963">
        <ele>153.2</ele>
        <time>2022-02-27T09:10:35Z</time>
      </trkpt>
      <trkpt lat="49.4222" lon="1.12968">
        <ele>153.3</ele>
        <time>2022-02-27T09:10:36Z</time>
      </trkpt>
      <trkpt lat="49.42221" lon="1.12976">
        <ele>153.4</ele>
        <time>2022-02-27T09:10:38Z</time>
      </trkpt>
      <trkpt lat="49.42223" lon="1.12985">
        <ele>153.5</ele>
        <time>2022-02-27T09:10:39Z</time>
      </trkpt>
      <trkpt lat="49.42224" lon="1.12991">
        <ele>153.6</ele>
        <time>2022-02-27T09:10:41Z</time>
      </trkpt>
      <trkpt lat="49.42225" lon="1.12996">
        <ele>153.7</ele>
        <time>2022-02-27T09:10:42Z</time>
      </trkpt>
      <trkpt lat="49.42226" lon="1.13">
        <ele>153.8</ele>
        <time>2022-02-27T09:10:43Z</time>
      </trkpt>
      <trkpt lat="49.42227" lon="1.13005">
        <ele>154</ele>
        <time>2022-02-27T09:10:44Z</time>
      </trkpt>
      <trkpt lat="49.42228" lon="1.13009">
        <ele>154</ele>
        <time>2022-02-27T09:10:45Z</time>
      </trkpt>
      <trkpt lat="49.4223" lon="1.13016">
        <ele>154</ele>
        <time>2022-02-27T09:10:46Z</time>
      </trkpt>
      <trkpt lat="49.42232" lon="1.13021">
        <ele>154.1</ele>
        <time>2022-02-27T09:10:47Z</time>
      </trkpt>
      <trkpt lat="49.42233" lon="1.13023">
        <ele>154.1</ele>
        <time>2022-02-27T09:10:48Z</time>
      </trkpt>
      <trkpt lat="49.42235" lon="1.13027">
        <ele>154.1</ele>
        <time>2022-02-27T09:10:49Z</time>
      </trkpt>
      <trkpt lat="49.42237" lon="1.13031">
        <ele>154.2</ele>
        <time>2022-02-27T09:10:50Z</time>
      </trkpt>
      <trkpt lat="49.42238" lon="1.13033">
        <ele>154.2</ele>
        <time>2022-02-27T09:10:51Z</time>
      </trkpt>
      <trkpt lat="49.42241" lon="1.13037">
        <ele>154.2</ele>
        <time>2022-02-27T09:10:52Z</time>
      </trkpt>
      <trkpt lat="49.42241" lon="1.13039">
        <ele>154.2</ele>
        <time>2022-02-27T09:10:53Z</time>
      </trkpt>
      <trkpt lat="49.42244" lon="1.13043">
        <ele>154.2</ele>
        <time>2022-02-27T09:10:54Z</time>
      </trkpt>
      <trkpt lat="49.4225" lon="1.13054">
        <ele>154.2</ele>
        <time>2022-02-27T09:10:55Z</time>
      </trkpt>
      <trkpt lat="49.42253" lon="1.1306">
        <ele>154.2</ele>
        <time>2022-02-27T09:10:57Z</time>
      </trkpt>
      <trkpt lat="49.42254" lon="1.13061">
        <ele>154.2</ele>
        <time>2022-02-27T09:10:58Z</time>
      </trkpt>
      <trkpt lat="49.42254" lon="1.13062">
        <ele>154.2</ele>
        <time>2022-02-27T09:10:59Z</time>
      </trkpt>
      <trkpt lat="49.42255" lon="1.13063">
        <ele>154.2</ele>
        <time>2022-02-27T09:11:00Z</time>
      </trkpt>
      <trkpt lat="49.42256" lon="1.13064">
        <ele>154.2</ele>
        <time>2022-02-27T09:11:01Z</time>
      </trkpt>
      <trkpt lat="49.42257" lon="1.13064">
        <ele>154.1</ele>
        <time>2022-02-27T09:11:02Z</time>
      </trkpt>
      <trkpt lat="49.42258" lon="1.13064">
        <ele>154.1</ele>
        <time>2022-02-27T09:11:03Z</time>
      </trkpt>
      <trkpt lat="49.42258" lon="1.13064">
        <ele>154.1</ele>
        <time>2022-02-27T09:11:04Z</time>
      </trkpt>
      <trkpt lat="49.42258" lon="1.13064">
        <ele>154.1</ele>
        <time>2022-02-27T09:11:05Z</time>
      </trkpt>
      <trkpt lat="49.42259" lon="1.13064">
        <ele>154.1</ele>
        <time>2022-02-27T09:11:06Z</time>
      </trkpt>
      <trkpt lat="49.42259" lon="1.13064">
        <ele>154.1</ele>
        <time>2022-02-27T09:11:07Z</time>
      </trkpt>
      <trkpt lat="49.42263" lon="1.13068">
        <ele>154.1</ele>
        <time>2022-02-27T09:11:08Z</time>
      </trkpt>
      <trkpt lat="49.42266" lon="1.13072">
        <ele>154.1</ele>
        <time>2022-02-27T09:11:09Z</time>
      </trkpt>
      <trkpt lat="49.42269" lon="1.13075">
        <ele>154</ele>
        <time>2022-02-27T09:11:10Z</time>
      </trkpt>
      <trkpt lat="49.42272" lon="1.13079">
        <ele>153.9</ele>
        <time>2022-02-27T09:11:25Z</time>
      </trkpt>
      <trkpt lat="49.42275" lon="1.13083">
        <ele>153.8</ele>
        <time>2022-02-27T09:11:26Z</time>
      </trkpt>
      <trkpt lat="49.42279" lon="1.1309">
        <ele>153.9</ele>
        <time>2022-02-27T09:11:27Z</time>
      </trkpt>
      <trkpt lat="49.42285" lon="1.131">
        <ele>154.1</ele>
        <time>2022-02-27T09:11:28Z</time>
      </trkpt>
      <trkpt lat="49.42289" lon="1.13108">
        <ele>154.2</ele>
        <time>2022-02-27T09:11:29Z</time>
      </trkpt>
      <trkpt lat="49.42293" lon="1.13115">
        <ele>154.3</ele>
        <time>2022-02-27T09:11:30Z</time>
      </trkpt>
      <trkpt lat="49.42299" lon="1.13128">
        <ele>154.4</ele>
        <time>2022-02-27T09:11:32Z</time>
      </trkpt>
      <trkpt lat="49.42301" lon="1.13133">
        <ele>154.4</ele>
        <time>2022-02-27T09:11:33Z</time>
      </trkpt>
      <trkpt lat="49.42302" lon="1.13135">
        <ele>154.5</ele>
        <time>2022-02-27T09:11:34Z</time>
      </trkpt>
      <trkpt lat="49.42303" lon="1.13137">
        <ele>154.5</ele>
        <time>2022-02-27T09:11:35Z</time>
      </trkpt>
      <trkpt lat="49.42303" lon="1.13137">
        <ele>154.5</ele>
        <time>2022-02-27T09:11:36Z</time>
      </trkpt>
      <trkpt lat="49.42305" lon="1.13142">
        <ele>154.5</ele>
        <time>2022-02-27T09:11:37Z</time>
      </trkpt>
      <trkpt lat="49.42306" lon="1.13146">
        <ele>154.6</ele>
        <time>2022-02-27T09:11:38Z</time>
      </trkpt>
      <trkpt lat="49.42311" lon="1.13156">
        <ele>154.7</ele>
        <time>2022-02-27T09:11:39Z</time>
      </trkpt>
      <trkpt lat="49.42316" lon="1.13168">
        <ele>154.8</ele>
        <time>2022-02-27T09:11:40Z</time>
      </trkpt>
      <trkpt lat="49.4232" lon="1.13177">
        <ele>154.8</ele>
        <time>2022-02-27T09:11:41Z</time>
      </trkpt>
      <trkpt lat="49.42323" lon="1.13184">
        <ele>154.9</ele>
        <time>2022-02-27T09:11:42Z</time>
      </trkpt>
      <trkpt lat="49.42327" lon="1.13191">
        <ele>155</ele>
        <time>2022-02-27T09:11:44Z</time>
      </trkpt>
      <trkpt lat="49.4233" lon="1.13197">
        <ele>155</ele>
        <time>2022-02-27T09:11:45Z</time>
      </trkpt>
      <trkpt lat="49.42333" lon="1.13202">
        <ele>155.1</ele>
        <time>2022-02-27T09:11:46Z</time>
      </trkpt>
      <trkpt lat="49.42337" lon="1.13208">
        <ele>155.1</ele>
        <time>2022-02-27T09:11:47Z</time>
      </trkpt>
      <trkpt lat="49.4234" lon="1.13213">
        <ele>155.2</ele>
        <time>2022-02-27T09:11:48Z</time>
      </trkpt>
      <trkpt lat="49.42344" lon="1.13218">
        <ele>155.2</ele>
        <time>2022-02-27T09:11:49Z</time>
      </trkpt>
      <trkpt lat="49.42347" lon="1.13223">
        <ele>155.2</ele>
        <time>2022-02-27T09:11:50Z</time>
      </trkpt>
      <trkpt lat="49.4235" lon="1.13227">
        <ele>155.2</ele>
        <time>2022-02-27T09:11:51Z</time>
      </trkpt>
      <trkpt lat="49.42353" lon="1.13231">
        <ele>155.2</ele>
        <time>2022-02-27T09:11:52Z</time>
      </trkpt>
      <trkpt lat="49.42356" lon="1.13235">
        <ele>155.2</ele>
        <time>2022-02-27T09:11:53Z</time>
      </trkpt>
      <trkpt lat="49.42363" lon="1.13245">
        <ele>155.2</ele>
        <time>2022-02-27T09:11:54Z</time>
      </trkpt>
      <trkpt lat="49.42367" lon="1.13252">
        <ele>155.2</ele>
        <time>2022-02-27T09:11:56Z</time>
      </trkpt>
      <trkpt lat="49.4237" lon="1.13258">
        <ele>155.2</ele>
        <time>2022-02-27T09:11:57Z</time>
      </trkpt>
      <trkpt lat="49.42373" lon="1.13267">
        <ele>155.2</ele>
        <time>2022-02-27T09:11:58Z</time>
      </trkpt>
      <trkpt lat="49.42376" lon="1.13273">
        <ele>155.2</ele>
        <time>2022-02-27T09:11:59Z</time>
      </trkpt>
      <trkpt lat="49.42379" lon="1.1328">
        <ele>155.2</ele>
        <time>2022-02-27T09:12:00Z</time>
      </trkpt>
      <trkpt lat="49.42382" lon="1.13287">
        <ele>155.2</ele>
        <time>2022-02-27T09:12:01Z</time>
      </trkpt>
      <trkpt lat="49.42385" lon="1.13294">
        <ele>155.1</ele>
        <time>2022-02-27T09:12:02Z</time>
      </trkpt>
      <trkpt lat="49.42387" lon="1.13301">
        <ele>155.1</ele>
        <time>2022-02-27T09:12:03Z</time>
      </trkpt>
      <trkpt lat="49.42391" lon="1.13307">
        <ele>155.1</ele>
        <time>2022-02-27T09:12:04Z</time>
      </trkpt>
      <trkpt lat="49.42393" lon="1.13313">
        <ele>155.1</ele>
        <time>2022-02-27T09:12:05Z</time>
      </trkpt>
      <trkpt lat="49.42397" lon="1.1332">
        <ele>155</ele>
        <time>2022-02-27T09:12:06Z</time>
      </trkpt>
      <trkpt lat="49.42399" lon="1.13327">
        <ele>154.9</ele>
        <time>2022-02-27T09:12:07Z</time>
      </trkpt>
      <trkpt lat="49.42402" lon="1.13334">
        <ele>154.9</ele>
        <time>2022-02-27T09:12:08Z</time>
      </trkpt>
      <trkpt lat="49.42405" lon="1.13342">
        <ele>154.8</ele>
        <time>2022-02-27T09:12:09Z</time>
      </trkpt>
      <trkpt lat="49.42408" lon="1.13349">
        <ele>154.8</ele>
        <time>2022-02-27T09:12:10Z</time>
      </trkpt>
      <trkpt lat="49.42411" lon="1.13356">
        <ele>154.7</ele>
        <time>2022-02-27T09:12:11Z</time>
      </trkpt>
      <trkpt lat="49.42414" lon="1.13364">
        <ele>154.7</ele>
        <time>2022-02-27T09:12:12Z</time>
      </trkpt>
      <trkpt lat="49.42418" lon="1.13371">
        <ele>154.6</ele>
        <time>2022-02-27T09:12:13Z</time>
      </trkpt>
      <trkpt lat="49.42421" lon="1.13378">
        <ele>154.6</ele>
        <time>2022-02-27T09:12:14Z</time>
      </trkpt>
      <trkpt lat="49.42424" lon="1.13385">
        <ele>154.5</ele>
        <time>2022-02-27T09:12:15Z</time>
      </trkpt>
      <trkpt lat="49.42428" lon="1.13393">
        <ele>154.4</ele>
        <time>2022-02-27T09:12:16Z</time>
      </trkpt>
      <trkpt lat="49.42431" lon="1.134">
        <ele>154.3</ele>
        <time>2022-02-27T09:12:17Z</time>
      </trkpt>
      <trkpt lat="49.42435" lon="1.13408">
        <ele>154.2</ele>
        <time>2022-02-27T09:12:18Z</time>
      </trkpt>
      <trkpt lat="49.42439" lon="1.13415">
        <ele>154.1</ele>
        <time>2022-02-27T09:12:19Z</time>
      </trkpt>
      <trkpt lat="49.42443" lon="1.13423">
        <ele>154</ele>
        <time>2022-02-27T09:12:20Z</time>
      </trkpt>
      <trkpt lat="49.42447" lon="1.1343">
        <ele>153.9</ele>
        <time>2022-02-27T09:12:21Z</time>
      </trkpt>
      <trkpt lat="49.4245" lon="1.13437">
        <ele>153.8</ele>
        <time>2022-02-27T09:12:22Z</time>
      </trkpt>
      <trkpt lat="49.42454" lon="1.13444">
        <ele>153.7</ele>
        <time>2022-02-27T09:12:23Z</time>
      </trkpt>
      <trkpt lat="49.42458" lon="1.13451">
        <ele>153.6</ele>
        <time>2022-02-27T09:12:24Z</time>
      </trkpt>
      <trkpt lat="49.42461" lon="1.13458">
        <ele>153.5</ele>
        <time>2022-02-27T09:12:25Z</time>
      </trkpt>
      <trkpt lat="49.42465" lon="1.13465">
        <ele>153.4</ele>
        <time>2022-02-27T09:12:26Z</time>
      </trkpt>
      <trkpt lat="49.42469" lon="1.13471">
        <ele>153.3</ele>
        <time>2022-02-27T09:12:27Z</time>
      </trkpt>
      <trkpt lat="49.42473" lon="1.13477">
        <ele>153.2</ele>
        <time>2022-02-27T09:12:28Z</time>
      </trkpt>
      <trkpt lat="49.42476" lon="1.13483">
        <ele>153.1</ele>
        <time>2022-02-27T09:12:29Z</time>
      </trkpt>
      <trkpt lat="49.4248" lon="1.13489">
        <ele>153</ele>
        <time>2022-02-27T09:12:30Z</time>
      </trkpt>
      <trkpt lat="49.42484" lon="1.13495">
        <ele>152.9</ele>
        <time>2022-02-27T09:12:31Z</time>
      </trkpt>
      <trkpt lat="49.42487" lon="1.13501">
        <ele>152.8</ele>
        <time>2022-02-27T09:12:32Z</time>
      </trkpt>
      <trkpt lat="49.42491" lon="1.13507">
        <ele>152.7</ele>
        <time>2022-02-27T09:12:33Z</time>
      </trkpt>
      <trkpt lat="49.42495" lon="1.13514">
        <ele>152.6</ele>
        <time>2022-02-27T09:12:34Z</time>
      </trkpt>
      <trkpt lat="49.42498" lon="1.1352">
        <ele>152.4</ele>
        <time>2022-02-27T09:12:35Z</time>
      </trkpt>
      <trkpt lat="49.42501" lon="1.13528">
        <ele>152.2</ele>
        <time>2022-02-27T09:12:36Z</time>
      </trkpt>
      <trkpt lat="49.42505" lon="1.13534">
        <ele>152</ele>
        <time>2022-02-27T09:12:37Z</time>
      </trkpt>
      <trkpt lat="49.42508" lon="1.13542">
        <ele>151.8</ele>
        <time>2022-02-27T09:12:38Z</time>
      </trkpt>
      <trkpt lat="49.42512" lon="1.13548">
        <ele>151.6</ele>
        <time>2022-02-27T09:12:39Z</time>
      </trkpt>
      <trkpt lat="49.42516" lon="1.13553">
        <ele>151.4</ele>
        <time>2022-02-27T09:12:40Z</time>
      </trkpt>
      <trkpt lat="49.4252" lon="1.13558">
        <ele>151.2</ele>
        <time>2022-02-27T09:12:41Z</time>
      </trkpt>
      <trkpt lat="49.42523" lon="1.13564">
        <ele>151</ele>
        <time>2022-02-27T09:12:42Z</time>
      </trkpt>
      <trkpt lat="49.42527" lon="1.1357">
        <ele>150.8</ele>
        <time>2022-02-27T09:12:43Z</time>
      </trkpt>
      <trkpt lat="49.4253" lon="1.13576">
        <ele>150.6</ele>
        <time>2022-02-27T09:12:44Z</time>
      </trkpt>
      <trkpt lat="49.42535" lon="1.13583">
        <ele>150.3</ele>
        <time>2022-02-27T09:12:45Z</time>
      </trkpt>
      <trkpt lat="49.4254" lon="1.1359">
        <ele>150</ele>
        <time>2022-02-27T09:12:46Z</time>
      </trkpt>
      <trkpt lat="49.42545" lon="1.13597">
        <ele>149.8</ele>
        <time>2022-02-27T09:12:47Z</time>
      </trkpt>
      <trkpt lat="49.42549" lon="1.13604">
        <ele>149.5</ele>
        <time>2022-02-27T09:12:48Z</time>
      </trkpt>
      <trkpt lat="49.42553" lon="1.13611">
        <ele>149.5</ele>
        <time>2022-02-27T09:12:49Z</time>
      </trkpt>
      <trkpt lat="49.42558" lon="1.13618">
        <ele>149.1</ele>
        <time>2022-02-27T09:12:50Z</time>
      </trkpt>
      <trkpt lat="49.42562" lon="1.13625">
        <ele>148.8</ele>
        <time>2022-02-27T09:12:51Z</time>
      </trkpt>
      <trkpt lat="49.42566" lon="1.13632">
        <ele>148.5</ele>
        <time>2022-02-27T09:12:52Z</time>
      </trkpt>
      <trkpt lat="49.4257" lon="1.1364">
        <ele>148.1</ele>
        <time>2022-02-27T09:12:53Z</time>
      </trkpt>
      <trkpt lat="49.42575" lon="1.13649">
        <ele>147.7</ele>
        <time>2022-02-27T09:12:54Z</time>
      </trkpt>
      <trkpt lat="49.4258" lon="1.13657">
        <ele>147.3</ele>
        <time>2022-02-27T09:12:55Z</time>
      </trkpt>
      <trkpt lat="49.42584" lon="1.13665">
        <ele>146.9</ele>
        <time>2022-02-27T09:12:56Z</time>
      </trkpt>
      <trkpt lat="49.42588" lon="1.13672">
        <ele>146.6</ele>
        <time>2022-02-27T09:12:57Z</time>
      </trkpt>
      <trkpt lat="49.42593" lon="1.13679">
        <ele>146.2</ele>
        <time>2022-02-27T09:12:58Z</time>
      </trkpt>
      <trkpt lat="49.42598" lon="1.13687">
        <ele>145.9</ele>
        <time>2022-02-27T09:12:59Z</time>
      </trkpt>
      <trkpt lat="49.42603" lon="1.13694">
        <ele>145.5</ele>
        <time>2022-02-27T09:13:00Z</time>
      </trkpt>
      <trkpt lat="49.42607" lon="1.13703">
        <ele>145.2</ele>
        <time>2022-02-27T09:13:01Z</time>
      </trkpt>
      <trkpt lat="49.42611" lon="1.13711">
        <ele>144.9</ele>
        <time>2022-02-27T09:13:02Z</time>
      </trkpt>
      <trkpt lat="49.42616" lon="1.13719">
        <ele>144.6</ele>
        <time>2022-02-27T09:13:03Z</time>
      </trkpt>
      <trkpt lat="49.42621" lon="1.13727">
        <ele>144.3</ele>
        <time>2022-02-27T09:13:04Z</time>
      </trkpt>
      <trkpt lat="49.42626" lon="1.13736">
        <ele>144</ele>
        <time>2022-02-27T09:13:05Z</time>
      </trkpt>
      <trkpt lat="49.4263" lon="1.13744">
        <ele>143.7</ele>
        <time>2022-02-27T09:13:06Z</time>
      </trkpt>
      <trkpt lat="49.42635" lon="1.13752">
        <ele>143.5</ele>
        <time>2022-02-27T09:13:07Z</time>
      </trkpt>
      <trkpt lat="49.42639" lon="1.1376">
        <ele>143.3</ele>
        <time>2022-02-27T09:13:08Z</time>
      </trkpt>
      <trkpt lat="49.42643" lon="1.13766">
        <ele>143.1</ele>
        <time>2022-02-27T09:13:09Z</time>
      </trkpt>
      <trkpt lat="49.42646" lon="1.13772">
        <ele>142.9</ele>
        <time>2022-02-27T09:13:10Z</time>
      </trkpt>
      <trkpt lat="49.42647" lon="1.13776">
        <ele>142.9</ele>
        <time>2022-02-27T09:13:11Z</time>
      </trkpt>
      <trkpt lat="49.42645" lon="1.13781">
        <ele>142.8</ele>
        <time>2022-02-27T09:13:12Z</time>
      </trkpt>
      <trkpt lat="49.42643" lon="1.13785">
        <ele>142.8</ele>
        <time>2022-02-27T09:13:13Z</time>
      </trkpt>
      <trkpt lat="49.42638" lon="1.13787">
        <ele>142.7</ele>
        <time>2022-02-27T09:13:14Z</time>
      </trkpt>
      <trkpt lat="49.42633" lon="1.13789">
        <ele>142.6</ele>
        <time>2022-02-27T09:13:15Z</time>
      </trkpt>
      <trkpt lat="49.42627" lon="1.13791">
        <ele>142.5</ele>
        <time>2022-02-27T09:13:16Z</time>
      </trkpt>
      <trkpt lat="49.42622" lon="1.13794">
        <ele>142.3</ele>
        <time>2022-02-27T09:13:17Z</time>
      </trkpt>
      <trkpt lat="49.42617" lon="1.13797">
        <ele>142.2</ele>
        <time>2022-02-27T09:13:18Z</time>
      </trkpt>
      <trkpt lat="49.42612" lon="1.138">
        <ele>142.1</ele>
        <time>2022-02-27T09:13:19Z</time>
      </trkpt>
      <trkpt lat="49.42608" lon="1.13803">
        <ele>142.1</ele>
        <time>2022-02-27T09:13:20Z</time>
      </trkpt>
      <trkpt lat="49.42603" lon="1.13807">
        <ele>142</ele>
        <time>2022-02-27T09:13:21Z</time>
      </trkpt>
      <trkpt lat="49.42599" lon="1.1381">
        <ele>141.9</ele>
        <time>2022-02-27T09:13:22Z</time>
      </trkpt>
      <trkpt lat="49.42594" lon="1.13813">
        <ele>141.9</ele>
        <time>2022-02-27T09:13:23Z</time>
      </trkpt>
      <trkpt lat="49.4259" lon="1.13817">
        <ele>141.8</ele>
        <time>2022-02-27T09:13:24Z</time>
      </trkpt>
      <trkpt lat="49.42587" lon="1.13815">
        <ele>141.8</ele>
        <time>2022-02-27T09:13:25Z</time>
      </trkpt>
      <trkpt lat="49.4258" lon="1.13822">
        <ele>141.7</ele>
        <time>2022-02-27T09:13:27Z</time>
      </trkpt>
      <trkpt lat="49.42579" lon="1.13837">
        <ele>141.5</ele>
        <time>2022-02-27T09:13:28Z</time>
      </trkpt>
      <trkpt lat="49.4258" lon="1.13845">
        <ele>141.3</ele>
        <time>2022-02-27T09:13:29Z</time>
      </trkpt>
      <trkpt lat="49.42582" lon="1.13852">
        <ele>141.2</ele>
        <time>2022-02-27T09:13:30Z</time>
      </trkpt>
      <trkpt lat="49.42583" lon="1.13857">
        <ele>141.2</ele>
        <time>2022-02-27T09:13:31Z</time>
      </trkpt>
      <trkpt lat="49.42582" lon="1.13859">
        <ele>141.2</ele>
        <time>2022-02-27T09:13:32Z</time>
      </trkpt>
      <trkpt lat="49.42578" lon="1.1386">
        <ele>141.2</ele>
        <time>2022-02-27T09:13:34Z</time>
      </trkpt>
      <trkpt lat="49.42576" lon="1.13865">
        <ele>141.2</ele>
        <time>2022-02-27T09:13:35Z</time>
      </trkpt>
      <trkpt lat="49.42576" lon="1.13868">
        <ele>141.2</ele>
        <time>2022-02-27T09:13:36Z</time>
      </trkpt>
      <trkpt lat="49.42578" lon="1.13872">
        <ele>141.2</ele>
        <time>2022-02-27T09:13:37Z</time>
      </trkpt>
      <trkpt lat="49.42579" lon="1.13877">
        <ele>141.2</ele>
        <time>2022-02-27T09:13:38Z</time>
      </trkpt>
      <trkpt lat="49.4258" lon="1.13882">
        <ele>141.2</ele>
        <time>2022-02-27T09:13:39Z</time>
      </trkpt>
      <trkpt lat="49.42581" lon="1.13887">
        <ele>141.2</ele>
        <time>2022-02-27T09:13:41Z</time>
      </trkpt>
      <trkpt lat="49.42582" lon="1.13893">
        <ele>141.1</ele>
        <time>2022-02-27T09:13:42Z</time>
      </trkpt>
      <trkpt lat="49.42583" lon="1.13899">
        <ele>141.1</ele>
        <time>2022-02-27T09:13:43Z</time>
      </trkpt>
      <trkpt lat="49.42585" lon="1.13907">
        <ele>141.2</ele>
        <time>2022-02-27T09:13:44Z</time>
      </trkpt>
      <trkpt lat="49.42587" lon="1.13912">
        <ele>141.2</ele>
        <time>2022-02-27T09:13:45Z</time>
      </trkpt>
      <trkpt lat="49.42587" lon="1.13918">
        <ele>141.2</ele>
        <time>2022-02-27T09:13:46Z</time>
      </trkpt>
      <trkpt lat="49.42588" lon="1.13928">
        <ele>141.2</ele>
        <time>2022-02-27T09:13:48Z</time>
      </trkpt>
      <trkpt lat="49.42588" lon="1.13933">
        <ele>141.2</ele>
        <time>2022-02-27T09:13:49Z</time>
      </trkpt>
      <trkpt lat="49.42589" lon="1.13942">
        <ele>141.2</ele>
        <time>2022-02-27T09:13:50Z</time>
      </trkpt>
      <trkpt lat="49.4259" lon="1.13951">
        <ele>141.2</ele>
        <time>2022-02-27T09:13:52Z</time>
      </trkpt>
      <trkpt lat="49.42592" lon="1.13959">
        <ele>141.1</ele>
        <time>2022-02-27T09:13:53Z</time>
      </trkpt>
      <trkpt lat="49.42594" lon="1.13964">
        <ele>141.1</ele>
        <time>2022-02-27T09:13:54Z</time>
      </trkpt>
      <trkpt lat="49.42596" lon="1.13969">
        <ele>141</ele>
        <time>2022-02-27T09:13:56Z</time>
      </trkpt>
      <trkpt lat="49.42597" lon="1.13974">
        <ele>141</ele>
        <time>2022-02-27T09:13:57Z</time>
      </trkpt>
      <trkpt lat="49.42599" lon="1.13978">
        <ele>140.9</ele>
        <time>2022-02-27T09:13:58Z</time>
      </trkpt>
      <trkpt lat="49.42602" lon="1.1398">
        <ele>140.9</ele>
        <time>2022-02-27T09:13:59Z</time>
      </trkpt>
      <trkpt lat="49.42603" lon="1.1398">
        <ele>140.8</ele>
        <time>2022-02-27T09:14:00Z</time>
      </trkpt>
      <trkpt lat="49.4261" lon="1.13982">
        <ele>140.7</ele>
        <time>2022-02-27T09:14:01Z</time>
      </trkpt>
      <trkpt lat="49.42614" lon="1.13984">
        <ele>140.6</ele>
        <time>2022-02-27T09:14:03Z</time>
      </trkpt>
      <trkpt lat="49.42616" lon="1.13988">
        <ele>140.5</ele>
        <time>2022-02-27T09:14:04Z</time>
      </trkpt>
      <trkpt lat="49.42617" lon="1.13992">
        <ele>140.5</ele>
        <time>2022-02-27T09:14:05Z</time>
      </trkpt>
      <trkpt lat="49.42618" lon="1.13994">
        <ele>140.5</ele>
        <time>2022-02-27T09:14:06Z</time>
      </trkpt>
      <trkpt lat="49.4262" lon="1.13996">
        <ele>140.4</ele>
        <time>2022-02-27T09:14:07Z</time>
      </trkpt>
      <trkpt lat="49.42623" lon="1.14004">
        <ele>140.4</ele>
        <time>2022-02-27T09:14:09Z</time>
      </trkpt>
      <trkpt lat="49.42625" lon="1.14009">
        <ele>140.3</ele>
        <time>2022-02-27T09:14:10Z</time>
      </trkpt>
      <trkpt lat="49.42627" lon="1.14015">
        <ele>140.3</ele>
        <time>2022-02-27T09:14:11Z</time>
      </trkpt>
      <trkpt lat="49.42629" lon="1.1402">
        <ele>140.3</ele>
        <time>2022-02-27T09:14:12Z</time>
      </trkpt>
      <trkpt lat="49.42631" lon="1.14026">
        <ele>140.3</ele>
        <time>2022-02-27T09:14:13Z</time>
      </trkpt>
      <trkpt lat="49.42632" lon="1.14032">
        <ele>140.2</ele>
        <time>2022-02-27T09:14:14Z</time>
      </trkpt>
      <trkpt lat="49.42635" lon="1.14043">
        <ele>140.2</ele>
        <time>2022-02-27T09:14:16Z</time>
      </trkpt>
      <trkpt lat="49.42637" lon="1.14051">
        <ele>140.2</ele>
        <time>2022-02-27T09:14:17Z</time>
      </trkpt>
      <trkpt lat="49.42639" lon="1.14057">
        <ele>140.1</ele>
        <time>2022-02-27T09:14:18Z</time>
      </trkpt>
      <trkpt lat="49.4264" lon="1.14061">
        <ele>140.1</ele>
        <time>2022-02-27T09:14:19Z</time>
      </trkpt>
      <trkpt lat="49.42641" lon="1.14066">
        <ele>140.1</ele>
        <time>2022-02-27T09:14:20Z</time>
      </trkpt>
      <trkpt lat="49.42642" lon="1.1407">
        <ele>140.1</ele>
        <time>2022-02-27T09:14:21Z</time>
      </trkpt>
      <trkpt lat="49.42642" lon="1.14075">
        <ele>140</ele>
        <time>2022-02-27T09:14:22Z</time>
      </trkpt>
      <trkpt lat="49.42642" lon="1.1408">
        <ele>140</ele>
        <time>2022-02-27T09:14:23Z</time>
      </trkpt>
      <trkpt lat="49.42643" lon="1.14086">
        <ele>139.9</ele>
        <time>2022-02-27T09:14:24Z</time>
      </trkpt>
      <trkpt lat="49.42644" lon="1.14094">
        <ele>139.8</ele>
        <time>2022-02-27T09:14:25Z</time>
      </trkpt>
      <trkpt lat="49.42646" lon="1.14109">
        <ele>139.7</ele>
        <time>2022-02-27T09:14:27Z</time>
      </trkpt>
      <trkpt lat="49.42647" lon="1.14116">
        <ele>139.7</ele>
        <time>2022-02-27T09:14:28Z</time>
      </trkpt>
      <trkpt lat="49.42649" lon="1.14124">
        <ele>139.7</ele>
        <time>2022-02-27T09:14:29Z</time>
      </trkpt>
      <trkpt lat="49.42655" lon="1.14147">
        <ele>139.7</ele>
        <time>2022-02-27T09:14:31Z</time>
      </trkpt>
      <trkpt lat="49.42657" lon="1.14163">
        <ele>139.8</ele>
        <time>2022-02-27T09:14:33Z</time>
      </trkpt>
      <trkpt lat="49.42657" lon="1.14173">
        <ele>139.5</ele>
        <time>2022-02-27T09:14:34Z</time>
      </trkpt>
      <trkpt lat="49.42658" lon="1.14179">
        <ele>139.3</ele>
        <time>2022-02-27T09:14:35Z</time>
      </trkpt>
      <trkpt lat="49.42659" lon="1.14183">
        <ele>139.2</ele>
        <time>2022-02-27T09:14:36Z</time>
      </trkpt>
      <trkpt lat="49.42662" lon="1.14189">
        <ele>139</ele>
        <time>2022-02-27T09:14:37Z</time>
      </trkpt>
      <trkpt lat="49.42668" lon="1.14197">
        <ele>138.8</ele>
        <time>2022-02-27T09:14:39Z</time>
      </trkpt>
      <trkpt lat="49.42674" lon="1.14211">
        <ele>138.6</ele>
        <time>2022-02-27T09:14:40Z</time>
      </trkpt>
      <trkpt lat="49.42676" lon="1.14217">
        <ele>138.6</ele>
        <time>2022-02-27T09:14:41Z</time>
      </trkpt>
      <trkpt lat="49.42677" lon="1.14223">
        <ele>138.7</ele>
        <time>2022-02-27T09:14:42Z</time>
      </trkpt>
      <trkpt lat="49.42677" lon="1.14226">
        <ele>138.7</ele>
        <time>2022-02-27T09:14:43Z</time>
      </trkpt>
      <trkpt lat="49.42677" lon="1.14231">
        <ele>138.7</ele>
        <time>2022-02-27T09:14:44Z</time>
      </trkpt>
      <trkpt lat="49.42678" lon="1.14237">
        <ele>138.8</ele>
        <time>2022-02-27T09:14:45Z</time>
      </trkpt>
      <trkpt lat="49.42678" lon="1.14242">
        <ele>138.9</ele>
        <time>2022-02-27T09:14:46Z</time>
      </trkpt>
      <trkpt lat="49.42679" lon="1.14247">
        <ele>138.9</ele>
        <time>2022-02-27T09:14:47Z</time>
      </trkpt>
      <trkpt lat="49.42681" lon="1.14254">
        <ele>139</ele>
        <time>2022-02-27T09:14:48Z</time>
      </trkpt>
      <trkpt lat="49.42682" lon="1.14258">
        <ele>139</ele>
        <time>2022-02-27T09:14:49Z</time>
      </trkpt>
      <trkpt lat="49.42682" lon="1.14263">
        <ele>139.1</ele>
        <time>2022-02-27T09:14:51Z</time>
      </trkpt>
      <trkpt lat="49.42682" lon="1.14264">
        <ele>139.1</ele>
        <time>2022-02-27T09:14:52Z</time>
      </trkpt>
      <trkpt lat="49.42682" lon="1.1427">
        <ele>139.1</ele>
        <time>2022-02-27T09:14:53Z</time>
      </trkpt>
      <trkpt lat="49.42682" lon="1.14274">
        <ele>139.2</ele>
        <time>2022-02-27T09:14:54Z</time>
      </trkpt>
      <trkpt lat="49.42683" lon="1.14278">
        <ele>139.2</ele>
        <time>2022-02-27T09:14:55Z</time>
      </trkpt>
      <trkpt lat="49.42683" lon="1.14282">
        <ele>139.2</ele>
        <time>2022-02-27T09:14:56Z</time>
      </trkpt>
      <trkpt lat="49.42683" lon="1.14286">
        <ele>139.3</ele>
        <time>2022-02-27T09:14:58Z</time>
      </trkpt>
      <trkpt lat="49.42684" lon="1.1429">
        <ele>139.3</ele>
        <time>2022-02-27T09:15:00Z</time>
      </trkpt>
      <trkpt lat="49.42684" lon="1.14294">
        <ele>139.3</ele>
        <time>2022-02-27T09:15:18Z</time>
      </trkpt>
      <trkpt lat="49.42685" lon="1.14298">
        <ele>139.3</ele>
        <time>2022-02-27T09:15:19Z</time>
      </trkpt>
      <trkpt lat="49.42686" lon="1.14312">
        <ele>139.3</ele>
        <time>2022-02-27T09:15:20Z</time>
      </trkpt>
      <trkpt lat="49.42687" lon="1.14319">
        <ele>139.3</ele>
        <time>2022-02-27T09:15:21Z</time>
      </trkpt>
      <trkpt lat="49.42687" lon="1.14321">
        <ele>139.3</ele>
        <time>2022-02-27T09:15:22Z</time>
      </trkpt>
      <trkpt lat="49.42687" lon="1.14326">
        <ele>139.3</ele>
        <time>2022-02-27T09:15:24Z</time>
      </trkpt>
      <trkpt lat="49.42687" lon="1.14328">
        <ele>139.3</ele>
        <time>2022-02-27T09:15:25Z</time>
      </trkpt>
      <trkpt lat="49.42688" lon="1.14332">
        <ele>139.3</ele>
        <time>2022-02-27T09:15:26Z</time>
      </trkpt>
      <trkpt lat="49.4269" lon="1.14338">
        <ele>139.3</ele>
        <time>2022-02-27T09:15:27Z</time>
      </trkpt>
      <trkpt lat="49.42693" lon="1.14349">
        <ele>139.3</ele>
        <time>2022-02-27T09:15:28Z</time>
      </trkpt>
      <trkpt lat="49.42694" lon="1.14356">
        <ele>139.2</ele>
        <time>2022-02-27T09:15:30Z</time>
      </trkpt>
      <trkpt lat="49.42696" lon="1.14363">
        <ele>139.2</ele>
        <time>2022-02-27T09:15:31Z</time>
      </trkpt>
      <trkpt lat="49.42697" lon="1.1437">
        <ele>139.1</ele>
        <time>2022-02-27T09:15:32Z</time>
      </trkpt>
      <trkpt lat="49.42698" lon="1.14377">
        <ele>139</ele>
        <time>2022-02-27T09:15:34Z</time>
      </trkpt>
      <trkpt lat="49.42698" lon="1.14381">
        <ele>139</ele>
        <time>2022-02-27T09:15:35Z</time>
      </trkpt>
      <trkpt lat="49.42699" lon="1.14387">
        <ele>139</ele>
        <time>2022-02-27T09:15:36Z</time>
      </trkpt>
      <trkpt lat="49.42699" lon="1.14388">
        <ele>138.9</ele>
        <time>2022-02-27T09:15:37Z</time>
      </trkpt>
      <trkpt lat="49.42701" lon="1.14394">
        <ele>138.9</ele>
        <time>2022-02-27T09:15:38Z</time>
      </trkpt>
      <trkpt lat="49.42703" lon="1.14398">
        <ele>138.9</ele>
        <time>2022-02-27T09:15:39Z</time>
      </trkpt>
      <trkpt lat="49.42706" lon="1.14404">
        <ele>138.8</ele>
        <time>2022-02-27T09:15:41Z</time>
      </trkpt>
      <trkpt lat="49.42707" lon="1.14409">
        <ele>138.8</ele>
        <time>2022-02-27T09:15:42Z</time>
      </trkpt>
      <trkpt lat="49.42708" lon="1.14411">
        <ele>138.8</ele>
        <time>2022-02-27T09:15:43Z</time>
      </trkpt>
      <trkpt lat="49.42708" lon="1.14416">
        <ele>138.8</ele>
        <time>2022-02-27T09:15:44Z</time>
      </trkpt>
      <trkpt lat="49.42709" lon="1.14418">
        <ele>138.8</ele>
        <time>2022-02-27T09:15:45Z</time>
      </trkpt>
      <trkpt lat="49.4271" lon="1.14423">
        <ele>138.7</ele>
        <time>2022-02-27T09:15:46Z</time>
      </trkpt>
      <trkpt lat="49.42711" lon="1.14425">
        <ele>138.7</ele>
        <time>2022-02-27T09:15:47Z</time>
      </trkpt>
      <trkpt lat="49.42713" lon="1.14428">
        <ele>138.7</ele>
        <time>2022-02-27T09:15:48Z</time>
      </trkpt>
      <trkpt lat="49.42714" lon="1.14429">
        <ele>138.7</ele>
        <time>2022-02-27T09:15:49Z</time>
      </trkpt>
      <trkpt lat="49.42715" lon="1.14434">
        <ele>138.6</ele>
        <time>2022-02-27T09:15:50Z</time>
      </trkpt>
      <trkpt lat="49.42715" lon="1.14436">
        <ele>138.6</ele>
        <time>2022-02-27T09:15:51Z</time>
      </trkpt>
      <trkpt lat="49.42716" lon="1.14441">
        <ele>138.5</ele>
        <time>2022-02-27T09:15:52Z</time>
      </trkpt>
      <trkpt lat="49.42717" lon="1.14443">
        <ele>138.5</ele>
        <time>2022-02-27T09:15:53Z</time>
      </trkpt>
      <trkpt lat="49.42718" lon="1.1445">
        <ele>138.4</ele>
        <time>2022-02-27T09:15:54Z</time>
      </trkpt>
      <trkpt lat="49.42719" lon="1.14456">
        <ele>138.4</ele>
        <time>2022-02-27T09:15:55Z</time>
      </trkpt>
      <trkpt lat="49.4272" lon="1.14462">
        <ele>138.3</ele>
        <time>2022-02-27T09:15:56Z</time>
      </trkpt>
      <trkpt lat="49.42721" lon="1.1447">
        <ele>138.2</ele>
        <time>2022-02-27T09:15:58Z</time>
      </trkpt>
      <trkpt lat="49.42722" lon="1.14475">
        <ele>138.2</ele>
        <time>2022-02-27T09:15:59Z</time>
      </trkpt>
      <trkpt lat="49.42724" lon="1.1448">
        <ele>138.2</ele>
        <time>2022-02-27T09:16:00Z</time>
      </trkpt>
      <trkpt lat="49.42726" lon="1.14485">
        <ele>138.2</ele>
        <time>2022-02-27T09:16:01Z</time>
      </trkpt>
      <trkpt lat="49.42728" lon="1.1449">
        <ele>138.2</ele>
        <time>2022-02-27T09:16:02Z</time>
      </trkpt>
      <trkpt lat="49.4273" lon="1.14496">
        <ele>138.2</ele>
        <time>2022-02-27T09:16:03Z</time>
      </trkpt>
      <trkpt lat="49.42731" lon="1.145">
        <ele>138.2</ele>
        <time>2022-02-27T09:16:04Z</time>
      </trkpt>
      <trkpt lat="49.42731" lon="1.14505">
        <ele>138.3</ele>
        <time>2022-02-27T09:16:05Z</time>
      </trkpt>
      <trkpt lat="49.42731" lon="1.14506">
        <ele>138.3</ele>
        <time>2022-02-27T09:16:06Z</time>
      </trkpt>
      <trkpt lat="49.42732" lon="1.14511">
        <ele>138.3</ele>
        <time>2022-02-27T09:16:07Z</time>
      </trkpt>
      <trkpt lat="49.42733" lon="1.14512">
        <ele>138.4</ele>
        <time>2022-02-27T09:16:08Z</time>
      </trkpt>
      <trkpt lat="49.42734" lon="1.14516">
        <ele>138.4</ele>
        <time>2022-02-27T09:16:09Z</time>
      </trkpt>
      <trkpt lat="49.42735" lon="1.1452">
        <ele>138.4</ele>
        <time>2022-02-27T09:16:10Z</time>
      </trkpt>
      <trkpt lat="49.42736" lon="1.14525">
        <ele>138.5</ele>
        <time>2022-02-27T09:16:11Z</time>
      </trkpt>
      <trkpt lat="49.42736" lon="1.14531">
        <ele>138.5</ele>
        <time>2022-02-27T09:16:12Z</time>
      </trkpt>
      <trkpt lat="49.42737" lon="1.14535">
        <ele>138.6</ele>
        <time>2022-02-27T09:16:13Z</time>
      </trkpt>
      <trkpt lat="49.42738" lon="1.14542">
        <ele>138.6</ele>
        <time>2022-02-27T09:16:15Z</time>
      </trkpt>
      <trkpt lat="49.42738" lon="1.14547">
        <ele>138.7</ele>
        <time>2022-02-27T09:16:16Z</time>
      </trkpt>
      <trkpt lat="49.42738" lon="1.14555">
        <ele>138.7</ele>
        <time>2022-02-27T09:16:17Z</time>
      </trkpt>
      <trkpt lat="49.42738" lon="1.14558">
        <ele>138.7</ele>
        <time>2022-02-27T09:16:18Z</time>
      </trkpt>
      <trkpt lat="49.42738" lon="1.14562">
        <ele>138.8</ele>
        <time>2022-02-27T09:16:19Z</time>
      </trkpt>
      <trkpt lat="49.42738" lon="1.14569">
        <ele>138.8</ele>
        <time>2022-02-27T09:16:20Z</time>
      </trkpt>
      <trkpt lat="49.42739" lon="1.14578">
        <ele>138.9</ele>
        <time>2022-02-27T09:16:22Z</time>
      </trkpt>
      <trkpt lat="49.42739" lon="1.14585">
        <ele>139</ele>
        <time>2022-02-27T09:16:23Z</time>
      </trkpt>
      <trkpt lat="49.4274" lon="1.1459">
        <ele>139</ele>
        <time>2022-02-27T09:16:24Z</time>
      </trkpt>
      <trkpt lat="49.4274" lon="1.14595">
        <ele>139</ele>
        <time>2022-02-27T09:16:25Z</time>
      </trkpt>
      <trkpt lat="49.42741" lon="1.146">
        <ele>139</ele>
        <time>2022-02-27T09:16:26Z</time>
      </trkpt>
      <trkpt lat="49.42741" lon="1.14605">
        <ele>139</ele>
        <time>2022-02-27T09:16:27Z</time>
      </trkpt>
      <trkpt lat="49.42742" lon="1.14607">
        <ele>139</ele>
        <time>2022-02-27T09:16:28Z</time>
      </trkpt>
      <trkpt lat="49.42742" lon="1.14613">
        <ele>139</ele>
        <time>2022-02-27T09:16:29Z</time>
      </trkpt>
      <trkpt lat="49.42743" lon="1.14616">
        <ele>139</ele>
        <time>2022-02-27T09:16:30Z</time>
      </trkpt>
      <trkpt lat="49.42744" lon="1.14622">
        <ele>138.9</ele>
        <time>2022-02-27T09:16:31Z</time>
      </trkpt>
      <trkpt lat="49.42744" lon="1.14626">
        <ele>138.9</ele>
        <time>2022-02-27T09:16:32Z</time>
      </trkpt>
      <trkpt lat="49.42745" lon="1.14632">
        <ele>138.9</ele>
        <time>2022-02-27T09:16:33Z</time>
      </trkpt>
      <trkpt lat="49.42745" lon="1.14641">
        <ele>138.8</ele>
        <time>2022-02-27T09:16:34Z</time>
      </trkpt>
      <trkpt lat="49.42747" lon="1.1465">
        <ele>138.6</ele>
        <time>2022-02-27T09:16:36Z</time>
      </trkpt>
      <trkpt lat="49.42748" lon="1.14658">
        <ele>138.5</ele>
        <time>2022-02-27T09:16:37Z</time>
      </trkpt>
      <trkpt lat="49.4275" lon="1.14672">
        <ele>138.4</ele>
        <time>2022-02-27T09:16:38Z</time>
      </trkpt>
      <trkpt lat="49.42752" lon="1.14684">
        <ele>138.1</ele>
        <time>2022-02-27T09:16:39Z</time>
      </trkpt>
      <trkpt lat="49.42753" lon="1.14695">
        <ele>137.9</ele>
        <time>2022-02-27T09:16:40Z</time>
      </trkpt>
      <trkpt lat="49.42755" lon="1.14712">
        <ele>137.4</ele>
        <time>2022-02-27T09:16:42Z</time>
      </trkpt>
      <trkpt lat="49.42757" lon="1.14725">
        <ele>137.1</ele>
        <time>2022-02-27T09:16:43Z</time>
      </trkpt>
      <trkpt lat="49.42757" lon="1.14735">
        <ele>136.8</ele>
        <time>2022-02-27T09:16:44Z</time>
      </trkpt>
      <trkpt lat="49.42758" lon="1.14743">
        <ele>136.5</ele>
        <time>2022-02-27T09:16:45Z</time>
      </trkpt>
      <trkpt lat="49.4276" lon="1.1475">
        <ele>136.1</ele>
        <time>2022-02-27T09:16:46Z</time>
      </trkpt>
      <trkpt lat="49.42763" lon="1.14754">
        <ele>135.9</ele>
        <time>2022-02-27T09:16:47Z</time>
      </trkpt>
      <trkpt lat="49.42766" lon="1.14758">
        <ele>135.6</ele>
        <time>2022-02-27T09:16:48Z</time>
      </trkpt>
      <trkpt lat="49.4277" lon="1.14763">
        <ele>135.2</ele>
        <time>2022-02-27T09:16:49Z</time>
      </trkpt>
      <trkpt lat="49.42773" lon="1.1477">
        <ele>134.8</ele>
        <time>2022-02-27T09:16:50Z</time>
      </trkpt>
      <trkpt lat="49.42779" lon="1.14779">
        <ele>134</ele>
        <time>2022-02-27T09:16:52Z</time>
      </trkpt>
      <trkpt lat="49.42783" lon="1.14785">
        <ele>133.6</ele>
        <time>2022-02-27T09:16:53Z</time>
      </trkpt>
      <trkpt lat="49.42791" lon="1.14801">
        <ele>132.5</ele>
        <time>2022-02-27T09:16:54Z</time>
      </trkpt>
      <trkpt lat="49.42794" lon="1.14808">
        <ele>132.2</ele>
        <time>2022-02-27T09:16:55Z</time>
      </trkpt>
      <trkpt lat="49.42794" lon="1.14819">
        <ele>131.9</ele>
        <time>2022-02-27T09:16:56Z</time>
      </trkpt>
      <trkpt lat="49.42792" lon="1.14829">
        <ele>131.7</ele>
        <time>2022-02-27T09:16:57Z</time>
      </trkpt>
      <trkpt lat="49.42789" lon="1.14835">
        <ele>131.7</ele>
        <time>2022-02-27T09:16:58Z</time>
      </trkpt>
      <trkpt lat="49.42787" lon="1.14838">
        <ele>131.7</ele>
        <time>2022-02-27T09:16:59Z</time>
      </trkpt>
      <trkpt lat="49.42787" lon="1.14841">
        <ele>131.7</ele>
        <time>2022-02-27T09:17:00Z</time>
      </trkpt>
      <trkpt lat="49.42787" lon="1.1485">
        <ele>131.7</ele>
        <time>2022-02-27T09:17:02Z</time>
      </trkpt>
      <trkpt lat="49.42787" lon="1.14855">
        <ele>131.6</ele>
        <time>2022-02-27T09:17:03Z</time>
      </trkpt>
      <trkpt lat="49.42787" lon="1.14861">
        <ele>131.5</ele>
        <time>2022-02-27T09:17:04Z</time>
      </trkpt>
      <trkpt lat="49.42786" lon="1.14865">
        <ele>131.4</ele>
        <time>2022-02-27T09:17:05Z</time>
      </trkpt>
      <trkpt lat="49.42785" lon="1.14873">
        <ele>131.2</ele>
        <time>2022-02-27T09:17:06Z</time>
      </trkpt>
      <trkpt lat="49.42785" lon="1.14881">
        <ele>131</ele>
        <time>2022-02-27T09:17:08Z</time>
      </trkpt>
      <trkpt lat="49.42785" lon="1.14887">
        <ele>130.9</ele>
        <time>2022-02-27T09:17:09Z</time>
      </trkpt>
      <trkpt lat="49.42786" lon="1.14893">
        <ele>130.7</ele>
        <time>2022-02-27T09:17:10Z</time>
      </trkpt>
      <trkpt lat="49.42786" lon="1.14899">
        <ele>130.6</ele>
        <time>2022-02-27T09:17:11Z</time>
      </trkpt>
      <trkpt lat="49.42787" lon="1.14906">
        <ele>130.4</ele>
        <time>2022-02-27T09:17:12Z</time>
      </trkpt>
      <trkpt lat="49.42788" lon="1.14913">
        <ele>130.2</ele>
        <time>2022-02-27T09:17:13Z</time>
      </trkpt>
      <trkpt lat="49.4279" lon="1.14919">
        <ele>130</ele>
        <time>2022-02-27T09:17:14Z</time>
      </trkpt>
      <trkpt lat="49.42793" lon="1.14929">
        <ele>129.8</ele>
        <time>2022-02-27T09:17:16Z</time>
      </trkpt>
      <trkpt lat="49.42795" lon="1.14935">
        <ele>129.6</ele>
        <time>2022-02-27T09:17:17Z</time>
      </trkpt>
      <trkpt lat="49.42796" lon="1.14941">
        <ele>129.5</ele>
        <time>2022-02-27T09:17:18Z</time>
      </trkpt>
      <trkpt lat="49.42798" lon="1.14948">
        <ele>129.3</ele>
        <time>2022-02-27T09:17:19Z</time>
      </trkpt>
      <trkpt lat="49.42799" lon="1.14955">
        <ele>129.2</ele>
        <time>2022-02-27T09:17:20Z</time>
      </trkpt>
      <trkpt lat="49.42798" lon="1.1496">
        <ele>129.1</ele>
        <time>2022-02-27T09:17:22Z</time>
      </trkpt>
      <trkpt lat="49.42798" lon="1.14962">
        <ele>129.1</ele>
        <time>2022-02-27T09:17:23Z</time>
      </trkpt>
      <trkpt lat="49.42798" lon="1.14962">
        <ele>129.1</ele>
        <time>2022-02-27T09:17:24Z</time>
      </trkpt>
      <trkpt lat="49.42798" lon="1.14962">
        <ele>129.1</ele>
        <time>2022-02-27T09:17:25Z</time>
      </trkpt>
      <trkpt lat="49.42798" lon="1.14963">
        <ele>129.1</ele>
        <time>2022-02-27T09:17:26Z</time>
      </trkpt>
      <trkpt lat="49.42796" lon="1.14968">
        <ele>129</ele>
        <time>2022-02-27T09:17:28Z</time>
      </trkpt>
      <trkpt lat="49.42796" lon="1.14975">
        <ele>128.9</ele>
        <time>2022-02-27T09:17:29Z</time>
      </trkpt>
      <trkpt lat="49.42795" lon="1.1498">
        <ele>128.8</ele>
        <time>2022-02-27T09:17:30Z</time>
      </trkpt>
      <trkpt lat="49.42795" lon="1.14987">
        <ele>128.8</ele>
        <time>2022-02-27T09:17:31Z</time>
      </trkpt>
      <trkpt lat="49.42796" lon="1.14993">
        <ele>128.7</ele>
        <time>2022-02-27T09:17:32Z</time>
      </trkpt>
      <trkpt lat="49.42796" lon="1.14996">
        <ele>128.6</ele>
        <time>2022-02-27T09:17:33Z</time>
      </trkpt>
      <trkpt lat="49.42796" lon="1.15004">
        <ele>128.4</ele>
        <time>2022-02-27T09:17:34Z</time>
      </trkpt>
      <trkpt lat="49.42796" lon="1.15013">
        <ele>128.3</ele>
        <time>2022-02-27T09:17:36Z</time>
      </trkpt>
      <trkpt lat="49.42796" lon="1.15019">
        <ele>128.1</ele>
        <time>2022-02-27T09:17:37Z</time>
      </trkpt>
      <trkpt lat="49.42795" lon="1.15027">
        <ele>127.9</ele>
        <time>2022-02-27T09:17:38Z</time>
      </trkpt>
      <trkpt lat="49.42794" lon="1.15033">
        <ele>127.7</ele>
        <time>2022-02-27T09:17:39Z</time>
      </trkpt>
      <trkpt lat="49.42792" lon="1.15039">
        <ele>127.6</ele>
        <time>2022-02-27T09:17:40Z</time>
      </trkpt>
      <trkpt lat="49.42791" lon="1.15046">
        <ele>127.5</ele>
        <time>2022-02-27T09:17:41Z</time>
      </trkpt>
      <trkpt lat="49.42789" lon="1.15052">
        <ele>127.4</ele>
        <time>2022-02-27T09:17:42Z</time>
      </trkpt>
      <trkpt lat="49.42788" lon="1.15058">
        <ele>127.4</ele>
        <time>2022-02-27T09:17:44Z</time>
      </trkpt>
      <trkpt lat="49.42786" lon="1.15066">
        <ele>127.3</ele>
        <time>2022-02-27T09:17:46Z</time>
      </trkpt>
      <trkpt lat="49.42785" lon="1.15072">
        <ele>127.2</ele>
        <time>2022-02-27T09:17:47Z</time>
      </trkpt>
      <trkpt lat="49.42785" lon="1.15074">
        <ele>127.2</ele>
        <time>2022-02-27T09:17:48Z</time>
      </trkpt>
      <trkpt lat="49.42784" lon="1.15079">
        <ele>127.2</ele>
        <time>2022-02-27T09:17:49Z</time>
      </trkpt>
      <trkpt lat="49.42783" lon="1.15081">
        <ele>127.1</ele>
        <time>2022-02-27T09:17:50Z</time>
      </trkpt>
      <trkpt lat="49.42781" lon="1.15088">
        <ele>127.1</ele>
        <time>2022-02-27T09:17:51Z</time>
      </trkpt>
      <trkpt lat="49.42779" lon="1.15097">
        <ele>127</ele>
        <time>2022-02-27T09:17:52Z</time>
      </trkpt>
      <trkpt lat="49.42777" lon="1.15105">
        <ele>126.9</ele>
        <time>2022-02-27T09:17:53Z</time>
      </trkpt>
      <trkpt lat="49.42775" lon="1.15114">
        <ele>126.8</ele>
        <time>2022-02-27T09:17:54Z</time>
      </trkpt>
      <trkpt lat="49.42774" lon="1.15119">
        <ele>126.8</ele>
        <time>2022-02-27T09:17:55Z</time>
      </trkpt>
      <trkpt lat="49.42773" lon="1.15128">
        <ele>126.8</ele>
        <time>2022-02-27T09:17:57Z</time>
      </trkpt>
      <trkpt lat="49.42772" lon="1.15134">
        <ele>126.8</ele>
        <time>2022-02-27T09:17:58Z</time>
      </trkpt>
      <trkpt lat="49.42771" lon="1.15139">
        <ele>126.8</ele>
        <time>2022-02-27T09:18:00Z</time>
      </trkpt>
      <trkpt lat="49.4277" lon="1.1514">
        <ele>126.8</ele>
        <time>2022-02-27T09:18:01Z</time>
      </trkpt>
      <trkpt lat="49.42769" lon="1.15142">
        <ele>126.8</ele>
        <time>2022-02-27T09:18:02Z</time>
      </trkpt>
      <trkpt lat="49.42768" lon="1.15144">
        <ele>126.8</ele>
        <time>2022-02-27T09:18:03Z</time>
      </trkpt>
      <trkpt lat="49.42767" lon="1.15145">
        <ele>126.8</ele>
        <time>2022-02-27T09:18:04Z</time>
      </trkpt>
      <trkpt lat="49.42766" lon="1.15145">
        <ele>126.8</ele>
        <time>2022-02-27T09:18:06Z</time>
      </trkpt>
      <trkpt lat="49.42766" lon="1.15147">
        <ele>126.8</ele>
        <time>2022-02-27T09:18:07Z</time>
      </trkpt>
      <trkpt lat="49.42764" lon="1.15149">
        <ele>126.9</ele>
        <time>2022-02-27T09:18:08Z</time>
      </trkpt>
      <trkpt lat="49.42763" lon="1.1515">
        <ele>126.9</ele>
        <time>2022-02-27T09:18:09Z</time>
      </trkpt>
      <trkpt lat="49.42762" lon="1.15152">
        <ele>126.9</ele>
        <time>2022-02-27T09:18:10Z</time>
      </trkpt>
      <trkpt lat="49.42758" lon="1.15155">
        <ele>126.9</ele>
        <time>2022-02-27T09:18:12Z</time>
      </trkpt>
      <trkpt lat="49.42757" lon="1.15157">
        <ele>127</ele>
        <time>2022-02-27T09:18:13Z</time>
      </trkpt>
      <trkpt lat="49.42756" lon="1.15158">
        <ele>127</ele>
        <time>2022-02-27T09:18:14Z</time>
      </trkpt>
      <trkpt lat="49.42754" lon="1.15161">
        <ele>127</ele>
        <time>2022-02-27T09:18:15Z</time>
      </trkpt>
      <trkpt lat="49.42751" lon="1.15166">
        <ele>127</ele>
        <time>2022-02-27T09:18:16Z</time>
      </trkpt>
      <trkpt lat="49.4275" lon="1.15167">
        <ele>127</ele>
        <time>2022-02-27T09:18:17Z</time>
      </trkpt>
      <trkpt lat="49.42748" lon="1.15171">
        <ele>127</ele>
        <time>2022-02-27T09:18:18Z</time>
      </trkpt>
      <trkpt lat="49.42747" lon="1.15172">
        <ele>127.1</ele>
        <time>2022-02-27T09:18:19Z</time>
      </trkpt>
      <trkpt lat="49.42747" lon="1.15178">
        <ele>127.1</ele>
        <time>2022-02-27T09:18:21Z</time>
      </trkpt>
      <trkpt lat="49.42747" lon="1.1518">
        <ele>127.1</ele>
        <time>2022-02-27T09:18:22Z</time>
      </trkpt>
      <trkpt lat="49.42747" lon="1.15185">
        <ele>127.1</ele>
        <time>2022-02-27T09:18:23Z</time>
      </trkpt>
      <trkpt lat="49.42746" lon="1.15192">
        <ele>127.1</ele>
        <time>2022-02-27T09:18:24Z</time>
      </trkpt>
      <trkpt lat="49.42744" lon="1.15199">
        <ele>127</ele>
        <time>2022-02-27T09:18:26Z</time>
      </trkpt>
      <trkpt lat="49.42743" lon="1.15204">
        <ele>127</ele>
        <time>2022-02-27T09:18:27Z</time>
      </trkpt>
      <trkpt lat="49.42743" lon="1.15208">
        <ele>126.9</ele>
        <time>2022-02-27T09:18:28Z</time>
      </trkpt>
      <trkpt lat="49.42743" lon="1.15213">
        <ele>126.9</ele>
        <time>2022-02-27T09:18:29Z</time>
      </trkpt>
      <trkpt lat="49.42742" lon="1.1522">
        <ele>126.7</ele>
        <time>2022-02-27T09:18:30Z</time>
      </trkpt>
      <trkpt lat="49.42742" lon="1.15226">
        <ele>126.6</ele>
        <time>2022-02-27T09:18:32Z</time>
      </trkpt>
      <trkpt lat="49.42743" lon="1.15233">
        <ele>126.4</ele>
        <time>2022-02-27T09:18:34Z</time>
      </trkpt>
      <trkpt lat="49.42743" lon="1.15238">
        <ele>126.3</ele>
        <time>2022-02-27T09:18:35Z</time>
      </trkpt>
      <trkpt lat="49.42744" lon="1.15242">
        <ele>126.1</ele>
        <time>2022-02-27T09:18:36Z</time>
      </trkpt>
      <trkpt lat="49.42744" lon="1.15248">
        <ele>125.9</ele>
        <time>2022-02-27T09:18:37Z</time>
      </trkpt>
      <trkpt lat="49.42745" lon="1.15253">
        <ele>125.7</ele>
        <time>2022-02-27T09:18:38Z</time>
      </trkpt>
      <trkpt lat="49.42746" lon="1.15258">
        <ele>125.4</ele>
        <time>2022-02-27T09:18:40Z</time>
      </trkpt>
      <trkpt lat="49.42747" lon="1.15265">
        <ele>125.1</ele>
        <time>2022-02-27T09:18:41Z</time>
      </trkpt>
      <trkpt lat="49.42748" lon="1.15273">
        <ele>124.7</ele>
        <time>2022-02-27T09:18:42Z</time>
      </trkpt>
      <trkpt lat="49.42749" lon="1.1528">
        <ele>124.3</ele>
        <time>2022-02-27T09:18:44Z</time>
      </trkpt>
      <trkpt lat="49.42751" lon="1.15287">
        <ele>123.9</ele>
        <time>2022-02-27T09:18:45Z</time>
      </trkpt>
      <trkpt lat="49.42752" lon="1.15293">
        <ele>123.5</ele>
        <time>2022-02-27T09:18:46Z</time>
      </trkpt>
      <trkpt lat="49.42752" lon="1.15302">
        <ele>123</ele>
        <time>2022-02-27T09:18:47Z</time>
      </trkpt>
      <trkpt lat="49.42753" lon="1.15309">
        <ele>122.6</ele>
        <time>2022-02-27T09:18:48Z</time>
      </trkpt>
      <trkpt lat="49.42754" lon="1.15319">
        <ele>122.1</ele>
        <time>2022-02-27T09:18:49Z</time>
      </trkpt>
      <trkpt lat="49.42754" lon="1.15324">
        <ele>121.9</ele>
        <time>2022-02-27T09:18:50Z</time>
      </trkpt>
      <trkpt lat="49.42754" lon="1.1533">
        <ele>121.6</ele>
        <time>2022-02-27T09:18:52Z</time>
      </trkpt>
      <trkpt lat="49.42753" lon="1.15336">
        <ele>121.3</ele>
        <time>2022-02-27T09:18:53Z</time>
      </trkpt>
      <trkpt lat="49.42753" lon="1.15343">
        <ele>121</ele>
        <time>2022-02-27T09:18:54Z</time>
      </trkpt>
      <trkpt lat="49.42753" lon="1.15348">
        <ele>120.8</ele>
        <time>2022-02-27T09:18:55Z</time>
      </trkpt>
      <trkpt lat="49.42754" lon="1.15358">
        <ele>120.5</ele>
        <time>2022-02-27T09:18:57Z</time>
      </trkpt>
      <trkpt lat="49.42753" lon="1.15364">
        <ele>120.2</ele>
        <time>2022-02-27T09:18:58Z</time>
      </trkpt>
      <trkpt lat="49.42752" lon="1.1537">
        <ele>120.1</ele>
        <time>2022-02-27T09:18:59Z</time>
      </trkpt>
      <trkpt lat="49.42751" lon="1.15374">
        <ele>119.9</ele>
        <time>2022-02-27T09:19:00Z</time>
      </trkpt>
      <trkpt lat="49.42751" lon="1.15379">
        <ele>119.8</ele>
        <time>2022-02-27T09:19:01Z</time>
      </trkpt>
      <trkpt lat="49.42751" lon="1.15381">
        <ele>119.7</ele>
        <time>2022-02-27T09:19:02Z</time>
      </trkpt>
      <trkpt lat="49.42751" lon="1.15382">
        <ele>119.7</ele>
        <time>2022-02-27T09:19:03Z</time>
      </trkpt>
      <trkpt lat="49.4275" lon="1.15385">
        <ele>119.6</ele>
        <time>2022-02-27T09:19:04Z</time>
      </trkpt>
      <trkpt lat="49.42749" lon="1.1539">
        <ele>119.4</ele>
        <time>2022-02-27T09:19:05Z</time>
      </trkpt>
      <trkpt lat="49.42749" lon="1.15392">
        <ele>119.4</ele>
        <time>2022-02-27T09:19:06Z</time>
      </trkpt>
      <trkpt lat="49.42749" lon="1.15398">
        <ele>119.2</ele>
        <time>2022-02-27T09:19:07Z</time>
      </trkpt>
      <trkpt lat="49.4275" lon="1.15405">
        <ele>119</ele>
        <time>2022-02-27T09:19:08Z</time>
      </trkpt>
      <trkpt lat="49.4275" lon="1.15407">
        <ele>118.9</ele>
        <time>2022-02-27T09:19:09Z</time>
      </trkpt>
      <trkpt lat="49.42751" lon="1.15415">
        <ele>118.5</ele>
        <time>2022-02-27T09:19:10Z</time>
      </trkpt>
      <trkpt lat="49.42752" lon="1.15421">
        <ele>118.2</ele>
        <time>2022-02-27T09:19:11Z</time>
      </trkpt>
      <trkpt lat="49.42754" lon="1.15436">
        <ele>117.3</ele>
        <time>2022-02-27T09:19:12Z</time>
      </trkpt>
      <trkpt lat="49.42756" lon="1.15448">
        <ele>116.4</ele>
        <time>2022-02-27T09:19:13Z</time>
      </trkpt>
      <trkpt lat="49.42756" lon="1.15456">
        <ele>115.7</ele>
        <time>2022-02-27T09:19:14Z</time>
      </trkpt>
      <trkpt lat="49.42759" lon="1.15479">
        <ele>113.6</ele>
        <time>2022-02-27T09:19:16Z</time>
      </trkpt>
      <trkpt lat="49.42758" lon="1.15483">
        <ele>113.1</ele>
        <time>2022-02-27T09:19:17Z</time>
      </trkpt>
      <trkpt lat="49.42757" lon="1.15484">
        <ele>113</ele>
        <time>2022-02-27T09:19:18Z</time>
      </trkpt>
      <trkpt lat="49.42757" lon="1.15487">
        <ele>112.8</ele>
        <time>2022-02-27T09:19:19Z</time>
      </trkpt>
      <trkpt lat="49.42757" lon="1.15489">
        <ele>112.5</ele>
        <time>2022-02-27T09:19:20Z</time>
      </trkpt>
      <trkpt lat="49.42757" lon="1.15492">
        <ele>112.3</ele>
        <time>2022-02-27T09:19:21Z</time>
      </trkpt>
      <trkpt lat="49.42759" lon="1.15494">
        <ele>112</ele>
        <time>2022-02-27T09:19:22Z</time>
      </trkpt>
      <trkpt lat="49.42762" lon="1.15499">
        <ele>111.3</ele>
        <time>2022-02-27T09:19:24Z</time>
      </trkpt>
      <trkpt lat="49.42767" lon="1.15505">
        <ele>111.2</ele>
        <time>2022-02-27T09:19:25Z</time>
      </trkpt>
      <trkpt lat="49.42769" lon="1.15508">
        <ele>110.9</ele>
        <time>2022-02-27T09:19:26Z</time>
      </trkpt>
      <trkpt lat="49.4277" lon="1.15508">
        <ele>110.8</ele>
        <time>2022-02-27T09:19:27Z</time>
      </trkpt>
      <trkpt lat="49.42771" lon="1.15506">
        <ele>110.6</ele>
        <time>2022-02-27T09:19:28Z</time>
      </trkpt>
      <trkpt lat="49.42773" lon="1.15505">
        <ele>110.5</ele>
        <time>2022-02-27T09:19:29Z</time>
      </trkpt>
      <trkpt lat="49.42773" lon="1.15504">
        <ele>110.4</ele>
        <time>2022-02-27T09:19:30Z</time>
      </trkpt>
      <trkpt lat="49.42775" lon="1.15503">
        <ele>110.2</ele>
        <time>2022-02-27T09:19:31Z</time>
      </trkpt>
      <trkpt lat="49.42775" lon="1.15502">
        <ele>110.1</ele>
        <time>2022-02-27T09:19:32Z</time>
      </trkpt>
      <trkpt lat="49.42776" lon="1.15502">
        <ele>110.1</ele>
        <time>2022-02-27T09:19:33Z</time>
      </trkpt>
      <trkpt lat="49.42776" lon="1.15501">
        <ele>110</ele>
        <time>2022-02-27T09:19:34Z</time>
      </trkpt>
      <trkpt lat="49.42778" lon="1.15499">
        <ele>109.8</ele>
        <time>2022-02-27T09:19:35Z</time>
      </trkpt>
      <trkpt lat="49.4278" lon="1.15495">
        <ele>109.5</ele>
        <time>2022-02-27T09:19:36Z</time>
      </trkpt>
      <trkpt lat="49.42777" lon="1.15498">
        <ele>109.2</ele>
        <time>2022-02-27T09:20:51Z</time>
      </trkpt>
      <trkpt lat="49.42777" lon="1.15498">
        <ele>109.2</ele>
        <time>2022-02-27T09:20:52Z</time>
      </trkpt>
      <trkpt lat="49.42778" lon="1.15497">
        <ele>109</ele>
        <time>2022-02-27T09:20:53Z</time>
      </trkpt>
      <trkpt lat="49.42779" lon="1.15492">
        <ele>108.7</ele>
        <time>2022-02-27T09:20:55Z</time>
      </trkpt>
      <trkpt lat="49.4278" lon="1.15486">
        <ele>108.4</ele>
        <time>2022-02-27T09:20:56Z</time>
      </trkpt>
      <trkpt lat="49.42782" lon="1.15476">
        <ele>107.8</ele>
        <time>2022-02-27T09:20:57Z</time>
      </trkpt>
      <trkpt lat="49.42784" lon="1.15467">
        <ele>107.3</ele>
        <time>2022-02-27T09:20:58Z</time>
      </trkpt>
      <trkpt lat="49.42788" lon="1.15458">
        <ele>106.8</ele>
        <time>2022-02-27T09:21:00Z</time>
      </trkpt>
      <trkpt lat="49.42791" lon="1.15449">
        <ele>106.2</ele>
        <time>2022-02-27T09:21:01Z</time>
      </trkpt>
      <trkpt lat="49.42794" lon="1.15441">
        <ele>105.8</ele>
        <time>2022-02-27T09:21:02Z</time>
      </trkpt>
      <trkpt lat="49.42799" lon="1.1543">
        <ele>105</ele>
        <time>2022-02-27T09:21:04Z</time>
      </trkpt>
      <trkpt lat="49.42802" lon="1.15423">
        <ele>104.6</ele>
        <time>2022-02-27T09:21:05Z</time>
      </trkpt>
      <trkpt lat="49.42803" lon="1.15417">
        <ele>104.3</ele>
        <time>2022-02-27T09:21:06Z</time>
      </trkpt>
      <trkpt lat="49.42805" lon="1.1541">
        <ele>103.8</ele>
        <time>2022-02-27T09:21:07Z</time>
      </trkpt>
      <trkpt lat="49.4281" lon="1.15391">
        <ele>102.7</ele>
        <time>2022-02-27T09:21:08Z</time>
      </trkpt>
      <trkpt lat="49.42813" lon="1.1538">
        <ele>101.9</ele>
        <time>2022-02-27T09:21:09Z</time>
      </trkpt>
      <trkpt lat="49.42816" lon="1.15369">
        <ele>101.3</ele>
        <time>2022-02-27T09:21:10Z</time>
      </trkpt>
      <trkpt lat="49.42818" lon="1.1536">
        <ele>100.7</ele>
        <time>2022-02-27T09:21:11Z</time>
      </trkpt>
      <trkpt lat="49.42821" lon="1.15351">
        <ele>100.1</ele>
        <time>2022-02-27T09:21:12Z</time>
      </trkpt>
      <trkpt lat="49.42823" lon="1.1534">
        <ele>99.5</ele>
        <time>2022-02-27T09:21:13Z</time>
      </trkpt>
      <trkpt lat="49.42827" lon="1.15331">
        <ele>98.8</ele>
        <time>2022-02-27T09:21:14Z</time>
      </trkpt>
      <trkpt lat="49.42832" lon="1.15323">
        <ele>98.2</ele>
        <time>2022-02-27T09:21:15Z</time>
      </trkpt>
      <trkpt lat="49.42836" lon="1.15313">
        <ele>97.5</ele>
        <time>2022-02-27T09:21:16Z</time>
      </trkpt>
      <trkpt lat="49.42841" lon="1.15304">
        <ele>96.9</ele>
        <time>2022-02-27T09:21:17Z</time>
      </trkpt>
      <trkpt lat="49.42846" lon="1.15295">
        <ele>96.3</ele>
        <time>2022-02-27T09:21:18Z</time>
      </trkpt>
      <trkpt lat="49.42852" lon="1.15286">
        <ele>95.6</ele>
        <time>2022-02-27T09:21:19Z</time>
      </trkpt>
      <trkpt lat="49.42857" lon="1.15277">
        <ele>95</ele>
        <time>2022-02-27T09:21:20Z</time>
      </trkpt>
      <trkpt lat="49.42862" lon="1.15267">
        <ele>94.3</ele>
        <time>2022-02-27T09:21:21Z</time>
      </trkpt>
      <trkpt lat="49.42867" lon="1.15254">
        <ele>93.6</ele>
        <time>2022-02-27T09:21:22Z</time>
      </trkpt>
      <trkpt lat="49.42873" lon="1.15241">
        <ele>92.8</ele>
        <time>2022-02-27T09:21:23Z</time>
      </trkpt>
      <trkpt lat="49.42878" lon="1.15228">
        <ele>92</ele>
        <time>2022-02-27T09:21:24Z</time>
      </trkpt>
      <trkpt lat="49.42884" lon="1.15214">
        <ele>91.2</ele>
        <time>2022-02-27T09:21:25Z</time>
      </trkpt>
      <trkpt lat="49.42888" lon="1.15201">
        <ele>90.4</ele>
        <time>2022-02-27T09:21:26Z</time>
      </trkpt>
      <trkpt lat="49.42892" lon="1.1519">
        <ele>89.8</ele>
        <time>2022-02-27T09:21:27Z</time>
      </trkpt>
      <trkpt lat="49.42895" lon="1.1518">
        <ele>89.3</ele>
        <time>2022-02-27T09:21:28Z</time>
      </trkpt>
      <trkpt lat="49.42898" lon="1.15169">
        <ele>88.7</ele>
        <time>2022-02-27T09:21:29Z</time>
      </trkpt>
      <trkpt lat="49.42902" lon="1.15159">
        <ele>88.1</ele>
        <time>2022-02-27T09:21:30Z</time>
      </trkpt>
      <trkpt lat="49.42904" lon="1.15153">
        <ele>87.8</ele>
        <time>2022-02-27T09:21:31Z</time>
      </trkpt>
      <trkpt lat="49.42907" lon="1.15149">
        <ele>87.5</ele>
        <time>2022-02-27T09:21:32Z</time>
      </trkpt>
      <trkpt lat="49.42911" lon="1.15147">
        <ele>87.3</ele>
        <time>2022-02-27T09:21:33Z</time>
      </trkpt>
      <trkpt lat="49.42914" lon="1.15145">
        <ele>87</ele>
        <time>2022-02-27T09:21:34Z</time>
      </trkpt>
      <trkpt lat="49.42919" lon="1.15144">
        <ele>86.7</ele>
        <time>2022-02-27T09:21:35Z</time>
      </trkpt>
      <trkpt lat="49.42923" lon="1.15145">
        <ele>86.2</ele>
        <time>2022-02-27T09:21:36Z</time>
      </trkpt>
      <trkpt lat="49.42927" lon="1.15151">
        <ele>85.9</ele>
        <time>2022-02-27T09:21:37Z</time>
      </trkpt>
      <trkpt lat="49.42932" lon="1.15158">
        <ele>85.5</ele>
        <time>2022-02-27T09:21:38Z</time>
      </trkpt>
      <trkpt lat="49.42936" lon="1.15168">
        <ele>85.1</ele>
        <time>2022-02-27T09:21:39Z</time>
      </trkpt>
      <trkpt lat="49.42938" lon="1.15178">
        <ele>84.8</ele>
        <time>2022-02-27T09:21:40Z</time>
      </trkpt>
      <trkpt lat="49.42939" lon="1.15189">
        <ele>84</ele>
        <time>2022-02-27T09:21:41Z</time>
      </trkpt>
      <trkpt lat="49.42939" lon="1.15199">
        <ele>83.6</ele>
        <time>2022-02-27T09:21:42Z</time>
      </trkpt>
      <trkpt lat="49.42938" lon="1.15209">
        <ele>83.1</ele>
        <time>2022-02-27T09:21:43Z</time>
      </trkpt>
      <trkpt lat="49.42936" lon="1.1522">
        <ele>82.7</ele>
        <time>2022-02-27T09:21:44Z</time>
      </trkpt>
      <trkpt lat="49.42934" lon="1.1523">
        <ele>82.3</ele>
        <time>2022-02-27T09:21:45Z</time>
      </trkpt>
      <trkpt lat="49.42931" lon="1.1524">
        <ele>82</ele>
        <time>2022-02-27T09:21:46Z</time>
      </trkpt>
      <trkpt lat="49.42928" lon="1.1525">
        <ele>81.7</ele>
        <time>2022-02-27T09:21:47Z</time>
      </trkpt>
      <trkpt lat="49.42927" lon="1.15261">
        <ele>81.4</ele>
        <time>2022-02-27T09:21:48Z</time>
      </trkpt>
      <trkpt lat="49.42928" lon="1.15271">
        <ele>81</ele>
        <time>2022-02-27T09:21:49Z</time>
      </trkpt>
      <trkpt lat="49.42926" lon="1.15281">
        <ele>80.5</ele>
        <time>2022-02-27T09:21:50Z</time>
      </trkpt>
      <trkpt lat="49.42925" lon="1.15293">
        <ele>80</ele>
        <time>2022-02-27T09:21:51Z</time>
      </trkpt>
      <trkpt lat="49.42924" lon="1.15304">
        <ele>79.4</ele>
        <time>2022-02-27T09:21:52Z</time>
      </trkpt>
      <trkpt lat="49.42921" lon="1.15314">
        <ele>78.9</ele>
        <time>2022-02-27T09:21:53Z</time>
      </trkpt>
      <trkpt lat="49.42916" lon="1.15323">
        <ele>78.6</ele>
        <time>2022-02-27T09:21:54Z</time>
      </trkpt>
      <trkpt lat="49.42912" lon="1.15333">
        <ele>78.4</ele>
        <time>2022-02-27T09:21:55Z</time>
      </trkpt>
      <trkpt lat="49.4291" lon="1.15342">
        <ele>78.2</ele>
        <time>2022-02-27T09:21:56Z</time>
      </trkpt>
      <trkpt lat="49.42912" lon="1.15346">
        <ele>78.1</ele>
        <time>2022-02-27T09:21:57Z</time>
      </trkpt>
      <trkpt lat="49.42915" lon="1.1535">
        <ele>78</ele>
        <time>2022-02-27T09:21:58Z</time>
      </trkpt>
      <trkpt lat="49.42917" lon="1.15355">
        <ele>77.9</ele>
        <time>2022-02-27T09:21:59Z</time>
      </trkpt>
      <trkpt lat="49.4292" lon="1.15361">
        <ele>77.7</ele>
        <time>2022-02-27T09:22:00Z</time>
      </trkpt>
      <trkpt lat="49.42925" lon="1.15368">
        <ele>77.6</ele>
        <time>2022-02-27T09:22:01Z</time>
      </trkpt>
      <trkpt lat="49.4293" lon="1.15375">
        <ele>77.4</ele>
        <time>2022-02-27T09:22:02Z</time>
      </trkpt>
      <trkpt lat="49.42931" lon="1.15382">
        <ele>77.3</ele>
        <time>2022-02-27T09:22:04Z</time>
      </trkpt>
      <trkpt lat="49.42931" lon="1.15382">
        <ele>77.3</ele>
        <time>2022-02-27T09:22:05Z</time>
      </trkpt>
      <trkpt lat="49.42932" lon="1.15382">
        <ele>77.3</ele>
        <time>2022-02-27T09:22:06Z</time>
      </trkpt>
      <trkpt lat="49.42933" lon="1.15383">
        <ele>77.3</ele>
        <time>2022-02-27T09:22:07Z</time>
      </trkpt>
      <trkpt lat="49.42933" lon="1.15383">
        <ele>77.3</ele>
        <time>2022-02-27T09:22:08Z</time>
      </trkpt>
      <trkpt lat="49.42934" lon="1.15384">
        <ele>77.3</ele>
        <time>2022-02-27T09:22:09Z</time>
      </trkpt>
      <trkpt lat="49.42935" lon="1.15385">
        <ele>77.3</ele>
        <time>2022-02-27T09:22:10Z</time>
      </trkpt>
      <trkpt lat="49.42935" lon="1.15385">
        <ele>77.3</ele>
        <time>2022-02-27T09:22:11Z</time>
      </trkpt>
      <trkpt lat="49.42936" lon="1.15386">
        <ele>77.3</ele>
        <time>2022-02-27T09:22:12Z</time>
      </trkpt>
      <trkpt lat="49.42937" lon="1.15386">
        <ele>77.3</ele>
        <time>2022-02-27T09:22:17Z</time>
      </trkpt>
      <trkpt lat="49.42937" lon="1.15387">
        <ele>77.2</ele>
        <time>2022-02-27T09:22:18Z</time>
      </trkpt>
      <trkpt lat="49.42938" lon="1.15387">
        <ele>77.2</ele>
        <time>2022-02-27T09:22:19Z</time>
      </trkpt>
      <trkpt lat="49.42939" lon="1.15392">
        <ele>77.2</ele>
        <time>2022-02-27T09:22:20Z</time>
      </trkpt>
      <trkpt lat="49.4294" lon="1.15397">
        <ele>77.5</ele>
        <time>2022-02-27T09:22:21Z</time>
      </trkpt>
      <trkpt lat="49.42939" lon="1.15399">
        <ele>77.5</ele>
        <time>2022-02-27T09:22:22Z</time>
      </trkpt>
      <trkpt lat="49.42938" lon="1.154">
        <ele>77.5</ele>
        <time>2022-02-27T09:22:23Z</time>
      </trkpt>
      <trkpt lat="49.42937" lon="1.15403">
        <ele>77.6</ele>
        <time>2022-02-27T09:22:24Z</time>
      </trkpt>
      <trkpt lat="49.42934" lon="1.15409">
        <ele>77.8</ele>
        <time>2022-02-27T09:22:26Z</time>
      </trkpt>
      <trkpt lat="49.42932" lon="1.15413">
        <ele>77.9</ele>
        <time>2022-02-27T09:22:27Z</time>
      </trkpt>
      <trkpt lat="49.42929" lon="1.15419">
        <ele>78.1</ele>
        <time>2022-02-27T09:22:28Z</time>
      </trkpt>
      <trkpt lat="49.42927" lon="1.15424">
        <ele>78.3</ele>
        <time>2022-02-27T09:22:29Z</time>
      </trkpt>
      <trkpt lat="49.42925" lon="1.15428">
        <ele>78.4</ele>
        <time>2022-02-27T09:22:30Z</time>
      </trkpt>
      <trkpt lat="49.42923" lon="1.15433">
        <ele>78.6</ele>
        <time>2022-02-27T09:22:31Z</time>
      </trkpt>
      <trkpt lat="49.42921" lon="1.15439">
        <ele>78.7</ele>
        <time>2022-02-27T09:22:32Z</time>
      </trkpt>
      <trkpt lat="49.4292" lon="1.15445">
        <ele>78.9</ele>
        <time>2022-02-27T09:22:33Z</time>
      </trkpt>
      <trkpt lat="49.42918" lon="1.15451">
        <ele>79.1</ele>
        <time>2022-02-27T09:22:34Z</time>
      </trkpt>
      <trkpt lat="49.42916" lon="1.15458">
        <ele>79.3</ele>
        <time>2022-02-27T09:22:36Z</time>
      </trkpt>
      <trkpt lat="49.42915" lon="1.15462">
        <ele>79.5</ele>
        <time>2022-02-27T09:22:37Z</time>
      </trkpt>
      <trkpt lat="49.42914" lon="1.15466">
        <ele>79.6</ele>
        <time>2022-02-27T09:22:38Z</time>
      </trkpt>
      <trkpt lat="49.42913" lon="1.15471">
        <ele>79.8</ele>
        <time>2022-02-27T09:22:39Z</time>
      </trkpt>
      <trkpt lat="49.42912" lon="1.15478">
        <ele>80.1</ele>
        <time>2022-02-27T09:22:40Z</time>
      </trkpt>
      <trkpt lat="49.42911" lon="1.15483">
        <ele>80.3</ele>
        <time>2022-02-27T09:22:41Z</time>
      </trkpt>
      <trkpt lat="49.42909" lon="1.15493">
        <ele>80.6</ele>
        <time>2022-02-27T09:22:43Z</time>
      </trkpt>
      <trkpt lat="49.42908" lon="1.15498">
        <ele>80.8</ele>
        <time>2022-02-27T09:22:44Z</time>
      </trkpt>
      <trkpt lat="49.42906" lon="1.15503">
        <ele>80.9</ele>
        <time>2022-02-27T09:22:45Z</time>
      </trkpt>
      <trkpt lat="49.42905" lon="1.15511">
        <ele>81.2</ele>
        <time>2022-02-27T09:22:47Z</time>
      </trkpt>
      <trkpt lat="49.42903" lon="1.15516">
        <ele>81.3</ele>
        <time>2022-02-27T09:22:48Z</time>
      </trkpt>
      <trkpt lat="49.42902" lon="1.15521">
        <ele>81.4</ele>
        <time>2022-02-27T09:22:49Z</time>
      </trkpt>
      <trkpt lat="49.42901" lon="1.15525">
        <ele>81.5</ele>
        <time>2022-02-27T09:22:50Z</time>
      </trkpt>
      <trkpt lat="49.429" lon="1.1553">
        <ele>81.7</ele>
        <time>2022-02-27T09:22:51Z</time>
      </trkpt>
      <trkpt lat="49.42897" lon="1.15538">
        <ele>81.9</ele>
        <time>2022-02-27T09:22:53Z</time>
      </trkpt>
      <trkpt lat="49.42895" lon="1.15545">
        <ele>82</ele>
        <time>2022-02-27T09:22:54Z</time>
      </trkpt>
      <trkpt lat="49.42894" lon="1.15551">
        <ele>82.2</ele>
        <time>2022-02-27T09:22:55Z</time>
      </trkpt>
      <trkpt lat="49.42892" lon="1.15556">
        <ele>82.3</ele>
        <time>2022-02-27T09:22:56Z</time>
      </trkpt>
      <trkpt lat="49.42891" lon="1.1556">
        <ele>82.4</ele>
        <time>2022-02-27T09:22:57Z</time>
      </trkpt>
      <trkpt lat="49.42891" lon="1.1556">
        <ele>82.5</ele>
        <time>2022-02-27T09:22:59Z</time>
      </trkpt>
      <trkpt lat="49.4289" lon="1.15564">
        <ele>82.6</ele>
        <time>2022-02-27T09:23:00Z</time>
      </trkpt>
      <trkpt lat="49.42887" lon="1.15578">
        <ele>83</ele>
        <time>2022-02-27T09:23:02Z</time>
      </trkpt>
      <trkpt lat="49.42886" lon="1.15585">
        <ele>83.2</ele>
        <time>2022-02-27T09:23:04Z</time>
      </trkpt>
      <trkpt lat="49.42884" lon="1.15595">
        <ele>83.5</ele>
        <time>2022-02-27T09:23:06Z</time>
      </trkpt>
      <trkpt lat="49.42883" lon="1.15602">
        <ele>83.7</ele>
        <time>2022-02-27T09:23:07Z</time>
      </trkpt>
      <trkpt lat="49.42882" lon="1.15607">
        <ele>83.9</ele>
        <time>2022-02-27T09:23:08Z</time>
      </trkpt>
      <trkpt lat="49.42881" lon="1.15613">
        <ele>84</ele>
        <time>2022-02-27T09:23:09Z</time>
      </trkpt>
      <trkpt lat="49.4288" lon="1.15618">
        <ele>84.2</ele>
        <time>2022-02-27T09:23:10Z</time>
      </trkpt>
      <trkpt lat="49.42879" lon="1.15622">
        <ele>84.3</ele>
        <time>2022-02-27T09:23:11Z</time>
      </trkpt>
      <trkpt lat="49.42878" lon="1.15627">
        <ele>84.5</ele>
        <time>2022-02-27T09:23:12Z</time>
      </trkpt>
      <trkpt lat="49.42877" lon="1.15633">
        <ele>84.7</ele>
        <time>2022-02-27T09:23:14Z</time>
      </trkpt>
      <trkpt lat="49.42876" lon="1.15637">
        <ele>84.8</ele>
        <time>2022-02-27T09:23:15Z</time>
      </trkpt>
      <trkpt lat="49.42875" lon="1.15643">
        <ele>85</ele>
        <time>2022-02-27T09:23:16Z</time>
      </trkpt>
      <trkpt lat="49.42875" lon="1.15645">
        <ele>85.1</ele>
        <time>2022-02-27T09:23:17Z</time>
      </trkpt>
      <trkpt lat="49.42873" lon="1.15651">
        <ele>85.2</ele>
        <time>2022-02-27T09:23:19Z</time>
      </trkpt>
      <trkpt lat="49.42872" lon="1.15655">
        <ele>85.4</ele>
        <time>2022-02-27T09:23:20Z</time>
      </trkpt>
      <trkpt lat="49.42871" lon="1.1566">
        <ele>85.5</ele>
        <time>2022-02-27T09:23:21Z</time>
      </trkpt>
      <trkpt lat="49.42868" lon="1.15666">
        <ele>85.7</ele>
        <time>2022-02-27T09:23:23Z</time>
      </trkpt>
      <trkpt lat="49.42867" lon="1.15671">
        <ele>85.9</ele>
        <time>2022-02-27T09:23:24Z</time>
      </trkpt>
      <trkpt lat="49.42865" lon="1.15677">
        <ele>86.1</ele>
        <time>2022-02-27T09:23:25Z</time>
      </trkpt>
      <trkpt lat="49.42864" lon="1.15679">
        <ele>86.2</ele>
        <time>2022-02-27T09:23:26Z</time>
      </trkpt>
      <trkpt lat="49.42863" lon="1.15683">
        <ele>86.3</ele>
        <time>2022-02-27T09:23:27Z</time>
      </trkpt>
      <trkpt lat="49.42862" lon="1.15687">
        <ele>86.5</ele>
        <time>2022-02-27T09:23:28Z</time>
      </trkpt>
      <trkpt lat="49.4286" lon="1.15693">
        <ele>86.7</ele>
        <time>2022-02-27T09:23:29Z</time>
      </trkpt>
      <trkpt lat="49.4286" lon="1.15697">
        <ele>86.8</ele>
        <time>2022-02-27T09:23:30Z</time>
      </trkpt>
      <trkpt lat="49.42858" lon="1.15703">
        <ele>87</ele>
        <time>2022-02-27T09:23:32Z</time>
      </trkpt>
      <trkpt lat="49.42856" lon="1.15708">
        <ele>87.2</ele>
        <time>2022-02-27T09:23:33Z</time>
      </trkpt>
      <trkpt lat="49.42855" lon="1.15712">
        <ele>87.3</ele>
        <time>2022-02-27T09:23:34Z</time>
      </trkpt>
      <trkpt lat="49.42853" lon="1.15716">
        <ele>87.4</ele>
        <time>2022-02-27T09:23:35Z</time>
      </trkpt>
      <trkpt lat="49.42851" lon="1.15722">
        <ele>87.7</ele>
        <time>2022-02-27T09:23:36Z</time>
      </trkpt>
      <trkpt lat="49.42849" lon="1.15728">
        <ele>87.9</ele>
        <time>2022-02-27T09:23:38Z</time>
      </trkpt>
      <trkpt lat="49.42846" lon="1.15735">
        <ele>88.1</ele>
        <time>2022-02-27T09:23:39Z</time>
      </trkpt>
      <trkpt lat="49.42845" lon="1.15738">
        <ele>88.2</ele>
        <time>2022-02-27T09:23:40Z</time>
      </trkpt>
      <trkpt lat="49.42843" lon="1.15742">
        <ele>88.4</ele>
        <time>2022-02-27T09:23:42Z</time>
      </trkpt>
      <trkpt lat="49.42842" lon="1.15746">
        <ele>88.5</ele>
        <time>2022-02-27T09:23:43Z</time>
      </trkpt>
      <trkpt lat="49.4284" lon="1.15752">
        <ele>88.7</ele>
        <time>2022-02-27T09:23:44Z</time>
      </trkpt>
      <trkpt lat="49.4284" lon="1.15754">
        <ele>88.8</ele>
        <time>2022-02-27T09:23:45Z</time>
      </trkpt>
      <trkpt lat="49.42838" lon="1.15758">
        <ele>89</ele>
        <time>2022-02-27T09:23:46Z</time>
      </trkpt>
      <trkpt lat="49.42837" lon="1.15762">
        <ele>89.1</ele>
        <time>2022-02-27T09:23:47Z</time>
      </trkpt>
      <trkpt lat="49.42836" lon="1.15767">
        <ele>89.3</ele>
        <time>2022-02-27T09:23:48Z</time>
      </trkpt>
      <trkpt lat="49.42834" lon="1.1577">
        <ele>89.5</ele>
        <time>2022-02-27T09:23:49Z</time>
      </trkpt>
      <trkpt lat="49.42833" lon="1.15774">
        <ele>89.7</ele>
        <time>2022-02-27T09:23:50Z</time>
      </trkpt>
      <trkpt lat="49.42831" lon="1.15779">
        <ele>89.9</ele>
        <time>2022-02-27T09:23:51Z</time>
      </trkpt>
      <trkpt lat="49.42829" lon="1.15784">
        <ele>90.1</ele>
        <time>2022-02-27T09:23:52Z</time>
      </trkpt>
      <trkpt lat="49.42828" lon="1.15789">
        <ele>90.3</ele>
        <time>2022-02-27T09:23:54Z</time>
      </trkpt>
      <trkpt lat="49.42826" lon="1.15795">
        <ele>90.6</ele>
        <time>2022-02-27T09:23:55Z</time>
      </trkpt>
      <trkpt lat="49.42826" lon="1.15796">
        <ele>90.6</ele>
        <time>2022-02-27T09:23:56Z</time>
      </trkpt>
      <trkpt lat="49.42823" lon="1.15802">
        <ele>90.9</ele>
        <time>2022-02-27T09:23:57Z</time>
      </trkpt>
      <trkpt lat="49.42823" lon="1.15803">
        <ele>91</ele>
        <time>2022-02-27T09:23:58Z</time>
      </trkpt>
      <trkpt lat="49.42821" lon="1.15809">
        <ele>91.2</ele>
        <time>2022-02-27T09:24:00Z</time>
      </trkpt>
      <trkpt lat="49.42819" lon="1.15814">
        <ele>91.5</ele>
        <time>2022-02-27T09:24:01Z</time>
      </trkpt>
      <trkpt lat="49.42818" lon="1.15818">
        <ele>91.7</ele>
        <time>2022-02-27T09:24:02Z</time>
      </trkpt>
      <trkpt lat="49.42815" lon="1.15824">
        <ele>91.9</ele>
        <time>2022-02-27T09:24:04Z</time>
      </trkpt>
      <trkpt lat="49.42813" lon="1.15829">
        <ele>92.2</ele>
        <time>2022-02-27T09:24:05Z</time>
      </trkpt>
      <trkpt lat="49.42812" lon="1.15833">
        <ele>92.4</ele>
        <time>2022-02-27T09:24:06Z</time>
      </trkpt>
      <trkpt lat="49.4281" lon="1.15838">
        <ele>92.6</ele>
        <time>2022-02-27T09:24:07Z</time>
      </trkpt>
      <trkpt lat="49.42809" lon="1.15839">
        <ele>92.7</ele>
        <time>2022-02-27T09:24:08Z</time>
      </trkpt>
      <trkpt lat="49.42807" lon="1.15845">
        <ele>93</ele>
        <time>2022-02-27T09:24:09Z</time>
      </trkpt>
      <trkpt lat="49.42804" lon="1.15851">
        <ele>93.3</ele>
        <time>2022-02-27T09:24:11Z</time>
      </trkpt>
      <trkpt lat="49.42802" lon="1.15856">
        <ele>93.6</ele>
        <time>2022-02-27T09:24:12Z</time>
      </trkpt>
      <trkpt lat="49.42802" lon="1.15858">
        <ele>93.7</ele>
        <time>2022-02-27T09:24:13Z</time>
      </trkpt>
      <trkpt lat="49.42799" lon="1.15863">
        <ele>93.9</ele>
        <time>2022-02-27T09:24:14Z</time>
      </trkpt>
      <trkpt lat="49.42797" lon="1.15868">
        <ele>94.2</ele>
        <time>2022-02-27T09:24:16Z</time>
      </trkpt>
      <trkpt lat="49.42795" lon="1.15874">
        <ele>94.5</ele>
        <time>2022-02-27T09:24:17Z</time>
      </trkpt>
      <trkpt lat="49.42794" lon="1.15876">
        <ele>94.7</ele>
        <time>2022-02-27T09:24:18Z</time>
      </trkpt>
      <trkpt lat="49.42792" lon="1.15879">
        <ele>94.9</ele>
        <time>2022-02-27T09:24:19Z</time>
      </trkpt>
      <trkpt lat="49.4279" lon="1.15883">
        <ele>95.1</ele>
        <time>2022-02-27T09:24:20Z</time>
      </trkpt>
      <trkpt lat="49.42787" lon="1.15887">
        <ele>95.4</ele>
        <time>2022-02-27T09:24:21Z</time>
      </trkpt>
      <trkpt lat="49.42786" lon="1.15889">
        <ele>95.4</ele>
        <time>2022-02-27T09:24:22Z</time>
      </trkpt>
      <trkpt lat="49.42784" lon="1.15893">
        <ele>95.7</ele>
        <time>2022-02-27T09:24:23Z</time>
      </trkpt>
      <trkpt lat="49.42783" lon="1.15894">
        <ele>95.8</ele>
        <time>2022-02-27T09:24:24Z</time>
      </trkpt>
      <trkpt lat="49.4278" lon="1.15898">
        <ele>96</ele>
        <time>2022-02-27T09:24:25Z</time>
      </trkpt>
      <trkpt lat="49.42779" lon="1.159">
        <ele>96.1</ele>
        <time>2022-02-27T09:24:26Z</time>
      </trkpt>
      <trkpt lat="49.42777" lon="1.15904">
        <ele>96.3</ele>
        <time>2022-02-27T09:24:27Z</time>
      </trkpt>
      <trkpt lat="49.42775" lon="1.15907">
        <ele>96.5</ele>
        <time>2022-02-27T09:24:29Z</time>
      </trkpt>
      <trkpt lat="49.42773" lon="1.15911">
        <ele>96.6</ele>
        <time>2022-02-27T09:24:30Z</time>
      </trkpt>
      <trkpt lat="49.4277" lon="1.15915">
        <ele>96.8</ele>
        <time>2022-02-27T09:24:32Z</time>
      </trkpt>
      <trkpt lat="49.42768" lon="1.15918">
        <ele>97</ele>
        <time>2022-02-27T09:24:33Z</time>
      </trkpt>
      <trkpt lat="49.42766" lon="1.15922">
        <ele>97.1</ele>
        <time>2022-02-27T09:24:34Z</time>
      </trkpt>
      <trkpt lat="49.42763" lon="1.15926">
        <ele>97.3</ele>
        <time>2022-02-27T09:24:35Z</time>
      </trkpt>
      <trkpt lat="49.42762" lon="1.15927">
        <ele>97.3</ele>
        <time>2022-02-27T09:24:36Z</time>
      </trkpt>
      <trkpt lat="49.42761" lon="1.1593">
        <ele>97.4</ele>
        <time>2022-02-27T09:24:37Z</time>
      </trkpt>
      <trkpt lat="49.42759" lon="1.15934">
        <ele>97.4</ele>
        <time>2022-02-27T09:24:39Z</time>
      </trkpt>
      <trkpt lat="49.42758" lon="1.15939">
        <ele>97.4</ele>
        <time>2022-02-27T09:24:40Z</time>
      </trkpt>
      <trkpt lat="49.42758" lon="1.15941">
        <ele>97.4</ele>
        <time>2022-02-27T09:24:41Z</time>
      </trkpt>
      <trkpt lat="49.42757" lon="1.15943">
        <ele>97.4</ele>
        <time>2022-02-27T09:24:42Z</time>
      </trkpt>
      <trkpt lat="49.42756" lon="1.15946">
        <ele>97.3</ele>
        <time>2022-02-27T09:24:43Z</time>
      </trkpt>
      <trkpt lat="49.42756" lon="1.15947">
        <ele>97.2</ele>
        <time>2022-02-27T09:24:44Z</time>
      </trkpt>
      <trkpt lat="49.42755" lon="1.15949">
        <ele>97.2</ele>
        <time>2022-02-27T09:24:45Z</time>
      </trkpt>
      <trkpt lat="49.42754" lon="1.15948">
        <ele>97.1</ele>
        <time>2022-02-27T09:24:46Z</time>
      </trkpt>
      <trkpt lat="49.42754" lon="1.15949">
        <ele>97.1</ele>
        <time>2022-02-27T09:24:48Z</time>
      </trkpt>
      <trkpt lat="49.42754" lon="1.15949">
        <ele>97</ele>
        <time>2022-02-27T09:24:49Z</time>
      </trkpt>
      <trkpt lat="49.42754" lon="1.15949">
        <ele>97</ele>
        <time>2022-02-27T09:24:50Z</time>
      </trkpt>
      <trkpt lat="49.42754" lon="1.15949">
        <ele>97</ele>
        <time>2022-02-27T09:24:51Z</time>
      </trkpt>
      <trkpt lat="49.42754" lon="1.15949">
        <ele>97</ele>
        <time>2022-02-27T09:24:53Z</time>
      </trkpt>
      <trkpt lat="49.42754" lon="1.15949">
        <ele>97</ele>
        <time>2022-02-27T09:24:54Z</time>
      </trkpt>
      <trkpt lat="49.42754" lon="1.15948">
        <ele>97</ele>
        <time>2022-02-27T09:24:55Z</time>
      </trkpt>
      <trkpt lat="49.42754" lon="1.15948">
        <ele>97</ele>
        <time>2022-02-27T09:24:56Z</time>
      </trkpt>
      <trkpt lat="49.42754" lon="1.15948">
        <ele>97</ele>
        <time>2022-02-27T09:24:57Z</time>
      </trkpt>
      <trkpt lat="49.42754" lon="1.15948">
        <ele>97</ele>
        <time>2022-02-27T09:24:58Z</time>
      </trkpt>
      <trkpt lat="49.42754" lon="1.15948">
        <ele>97</ele>
        <time>2022-02-27T09:24:59Z</time>
      </trkpt>
      <trkpt lat="49.42754" lon="1.15948">
        <ele>97</ele>
        <time>2022-02-27T09:25:00Z</time>
      </trkpt>
      <trkpt lat="49.42754" lon="1.15948">
        <ele>97</ele>
        <time>2022-02-27T09:25:01Z</time>
      </trkpt>
      <trkpt lat="49.42752" lon="1.15952">
        <ele>96.6</ele>
        <time>2022-02-27T09:26:02Z</time>
      </trkpt>
      <trkpt lat="49.42752" lon="1.15954">
        <ele>96.5</ele>
        <time>2022-02-27T09:26:03Z</time>
      </trkpt>
      <trkpt lat="49.42751" lon="1.15957">
        <ele>96.3</ele>
        <time>2022-02-27T09:26:04Z</time>
      </trkpt>
      <trkpt lat="49.42753" lon="1.15958">
        <ele>95.9</ele>
        <time>2022-02-27T09:26:05Z</time>
      </trkpt>
      <trkpt lat="49.42755" lon="1.15958">
        <ele>95.7</ele>
        <time>2022-02-27T09:26:07Z</time>
      </trkpt>
      <trkpt lat="49.42756" lon="1.15957">
        <ele>95.4</ele>
        <time>2022-02-27T09:26:08Z</time>
      </trkpt>
      <trkpt lat="49.42758" lon="1.15956">
        <ele>95.2</ele>
        <time>2022-02-27T09:26:09Z</time>
      </trkpt>
      <trkpt lat="49.4276" lon="1.15955">
        <ele>94.6</ele>
        <time>2022-02-27T09:26:10Z</time>
      </trkpt>
      <trkpt lat="49.42761" lon="1.15955">
        <ele>94.4</ele>
        <time>2022-02-27T09:26:11Z</time>
      </trkpt>
      <trkpt lat="49.42763" lon="1.15954">
        <ele>94.1</ele>
        <time>2022-02-27T09:26:12Z</time>
      </trkpt>
      <trkpt lat="49.42765" lon="1.1595">
        <ele>93.4</ele>
        <time>2022-02-27T09:26:14Z</time>
      </trkpt>
      <trkpt lat="49.42767" lon="1.15945">
        <ele>92.6</ele>
        <time>2022-02-27T09:26:15Z</time>
      </trkpt>
      <trkpt lat="49.42768" lon="1.15944">
        <ele>92.3</ele>
        <time>2022-02-27T09:26:16Z</time>
      </trkpt>
      <trkpt lat="49.42769" lon="1.15942">
        <ele>91.9</ele>
        <time>2022-02-27T09:26:17Z</time>
      </trkpt>
      <trkpt lat="49.42771" lon="1.15939">
        <ele>91.2</ele>
        <time>2022-02-27T09:26:19Z</time>
      </trkpt>
      <trkpt lat="49.42773" lon="1.1594">
        <ele>90.9</ele>
        <time>2022-02-27T09:26:20Z</time>
      </trkpt>
      <trkpt lat="49.42774" lon="1.15941">
        <ele>90.6</ele>
        <time>2022-02-27T09:26:21Z</time>
      </trkpt>
      <trkpt lat="49.42775" lon="1.15941">
        <ele>90.3</ele>
        <time>2022-02-27T09:26:22Z</time>
      </trkpt>
      <trkpt lat="49.42776" lon="1.15942">
        <ele>90.1</ele>
        <time>2022-02-27T09:26:23Z</time>
      </trkpt>
      <trkpt lat="49.42776" lon="1.15942">
        <ele>89.9</ele>
        <time>2022-02-27T09:26:24Z</time>
      </trkpt>
      <trkpt lat="49.42776" lon="1.15942">
        <ele>89.8</ele>
        <time>2022-02-27T09:26:25Z</time>
      </trkpt>
      <trkpt lat="49.42776" lon="1.15942">
        <ele>89.7</ele>
        <time>2022-02-27T09:26:26Z</time>
      </trkpt>
      <trkpt lat="49.42776" lon="1.15942">
        <ele>89.7</ele>
        <time>2022-02-27T09:26:27Z</time>
      </trkpt>
      <trkpt lat="49.42776" lon="1.15942">
        <ele>89.6</ele>
        <time>2022-02-27T09:26:28Z</time>
      </trkpt>
      <trkpt lat="49.42776" lon="1.15942">
        <ele>89.6</ele>
        <time>2022-02-27T09:26:29Z</time>
      </trkpt>
      <trkpt lat="49.42776" lon="1.15942">
        <ele>89.6</ele>
        <time>2022-02-27T09:26:30Z</time>
      </trkpt>
      <trkpt lat="49.42776" lon="1.15942">
        <ele>89.6</ele>
        <time>2022-02-27T09:26:31Z</time>
      </trkpt>
      <trkpt lat="49.42777" lon="1.15942">
        <ele>89.5</ele>
        <time>2022-02-27T09:26:32Z</time>
      </trkpt>
      <trkpt lat="49.42777" lon="1.15942">
        <ele>89.5</ele>
        <time>2022-02-27T09:26:33Z</time>
      </trkpt>
      <trkpt lat="49.42777" lon="1.15942">
        <ele>89.5</ele>
        <time>2022-02-27T09:26:34Z</time>
      </trkpt>
      <trkpt lat="49.42777" lon="1.15942">
        <ele>89.4</ele>
        <time>2022-02-27T09:26:36Z</time>
      </trkpt>
      <trkpt lat="49.42783" lon="1.15943">
        <ele>88.4</ele>
        <time>2022-02-27T09:27:05Z</time>
      </trkpt>
      <trkpt lat="49.42785" lon="1.15944">
        <ele>88</ele>
        <time>2022-02-27T09:27:06Z</time>
      </trkpt>
      <trkpt lat="49.42785" lon="1.15946">
        <ele>87.7</ele>
        <time>2022-02-27T09:27:07Z</time>
      </trkpt>
      <trkpt lat="49.42786" lon="1.15948">
        <ele>87.5</ele>
        <time>2022-02-27T09:27:08Z</time>
      </trkpt>
      <trkpt lat="49.42785" lon="1.15948">
        <ele>87.3</ele>
        <time>2022-02-27T09:27:09Z</time>
      </trkpt>
      <trkpt lat="49.42785" lon="1.15951">
        <ele>87.1</ele>
        <time>2022-02-27T09:27:10Z</time>
      </trkpt>
      <trkpt lat="49.42784" lon="1.15954">
        <ele>86.9</ele>
        <time>2022-02-27T09:27:12Z</time>
      </trkpt>
      <trkpt lat="49.42784" lon="1.15956">
        <ele>86.7</ele>
        <time>2022-02-27T09:27:13Z</time>
      </trkpt>
      <trkpt lat="49.42784" lon="1.15962">
        <ele>86.4</ele>
        <time>2022-02-27T09:27:14Z</time>
      </trkpt>
      <trkpt lat="49.42784" lon="1.15963">
        <ele>86.3</ele>
        <time>2022-02-27T09:27:15Z</time>
      </trkpt>
      <trkpt lat="49.42783" lon="1.15968">
        <ele>86</ele>
        <time>2022-02-27T09:27:16Z</time>
      </trkpt>
      <trkpt lat="49.42782" lon="1.1597">
        <ele>85.9</ele>
        <time>2022-02-27T09:27:17Z</time>
      </trkpt>
      <trkpt lat="49.42781" lon="1.15973">
        <ele>85.8</ele>
        <time>2022-02-27T09:27:18Z</time>
      </trkpt>
      <trkpt lat="49.42781" lon="1.15975">
        <ele>85.7</ele>
        <time>2022-02-27T09:27:19Z</time>
      </trkpt>
      <trkpt lat="49.4278" lon="1.15977">
        <ele>85.6</ele>
        <time>2022-02-27T09:27:20Z</time>
      </trkpt>
      <trkpt lat="49.42779" lon="1.15979">
        <ele>85.5</ele>
        <time>2022-02-27T09:27:21Z</time>
      </trkpt>
      <trkpt lat="49.42778" lon="1.15982">
        <ele>85.5</ele>
        <time>2022-02-27T09:27:22Z</time>
      </trkpt>
      <trkpt lat="49.42778" lon="1.15984">
        <ele>85.4</ele>
        <time>2022-02-27T09:27:23Z</time>
      </trkpt>
      <trkpt lat="49.42777" lon="1.1599">
        <ele>85.3</ele>
        <time>2022-02-27T09:27:24Z</time>
      </trkpt>
      <trkpt lat="49.42775" lon="1.15998">
        <ele>85.2</ele>
        <time>2022-02-27T09:27:25Z</time>
      </trkpt>
      <trkpt lat="49.42775" lon="1.16008">
        <ele>85.2</ele>
        <time>2022-02-27T09:27:26Z</time>
      </trkpt>
      <trkpt lat="49.42774" lon="1.16018">
        <ele>85.1</ele>
        <time>2022-02-27T09:27:27Z</time>
      </trkpt>
      <trkpt lat="49.42773" lon="1.16027">
        <ele>85.1</ele>
        <time>2022-02-27T09:27:29Z</time>
      </trkpt>
      <trkpt lat="49.42773" lon="1.16035">
        <ele>85.1</ele>
        <time>2022-02-27T09:27:30Z</time>
      </trkpt>
      <trkpt lat="49.42772" lon="1.16043">
        <ele>85.1</ele>
        <time>2022-02-27T09:27:31Z</time>
      </trkpt>
      <trkpt lat="49.42771" lon="1.1605">
        <ele>85.1</ele>
        <time>2022-02-27T09:27:32Z</time>
      </trkpt>
      <trkpt lat="49.42772" lon="1.16055">
        <ele>85.1</ele>
        <time>2022-02-27T09:27:33Z</time>
      </trkpt>
      <trkpt lat="49.42771" lon="1.16056">
        <ele>85.1</ele>
        <time>2022-02-27T09:27:35Z</time>
      </trkpt>
      <trkpt lat="49.42771" lon="1.16057">
        <ele>85.1</ele>
        <time>2022-02-27T09:27:36Z</time>
      </trkpt>
      <trkpt lat="49.4277" lon="1.16058">
        <ele>85.1</ele>
        <time>2022-02-27T09:27:37Z</time>
      </trkpt>
      <trkpt lat="49.4277" lon="1.16059">
        <ele>85.1</ele>
        <time>2022-02-27T09:27:38Z</time>
      </trkpt>
      <trkpt lat="49.42769" lon="1.1606">
        <ele>85.1</ele>
        <time>2022-02-27T09:27:39Z</time>
      </trkpt>
      <trkpt lat="49.42769" lon="1.16061">
        <ele>85.1</ele>
        <time>2022-02-27T09:27:40Z</time>
      </trkpt>
      <trkpt lat="49.42769" lon="1.16061">
        <ele>85.1</ele>
        <time>2022-02-27T09:27:42Z</time>
      </trkpt>
      <trkpt lat="49.42768" lon="1.16062">
        <ele>85.1</ele>
        <time>2022-02-27T09:27:43Z</time>
      </trkpt>
      <trkpt lat="49.42768" lon="1.16063">
        <ele>85.1</ele>
        <time>2022-02-27T09:27:44Z</time>
      </trkpt>
      <trkpt lat="49.42768" lon="1.16078">
        <ele>85.3</ele>
        <time>2022-02-27T09:27:45Z</time>
      </trkpt>
      <trkpt lat="49.42768" lon="1.1609">
        <ele>85.6</ele>
        <time>2022-02-27T09:27:46Z</time>
      </trkpt>
      <trkpt lat="49.42768" lon="1.16098">
        <ele>85.7</ele>
        <time>2022-02-27T09:27:47Z</time>
      </trkpt>
      <trkpt lat="49.42768" lon="1.16107">
        <ele>85.9</ele>
        <time>2022-02-27T09:27:48Z</time>
      </trkpt>
      <trkpt lat="49.42767" lon="1.16114">
        <ele>85.9</ele>
        <time>2022-02-27T09:27:49Z</time>
      </trkpt>
      <trkpt lat="49.42767" lon="1.16121">
        <ele>86</ele>
        <time>2022-02-27T09:27:50Z</time>
      </trkpt>
      <trkpt lat="49.42767" lon="1.16126">
        <ele>86</ele>
        <time>2022-02-27T09:27:51Z</time>
      </trkpt>
      <trkpt lat="49.42766" lon="1.16132">
        <ele>86</ele>
        <time>2022-02-27T09:27:53Z</time>
      </trkpt>
      <trkpt lat="49.42766" lon="1.16138">
        <ele>86</ele>
        <time>2022-02-27T09:27:54Z</time>
      </trkpt>
      <trkpt lat="49.42765" lon="1.16144">
        <ele>85.9</ele>
        <time>2022-02-27T09:27:55Z</time>
      </trkpt>
      <trkpt lat="49.42764" lon="1.16151">
        <ele>85.7</ele>
        <time>2022-02-27T09:27:57Z</time>
      </trkpt>
      <trkpt lat="49.42764" lon="1.16159">
        <ele>85.5</ele>
        <time>2022-02-27T09:27:59Z</time>
      </trkpt>
      <trkpt lat="49.42764" lon="1.16165">
        <ele>85.3</ele>
        <time>2022-02-27T09:28:00Z</time>
      </trkpt>
      <trkpt lat="49.42763" lon="1.16169">
        <ele>85.2</ele>
        <time>2022-02-27T09:28:01Z</time>
      </trkpt>
      <trkpt lat="49.42763" lon="1.16174">
        <ele>85</ele>
        <time>2022-02-27T09:28:02Z</time>
      </trkpt>
      <trkpt lat="49.42762" lon="1.1618">
        <ele>84.8</ele>
        <time>2022-02-27T09:28:03Z</time>
      </trkpt>
      <trkpt lat="49.42761" lon="1.16187">
        <ele>84.6</ele>
        <time>2022-02-27T09:28:05Z</time>
      </trkpt>
      <trkpt lat="49.42761" lon="1.16192">
        <ele>84.4</ele>
        <time>2022-02-27T09:28:06Z</time>
      </trkpt>
      <trkpt lat="49.4276" lon="1.16199">
        <ele>84.3</ele>
        <time>2022-02-27T09:28:07Z</time>
      </trkpt>
      <trkpt lat="49.4276" lon="1.16206">
        <ele>84.1</ele>
        <time>2022-02-27T09:28:09Z</time>
      </trkpt>
      <trkpt lat="49.42759" lon="1.16212">
        <ele>84</ele>
        <time>2022-02-27T09:28:10Z</time>
      </trkpt>
      <trkpt lat="49.42758" lon="1.16217">
        <ele>83.9</ele>
        <time>2022-02-27T09:28:11Z</time>
      </trkpt>
      <trkpt lat="49.42757" lon="1.16222">
        <ele>83.8</ele>
        <time>2022-02-27T09:28:12Z</time>
      </trkpt>
      <trkpt lat="49.42757" lon="1.16225">
        <ele>83.8</ele>
        <time>2022-02-27T09:28:13Z</time>
      </trkpt>
      <trkpt lat="49.42756" lon="1.1623">
        <ele>83.7</ele>
        <time>2022-02-27T09:28:15Z</time>
      </trkpt>
      <trkpt lat="49.42756" lon="1.16236">
        <ele>83.6</ele>
        <time>2022-02-27T09:28:16Z</time>
      </trkpt>
      <trkpt lat="49.42756" lon="1.16238">
        <ele>83.6</ele>
        <time>2022-02-27T09:28:17Z</time>
      </trkpt>
      <trkpt lat="49.42755" lon="1.1624">
        <ele>83.6</ele>
        <time>2022-02-27T09:28:18Z</time>
      </trkpt>
      <trkpt lat="49.42755" lon="1.16243">
        <ele>83.6</ele>
        <time>2022-02-27T09:28:19Z</time>
      </trkpt>
      <trkpt lat="49.42755" lon="1.16247">
        <ele>83.7</ele>
        <time>2022-02-27T09:28:20Z</time>
      </trkpt>
      <trkpt lat="49.42755" lon="1.16248">
        <ele>83.7</ele>
        <time>2022-02-27T09:28:21Z</time>
      </trkpt>
      <trkpt lat="49.42755" lon="1.16252">
        <ele>83.7</ele>
        <time>2022-02-27T09:28:22Z</time>
      </trkpt>
      <trkpt lat="49.42755" lon="1.16253">
        <ele>83.7</ele>
        <time>2022-02-27T09:28:23Z</time>
      </trkpt>
      <trkpt lat="49.42755" lon="1.16254">
        <ele>83.7</ele>
        <time>2022-02-27T09:28:24Z</time>
      </trkpt>
      <trkpt lat="49.42755" lon="1.16256">
        <ele>83.8</ele>
        <time>2022-02-27T09:28:25Z</time>
      </trkpt>
      <trkpt lat="49.42756" lon="1.16258">
        <ele>83.8</ele>
        <time>2022-02-27T09:28:26Z</time>
      </trkpt>
      <trkpt lat="49.42756" lon="1.16259">
        <ele>83.8</ele>
        <time>2022-02-27T09:28:27Z</time>
      </trkpt>
      <trkpt lat="49.42756" lon="1.16261">
        <ele>83.9</ele>
        <time>2022-02-27T09:28:28Z</time>
      </trkpt>
      <trkpt lat="49.42756" lon="1.16264">
        <ele>84</ele>
        <time>2022-02-27T09:28:30Z</time>
      </trkpt>
      <trkpt lat="49.42756" lon="1.1627">
        <ele>84.2</ele>
        <time>2022-02-27T09:28:32Z</time>
      </trkpt>
      <trkpt lat="49.42756" lon="1.16272">
        <ele>84.2</ele>
        <time>2022-02-27T09:28:33Z</time>
      </trkpt>
      <trkpt lat="49.42756" lon="1.16274">
        <ele>84.3</ele>
        <time>2022-02-27T09:28:34Z</time>
      </trkpt>
      <trkpt lat="49.42756" lon="1.16275">
        <ele>84.4</ele>
        <time>2022-02-27T09:28:35Z</time>
      </trkpt>
      <trkpt lat="49.42756" lon="1.16278">
        <ele>84.4</ele>
        <time>2022-02-27T09:28:36Z</time>
      </trkpt>
      <trkpt lat="49.42754" lon="1.16283">
        <ele>84.7</ele>
        <time>2022-02-27T09:28:38Z</time>
      </trkpt>
      <trkpt lat="49.42753" lon="1.16284">
        <ele>84.8</ele>
        <time>2022-02-27T09:28:39Z</time>
      </trkpt>
      <trkpt lat="49.42753" lon="1.16285">
        <ele>84.8</ele>
        <time>2022-02-27T09:28:40Z</time>
      </trkpt>
      <trkpt lat="49.42753" lon="1.16285">
        <ele>84.8</ele>
        <time>2022-02-27T09:28:42Z</time>
      </trkpt>
      <trkpt lat="49.42753" lon="1.16286">
        <ele>84.8</ele>
        <time>2022-02-27T09:28:43Z</time>
      </trkpt>
      <trkpt lat="49.42753" lon="1.16286">
        <ele>84.9</ele>
        <time>2022-02-27T09:28:44Z</time>
      </trkpt>
      <trkpt lat="49.42753" lon="1.16287">
        <ele>84.9</ele>
        <time>2022-02-27T09:28:45Z</time>
      </trkpt>
      <trkpt lat="49.42753" lon="1.16288">
        <ele>84.9</ele>
        <time>2022-02-27T09:28:47Z</time>
      </trkpt>
      <trkpt lat="49.42753" lon="1.16288">
        <ele>84.9</ele>
        <time>2022-02-27T09:28:48Z</time>
      </trkpt>
      <trkpt lat="49.42753" lon="1.16289">
        <ele>84.9</ele>
        <time>2022-02-27T09:28:49Z</time>
      </trkpt>
      <trkpt lat="49.42753" lon="1.16289">
        <ele>85</ele>
        <time>2022-02-27T09:28:50Z</time>
      </trkpt>
      <trkpt lat="49.42753" lon="1.1629">
        <ele>85</ele>
        <time>2022-02-27T09:28:51Z</time>
      </trkpt>
      <trkpt lat="49.42753" lon="1.1629">
        <ele>85</ele>
        <time>2022-02-27T09:28:52Z</time>
      </trkpt>
      <trkpt lat="49.42753" lon="1.16291">
        <ele>85</ele>
        <time>2022-02-27T09:28:53Z</time>
      </trkpt>
      <trkpt lat="49.42753" lon="1.16291">
        <ele>85.1</ele>
        <time>2022-02-27T09:28:55Z</time>
      </trkpt>
      <trkpt lat="49.42753" lon="1.16292">
        <ele>85.1</ele>
        <time>2022-02-27T09:28:56Z</time>
      </trkpt>
      <trkpt lat="49.42753" lon="1.16292">
        <ele>85.1</ele>
        <time>2022-02-27T09:28:59Z</time>
      </trkpt>
      <trkpt lat="49.42753" lon="1.16293">
        <ele>85.1</ele>
        <time>2022-02-27T09:29:00Z</time>
      </trkpt>
      <trkpt lat="49.42753" lon="1.16293">
        <ele>85.1</ele>
        <time>2022-02-27T09:29:01Z</time>
      </trkpt>
      <trkpt lat="49.42753" lon="1.16294">
        <ele>85.2</ele>
        <time>2022-02-27T09:29:02Z</time>
      </trkpt>
      <trkpt lat="49.42753" lon="1.16294">
        <ele>85.2</ele>
        <time>2022-02-27T09:29:03Z</time>
      </trkpt>
      <trkpt lat="49.42753" lon="1.16295">
        <ele>85.2</ele>
        <time>2022-02-27T09:29:04Z</time>
      </trkpt>
      <trkpt lat="49.42753" lon="1.16295">
        <ele>85.2</ele>
        <time>2022-02-27T09:29:05Z</time>
      </trkpt>
      <trkpt lat="49.42753" lon="1.16296">
        <ele>85.2</ele>
        <time>2022-02-27T09:29:06Z</time>
      </trkpt>
      <trkpt lat="49.42753" lon="1.16296">
        <ele>85.3</ele>
        <time>2022-02-27T09:29:07Z</time>
      </trkpt>
      <trkpt lat="49.42753" lon="1.16297">
        <ele>85.3</ele>
        <time>2022-02-27T09:29:08Z</time>
      </trkpt>
      <trkpt lat="49.42753" lon="1.16297">
        <ele>85.3</ele>
        <time>2022-02-27T09:29:09Z</time>
      </trkpt>
      <trkpt lat="49.42753" lon="1.16298">
        <ele>85.3</ele>
        <time>2022-02-27T09:29:11Z</time>
      </trkpt>
      <trkpt lat="49.42753" lon="1.16298">
        <ele>85.3</ele>
        <time>2022-02-27T09:29:12Z</time>
      </trkpt>
      <trkpt lat="49.42753" lon="1.16304">
        <ele>85.5</ele>
        <time>2022-02-27T09:29:14Z</time>
      </trkpt>
      <trkpt lat="49.42752" lon="1.16309">
        <ele>85.7</ele>
        <time>2022-02-27T09:29:15Z</time>
      </trkpt>
      <trkpt lat="49.42751" lon="1.16315">
        <ele>85.8</ele>
        <time>2022-02-27T09:29:16Z</time>
      </trkpt>
      <trkpt lat="49.4275" lon="1.16319">
        <ele>85.8</ele>
        <time>2022-02-27T09:29:17Z</time>
      </trkpt>
      <trkpt lat="49.4275" lon="1.16324">
        <ele>85.8</ele>
        <time>2022-02-27T09:29:18Z</time>
      </trkpt>
      <trkpt lat="49.4275" lon="1.16332">
        <ele>85.6</ele>
        <time>2022-02-27T09:29:20Z</time>
      </trkpt>
      <trkpt lat="49.4275" lon="1.16338">
        <ele>85.3</ele>
        <time>2022-02-27T09:29:21Z</time>
      </trkpt>
      <trkpt lat="49.4275" lon="1.16344">
        <ele>85</ele>
        <time>2022-02-27T09:29:22Z</time>
      </trkpt>
      <trkpt lat="49.4275" lon="1.16346">
        <ele>84.8</ele>
        <time>2022-02-27T09:29:23Z</time>
      </trkpt>
      <trkpt lat="49.4275" lon="1.16352">
        <ele>84.3</ele>
        <time>2022-02-27T09:29:24Z</time>
      </trkpt>
      <trkpt lat="49.42751" lon="1.16359">
        <ele>83.6</ele>
        <time>2022-02-27T09:29:25Z</time>
      </trkpt>
      <trkpt lat="49.42751" lon="1.16366">
        <ele>82.9</ele>
        <time>2022-02-27T09:29:26Z</time>
      </trkpt>
      <trkpt lat="49.42752" lon="1.16374">
        <ele>81.9</ele>
        <time>2022-02-27T09:29:28Z</time>
      </trkpt>
      <trkpt lat="49.42753" lon="1.16382">
        <ele>81</ele>
        <time>2022-02-27T09:29:29Z</time>
      </trkpt>
      <trkpt lat="49.42754" lon="1.16388">
        <ele>80.1</ele>
        <time>2022-02-27T09:29:30Z</time>
      </trkpt>
      <trkpt lat="49.42758" lon="1.16402">
        <ele>78.2</ele>
        <time>2022-02-27T09:29:31Z</time>
      </trkpt>
      <trkpt lat="49.42772" lon="1.16437">
        <ele>73.5</ele>
        <time>2022-02-27T09:29:33Z</time>
      </trkpt>
      <trkpt lat="49.42775" lon="1.16443">
        <ele>72.7</ele>
        <time>2022-02-27T09:29:34Z</time>
      </trkpt>
      <trkpt lat="49.42776" lon="1.16448">
        <ele>72.2</ele>
        <time>2022-02-27T09:29:35Z</time>
      </trkpt>
      <trkpt lat="49.42779" lon="1.16453">
        <ele>71.5</ele>
        <time>2022-02-27T09:29:36Z</time>
      </trkpt>
      <trkpt lat="49.42782" lon="1.16458">
        <ele>70.8</ele>
        <time>2022-02-27T09:29:37Z</time>
      </trkpt>
      <trkpt lat="49.42784" lon="1.16465">
        <ele>70</ele>
        <time>2022-02-27T09:29:39Z</time>
      </trkpt>
      <trkpt lat="49.42784" lon="1.16472">
        <ele>69.2</ele>
        <time>2022-02-27T09:29:40Z</time>
      </trkpt>
      <trkpt lat="49.42785" lon="1.16478">
        <ele>68.7</ele>
        <time>2022-02-27T09:29:41Z</time>
      </trkpt>
      <trkpt lat="49.42786" lon="1.16485">
        <ele>67.9</ele>
        <time>2022-02-27T09:29:42Z</time>
      </trkpt>
      <trkpt lat="49.42787" lon="1.16492">
        <ele>67.2</ele>
        <time>2022-02-27T09:29:43Z</time>
      </trkpt>
      <trkpt lat="49.42788" lon="1.16502">
        <ele>66.2</ele>
        <time>2022-02-27T09:29:44Z</time>
      </trkpt>
      <trkpt lat="49.42792" lon="1.16518">
        <ele>64.8</ele>
        <time>2022-02-27T09:29:45Z</time>
      </trkpt>
      <trkpt lat="49.42795" lon="1.16528">
        <ele>63.9</ele>
        <time>2022-02-27T09:29:46Z</time>
      </trkpt>
      <trkpt lat="49.42799" lon="1.16536">
        <ele>63.1</ele>
        <time>2022-02-27T09:29:47Z</time>
      </trkpt>
      <trkpt lat="49.42802" lon="1.16547">
        <ele>62.3</ele>
        <time>2022-02-27T09:29:48Z</time>
      </trkpt>
      <trkpt lat="49.42804" lon="1.16557">
        <ele>61.5</ele>
        <time>2022-02-27T09:29:49Z</time>
      </trkpt>
      <trkpt lat="49.42807" lon="1.16567">
        <ele>60.9</ele>
        <time>2022-02-27T09:29:50Z</time>
      </trkpt>
      <trkpt lat="49.42809" lon="1.16577">
        <ele>60.2</ele>
        <time>2022-02-27T09:29:51Z</time>
      </trkpt>
      <trkpt lat="49.42812" lon="1.16585">
        <ele>59.7</ele>
        <time>2022-02-27T09:29:52Z</time>
      </trkpt>
      <trkpt lat="49.42815" lon="1.16592">
        <ele>59.2</ele>
        <time>2022-02-27T09:29:53Z</time>
      </trkpt>
      <trkpt lat="49.42817" lon="1.166">
        <ele>58.7</ele>
        <time>2022-02-27T09:29:54Z</time>
      </trkpt>
      <trkpt lat="49.42819" lon="1.16609">
        <ele>58.2</ele>
        <time>2022-02-27T09:29:55Z</time>
      </trkpt>
      <trkpt lat="49.4282" lon="1.16616">
        <ele>57.9</ele>
        <time>2022-02-27T09:29:56Z</time>
      </trkpt>
      <trkpt lat="49.42822" lon="1.16626">
        <ele>57.7</ele>
        <time>2022-02-27T09:29:57Z</time>
      </trkpt>
      <trkpt lat="49.42824" lon="1.16635">
        <ele>57.6</ele>
        <time>2022-02-27T09:29:58Z</time>
      </trkpt>
      <trkpt lat="49.42825" lon="1.16639">
        <ele>57.6</ele>
        <time>2022-02-27T09:29:59Z</time>
      </trkpt>
      <trkpt lat="49.42825" lon="1.16638">
        <ele>57.6</ele>
        <time>2022-02-27T09:30:00Z</time>
      </trkpt>
      <trkpt lat="49.42826" lon="1.16637">
        <ele>57.6</ele>
        <time>2022-02-27T09:30:01Z</time>
      </trkpt>
      <trkpt lat="49.42826" lon="1.16635">
        <ele>57.5</ele>
        <time>2022-02-27T09:30:02Z</time>
      </trkpt>
      <trkpt lat="49.42826" lon="1.16634">
        <ele>57.5</ele>
        <time>2022-02-27T09:30:03Z</time>
      </trkpt>
      <trkpt lat="49.42826" lon="1.16634">
        <ele>57.5</ele>
        <time>2022-02-27T09:30:05Z</time>
      </trkpt>
      <trkpt lat="49.42826" lon="1.16634">
        <ele>57.5</ele>
        <time>2022-02-27T09:30:06Z</time>
      </trkpt>
      <trkpt lat="49.42826" lon="1.16632">
        <ele>57.5</ele>
        <time>2022-02-27T09:30:07Z</time>
      </trkpt>
      <trkpt lat="49.42826" lon="1.16632">
        <ele>57.5</ele>
        <time>2022-02-27T09:30:08Z</time>
      </trkpt>
      <trkpt lat="49.42827" lon="1.16631">
        <ele>57.5</ele>
        <time>2022-02-27T09:30:09Z</time>
      </trkpt>
      <trkpt lat="49.42831" lon="1.16632">
        <ele>57.4</ele>
        <time>2022-02-27T09:30:23Z</time>
      </trkpt>
      <trkpt lat="49.42832" lon="1.16633">
        <ele>57.4</ele>
        <time>2022-02-27T09:30:24Z</time>
      </trkpt>
      <trkpt lat="49.42833" lon="1.16634">
        <ele>57.3</ele>
        <time>2022-02-27T09:30:25Z</time>
      </trkpt>
      <trkpt lat="49.42834" lon="1.16638">
        <ele>57</ele>
        <time>2022-02-27T09:30:26Z</time>
      </trkpt>
      <trkpt lat="49.42837" lon="1.16641">
        <ele>56.7</ele>
        <time>2022-02-27T09:30:27Z</time>
      </trkpt>
      <trkpt lat="49.4284" lon="1.16646">
        <ele>56.2</ele>
        <time>2022-02-27T09:30:28Z</time>
      </trkpt>
      <trkpt lat="49.42844" lon="1.16649">
        <ele>55.8</ele>
        <time>2022-02-27T09:30:29Z</time>
      </trkpt>
      <trkpt lat="49.42849" lon="1.16654">
        <ele>55</ele>
        <time>2022-02-27T09:30:30Z</time>
      </trkpt>
      <trkpt lat="49.42853" lon="1.16659">
        <ele>54.5</ele>
        <time>2022-02-27T09:30:31Z</time>
      </trkpt>
      <trkpt lat="49.42859" lon="1.16664">
        <ele>53.7</ele>
        <time>2022-02-27T09:30:33Z</time>
      </trkpt>
      <trkpt lat="49.42863" lon="1.16666">
        <ele>53.2</ele>
        <time>2022-02-27T09:30:34Z</time>
      </trkpt>
      <trkpt lat="49.42867" lon="1.16667">
        <ele>52.8</ele>
        <time>2022-02-27T09:30:35Z</time>
      </trkpt>
      <trkpt lat="49.42871" lon="1.1667">
        <ele>51.6</ele>
        <time>2022-02-27T09:30:36Z</time>
      </trkpt>
      <trkpt lat="49.42873" lon="1.16676">
        <ele>51.3</ele>
        <time>2022-02-27T09:30:37Z</time>
      </trkpt>
      <trkpt lat="49.42874" lon="1.16685">
        <ele>50.9</ele>
        <time>2022-02-27T09:30:39Z</time>
      </trkpt>
      <trkpt lat="49.42876" lon="1.1669">
        <ele>50.6</ele>
        <time>2022-02-27T09:30:40Z</time>
      </trkpt>
      <trkpt lat="49.42876" lon="1.16694">
        <ele>50.4</ele>
        <time>2022-02-27T09:30:41Z</time>
      </trkpt>
      <trkpt lat="49.42877" lon="1.16702">
        <ele>50</ele>
        <time>2022-02-27T09:30:42Z</time>
      </trkpt>
      <trkpt lat="49.42878" lon="1.16719">
        <ele>49.1</ele>
        <time>2022-02-27T09:30:43Z</time>
      </trkpt>
      <trkpt lat="49.42877" lon="1.16729">
        <ele>48.5</ele>
        <time>2022-02-27T09:30:44Z</time>
      </trkpt>
      <trkpt lat="49.42876" lon="1.16738">
        <ele>48</ele>
        <time>2022-02-27T09:30:45Z</time>
      </trkpt>
      <trkpt lat="49.42875" lon="1.16747">
        <ele>47.5</ele>
        <time>2022-02-27T09:30:46Z</time>
      </trkpt>
      <trkpt lat="49.42874" lon="1.16758">
        <ele>47</ele>
        <time>2022-02-27T09:30:47Z</time>
      </trkpt>
      <trkpt lat="49.42873" lon="1.16768">
        <ele>46.6</ele>
        <time>2022-02-27T09:30:48Z</time>
      </trkpt>
      <trkpt lat="49.42871" lon="1.16778">
        <ele>46.2</ele>
        <time>2022-02-27T09:30:49Z</time>
      </trkpt>
      <trkpt lat="49.4287" lon="1.16788">
        <ele>45.9</ele>
        <time>2022-02-27T09:30:50Z</time>
      </trkpt>
      <trkpt lat="49.42868" lon="1.16798">
        <ele>45.6</ele>
        <time>2022-02-27T09:30:51Z</time>
      </trkpt>
      <trkpt lat="49.42867" lon="1.16808">
        <ele>45.4</ele>
        <time>2022-02-27T09:30:52Z</time>
      </trkpt>
      <trkpt lat="49.42866" lon="1.16816">
        <ele>45.2</ele>
        <time>2022-02-27T09:30:53Z</time>
      </trkpt>
      <trkpt lat="49.42864" lon="1.16822">
        <ele>45.1</ele>
        <time>2022-02-27T09:30:54Z</time>
      </trkpt>
      <trkpt lat="49.42862" lon="1.16828">
        <ele>45</ele>
        <time>2022-02-27T09:30:55Z</time>
      </trkpt>
      <trkpt lat="49.4286" lon="1.16833">
        <ele>45</ele>
        <time>2022-02-27T09:30:56Z</time>
      </trkpt>
      <trkpt lat="49.4286" lon="1.16838">
        <ele>45</ele>
        <time>2022-02-27T09:30:57Z</time>
      </trkpt>
      <trkpt lat="49.4286" lon="1.16842">
        <ele>44.9</ele>
        <time>2022-02-27T09:30:58Z</time>
      </trkpt>
      <trkpt lat="49.4286" lon="1.16846">
        <ele>44.9</ele>
        <time>2022-02-27T09:30:59Z</time>
      </trkpt>
      <trkpt lat="49.4286" lon="1.16847">
        <ele>44.8</ele>
        <time>2022-02-27T09:31:00Z</time>
      </trkpt>
      <trkpt lat="49.4286" lon="1.16847">
        <ele>44.8</ele>
        <time>2022-02-27T09:31:01Z</time>
      </trkpt>
      <trkpt lat="49.4286" lon="1.16846">
        <ele>44.8</ele>
        <time>2022-02-27T09:31:03Z</time>
      </trkpt>
      <trkpt lat="49.42861" lon="1.16847">
        <ele>44.8</ele>
        <time>2022-02-27T09:31:04Z</time>
      </trkpt>
      <trkpt lat="49.42861" lon="1.16847">
        <ele>44.8</ele>
        <time>2022-02-27T09:31:05Z</time>
      </trkpt>
      <trkpt lat="49.42861" lon="1.16848">
        <ele>44.7</ele>
        <time>2022-02-27T09:31:06Z</time>
      </trkpt>
      <trkpt lat="49.42862" lon="1.16848">
        <ele>44.7</ele>
        <time>2022-02-27T09:31:07Z</time>
      </trkpt>
      <trkpt lat="49.42862" lon="1.16848">
        <ele>44.7</ele>
        <time>2022-02-27T09:31:09Z</time>
      </trkpt>
      <trkpt lat="49.42863" lon="1.16847">
        <ele>44.7</ele>
        <time>2022-02-27T09:31:11Z</time>
      </trkpt>
      <trkpt lat="49.42864" lon="1.16847">
        <ele>44.7</ele>
        <time>2022-02-27T09:31:12Z</time>
      </trkpt>
      <trkpt lat="49.42865" lon="1.16846">
        <ele>44.6</ele>
        <time>2022-02-27T09:31:14Z</time>
      </trkpt>
      <trkpt lat="49.42867" lon="1.16846">
        <ele>44.6</ele>
        <time>2022-02-27T09:31:16Z</time>
      </trkpt>
      <trkpt lat="49.42868" lon="1.16845">
        <ele>44.6</ele>
        <time>2022-02-27T09:31:17Z</time>
      </trkpt>
      <trkpt lat="49.42868" lon="1.16844">
        <ele>44.5</ele>
        <time>2022-02-27T09:31:18Z</time>
      </trkpt>
      <trkpt lat="49.4287" lon="1.16844">
        <ele>44.5</ele>
        <time>2022-02-27T09:31:20Z</time>
      </trkpt>
      <trkpt lat="49.42871" lon="1.16843">
        <ele>44.5</ele>
        <time>2022-02-27T09:31:21Z</time>
      </trkpt>
      <trkpt lat="49.42872" lon="1.16844">
        <ele>44.4</ele>
        <time>2022-02-27T09:31:22Z</time>
      </trkpt>
      <trkpt lat="49.42874" lon="1.16846">
        <ele>44.4</ele>
        <time>2022-02-27T09:31:23Z</time>
      </trkpt>
      <trkpt lat="49.42875" lon="1.16847">
        <ele>44.3</ele>
        <time>2022-02-27T09:31:24Z</time>
      </trkpt>
      <trkpt lat="49.42876" lon="1.16849">
        <ele>44.3</ele>
        <time>2022-02-27T09:31:25Z</time>
      </trkpt>
      <trkpt lat="49.42879" lon="1.16852">
        <ele>44.2</ele>
        <time>2022-02-27T09:31:26Z</time>
      </trkpt>
      <trkpt lat="49.4288" lon="1.16854">
        <ele>44.2</ele>
        <time>2022-02-27T09:31:27Z</time>
      </trkpt>
      <trkpt lat="49.42882" lon="1.16857">
        <ele>44.1</ele>
        <time>2022-02-27T09:31:28Z</time>
      </trkpt>
      <trkpt lat="49.42885" lon="1.1686">
        <ele>44</ele>
        <time>2022-02-27T09:31:29Z</time>
      </trkpt>
      <trkpt lat="49.42887" lon="1.16864">
        <ele>43.9</ele>
        <time>2022-02-27T09:31:30Z</time>
      </trkpt>
      <trkpt lat="49.4289" lon="1.16868">
        <ele>43.9</ele>
        <time>2022-02-27T09:31:31Z</time>
      </trkpt>
      <trkpt lat="49.42893" lon="1.16873">
        <ele>43.8</ele>
        <time>2022-02-27T09:31:32Z</time>
      </trkpt>
      <trkpt lat="49.42896" lon="1.16878">
        <ele>43.7</ele>
        <time>2022-02-27T09:31:33Z</time>
      </trkpt>
      <trkpt lat="49.42899" lon="1.16883">
        <ele>43.6</ele>
        <time>2022-02-27T09:31:34Z</time>
      </trkpt>
      <trkpt lat="49.42901" lon="1.16888">
        <ele>43.5</ele>
        <time>2022-02-27T09:31:35Z</time>
      </trkpt>
      <trkpt lat="49.42904" lon="1.16894">
        <ele>43.4</ele>
        <time>2022-02-27T09:31:36Z</time>
      </trkpt>
      <trkpt lat="49.42906" lon="1.16899">
        <ele>43.4</ele>
        <time>2022-02-27T09:31:37Z</time>
      </trkpt>
      <trkpt lat="49.42909" lon="1.16903">
        <ele>43.3</ele>
        <time>2022-02-27T09:31:38Z</time>
      </trkpt>
      <trkpt lat="49.42913" lon="1.16907">
        <ele>43.2</ele>
        <time>2022-02-27T09:31:39Z</time>
      </trkpt>
      <trkpt lat="49.42916" lon="1.16909">
        <ele>43.1</ele>
        <time>2022-02-27T09:31:40Z</time>
      </trkpt>
      <trkpt lat="49.4292" lon="1.16911">
        <ele>43</ele>
        <time>2022-02-27T09:31:41Z</time>
      </trkpt>
      <trkpt lat="49.42922" lon="1.16916">
        <ele>42.9</ele>
        <time>2022-02-27T09:31:42Z</time>
      </trkpt>
      <trkpt lat="49.42924" lon="1.16923">
        <ele>42.8</ele>
        <time>2022-02-27T09:31:44Z</time>
      </trkpt>
      <trkpt lat="49.42924" lon="1.16927">
        <ele>42.7</ele>
        <time>2022-02-27T09:31:45Z</time>
      </trkpt>
      <trkpt lat="49.42923" lon="1.16932">
        <ele>42.6</ele>
        <time>2022-02-27T09:31:47Z</time>
      </trkpt>
      <trkpt lat="49.42924" lon="1.16933">
        <ele>42.6</ele>
        <time>2022-02-27T09:31:48Z</time>
      </trkpt>
      <trkpt lat="49.42925" lon="1.16934">
        <ele>42.5</ele>
        <time>2022-02-27T09:31:49Z</time>
      </trkpt>
      <trkpt lat="49.42926" lon="1.16934">
        <ele>42.4</ele>
        <time>2022-02-27T09:31:50Z</time>
      </trkpt>
      <trkpt lat="49.42927" lon="1.16934">
        <ele>42.3</ele>
        <time>2022-02-27T09:31:51Z</time>
      </trkpt>
      <trkpt lat="49.42928" lon="1.16934">
        <ele>42.3</ele>
        <time>2022-02-27T09:31:52Z</time>
      </trkpt>
      <trkpt lat="49.42929" lon="1.16935">
        <ele>42.2</ele>
        <time>2022-02-27T09:31:53Z</time>
      </trkpt>
      <trkpt lat="49.4293" lon="1.16935">
        <ele>42.2</ele>
        <time>2022-02-27T09:31:54Z</time>
      </trkpt>
      <trkpt lat="49.42933" lon="1.16937">
        <ele>42</ele>
        <time>2022-02-27T09:31:56Z</time>
      </trkpt>
      <trkpt lat="49.42935" lon="1.16937">
        <ele>41.8</ele>
        <time>2022-02-27T09:31:57Z</time>
      </trkpt>
      <trkpt lat="49.42936" lon="1.16938">
        <ele>41.7</ele>
        <time>2022-02-27T09:31:58Z</time>
      </trkpt>
      <trkpt lat="49.42939" lon="1.16939">
        <ele>41.6</ele>
        <time>2022-02-27T09:31:59Z</time>
      </trkpt>
      <trkpt lat="49.42942" lon="1.16936">
        <ele>41.3</ele>
        <time>2022-02-27T09:32:01Z</time>
      </trkpt>
      <trkpt lat="49.42943" lon="1.16935">
        <ele>41.3</ele>
        <time>2022-02-27T09:32:02Z</time>
      </trkpt>
      <trkpt lat="49.42945" lon="1.16934">
        <ele>41.3</ele>
        <time>2022-02-27T09:32:03Z</time>
      </trkpt>
      <trkpt lat="49.42945" lon="1.16933">
        <ele>41.2</ele>
        <time>2022-02-27T09:32:04Z</time>
      </trkpt>
      <trkpt lat="49.42946" lon="1.16933">
        <ele>41.2</ele>
        <time>2022-02-27T09:32:05Z</time>
      </trkpt>
      <trkpt lat="49.42946" lon="1.16933">
        <ele>41.2</ele>
        <time>2022-02-27T09:32:06Z</time>
      </trkpt>
      <trkpt lat="49.42946" lon="1.16933">
        <ele>41.2</ele>
        <time>2022-02-27T09:32:07Z</time>
      </trkpt>
      <trkpt lat="49.42946" lon="1.16933">
        <ele>41.2</ele>
        <time>2022-02-27T09:32:09Z</time>
      </trkpt>
      <trkpt lat="49.42946" lon="1.16933">
        <ele>41.2</ele>
        <time>2022-02-27T09:32:10Z</time>
      </trkpt>
      <trkpt lat="49.42947" lon="1.16933">
        <ele>41.2</ele>
        <time>2022-02-27T09:32:11Z</time>
      </trkpt>
      <trkpt lat="49.4296" lon="1.16902">
        <ele>41</ele>
        <time>2022-02-27T09:32:21Z</time>
      </trkpt>
      <trkpt lat="49.42964" lon="1.16891">
        <ele>40.9</ele>
        <time>2022-02-27T09:32:22Z</time>
      </trkpt>
      <trkpt lat="49.42968" lon="1.16883">
        <ele>40.8</ele>
        <time>2022-02-27T09:32:23Z</time>
      </trkpt>
      <trkpt lat="49.42971" lon="1.16875">
        <ele>40.7</ele>
        <time>2022-02-27T09:32:24Z</time>
      </trkpt>
      <trkpt lat="49.42975" lon="1.16868">
        <ele>40.6</ele>
        <time>2022-02-27T09:32:25Z</time>
      </trkpt>
      <trkpt lat="49.42978" lon="1.16861">
        <ele>40.5</ele>
        <time>2022-02-27T09:32:26Z</time>
      </trkpt>
      <trkpt lat="49.42981" lon="1.16854">
        <ele>40.4</ele>
        <time>2022-02-27T09:32:27Z</time>
      </trkpt>
      <trkpt lat="49.42983" lon="1.16847">
        <ele>40.3</ele>
        <time>2022-02-27T09:32:28Z</time>
      </trkpt>
      <trkpt lat="49.42984" lon="1.16843">
        <ele>40.3</ele>
        <time>2022-02-27T09:32:29Z</time>
      </trkpt>
      <trkpt lat="49.42987" lon="1.16834">
        <ele>40.1</ele>
        <time>2022-02-27T09:32:30Z</time>
      </trkpt>
      <trkpt lat="49.42989" lon="1.16826">
        <ele>40</ele>
        <time>2022-02-27T09:32:31Z</time>
      </trkpt>
      <trkpt lat="49.42992" lon="1.16818">
        <ele>39.9</ele>
        <time>2022-02-27T09:32:32Z</time>
      </trkpt>
      <trkpt lat="49.42995" lon="1.16811">
        <ele>39.8</ele>
        <time>2022-02-27T09:32:33Z</time>
      </trkpt>
      <trkpt lat="49.42997" lon="1.16803">
        <ele>39.6</ele>
        <time>2022-02-27T09:32:34Z</time>
      </trkpt>
      <trkpt lat="49.43" lon="1.16795">
        <ele>39.5</ele>
        <time>2022-02-27T09:32:35Z</time>
      </trkpt>
      <trkpt lat="49.43002" lon="1.16786">
        <ele>39.4</ele>
        <time>2022-02-27T09:32:36Z</time>
      </trkpt>
      <trkpt lat="49.43003" lon="1.16779">
        <ele>39.3</ele>
        <time>2022-02-27T09:32:37Z</time>
      </trkpt>
      <trkpt lat="49.43005" lon="1.16771">
        <ele>39.2</ele>
        <time>2022-02-27T09:32:38Z</time>
      </trkpt>
      <trkpt lat="49.43006" lon="1.16764">
        <ele>39.1</ele>
        <time>2022-02-27T09:32:39Z</time>
      </trkpt>
      <trkpt lat="49.43008" lon="1.16757">
        <ele>39</ele>
        <time>2022-02-27T09:32:40Z</time>
      </trkpt>
      <trkpt lat="49.43009" lon="1.16752">
        <ele>38.9</ele>
        <time>2022-02-27T09:32:41Z</time>
      </trkpt>
      <trkpt lat="49.43011" lon="1.16746">
        <ele>38.8</ele>
        <time>2022-02-27T09:32:42Z</time>
      </trkpt>
      <trkpt lat="49.43012" lon="1.16742">
        <ele>38.8</ele>
        <time>2022-02-27T09:32:43Z</time>
      </trkpt>
      <trkpt lat="49.43012" lon="1.16737">
        <ele>38.7</ele>
        <time>2022-02-27T09:32:44Z</time>
      </trkpt>
      <trkpt lat="49.43014" lon="1.16733">
        <ele>38.4</ele>
        <time>2022-02-27T09:32:45Z</time>
      </trkpt>
      <trkpt lat="49.43015" lon="1.16731">
        <ele>38.4</ele>
        <time>2022-02-27T09:32:46Z</time>
      </trkpt>
      <trkpt lat="49.43016" lon="1.16731">
        <ele>38.2</ele>
        <time>2022-02-27T09:32:47Z</time>
      </trkpt>
      <trkpt lat="49.43018" lon="1.16733">
        <ele>38.2</ele>
        <time>2022-02-27T09:32:48Z</time>
      </trkpt>
      <trkpt lat="49.43019" lon="1.16734">
        <ele>38</ele>
        <time>2022-02-27T09:32:49Z</time>
      </trkpt>
      <trkpt lat="49.4302" lon="1.16735">
        <ele>38.1</ele>
        <time>2022-02-27T09:32:50Z</time>
      </trkpt>
      <trkpt lat="49.43023" lon="1.16737">
        <ele>37.9</ele>
        <time>2022-02-27T09:32:51Z</time>
      </trkpt>
      <trkpt lat="49.43025" lon="1.16738">
        <ele>37.7</ele>
        <time>2022-02-27T09:32:52Z</time>
      </trkpt>
      <trkpt lat="49.43027" lon="1.1674">
        <ele>37.6</ele>
        <time>2022-02-27T09:32:53Z</time>
      </trkpt>
      <trkpt lat="49.4303" lon="1.16742">
        <ele>37.4</ele>
        <time>2022-02-27T09:32:54Z</time>
      </trkpt>
      <trkpt lat="49.43033" lon="1.16746">
        <ele>37.4</ele>
        <time>2022-02-27T09:32:55Z</time>
      </trkpt>
      <trkpt lat="49.43035" lon="1.16751">
        <ele>37.4</ele>
        <time>2022-02-27T09:32:56Z</time>
      </trkpt>
      <trkpt lat="49.43037" lon="1.16757">
        <ele>37.4</ele>
        <time>2022-02-27T09:32:57Z</time>
      </trkpt>
      <trkpt lat="49.43038" lon="1.16763">
        <ele>37.4</ele>
        <time>2022-02-27T09:32:58Z</time>
      </trkpt>
      <trkpt lat="49.43039" lon="1.16769">
        <ele>37.4</ele>
        <time>2022-02-27T09:32:59Z</time>
      </trkpt>
      <trkpt lat="49.43041" lon="1.16779">
        <ele>37.5</ele>
        <time>2022-02-27T09:33:00Z</time>
      </trkpt>
      <trkpt lat="49.43042" lon="1.16785">
        <ele>37.5</ele>
        <time>2022-02-27T09:33:01Z</time>
      </trkpt>
      <trkpt lat="49.43044" lon="1.16791">
        <ele>37.5</ele>
        <time>2022-02-27T09:33:02Z</time>
      </trkpt>
      <trkpt lat="49.43044" lon="1.16793">
        <ele>37.5</ele>
        <time>2022-02-27T09:33:03Z</time>
      </trkpt>
      <trkpt lat="49.43044" lon="1.16794">
        <ele>37.5</ele>
        <time>2022-02-27T09:33:04Z</time>
      </trkpt>
      <trkpt lat="49.43044" lon="1.16796">
        <ele>37.5</ele>
        <time>2022-02-27T09:33:06Z</time>
      </trkpt>
      <trkpt lat="49.43044" lon="1.16797">
        <ele>37.5</ele>
        <time>2022-02-27T09:33:07Z</time>
      </trkpt>
      <trkpt lat="49.43044" lon="1.16798">
        <ele>37.5</ele>
        <time>2022-02-27T09:33:08Z</time>
      </trkpt>
      <trkpt lat="49.43045" lon="1.16806">
        <ele>37.6</ele>
        <time>2022-02-27T09:33:09Z</time>
      </trkpt>
      <trkpt lat="49.43047" lon="1.16815">
        <ele>37.6</ele>
        <time>2022-02-27T09:33:10Z</time>
      </trkpt>
      <trkpt lat="49.43049" lon="1.16824">
        <ele>37.6</ele>
        <time>2022-02-27T09:33:11Z</time>
      </trkpt>
      <trkpt lat="49.43051" lon="1.16833">
        <ele>37.6</ele>
        <time>2022-02-27T09:33:12Z</time>
      </trkpt>
      <trkpt lat="49.43053" lon="1.16848">
        <ele>37.6</ele>
        <time>2022-02-27T09:33:14Z</time>
      </trkpt>
      <trkpt lat="49.43055" lon="1.16858">
        <ele>37.5</ele>
        <time>2022-02-27T09:33:15Z</time>
      </trkpt>
      <trkpt lat="49.43056" lon="1.16866">
        <ele>37.4</ele>
        <time>2022-02-27T09:33:16Z</time>
      </trkpt>
      <trkpt lat="49.43058" lon="1.16873">
        <ele>37.2</ele>
        <time>2022-02-27T09:33:17Z</time>
      </trkpt>
      <trkpt lat="49.43061" lon="1.16882">
        <ele>37.1</ele>
        <time>2022-02-27T09:33:18Z</time>
      </trkpt>
      <trkpt lat="49.43064" lon="1.16887">
        <ele>36.9</ele>
        <time>2022-02-27T09:33:19Z</time>
      </trkpt>
      <trkpt lat="49.43067" lon="1.1689">
        <ele>36.7</ele>
        <time>2022-02-27T09:33:20Z</time>
      </trkpt>
      <trkpt lat="49.43072" lon="1.16891">
        <ele>36.5</ele>
        <time>2022-02-27T09:33:21Z</time>
      </trkpt>
      <trkpt lat="49.43076" lon="1.1689">
        <ele>36.3</ele>
        <time>2022-02-27T09:33:22Z</time>
      </trkpt>
      <trkpt lat="49.43081" lon="1.16889">
        <ele>36.1</ele>
        <time>2022-02-27T09:33:24Z</time>
      </trkpt>
      <trkpt lat="49.43089" lon="1.16888">
        <ele>35.8</ele>
        <time>2022-02-27T09:33:25Z</time>
      </trkpt>
      <trkpt lat="49.43094" lon="1.16887">
        <ele>35.6</ele>
        <time>2022-02-27T09:33:26Z</time>
      </trkpt>
      <trkpt lat="49.43099" lon="1.16886">
        <ele>35.5</ele>
        <time>2022-02-27T09:33:27Z</time>
      </trkpt>
      <trkpt lat="49.43105" lon="1.16886">
        <ele>35.3</ele>
        <time>2022-02-27T09:33:28Z</time>
      </trkpt>
      <trkpt lat="49.4311" lon="1.16886">
        <ele>35.1</ele>
        <time>2022-02-27T09:33:29Z</time>
      </trkpt>
      <trkpt lat="49.43115" lon="1.16886">
        <ele>34.9</ele>
        <time>2022-02-27T09:33:30Z</time>
      </trkpt>
      <trkpt lat="49.43121" lon="1.16886">
        <ele>34.7</ele>
        <time>2022-02-27T09:33:31Z</time>
      </trkpt>
      <trkpt lat="49.43127" lon="1.16886">
        <ele>34.6</ele>
        <time>2022-02-27T09:33:32Z</time>
      </trkpt>
      <trkpt lat="49.43133" lon="1.16885">
        <ele>34.5</ele>
        <time>2022-02-27T09:33:33Z</time>
      </trkpt>
      <trkpt lat="49.43139" lon="1.16885">
        <ele>34.4</ele>
        <time>2022-02-27T09:33:34Z</time>
      </trkpt>
      <trkpt lat="49.43145" lon="1.16886">
        <ele>34.3</ele>
        <time>2022-02-27T09:33:35Z</time>
      </trkpt>
      <trkpt lat="49.43151" lon="1.16885">
        <ele>34.2</ele>
        <time>2022-02-27T09:33:36Z</time>
      </trkpt>
      <trkpt lat="49.43157" lon="1.16884">
        <ele>34.2</ele>
        <time>2022-02-27T09:33:37Z</time>
      </trkpt>
      <trkpt lat="49.43162" lon="1.16883">
        <ele>34.1</ele>
        <time>2022-02-27T09:33:38Z</time>
      </trkpt>
      <trkpt lat="49.43167" lon="1.16882">
        <ele>34.1</ele>
        <time>2022-02-27T09:33:39Z</time>
      </trkpt>
      <trkpt lat="49.43171" lon="1.16882">
        <ele>34.1</ele>
        <time>2022-02-27T09:33:40Z</time>
      </trkpt>
      <trkpt lat="49.43176" lon="1.16883">
        <ele>34</ele>
        <time>2022-02-27T09:33:41Z</time>
      </trkpt>
      <trkpt lat="49.43181" lon="1.16883">
        <ele>34</ele>
        <time>2022-02-27T09:33:42Z</time>
      </trkpt>
      <trkpt lat="49.43186" lon="1.16883">
        <ele>34</ele>
        <time>2022-02-27T09:33:43Z</time>
      </trkpt>
      <trkpt lat="49.43191" lon="1.16883">
        <ele>34</ele>
        <time>2022-02-27T09:33:44Z</time>
      </trkpt>
      <trkpt lat="49.43197" lon="1.16883">
        <ele>34</ele>
        <time>2022-02-27T09:33:45Z</time>
      </trkpt>
      <trkpt lat="49.43201" lon="1.16882">
        <ele>34</ele>
        <time>2022-02-27T09:33:46Z</time>
      </trkpt>
      <trkpt lat="49.43204" lon="1.16878">
        <ele>34</ele>
        <time>2022-02-27T09:33:47Z</time>
      </trkpt>
      <trkpt lat="49.43208" lon="1.16877">
        <ele>34.1</ele>
        <time>2022-02-27T09:33:48Z</time>
      </trkpt>
      <trkpt lat="49.43213" lon="1.16878">
        <ele>34.1</ele>
        <time>2022-02-27T09:33:49Z</time>
      </trkpt>
      <trkpt lat="49.43219" lon="1.16879">
        <ele>34.2</ele>
        <time>2022-02-27T09:33:50Z</time>
      </trkpt>
      <trkpt lat="49.43223" lon="1.16879">
        <ele>34.3</ele>
        <time>2022-02-27T09:33:51Z</time>
      </trkpt>
      <trkpt lat="49.43228" lon="1.1688">
        <ele>34.4</ele>
        <time>2022-02-27T09:33:52Z</time>
      </trkpt>
      <trkpt lat="49.43232" lon="1.1688">
        <ele>34.5</ele>
        <time>2022-02-27T09:33:53Z</time>
      </trkpt>
      <trkpt lat="49.43237" lon="1.1688">
        <ele>34.6</ele>
        <time>2022-02-27T09:33:54Z</time>
      </trkpt>
      <trkpt lat="49.43241" lon="1.16879">
        <ele>34.7</ele>
        <time>2022-02-27T09:33:55Z</time>
      </trkpt>
      <trkpt lat="49.43245" lon="1.16879">
        <ele>34.8</ele>
        <time>2022-02-27T09:33:56Z</time>
      </trkpt>
      <trkpt lat="49.43249" lon="1.16878">
        <ele>35</ele>
        <time>2022-02-27T09:33:57Z</time>
      </trkpt>
      <trkpt lat="49.43252" lon="1.16878">
        <ele>35.1</ele>
        <time>2022-02-27T09:33:58Z</time>
      </trkpt>
      <trkpt lat="49.43256" lon="1.16877">
        <ele>35.3</ele>
        <time>2022-02-27T09:33:59Z</time>
      </trkpt>
      <trkpt lat="49.4326" lon="1.16876">
        <ele>35.5</ele>
        <time>2022-02-27T09:34:00Z</time>
      </trkpt>
      <trkpt lat="49.43264" lon="1.16875">
        <ele>35.7</ele>
        <time>2022-02-27T09:34:01Z</time>
      </trkpt>
      <trkpt lat="49.43267" lon="1.16874">
        <ele>35.9</ele>
        <time>2022-02-27T09:34:02Z</time>
      </trkpt>
      <trkpt lat="49.43275" lon="1.16873">
        <ele>36.3</ele>
        <time>2022-02-27T09:34:04Z</time>
      </trkpt>
      <trkpt lat="49.43278" lon="1.16873">
        <ele>36.5</ele>
        <time>2022-02-27T09:34:05Z</time>
      </trkpt>
      <trkpt lat="49.43281" lon="1.16872">
        <ele>36.7</ele>
        <time>2022-02-27T09:34:06Z</time>
      </trkpt>
      <trkpt lat="49.43286" lon="1.16872">
        <ele>37</ele>
        <time>2022-02-27T09:34:08Z</time>
      </trkpt>
      <trkpt lat="49.43289" lon="1.16871">
        <ele>37.2</ele>
        <time>2022-02-27T09:34:09Z</time>
      </trkpt>
      <trkpt lat="49.43292" lon="1.16871">
        <ele>37.4</ele>
        <time>2022-02-27T09:34:10Z</time>
      </trkpt>
      <trkpt lat="49.43293" lon="1.16873">
        <ele>37.5</ele>
        <time>2022-02-27T09:34:11Z</time>
      </trkpt>
      <trkpt lat="49.43293" lon="1.16873">
        <ele>37.5</ele>
        <time>2022-02-27T09:34:12Z</time>
      </trkpt>
      <trkpt lat="49.43292" lon="1.16873">
        <ele>37.5</ele>
        <time>2022-02-27T09:34:13Z</time>
      </trkpt>
      <trkpt lat="49.43293" lon="1.16873">
        <ele>37.6</ele>
        <time>2022-02-27T09:34:14Z</time>
      </trkpt>
      <trkpt lat="49.43295" lon="1.16873">
        <ele>37.7</ele>
        <time>2022-02-27T09:34:15Z</time>
      </trkpt>
      <trkpt lat="49.43299" lon="1.16873">
        <ele>37.9</ele>
        <time>2022-02-27T09:34:16Z</time>
      </trkpt>
      <trkpt lat="49.43303" lon="1.16872">
        <ele>38.2</ele>
        <time>2022-02-27T09:34:17Z</time>
      </trkpt>
      <trkpt lat="49.43307" lon="1.16873">
        <ele>38.5</ele>
        <time>2022-02-27T09:34:18Z</time>
      </trkpt>
      <trkpt lat="49.43311" lon="1.16873">
        <ele>38.7</ele>
        <time>2022-02-27T09:34:19Z</time>
      </trkpt>
      <trkpt lat="49.43314" lon="1.16873">
        <ele>39</ele>
        <time>2022-02-27T09:34:20Z</time>
      </trkpt>
      <trkpt lat="49.43317" lon="1.16873">
        <ele>39.1</ele>
        <time>2022-02-27T09:34:21Z</time>
      </trkpt>
      <trkpt lat="49.4332" lon="1.16874">
        <ele>41</ele>
        <time>2022-02-27T09:34:22Z</time>
      </trkpt>
      <trkpt lat="49.43321" lon="1.16874">
        <ele>41</ele>
        <time>2022-02-27T09:34:23Z</time>
      </trkpt>
      <trkpt lat="49.43324" lon="1.16877">
        <ele>41.3</ele>
        <time>2022-02-27T09:34:24Z</time>
      </trkpt>
      <trkpt lat="49.43324" lon="1.16878">
        <ele>41.4</ele>
        <time>2022-02-27T09:34:25Z</time>
      </trkpt>
      <trkpt lat="49.43324" lon="1.16883">
        <ele>41.7</ele>
        <time>2022-02-27T09:34:26Z</time>
      </trkpt>
      <trkpt lat="49.43323" lon="1.16884">
        <ele>41.7</ele>
        <time>2022-02-27T09:34:27Z</time>
      </trkpt>
      <trkpt lat="49.43323" lon="1.16887">
        <ele>41.9</ele>
        <time>2022-02-27T09:34:29Z</time>
      </trkpt>
      <trkpt lat="49.43323" lon="1.16889">
        <ele>42</ele>
        <time>2022-02-27T09:34:30Z</time>
      </trkpt>
      <trkpt lat="49.43323" lon="1.1689">
        <ele>42.1</ele>
        <time>2022-02-27T09:34:31Z</time>
      </trkpt>
      <trkpt lat="49.43324" lon="1.16893">
        <ele>42.2</ele>
        <time>2022-02-27T09:34:33Z</time>
      </trkpt>
      <trkpt lat="49.43324" lon="1.16896">
        <ele>42.4</ele>
        <time>2022-02-27T09:34:34Z</time>
      </trkpt>
      <trkpt lat="49.43325" lon="1.16898">
        <ele>42.5</ele>
        <time>2022-02-27T09:34:35Z</time>
      </trkpt>
      <trkpt lat="49.43325" lon="1.16902">
        <ele>42.8</ele>
        <time>2022-02-27T09:34:36Z</time>
      </trkpt>
      <trkpt lat="49.43325" lon="1.16904">
        <ele>42.9</ele>
        <time>2022-02-27T09:34:37Z</time>
      </trkpt>
      <trkpt lat="49.43326" lon="1.16909">
        <ele>43.2</ele>
        <time>2022-02-27T09:34:38Z</time>
      </trkpt>
      <trkpt lat="49.43327" lon="1.16914">
        <ele>43.5</ele>
        <time>2022-02-27T09:34:40Z</time>
      </trkpt>
      <trkpt lat="49.43327" lon="1.16919">
        <ele>43.8</ele>
        <time>2022-02-27T09:34:41Z</time>
      </trkpt>
      <trkpt lat="49.43328" lon="1.16923">
        <ele>44</ele>
        <time>2022-02-27T09:34:42Z</time>
      </trkpt>
      <trkpt lat="49.43329" lon="1.16927">
        <ele>44.3</ele>
        <time>2022-02-27T09:34:43Z</time>
      </trkpt>
      <trkpt lat="49.4333" lon="1.16933">
        <ele>44.6</ele>
        <time>2022-02-27T09:34:44Z</time>
      </trkpt>
      <trkpt lat="49.43331" lon="1.16939">
        <ele>44.9</ele>
        <time>2022-02-27T09:34:46Z</time>
      </trkpt>
      <trkpt lat="49.43332" lon="1.16944">
        <ele>45.3</ele>
        <time>2022-02-27T09:34:47Z</time>
      </trkpt>
      <trkpt lat="49.43333" lon="1.1695">
        <ele>45.6</ele>
        <time>2022-02-27T09:34:49Z</time>
      </trkpt>
      <trkpt lat="49.43334" lon="1.16955">
        <ele>46</ele>
        <time>2022-02-27T09:34:50Z</time>
      </trkpt>
      <trkpt lat="49.43334" lon="1.16957">
        <ele>46.1</ele>
        <time>2022-02-27T09:34:51Z</time>
      </trkpt>
      <trkpt lat="49.43334" lon="1.16962">
        <ele>46.4</ele>
        <time>2022-02-27T09:34:52Z</time>
      </trkpt>
      <trkpt lat="49.43334" lon="1.16963">
        <ele>46.4</ele>
        <time>2022-02-27T09:34:53Z</time>
      </trkpt>
      <trkpt lat="49.43335" lon="1.16967">
        <ele>46.4</ele>
        <time>2022-02-27T09:34:54Z</time>
      </trkpt>
      <trkpt lat="49.43337" lon="1.16969">
        <ele>46.7</ele>
        <time>2022-02-27T09:34:56Z</time>
      </trkpt>
      <trkpt lat="49.43338" lon="1.16968">
        <ele>46.8</ele>
        <time>2022-02-27T09:34:57Z</time>
      </trkpt>
      <trkpt lat="49.43341" lon="1.16969">
        <ele>47.1</ele>
        <time>2022-02-27T09:34:59Z</time>
      </trkpt>
      <trkpt lat="49.43342" lon="1.1697">
        <ele>47.2</ele>
        <time>2022-02-27T09:35:00Z</time>
      </trkpt>
      <trkpt lat="49.43341" lon="1.16971">
        <ele>47.3</ele>
        <time>2022-02-27T09:35:01Z</time>
      </trkpt>
      <trkpt lat="49.43341" lon="1.16972">
        <ele>47.4</ele>
        <time>2022-02-27T09:35:02Z</time>
      </trkpt>
      <trkpt lat="49.4334" lon="1.16972">
        <ele>47.4</ele>
        <time>2022-02-27T09:35:03Z</time>
      </trkpt>
      <trkpt lat="49.4334" lon="1.16972">
        <ele>47.5</ele>
        <time>2022-02-27T09:35:04Z</time>
      </trkpt>
      <trkpt lat="49.43339" lon="1.16971">
        <ele>47.6</ele>
        <time>2022-02-27T09:35:05Z</time>
      </trkpt>
      <trkpt lat="49.43339" lon="1.16972">
        <ele>47.6</ele>
        <time>2022-02-27T09:35:07Z</time>
      </trkpt>
      <trkpt lat="49.43339" lon="1.16972">
        <ele>47.7</ele>
        <time>2022-02-27T09:35:09Z</time>
      </trkpt>
      <trkpt lat="49.43339" lon="1.16972">
        <ele>47.7</ele>
        <time>2022-02-27T09:35:10Z</time>
      </trkpt>
      <trkpt lat="49.4334" lon="1.16972">
        <ele>47.8</ele>
        <time>2022-02-27T09:35:11Z</time>
      </trkpt>
      <trkpt lat="49.43341" lon="1.16972">
        <ele>47.8</ele>
        <time>2022-02-27T09:35:13Z</time>
      </trkpt>
      <trkpt lat="49.43341" lon="1.16973">
        <ele>47.9</ele>
        <time>2022-02-27T09:35:14Z</time>
      </trkpt>
      <trkpt lat="49.43341" lon="1.16974">
        <ele>48</ele>
        <time>2022-02-27T09:35:15Z</time>
      </trkpt>
      <trkpt lat="49.43341" lon="1.16974">
        <ele>48</ele>
        <time>2022-02-27T09:35:16Z</time>
      </trkpt>
      <trkpt lat="49.43341" lon="1.16974">
        <ele>48</ele>
        <time>2022-02-27T09:35:18Z</time>
      </trkpt>
      <trkpt lat="49.43342" lon="1.16973">
        <ele>48.1</ele>
        <time>2022-02-27T09:35:19Z</time>
      </trkpt>
      <trkpt lat="49.43342" lon="1.16973">
        <ele>48.1</ele>
        <time>2022-02-27T09:35:20Z</time>
      </trkpt>
      <trkpt lat="49.43342" lon="1.16972">
        <ele>48.2</ele>
        <time>2022-02-27T09:35:22Z</time>
      </trkpt>
      <trkpt lat="49.43343" lon="1.16971">
        <ele>48.3</ele>
        <time>2022-02-27T09:35:23Z</time>
      </trkpt>
      <trkpt lat="49.43344" lon="1.1697">
        <ele>48.4</ele>
        <time>2022-02-27T09:35:24Z</time>
      </trkpt>
      <trkpt lat="49.43345" lon="1.1697">
        <ele>48.5</ele>
        <time>2022-02-27T09:35:25Z</time>
      </trkpt>
      <trkpt lat="49.43346" lon="1.16969">
        <ele>48.6</ele>
        <time>2022-02-27T09:35:26Z</time>
      </trkpt>
      <trkpt lat="49.43346" lon="1.16968">
        <ele>48.6</ele>
        <time>2022-02-27T09:35:27Z</time>
      </trkpt>
      <trkpt lat="49.43348" lon="1.16965">
        <ele>48.9</ele>
        <time>2022-02-27T09:35:28Z</time>
      </trkpt>
      <trkpt lat="49.43349" lon="1.16963">
        <ele>49</ele>
        <time>2022-02-27T09:35:29Z</time>
      </trkpt>
      <trkpt lat="49.43349" lon="1.16961">
        <ele>49.2</ele>
        <time>2022-02-27T09:35:30Z</time>
      </trkpt>
      <trkpt lat="49.43352" lon="1.16954">
        <ele>49.6</ele>
        <time>2022-02-27T09:35:32Z</time>
      </trkpt>
      <trkpt lat="49.43353" lon="1.16951">
        <ele>49.9</ele>
        <time>2022-02-27T09:35:33Z</time>
      </trkpt>
      <trkpt lat="49.43355" lon="1.16945">
        <ele>50.2</ele>
        <time>2022-02-27T09:35:34Z</time>
      </trkpt>
      <trkpt lat="49.43355" lon="1.16944">
        <ele>50.3</ele>
        <time>2022-02-27T09:35:35Z</time>
      </trkpt>
      <trkpt lat="49.43356" lon="1.16938">
        <ele>50.7</ele>
        <time>2022-02-27T09:35:36Z</time>
      </trkpt>
      <trkpt lat="49.43357" lon="1.16936">
        <ele>50.9</ele>
        <time>2022-02-27T09:35:37Z</time>
      </trkpt>
      <trkpt lat="49.43358" lon="1.16931">
        <ele>51.2</ele>
        <time>2022-02-27T09:35:38Z</time>
      </trkpt>
      <trkpt lat="49.43359" lon="1.1693">
        <ele>51.3</ele>
        <time>2022-02-27T09:35:39Z</time>
      </trkpt>
      <trkpt lat="49.4336" lon="1.16928">
        <ele>51.5</ele>
        <time>2022-02-27T09:35:40Z</time>
      </trkpt>
      <trkpt lat="49.4336" lon="1.16926">
        <ele>51.7</ele>
        <time>2022-02-27T09:35:41Z</time>
      </trkpt>
      <trkpt lat="49.43361" lon="1.16925">
        <ele>51.8</ele>
        <time>2022-02-27T09:35:42Z</time>
      </trkpt>
      <trkpt lat="49.43362" lon="1.16923">
        <ele>51.9</ele>
        <time>2022-02-27T09:35:43Z</time>
      </trkpt>
      <trkpt lat="49.43363" lon="1.16921">
        <ele>52.1</ele>
        <time>2022-02-27T09:35:44Z</time>
      </trkpt>
      <trkpt lat="49.43363" lon="1.1692">
        <ele>52.2</ele>
        <time>2022-02-27T09:35:45Z</time>
      </trkpt>
      <trkpt lat="49.43364" lon="1.16919">
        <ele>52.3</ele>
        <time>2022-02-27T09:35:47Z</time>
      </trkpt>
      <trkpt lat="49.43364" lon="1.16918">
        <ele>52.4</ele>
        <time>2022-02-27T09:35:48Z</time>
      </trkpt>
      <trkpt lat="49.43364" lon="1.16917">
        <ele>52.5</ele>
        <time>2022-02-27T09:35:49Z</time>
      </trkpt>
      <trkpt lat="49.43365" lon="1.16915">
        <ele>52.7</ele>
        <time>2022-02-27T09:35:50Z</time>
      </trkpt>
      <trkpt lat="49.43366" lon="1.16914">
        <ele>52.8</ele>
        <time>2022-02-27T09:35:51Z</time>
      </trkpt>
      <trkpt lat="49.43366" lon="1.16912">
        <ele>52.9</ele>
        <time>2022-02-27T09:35:52Z</time>
      </trkpt>
      <trkpt lat="49.43366" lon="1.16912">
        <ele>53</ele>
        <time>2022-02-27T09:35:53Z</time>
      </trkpt>
      <trkpt lat="49.43368" lon="1.16909">
        <ele>53.3</ele>
        <time>2022-02-27T09:35:54Z</time>
      </trkpt>
      <trkpt lat="49.43369" lon="1.16908">
        <ele>53.5</ele>
        <time>2022-02-27T09:35:55Z</time>
      </trkpt>
      <trkpt lat="49.43371" lon="1.16907">
        <ele>53.8</ele>
        <time>2022-02-27T09:35:56Z</time>
      </trkpt>
      <trkpt lat="49.43374" lon="1.16904">
        <ele>54.2</ele>
        <time>2022-02-27T09:35:58Z</time>
      </trkpt>
      <trkpt lat="49.43376" lon="1.16902">
        <ele>54.5</ele>
        <time>2022-02-27T09:35:59Z</time>
      </trkpt>
      <trkpt lat="49.43377" lon="1.16901">
        <ele>54.6</ele>
        <time>2022-02-27T09:36:00Z</time>
      </trkpt>
      <trkpt lat="49.43378" lon="1.169">
        <ele>54.8</ele>
        <time>2022-02-27T09:36:01Z</time>
      </trkpt>
      <trkpt lat="49.43379" lon="1.16898">
        <ele>55</ele>
        <time>2022-02-27T09:36:02Z</time>
      </trkpt>
      <trkpt lat="49.43381" lon="1.16895">
        <ele>55.5</ele>
        <time>2022-02-27T09:36:04Z</time>
      </trkpt>
      <trkpt lat="49.43382" lon="1.16894">
        <ele>55.6</ele>
        <time>2022-02-27T09:36:05Z</time>
      </trkpt>
      <trkpt lat="49.43383" lon="1.16893">
        <ele>55.9</ele>
        <time>2022-02-27T09:36:06Z</time>
      </trkpt>
      <trkpt lat="49.43385" lon="1.16891">
        <ele>56.1</ele>
        <time>2022-02-27T09:36:07Z</time>
      </trkpt>
      <trkpt lat="49.43386" lon="1.16889">
        <ele>56.4</ele>
        <time>2022-02-27T09:36:08Z</time>
      </trkpt>
      <trkpt lat="49.43387" lon="1.16888">
        <ele>56.6</ele>
        <time>2022-02-27T09:36:09Z</time>
      </trkpt>
      <trkpt lat="49.43388" lon="1.16886">
        <ele>56.8</ele>
        <time>2022-02-27T09:36:10Z</time>
      </trkpt>
      <trkpt lat="49.43389" lon="1.16886">
        <ele>57</ele>
        <time>2022-02-27T09:36:11Z</time>
      </trkpt>
      <trkpt lat="49.4339" lon="1.16886">
        <ele>57.2</ele>
        <time>2022-02-27T09:36:12Z</time>
      </trkpt>
      <trkpt lat="49.43391" lon="1.16886">
        <ele>57.3</ele>
        <time>2022-02-27T09:36:13Z</time>
      </trkpt>
      <trkpt lat="49.43391" lon="1.16886">
        <ele>57.3</ele>
        <time>2022-02-27T09:36:14Z</time>
      </trkpt>
      <trkpt lat="49.43391" lon="1.16886">
        <ele>57.3</ele>
        <time>2022-02-27T09:36:15Z</time>
      </trkpt>
      <trkpt lat="49.43391" lon="1.16886">
        <ele>57.4</ele>
        <time>2022-02-27T09:36:17Z</time>
      </trkpt>
      <trkpt lat="49.43391" lon="1.16886">
        <ele>57.4</ele>
        <time>2022-02-27T09:36:18Z</time>
      </trkpt>
      <trkpt lat="49.43391" lon="1.16886">
        <ele>57.4</ele>
        <time>2022-02-27T09:36:19Z</time>
      </trkpt>
      <trkpt lat="49.43391" lon="1.16886">
        <ele>57.4</ele>
        <time>2022-02-27T09:36:20Z</time>
      </trkpt>
      <trkpt lat="49.43391" lon="1.16886">
        <ele>57.4</ele>
        <time>2022-02-27T09:36:21Z</time>
      </trkpt>
      <trkpt lat="49.43391" lon="1.16885">
        <ele>57.4</ele>
        <time>2022-02-27T09:36:22Z</time>
      </trkpt>
      <trkpt lat="49.43391" lon="1.16885">
        <ele>57.5</ele>
        <time>2022-02-27T09:36:23Z</time>
      </trkpt>
      <trkpt lat="49.43391" lon="1.16884">
        <ele>57.6</ele>
        <time>2022-02-27T09:36:25Z</time>
      </trkpt>
      <trkpt lat="49.43391" lon="1.16883">
        <ele>57.7</ele>
        <time>2022-02-27T09:36:26Z</time>
      </trkpt>
      <trkpt lat="49.43392" lon="1.16882">
        <ele>57.8</ele>
        <time>2022-02-27T09:36:27Z</time>
      </trkpt>
      <trkpt lat="49.43392" lon="1.16882">
        <ele>57.9</ele>
        <time>2022-02-27T09:36:28Z</time>
      </trkpt>
      <trkpt lat="49.43393" lon="1.16881">
        <ele>58.1</ele>
        <time>2022-02-27T09:36:30Z</time>
      </trkpt>
      <trkpt lat="49.43394" lon="1.16882">
        <ele>58.2</ele>
        <time>2022-02-27T09:36:31Z</time>
      </trkpt>
      <trkpt lat="49.43394" lon="1.16882">
        <ele>58.2</ele>
        <time>2022-02-27T09:36:32Z</time>
      </trkpt>
      <trkpt lat="49.43394" lon="1.16882">
        <ele>58.3</ele>
        <time>2022-02-27T09:36:33Z</time>
      </trkpt>
      <trkpt lat="49.43394" lon="1.16882">
        <ele>58.3</ele>
        <time>2022-02-27T09:36:34Z</time>
      </trkpt>
      <trkpt lat="49.43394" lon="1.16882">
        <ele>58.4</ele>
        <time>2022-02-27T09:36:36Z</time>
      </trkpt>
      <trkpt lat="49.43395" lon="1.16881">
        <ele>58.4</ele>
        <time>2022-02-27T09:36:37Z</time>
      </trkpt>
      <trkpt lat="49.43396" lon="1.16881">
        <ele>58.6</ele>
        <time>2022-02-27T09:36:38Z</time>
      </trkpt>
      <trkpt lat="49.43397" lon="1.16883">
        <ele>58.9</ele>
        <time>2022-02-27T09:36:40Z</time>
      </trkpt>
      <trkpt lat="49.43397" lon="1.16883">
        <ele>59</ele>
        <time>2022-02-27T09:36:41Z</time>
      </trkpt>
      <trkpt lat="49.43398" lon="1.16884">
        <ele>59.1</ele>
        <time>2022-02-27T09:36:42Z</time>
      </trkpt>
      <trkpt lat="49.43399" lon="1.16884">
        <ele>59.2</ele>
        <time>2022-02-27T09:36:43Z</time>
      </trkpt>
      <trkpt lat="49.43399" lon="1.16883">
        <ele>59.3</ele>
        <time>2022-02-27T09:36:45Z</time>
      </trkpt>
      <trkpt lat="49.43399" lon="1.16882">
        <ele>59.5</ele>
        <time>2022-02-27T09:36:46Z</time>
      </trkpt>
      <trkpt lat="49.43399" lon="1.1688">
        <ele>59.6</ele>
        <time>2022-02-27T09:36:47Z</time>
      </trkpt>
      <trkpt lat="49.43399" lon="1.16879">
        <ele>59.7</ele>
        <time>2022-02-27T09:36:48Z</time>
      </trkpt>
      <trkpt lat="49.43398" lon="1.16878">
        <ele>60</ele>
        <time>2022-02-27T09:36:50Z</time>
      </trkpt>
      <trkpt lat="49.43398" lon="1.16877">
        <ele>60</ele>
        <time>2022-02-27T09:36:51Z</time>
      </trkpt>
      <trkpt lat="49.43398" lon="1.16877">
        <ele>60</ele>
        <time>2022-02-27T09:36:52Z</time>
      </trkpt>
      <trkpt lat="49.43398" lon="1.16876">
        <ele>60.1</ele>
        <time>2022-02-27T09:36:53Z</time>
      </trkpt>
      <trkpt lat="49.43398" lon="1.16876">
        <ele>60.1</ele>
        <time>2022-02-27T09:36:54Z</time>
      </trkpt>
      <trkpt lat="49.43398" lon="1.16875">
        <ele>60.2</ele>
        <time>2022-02-27T09:36:55Z</time>
      </trkpt>
      <trkpt lat="49.43398" lon="1.16875">
        <ele>60.2</ele>
        <time>2022-02-27T09:36:56Z</time>
      </trkpt>
      <trkpt lat="49.434" lon="1.16872">
        <ele>60.7</ele>
        <time>2022-02-27T09:37:01Z</time>
      </trkpt>
      <trkpt lat="49.434" lon="1.16872">
        <ele>60.8</ele>
        <time>2022-02-27T09:37:02Z</time>
      </trkpt>
      <trkpt lat="49.43401" lon="1.16872">
        <ele>60.9</ele>
        <time>2022-02-27T09:37:03Z</time>
      </trkpt>
      <trkpt lat="49.43402" lon="1.16873">
        <ele>61.1</ele>
        <time>2022-02-27T09:37:04Z</time>
      </trkpt>
      <trkpt lat="49.43403" lon="1.16873">
        <ele>61.2</ele>
        <time>2022-02-27T09:37:06Z</time>
      </trkpt>
      <trkpt lat="49.43404" lon="1.16873">
        <ele>61.4</ele>
        <time>2022-02-27T09:37:07Z</time>
      </trkpt>
      <trkpt lat="49.43405" lon="1.16875">
        <ele>61.7</ele>
        <time>2022-02-27T09:37:09Z</time>
      </trkpt>
      <trkpt lat="49.43406" lon="1.16876">
        <ele>61.9</ele>
        <time>2022-02-27T09:37:10Z</time>
      </trkpt>
      <trkpt lat="49.43406" lon="1.16877">
        <ele>62</ele>
        <time>2022-02-27T09:37:11Z</time>
      </trkpt>
      <trkpt lat="49.43407" lon="1.16877">
        <ele>62.2</ele>
        <time>2022-02-27T09:37:12Z</time>
      </trkpt>
      <trkpt lat="49.43408" lon="1.16878">
        <ele>62.3</ele>
        <time>2022-02-27T09:37:13Z</time>
      </trkpt>
      <trkpt lat="49.43409" lon="1.16879">
        <ele>62.5</ele>
        <time>2022-02-27T09:37:14Z</time>
      </trkpt>
      <trkpt lat="49.43411" lon="1.16879">
        <ele>62.9</ele>
        <time>2022-02-27T09:37:15Z</time>
      </trkpt>
      <trkpt lat="49.43412" lon="1.16879">
        <ele>63</ele>
        <time>2022-02-27T09:37:17Z</time>
      </trkpt>
      <trkpt lat="49.43413" lon="1.16879">
        <ele>63.2</ele>
        <time>2022-02-27T09:37:18Z</time>
      </trkpt>
      <trkpt lat="49.43414" lon="1.1688">
        <ele>63.5</ele>
        <time>2022-02-27T09:37:19Z</time>
      </trkpt>
      <trkpt lat="49.43415" lon="1.1688">
        <ele>63.7</ele>
        <time>2022-02-27T09:37:20Z</time>
      </trkpt>
      <trkpt lat="49.43417" lon="1.16879">
        <ele>63.9</ele>
        <time>2022-02-27T09:37:21Z</time>
      </trkpt>
      <trkpt lat="49.43417" lon="1.16878">
        <ele>64.1</ele>
        <time>2022-02-27T09:37:22Z</time>
      </trkpt>
      <trkpt lat="49.43418" lon="1.16876">
        <ele>64.3</ele>
        <time>2022-02-27T09:37:24Z</time>
      </trkpt>
      <trkpt lat="49.43419" lon="1.16875">
        <ele>64.5</ele>
        <time>2022-02-27T09:37:25Z</time>
      </trkpt>
      <trkpt lat="49.43419" lon="1.16874">
        <ele>64.7</ele>
        <time>2022-02-27T09:37:26Z</time>
      </trkpt>
      <trkpt lat="49.4342" lon="1.16873">
        <ele>64.8</ele>
        <time>2022-02-27T09:37:27Z</time>
      </trkpt>
      <trkpt lat="49.43421" lon="1.16871">
        <ele>65.1</ele>
        <time>2022-02-27T09:37:28Z</time>
      </trkpt>
      <trkpt lat="49.43422" lon="1.16869">
        <ele>65.3</ele>
        <time>2022-02-27T09:37:29Z</time>
      </trkpt>
      <trkpt lat="49.43422" lon="1.16868">
        <ele>65.5</ele>
        <time>2022-02-27T09:37:30Z</time>
      </trkpt>
      <trkpt lat="49.43424" lon="1.16865">
        <ele>65.9</ele>
        <time>2022-02-27T09:37:32Z</time>
      </trkpt>
      <trkpt lat="49.43424" lon="1.16864">
        <ele>66.1</ele>
        <time>2022-02-27T09:37:33Z</time>
      </trkpt>
      <trkpt lat="49.43424" lon="1.16862">
        <ele>66.2</ele>
        <time>2022-02-27T09:37:34Z</time>
      </trkpt>
      <trkpt lat="49.43425" lon="1.16861">
        <ele>66.4</ele>
        <time>2022-02-27T09:37:35Z</time>
      </trkpt>
      <trkpt lat="49.43426" lon="1.1686">
        <ele>66.6</ele>
        <time>2022-02-27T09:37:36Z</time>
      </trkpt>
      <trkpt lat="49.43426" lon="1.16859">
        <ele>66.7</ele>
        <time>2022-02-27T09:37:37Z</time>
      </trkpt>
      <trkpt lat="49.43426" lon="1.16858">
        <ele>66.8</ele>
        <time>2022-02-27T09:37:38Z</time>
      </trkpt>
      <trkpt lat="49.43427" lon="1.16857">
        <ele>66.8</ele>
        <time>2022-02-27T09:37:39Z</time>
      </trkpt>
      <trkpt lat="49.43427" lon="1.16857">
        <ele>66.9</ele>
        <time>2022-02-27T09:37:40Z</time>
      </trkpt>
      <trkpt lat="49.43427" lon="1.16857">
        <ele>67</ele>
        <time>2022-02-27T09:37:41Z</time>
      </trkpt>
      <trkpt lat="49.43427" lon="1.16857">
        <ele>67</ele>
        <time>2022-02-27T09:37:42Z</time>
      </trkpt>
      <trkpt lat="49.43427" lon="1.16857">
        <ele>67</ele>
        <time>2022-02-27T09:37:43Z</time>
      </trkpt>
      <trkpt lat="49.43428" lon="1.16856">
        <ele>67.1</ele>
        <time>2022-02-27T09:37:44Z</time>
      </trkpt>
      <trkpt lat="49.43428" lon="1.16856">
        <ele>67.1</ele>
        <time>2022-02-27T09:37:45Z</time>
      </trkpt>
      <trkpt lat="49.43428" lon="1.16856">
        <ele>67.1</ele>
        <time>2022-02-27T09:37:46Z</time>
      </trkpt>
      <trkpt lat="49.43428" lon="1.16856">
        <ele>67.2</ele>
        <time>2022-02-27T09:37:47Z</time>
      </trkpt>
      <trkpt lat="49.43428" lon="1.16856">
        <ele>67.2</ele>
        <time>2022-02-27T09:37:48Z</time>
      </trkpt>
      <trkpt lat="49.43428" lon="1.16856">
        <ele>67.2</ele>
        <time>2022-02-27T09:37:49Z</time>
      </trkpt>
      <trkpt lat="49.43429" lon="1.16855">
        <ele>67.2</ele>
        <time>2022-02-27T09:37:50Z</time>
      </trkpt>
      <trkpt lat="49.43429" lon="1.16855">
        <ele>67.3</ele>
        <time>2022-02-27T09:37:51Z</time>
      </trkpt>
      <trkpt lat="49.43429" lon="1.16855">
        <ele>67.3</ele>
        <time>2022-02-27T09:37:52Z</time>
      </trkpt>
      <trkpt lat="49.43429" lon="1.16855">
        <ele>67.3</ele>
        <time>2022-02-27T09:37:53Z</time>
      </trkpt>
      <trkpt lat="49.43429" lon="1.16855">
        <ele>67.3</ele>
        <time>2022-02-27T09:37:54Z</time>
      </trkpt>
      <trkpt lat="49.43429" lon="1.16855">
        <ele>67.4</ele>
        <time>2022-02-27T09:37:55Z</time>
      </trkpt>
      <trkpt lat="49.43429" lon="1.16855">
        <ele>67.4</ele>
        <time>2022-02-27T09:37:56Z</time>
      </trkpt>
      <trkpt lat="49.43429" lon="1.16855">
        <ele>67.4</ele>
        <time>2022-02-27T09:37:57Z</time>
      </trkpt>
      <trkpt lat="49.43429" lon="1.16856">
        <ele>67.4</ele>
        <time>2022-02-27T09:37:58Z</time>
      </trkpt>
      <trkpt lat="49.43429" lon="1.16856">
        <ele>67.4</ele>
        <time>2022-02-27T09:37:59Z</time>
      </trkpt>
      <trkpt lat="49.43429" lon="1.16856">
        <ele>67.4</ele>
        <time>2022-02-27T09:38:00Z</time>
      </trkpt>
      <trkpt lat="49.43429" lon="1.16855">
        <ele>67.5</ele>
        <time>2022-02-27T09:38:01Z</time>
      </trkpt>
      <trkpt lat="49.43429" lon="1.16854">
        <ele>67.6</ele>
        <time>2022-02-27T09:38:03Z</time>
      </trkpt>
      <trkpt lat="49.4343" lon="1.16853">
        <ele>67.7</ele>
        <time>2022-02-27T09:38:04Z</time>
      </trkpt>
      <trkpt lat="49.4343" lon="1.16854">
        <ele>67.7</ele>
        <time>2022-02-27T09:38:07Z</time>
      </trkpt>
      <trkpt lat="49.43429" lon="1.16853">
        <ele>67.8</ele>
        <time>2022-02-27T09:38:08Z</time>
      </trkpt>
      <trkpt lat="49.43428" lon="1.16852">
        <ele>67.9</ele>
        <time>2022-02-27T09:38:09Z</time>
      </trkpt>
      <trkpt lat="49.43427" lon="1.16851">
        <ele>68.2</ele>
        <time>2022-02-27T09:38:10Z</time>
      </trkpt>
      <trkpt lat="49.43425" lon="1.16847">
        <ele>68.6</ele>
        <time>2022-02-27T09:38:12Z</time>
      </trkpt>
      <trkpt lat="49.43424" lon="1.16846">
        <ele>68.7</ele>
        <time>2022-02-27T09:38:13Z</time>
      </trkpt>
      <trkpt lat="49.43421" lon="1.16847">
        <ele>69.2</ele>
        <time>2022-02-27T09:38:14Z</time>
      </trkpt>
      <trkpt lat="49.4342" lon="1.16848">
        <ele>69.3</ele>
        <time>2022-02-27T09:38:15Z</time>
      </trkpt>
      <trkpt lat="49.43418" lon="1.1685">
        <ele>69.6</ele>
        <time>2022-02-27T09:38:16Z</time>
      </trkpt>
      <trkpt lat="49.43417" lon="1.1685">
        <ele>69.7</ele>
        <time>2022-02-27T09:38:17Z</time>
      </trkpt>
      <trkpt lat="49.43417" lon="1.16851">
        <ele>69.8</ele>
        <time>2022-02-27T09:38:18Z</time>
      </trkpt>
      <trkpt lat="49.43416" lon="1.16851">
        <ele>69.9</ele>
        <time>2022-02-27T09:38:19Z</time>
      </trkpt>
      <trkpt lat="49.43415" lon="1.16851">
        <ele>70</ele>
        <time>2022-02-27T09:38:20Z</time>
      </trkpt>
      <trkpt lat="49.43415" lon="1.16851">
        <ele>70</ele>
        <time>2022-02-27T09:38:21Z</time>
      </trkpt>
      <trkpt lat="49.43415" lon="1.16851">
        <ele>70</ele>
        <time>2022-02-27T09:38:22Z</time>
      </trkpt>
      <trkpt lat="49.43414" lon="1.16851">
        <ele>70.1</ele>
        <time>2022-02-27T09:38:23Z</time>
      </trkpt>
      <trkpt lat="49.43414" lon="1.16851">
        <ele>70.1</ele>
        <time>2022-02-27T09:38:24Z</time>
      </trkpt>
      <trkpt lat="49.43414" lon="1.16851">
        <ele>70.1</ele>
        <time>2022-02-27T09:38:25Z</time>
      </trkpt>
      <trkpt lat="49.43414" lon="1.16851">
        <ele>70.1</ele>
        <time>2022-02-27T09:38:26Z</time>
      </trkpt>
      <trkpt lat="49.43414" lon="1.16851">
        <ele>70.2</ele>
        <time>2022-02-27T09:38:27Z</time>
      </trkpt>
      <trkpt lat="49.43413" lon="1.16851">
        <ele>70.2</ele>
        <time>2022-02-27T09:38:28Z</time>
      </trkpt>
      <trkpt lat="49.43413" lon="1.16851">
        <ele>70.3</ele>
        <time>2022-02-27T09:38:29Z</time>
      </trkpt>
      <trkpt lat="49.43427" lon="1.16842">
        <ele>72</ele>
        <time>2022-02-27T09:40:10Z</time>
      </trkpt>
      <trkpt lat="49.43427" lon="1.16841">
        <ele>72.1</ele>
        <time>2022-02-27T09:40:11Z</time>
      </trkpt>
      <trkpt lat="49.43426" lon="1.1684">
        <ele>72.2</ele>
        <time>2022-02-27T09:40:12Z</time>
      </trkpt>
      <trkpt lat="49.43425" lon="1.1684">
        <ele>72.3</ele>
        <time>2022-02-27T09:40:13Z</time>
      </trkpt>
      <trkpt lat="49.43425" lon="1.16839">
        <ele>72.4</ele>
        <time>2022-02-27T09:40:14Z</time>
      </trkpt>
      <trkpt lat="49.43424" lon="1.16839">
        <ele>72.4</ele>
        <time>2022-02-27T09:40:15Z</time>
      </trkpt>
      <trkpt lat="49.43423" lon="1.16837">
        <ele>72.5</ele>
        <time>2022-02-27T09:40:16Z</time>
      </trkpt>
      <trkpt lat="49.43422" lon="1.16836">
        <ele>72.7</ele>
        <time>2022-02-27T09:40:17Z</time>
      </trkpt>
      <trkpt lat="49.43421" lon="1.16834">
        <ele>72.9</ele>
        <time>2022-02-27T09:40:18Z</time>
      </trkpt>
      <trkpt lat="49.43421" lon="1.16833">
        <ele>73</ele>
        <time>2022-02-27T09:40:19Z</time>
      </trkpt>
      <trkpt lat="49.4342" lon="1.16832">
        <ele>73.2</ele>
        <time>2022-02-27T09:40:20Z</time>
      </trkpt>
      <trkpt lat="49.43419" lon="1.16832">
        <ele>73.3</ele>
        <time>2022-02-27T09:40:21Z</time>
      </trkpt>
      <trkpt lat="49.43418" lon="1.16831">
        <ele>73.4</ele>
        <time>2022-02-27T09:40:22Z</time>
      </trkpt>
      <trkpt lat="49.43417" lon="1.1683">
        <ele>73.6</ele>
        <time>2022-02-27T09:40:23Z</time>
      </trkpt>
      <trkpt lat="49.43415" lon="1.16826">
        <ele>74</ele>
        <time>2022-02-27T09:40:24Z</time>
      </trkpt>
      <trkpt lat="49.43414" lon="1.16824">
        <ele>74.2</ele>
        <time>2022-02-27T09:40:25Z</time>
      </trkpt>
      <trkpt lat="49.43412" lon="1.16821">
        <ele>74.6</ele>
        <time>2022-02-27T09:40:26Z</time>
      </trkpt>
      <trkpt lat="49.4341" lon="1.16817">
        <ele>75</ele>
        <time>2022-02-27T09:40:27Z</time>
      </trkpt>
      <trkpt lat="49.43408" lon="1.16813">
        <ele>75.5</ele>
        <time>2022-02-27T09:40:28Z</time>
      </trkpt>
      <trkpt lat="49.43408" lon="1.16812">
        <ele>75.6</ele>
        <time>2022-02-27T09:40:29Z</time>
      </trkpt>
      <trkpt lat="49.43405" lon="1.16809">
        <ele>76</ele>
        <time>2022-02-27T09:40:30Z</time>
      </trkpt>
      <trkpt lat="49.43405" lon="1.16808">
        <ele>76.2</ele>
        <time>2022-02-27T09:40:31Z</time>
      </trkpt>
      <trkpt lat="49.43404" lon="1.16806">
        <ele>76.4</ele>
        <time>2022-02-27T09:40:32Z</time>
      </trkpt>
      <trkpt lat="49.43403" lon="1.16804">
        <ele>76.6</ele>
        <time>2022-02-27T09:40:33Z</time>
      </trkpt>
      <trkpt lat="49.434" lon="1.16802">
        <ele>77.1</ele>
        <time>2022-02-27T09:40:34Z</time>
      </trkpt>
      <trkpt lat="49.434" lon="1.16801">
        <ele>77.3</ele>
        <time>2022-02-27T09:40:35Z</time>
      </trkpt>
      <trkpt lat="49.43398" lon="1.16799">
        <ele>79.1</ele>
        <time>2022-02-27T09:40:36Z</time>
      </trkpt>
      <trkpt lat="49.43398" lon="1.16797">
        <ele>79.5</ele>
        <time>2022-02-27T09:40:37Z</time>
      </trkpt>
      <trkpt lat="49.43398" lon="1.16795">
        <ele>79.7</ele>
        <time>2022-02-27T09:40:38Z</time>
      </trkpt>
      <trkpt lat="49.43397" lon="1.16795">
        <ele>79.8</ele>
        <time>2022-02-27T09:40:39Z</time>
      </trkpt>
      <trkpt lat="49.43397" lon="1.16794">
        <ele>79.9</ele>
        <time>2022-02-27T09:40:40Z</time>
      </trkpt>
      <trkpt lat="49.43397" lon="1.16794">
        <ele>80</ele>
        <time>2022-02-27T09:40:41Z</time>
      </trkpt>
      <trkpt lat="49.43396" lon="1.16794">
        <ele>80.1</ele>
        <time>2022-02-27T09:40:42Z</time>
      </trkpt>
      <trkpt lat="49.43396" lon="1.16795">
        <ele>80.2</ele>
        <time>2022-02-27T09:40:43Z</time>
      </trkpt>
      <trkpt lat="49.43396" lon="1.16795">
        <ele>80.3</ele>
        <time>2022-02-27T09:40:44Z</time>
      </trkpt>
      <trkpt lat="49.43395" lon="1.16796">
        <ele>80.4</ele>
        <time>2022-02-27T09:40:45Z</time>
      </trkpt>
      <trkpt lat="49.43395" lon="1.16797">
        <ele>80.5</ele>
        <time>2022-02-27T09:40:46Z</time>
      </trkpt>
      <trkpt lat="49.43395" lon="1.16797">
        <ele>80.6</ele>
        <time>2022-02-27T09:40:47Z</time>
      </trkpt>
      <trkpt lat="49.43395" lon="1.16798">
        <ele>80.7</ele>
        <time>2022-02-27T09:40:48Z</time>
      </trkpt>
      <trkpt lat="49.43395" lon="1.16799">
        <ele>80.9</ele>
        <time>2022-02-27T09:40:49Z</time>
      </trkpt>
      <trkpt lat="49.43395" lon="1.16799">
        <ele>81</ele>
        <time>2022-02-27T09:40:50Z</time>
      </trkpt>
      <trkpt lat="49.43395" lon="1.16797">
        <ele>81.3</ele>
        <time>2022-02-27T09:40:51Z</time>
      </trkpt>
      <trkpt lat="49.43395" lon="1.16797">
        <ele>81.4</ele>
        <time>2022-02-27T09:40:52Z</time>
      </trkpt>
      <trkpt lat="49.43395" lon="1.16797">
        <ele>81.4</ele>
        <time>2022-02-27T09:40:53Z</time>
      </trkpt>
      <trkpt lat="49.43395" lon="1.16796">
        <ele>81.6</ele>
        <time>2022-02-27T09:40:55Z</time>
      </trkpt>
      <trkpt lat="49.43395" lon="1.16795">
        <ele>81.7</ele>
        <time>2022-02-27T09:40:56Z</time>
      </trkpt>
      <trkpt lat="49.43395" lon="1.16795">
        <ele>81.8</ele>
        <time>2022-02-27T09:40:57Z</time>
      </trkpt>
      <trkpt lat="49.43396" lon="1.16794">
        <ele>82</ele>
        <time>2022-02-27T09:40:58Z</time>
      </trkpt>
      <trkpt lat="49.43397" lon="1.16791">
        <ele>82.5</ele>
        <time>2022-02-27T09:41:00Z</time>
      </trkpt>
      <trkpt lat="49.43398" lon="1.16791">
        <ele>82.7</ele>
        <time>2022-02-27T09:41:01Z</time>
      </trkpt>
      <trkpt lat="49.43398" lon="1.1679">
        <ele>82.9</ele>
        <time>2022-02-27T09:41:02Z</time>
      </trkpt>
      <trkpt lat="49.43399" lon="1.1679">
        <ele>83.1</ele>
        <time>2022-02-27T09:41:03Z</time>
      </trkpt>
      <trkpt lat="49.43399" lon="1.1679">
        <ele>83.2</ele>
        <time>2022-02-27T09:41:04Z</time>
      </trkpt>
      <trkpt lat="49.43399" lon="1.16789">
        <ele>83.3</ele>
        <time>2022-02-27T09:41:05Z</time>
      </trkpt>
      <trkpt lat="49.434" lon="1.16788">
        <ele>83.6</ele>
        <time>2022-02-27T09:41:06Z</time>
      </trkpt>
      <trkpt lat="49.434" lon="1.16786">
        <ele>83.9</ele>
        <time>2022-02-27T09:41:08Z</time>
      </trkpt>
      <trkpt lat="49.43401" lon="1.16784">
        <ele>84.2</ele>
        <time>2022-02-27T09:41:09Z</time>
      </trkpt>
      <trkpt lat="49.43401" lon="1.16782">
        <ele>84.6</ele>
        <time>2022-02-27T09:41:10Z</time>
      </trkpt>
      <trkpt lat="49.43402" lon="1.16781">
        <ele>84.7</ele>
        <time>2022-02-27T09:41:11Z</time>
      </trkpt>
      <trkpt lat="49.43402" lon="1.16781">
        <ele>84.9</ele>
        <time>2022-02-27T09:41:12Z</time>
      </trkpt>
      <trkpt lat="49.43403" lon="1.1678">
        <ele>85.2</ele>
        <time>2022-02-27T09:41:13Z</time>
      </trkpt>
      <trkpt lat="49.43404" lon="1.16779">
        <ele>85.5</ele>
        <time>2022-02-27T09:41:14Z</time>
      </trkpt>
      <trkpt lat="49.43405" lon="1.16778">
        <ele>85.8</ele>
        <time>2022-02-27T09:41:16Z</time>
      </trkpt>
      <trkpt lat="49.43405" lon="1.16777">
        <ele>85.9</ele>
        <time>2022-02-27T09:41:17Z</time>
      </trkpt>
      <trkpt lat="49.43404" lon="1.1678">
        <ele>86.4</ele>
        <time>2022-02-27T09:41:18Z</time>
      </trkpt>
      <trkpt lat="49.43403" lon="1.16781">
        <ele>86.7</ele>
        <time>2022-02-27T09:41:19Z</time>
      </trkpt>
      <trkpt lat="49.43403" lon="1.16782">
        <ele>86.9</ele>
        <time>2022-02-27T09:41:20Z</time>
      </trkpt>
      <trkpt lat="49.43402" lon="1.16782">
        <ele>87.1</ele>
        <time>2022-02-27T09:41:21Z</time>
      </trkpt>
      <trkpt lat="49.43402" lon="1.16782">
        <ele>87.1</ele>
        <time>2022-02-27T09:41:22Z</time>
      </trkpt>
      <trkpt lat="49.43402" lon="1.16782">
        <ele>87.2</ele>
        <time>2022-02-27T09:41:23Z</time>
      </trkpt>
      <trkpt lat="49.43402" lon="1.16782">
        <ele>87.2</ele>
        <time>2022-02-27T09:41:24Z</time>
      </trkpt>
      <trkpt lat="49.43402" lon="1.16781">
        <ele>87.3</ele>
        <time>2022-02-27T09:41:25Z</time>
      </trkpt>
      <trkpt lat="49.43402" lon="1.16781">
        <ele>87.5</ele>
        <time>2022-02-27T09:41:26Z</time>
      </trkpt>
      <trkpt lat="49.43403" lon="1.1678">
        <ele>87.6</ele>
        <time>2022-02-27T09:41:27Z</time>
      </trkpt>
      <trkpt lat="49.43403" lon="1.1678">
        <ele>87.8</ele>
        <time>2022-02-27T09:41:28Z</time>
      </trkpt>
      <trkpt lat="49.43405" lon="1.16779">
        <ele>88.2</ele>
        <time>2022-02-27T09:41:30Z</time>
      </trkpt>
      <trkpt lat="49.43405" lon="1.16778">
        <ele>88.3</ele>
        <time>2022-02-27T09:41:31Z</time>
      </trkpt>
      <trkpt lat="49.43406" lon="1.16778">
        <ele>88.5</ele>
        <time>2022-02-27T09:41:32Z</time>
      </trkpt>
      <trkpt lat="49.43407" lon="1.16778">
        <ele>88.8</ele>
        <time>2022-02-27T09:41:33Z</time>
      </trkpt>
      <trkpt lat="49.43408" lon="1.16778">
        <ele>89.2</ele>
        <time>2022-02-27T09:41:34Z</time>
      </trkpt>
      <trkpt lat="49.4341" lon="1.16778">
        <ele>89.6</ele>
        <time>2022-02-27T09:41:35Z</time>
      </trkpt>
      <trkpt lat="49.4341" lon="1.16777">
        <ele>89.7</ele>
        <time>2022-02-27T09:41:37Z</time>
      </trkpt>
      <trkpt lat="49.4341" lon="1.16777">
        <ele>89.7</ele>
        <time>2022-02-27T09:41:38Z</time>
      </trkpt>
      <trkpt lat="49.43411" lon="1.16776">
        <ele>89.8</ele>
        <time>2022-02-27T09:41:39Z</time>
      </trkpt>
      <trkpt lat="49.43411" lon="1.16776">
        <ele>89.9</ele>
        <time>2022-02-27T09:41:40Z</time>
      </trkpt>
      <trkpt lat="49.43411" lon="1.16776">
        <ele>90</ele>
        <time>2022-02-27T09:41:41Z</time>
      </trkpt>
      <trkpt lat="49.43411" lon="1.16775">
        <ele>90.1</ele>
        <time>2022-02-27T09:41:42Z</time>
      </trkpt>
      <trkpt lat="49.43411" lon="1.16775">
        <ele>90.2</ele>
        <time>2022-02-27T09:41:43Z</time>
      </trkpt>
      <trkpt lat="49.43412" lon="1.16774">
        <ele>90.3</ele>
        <time>2022-02-27T09:41:44Z</time>
      </trkpt>
      <trkpt lat="49.43412" lon="1.16774">
        <ele>90.4</ele>
        <time>2022-02-27T09:41:45Z</time>
      </trkpt>
      <trkpt lat="49.43412" lon="1.16773">
        <ele>90.4</ele>
        <time>2022-02-27T09:41:46Z</time>
      </trkpt>
      <trkpt lat="49.43412" lon="1.16773">
        <ele>90.5</ele>
        <time>2022-02-27T09:41:47Z</time>
      </trkpt>
      <trkpt lat="49.43412" lon="1.16772">
        <ele>90.6</ele>
        <time>2022-02-27T09:41:48Z</time>
      </trkpt>
      <trkpt lat="49.43413" lon="1.16772">
        <ele>90.7</ele>
        <time>2022-02-27T09:41:49Z</time>
      </trkpt>
      <trkpt lat="49.43413" lon="1.16772">
        <ele>90.8</ele>
        <time>2022-02-27T09:41:50Z</time>
      </trkpt>
      <trkpt lat="49.43413" lon="1.16771">
        <ele>90.9</ele>
        <time>2022-02-27T09:41:51Z</time>
      </trkpt>
      <trkpt lat="49.43413" lon="1.16771">
        <ele>91</ele>
        <time>2022-02-27T09:41:58Z</time>
      </trkpt>
      <trkpt lat="49.43413" lon="1.1677">
        <ele>91.1</ele>
        <time>2022-02-27T09:41:59Z</time>
      </trkpt>
      <trkpt lat="49.43414" lon="1.1677">
        <ele>91.2</ele>
        <time>2022-02-27T09:42:00Z</time>
      </trkpt>
      <trkpt lat="49.43414" lon="1.16769">
        <ele>91.3</ele>
        <time>2022-02-27T09:42:01Z</time>
      </trkpt>
      <trkpt lat="49.43415" lon="1.16767">
        <ele>91.8</ele>
        <time>2022-02-27T09:42:02Z</time>
      </trkpt>
      <trkpt lat="49.43416" lon="1.16767">
        <ele>92</ele>
        <time>2022-02-27T09:42:03Z</time>
      </trkpt>
      <trkpt lat="49.43417" lon="1.16766">
        <ele>92.3</ele>
        <time>2022-02-27T09:42:04Z</time>
      </trkpt>
      <trkpt lat="49.43418" lon="1.16764">
        <ele>92.6</ele>
        <time>2022-02-27T09:42:05Z</time>
      </trkpt>
      <trkpt lat="49.4342" lon="1.16763">
        <ele>93.1</ele>
        <time>2022-02-27T09:42:07Z</time>
      </trkpt>
      <trkpt lat="49.43421" lon="1.16762">
        <ele>93.4</ele>
        <time>2022-02-27T09:42:08Z</time>
      </trkpt>
      <trkpt lat="49.43422" lon="1.16761">
        <ele>93.7</ele>
        <time>2022-02-27T09:42:09Z</time>
      </trkpt>
      <trkpt lat="49.43423" lon="1.16761">
        <ele>93.9</ele>
        <time>2022-02-27T09:42:10Z</time>
      </trkpt>
      <trkpt lat="49.43424" lon="1.16761">
        <ele>94.2</ele>
        <time>2022-02-27T09:42:11Z</time>
      </trkpt>
      <trkpt lat="49.43425" lon="1.16761">
        <ele>94.4</ele>
        <time>2022-02-27T09:42:12Z</time>
      </trkpt>
      <trkpt lat="49.43425" lon="1.1676">
        <ele>94.6</ele>
        <time>2022-02-27T09:42:13Z</time>
      </trkpt>
      <trkpt lat="49.43423" lon="1.16756">
        <ele>95.4</ele>
        <time>2022-02-27T09:42:14Z</time>
      </trkpt>
      <trkpt lat="49.43423" lon="1.16755">
        <ele>95.5</ele>
        <time>2022-02-27T09:42:15Z</time>
      </trkpt>
      <trkpt lat="49.43422" lon="1.16755">
        <ele>95.7</ele>
        <time>2022-02-27T09:42:16Z</time>
      </trkpt>
      <trkpt lat="49.43422" lon="1.16754">
        <ele>95.8</ele>
        <time>2022-02-27T09:42:17Z</time>
      </trkpt>
      <trkpt lat="49.43422" lon="1.16754">
        <ele>95.8</ele>
        <time>2022-02-27T09:42:18Z</time>
      </trkpt>
      <trkpt lat="49.43422" lon="1.16754">
        <ele>95.9</ele>
        <time>2022-02-27T09:42:19Z</time>
      </trkpt>
      <trkpt lat="49.43423" lon="1.16753">
        <ele>96.1</ele>
        <time>2022-02-27T09:42:20Z</time>
      </trkpt>
      <trkpt lat="49.43424" lon="1.16752">
        <ele>96.4</ele>
        <time>2022-02-27T09:42:22Z</time>
      </trkpt>
      <trkpt lat="49.43425" lon="1.16751">
        <ele>96.6</ele>
        <time>2022-02-27T09:42:23Z</time>
      </trkpt>
      <trkpt lat="49.43426" lon="1.1675">
        <ele>96.9</ele>
        <time>2022-02-27T09:42:24Z</time>
      </trkpt>
      <trkpt lat="49.43426" lon="1.1675">
        <ele>97.1</ele>
        <time>2022-02-27T09:42:25Z</time>
      </trkpt>
      <trkpt lat="49.43427" lon="1.16748">
        <ele>97.3</ele>
        <time>2022-02-27T09:42:27Z</time>
      </trkpt>
      <trkpt lat="49.43427" lon="1.16747">
        <ele>97.5</ele>
        <time>2022-02-27T09:42:28Z</time>
      </trkpt>
      <trkpt lat="49.43427" lon="1.16747">
        <ele>97.6</ele>
        <time>2022-02-27T09:42:29Z</time>
      </trkpt>
      <trkpt lat="49.43427" lon="1.16747">
        <ele>97.6</ele>
        <time>2022-02-27T09:42:30Z</time>
      </trkpt>
      <trkpt lat="49.43427" lon="1.16748">
        <ele>97.7</ele>
        <time>2022-02-27T09:42:32Z</time>
      </trkpt>
      <trkpt lat="49.43427" lon="1.16747">
        <ele>97.8</ele>
        <time>2022-02-27T09:42:33Z</time>
      </trkpt>
      <trkpt lat="49.43427" lon="1.16746">
        <ele>97.9</ele>
        <time>2022-02-27T09:42:34Z</time>
      </trkpt>
      <trkpt lat="49.43427" lon="1.16745">
        <ele>98</ele>
        <time>2022-02-27T09:42:35Z</time>
      </trkpt>
      <trkpt lat="49.43426" lon="1.16745">
        <ele>98.2</ele>
        <time>2022-02-27T09:42:36Z</time>
      </trkpt>
      <trkpt lat="49.43426" lon="1.16743">
        <ele>98.4</ele>
        <time>2022-02-27T09:42:37Z</time>
      </trkpt>
      <trkpt lat="49.43427" lon="1.16743">
        <ele>98.6</ele>
        <time>2022-02-27T09:42:39Z</time>
      </trkpt>
      <trkpt lat="49.43427" lon="1.16744">
        <ele>98.7</ele>
        <time>2022-02-27T09:42:40Z</time>
      </trkpt>
      <trkpt lat="49.43427" lon="1.16745">
        <ele>98.9</ele>
        <time>2022-02-27T09:42:41Z</time>
      </trkpt>
      <trkpt lat="49.43427" lon="1.16746">
        <ele>99</ele>
        <time>2022-02-27T09:42:42Z</time>
      </trkpt>
      <trkpt lat="49.43427" lon="1.16746">
        <ele>99.1</ele>
        <time>2022-02-27T09:42:43Z</time>
      </trkpt>
      <trkpt lat="49.43427" lon="1.16747">
        <ele>99.2</ele>
        <time>2022-02-27T09:42:44Z</time>
      </trkpt>
      <trkpt lat="49.43426" lon="1.16747">
        <ele>99.3</ele>
        <time>2022-02-27T09:42:45Z</time>
      </trkpt>
      <trkpt lat="49.43426" lon="1.16747">
        <ele>99.5</ele>
        <time>2022-02-27T09:42:47Z</time>
      </trkpt>
      <trkpt lat="49.43425" lon="1.16747">
        <ele>99.5</ele>
        <time>2022-02-27T09:42:48Z</time>
      </trkpt>
      <trkpt lat="49.43425" lon="1.16747">
        <ele>99.6</ele>
        <time>2022-02-27T09:42:49Z</time>
      </trkpt>
      <trkpt lat="49.43425" lon="1.16746">
        <ele>99.7</ele>
        <time>2022-02-27T09:42:50Z</time>
      </trkpt>
      <trkpt lat="49.43425" lon="1.16746">
        <ele>99.8</ele>
        <time>2022-02-27T09:42:51Z</time>
      </trkpt>
      <trkpt lat="49.43425" lon="1.16745">
        <ele>99.9</ele>
        <time>2022-02-27T09:42:53Z</time>
      </trkpt>
      <trkpt lat="49.43425" lon="1.16744">
        <ele>99.9</ele>
        <time>2022-02-27T09:42:54Z</time>
      </trkpt>
      <trkpt lat="49.43425" lon="1.16744">
        <ele>100</ele>
        <time>2022-02-27T09:42:55Z</time>
      </trkpt>
      <trkpt lat="49.43425" lon="1.16743">
        <ele>100.1</ele>
        <time>2022-02-27T09:42:56Z</time>
      </trkpt>
      <trkpt lat="49.43425" lon="1.16742">
        <ele>100.2</ele>
        <time>2022-02-27T09:42:58Z</time>
      </trkpt>
      <trkpt lat="49.43425" lon="1.16742">
        <ele>100.3</ele>
        <time>2022-02-27T09:42:59Z</time>
      </trkpt>
      <trkpt lat="49.43426" lon="1.1674">
        <ele>100.6</ele>
        <time>2022-02-27T09:43:00Z</time>
      </trkpt>
      <trkpt lat="49.43427" lon="1.16737">
        <ele>101</ele>
        <time>2022-02-27T09:43:01Z</time>
      </trkpt>
      <trkpt lat="49.43428" lon="1.16734">
        <ele>101.5</ele>
        <time>2022-02-27T09:43:02Z</time>
      </trkpt>
      <trkpt lat="49.43428" lon="1.16732">
        <ele>101.7</ele>
        <time>2022-02-27T09:43:03Z</time>
      </trkpt>
      <trkpt lat="49.43429" lon="1.1673">
        <ele>102</ele>
        <time>2022-02-27T09:43:04Z</time>
      </trkpt>
      <trkpt lat="49.43432" lon="1.16728">
        <ele>102.6</ele>
        <time>2022-02-27T09:43:07Z</time>
      </trkpt>
      <trkpt lat="49.43433" lon="1.16728">
        <ele>102.8</ele>
        <time>2022-02-27T09:43:08Z</time>
      </trkpt>
      <trkpt lat="49.43434" lon="1.16728">
        <ele>102.9</ele>
        <time>2022-02-27T09:43:09Z</time>
      </trkpt>
      <trkpt lat="49.43434" lon="1.16727">
        <ele>103</ele>
        <time>2022-02-27T09:43:10Z</time>
      </trkpt>
      <trkpt lat="49.43434" lon="1.16725">
        <ele>103.3</ele>
        <time>2022-02-27T09:43:12Z</time>
      </trkpt>
      <trkpt lat="49.43435" lon="1.16724">
        <ele>103.4</ele>
        <time>2022-02-27T09:43:13Z</time>
      </trkpt>
      <trkpt lat="49.43435" lon="1.16722">
        <ele>103.6</ele>
        <time>2022-02-27T09:43:14Z</time>
      </trkpt>
      <trkpt lat="49.43435" lon="1.1672">
        <ele>103.8</ele>
        <time>2022-02-27T09:43:15Z</time>
      </trkpt>
      <trkpt lat="49.43436" lon="1.16718">
        <ele>104.1</ele>
        <time>2022-02-27T09:43:16Z</time>
      </trkpt>
      <trkpt lat="49.43437" lon="1.16716">
        <ele>104.4</ele>
        <time>2022-02-27T09:43:18Z</time>
      </trkpt>
      <trkpt lat="49.43437" lon="1.16715">
        <ele>104.5</ele>
        <time>2022-02-27T09:43:19Z</time>
      </trkpt>
      <trkpt lat="49.43438" lon="1.16713">
        <ele>104.6</ele>
        <time>2022-02-27T09:43:20Z</time>
      </trkpt>
      <trkpt lat="49.43439" lon="1.16712">
        <ele>104.8</ele>
        <time>2022-02-27T09:43:21Z</time>
      </trkpt>
      <trkpt lat="49.43439" lon="1.16711">
        <ele>105</ele>
        <time>2022-02-27T09:43:22Z</time>
      </trkpt>
      <trkpt lat="49.43439" lon="1.16709">
        <ele>105.1</ele>
        <time>2022-02-27T09:43:23Z</time>
      </trkpt>
      <trkpt lat="49.43439" lon="1.16707">
        <ele>105.3</ele>
        <time>2022-02-27T09:43:24Z</time>
      </trkpt>
      <trkpt lat="49.43439" lon="1.16704">
        <ele>105.6</ele>
        <time>2022-02-27T09:43:25Z</time>
      </trkpt>
      <trkpt lat="49.43439" lon="1.167">
        <ele>105.8</ele>
        <time>2022-02-27T09:43:27Z</time>
      </trkpt>
      <trkpt lat="49.43438" lon="1.16695">
        <ele>105.9</ele>
        <time>2022-02-27T09:43:28Z</time>
      </trkpt>
      <trkpt lat="49.43438" lon="1.16694">
        <ele>105.9</ele>
        <time>2022-02-27T09:43:29Z</time>
      </trkpt>
      <trkpt lat="49.43438" lon="1.1669">
        <ele>106</ele>
        <time>2022-02-27T09:43:31Z</time>
      </trkpt>
      <trkpt lat="49.43439" lon="1.16685">
        <ele>106.1</ele>
        <time>2022-02-27T09:43:33Z</time>
      </trkpt>
      <trkpt lat="49.43439" lon="1.16683">
        <ele>106.2</ele>
        <time>2022-02-27T09:43:34Z</time>
      </trkpt>
      <trkpt lat="49.43439" lon="1.16682">
        <ele>106.2</ele>
        <time>2022-02-27T09:43:35Z</time>
      </trkpt>
      <trkpt lat="49.4344" lon="1.16681">
        <ele>106.2</ele>
        <time>2022-02-27T09:43:36Z</time>
      </trkpt>
      <trkpt lat="49.43441" lon="1.1668">
        <ele>106.2</ele>
        <time>2022-02-27T09:43:37Z</time>
      </trkpt>
      <trkpt lat="49.43441" lon="1.16679">
        <ele>106.2</ele>
        <time>2022-02-27T09:43:38Z</time>
      </trkpt>
      <trkpt lat="49.43441" lon="1.16679">
        <ele>106.2</ele>
        <time>2022-02-27T09:43:39Z</time>
      </trkpt>
      <trkpt lat="49.43441" lon="1.1668">
        <ele>106.2</ele>
        <time>2022-02-27T09:43:40Z</time>
      </trkpt>
      <trkpt lat="49.43441" lon="1.1668">
        <ele>106.2</ele>
        <time>2022-02-27T09:43:41Z</time>
      </trkpt>
      <trkpt lat="49.43441" lon="1.1668">
        <ele>106.2</ele>
        <time>2022-02-27T09:43:42Z</time>
      </trkpt>
      <trkpt lat="49.43441" lon="1.1668">
        <ele>106.2</ele>
        <time>2022-02-27T09:43:43Z</time>
      </trkpt>
      <trkpt lat="49.43441" lon="1.1668">
        <ele>106.2</ele>
        <time>2022-02-27T09:43:44Z</time>
      </trkpt>
      <trkpt lat="49.4344" lon="1.1668">
        <ele>106.2</ele>
        <time>2022-02-27T09:43:45Z</time>
      </trkpt>
      <trkpt lat="49.43441" lon="1.1668">
        <ele>106.2</ele>
        <time>2022-02-27T09:43:46Z</time>
      </trkpt>
      <trkpt lat="49.43441" lon="1.1668">
        <ele>106.2</ele>
        <time>2022-02-27T09:43:47Z</time>
      </trkpt>
      <trkpt lat="49.43441" lon="1.1668">
        <ele>106.2</ele>
        <time>2022-02-27T09:43:48Z</time>
      </trkpt>
      <trkpt lat="49.43441" lon="1.1668">
        <ele>106.2</ele>
        <time>2022-02-27T09:43:49Z</time>
      </trkpt>
      <trkpt lat="49.43441" lon="1.1668">
        <ele>106.2</ele>
        <time>2022-02-27T09:43:50Z</time>
      </trkpt>
      <trkpt lat="49.43441" lon="1.1668">
        <ele>106.2</ele>
        <time>2022-02-27T09:43:51Z</time>
      </trkpt>
      <trkpt lat="49.43439" lon="1.16675">
        <ele>106.3</ele>
        <time>2022-02-27T09:44:16Z</time>
      </trkpt>
      <trkpt lat="49.43438" lon="1.16672">
        <ele>106.3</ele>
        <time>2022-02-27T09:44:17Z</time>
      </trkpt>
      <trkpt lat="49.43437" lon="1.16669">
        <ele>106.3</ele>
        <time>2022-02-27T09:44:19Z</time>
      </trkpt>
      <trkpt lat="49.43437" lon="1.16666">
        <ele>106.3</ele>
        <time>2022-02-27T09:44:20Z</time>
      </trkpt>
      <trkpt lat="49.43437" lon="1.16664">
        <ele>106.3</ele>
        <time>2022-02-27T09:44:21Z</time>
      </trkpt>
      <trkpt lat="49.43437" lon="1.16662">
        <ele>106.3</ele>
        <time>2022-02-27T09:44:22Z</time>
      </trkpt>
      <trkpt lat="49.43436" lon="1.16659">
        <ele>106.3</ele>
        <time>2022-02-27T09:44:23Z</time>
      </trkpt>
      <trkpt lat="49.43435" lon="1.16654">
        <ele>106.3</ele>
        <time>2022-02-27T09:44:24Z</time>
      </trkpt>
      <trkpt lat="49.43435" lon="1.16652">
        <ele>106.3</ele>
        <time>2022-02-27T09:44:25Z</time>
      </trkpt>
      <trkpt lat="49.43433" lon="1.16645">
        <ele>106.3</ele>
        <time>2022-02-27T09:44:27Z</time>
      </trkpt>
      <trkpt lat="49.43432" lon="1.16639">
        <ele>106.3</ele>
        <time>2022-02-27T09:44:28Z</time>
      </trkpt>
      <trkpt lat="49.43431" lon="1.16633">
        <ele>106.3</ele>
        <time>2022-02-27T09:44:29Z</time>
      </trkpt>
      <trkpt lat="49.43431" lon="1.16627">
        <ele>106.3</ele>
        <time>2022-02-27T09:44:31Z</time>
      </trkpt>
      <trkpt lat="49.4343" lon="1.16622">
        <ele>106.3</ele>
        <time>2022-02-27T09:44:32Z</time>
      </trkpt>
      <trkpt lat="49.4343" lon="1.16617">
        <ele>106.3</ele>
        <time>2022-02-27T09:44:33Z</time>
      </trkpt>
      <trkpt lat="49.4343" lon="1.16612">
        <ele>106.3</ele>
        <time>2022-02-27T09:44:35Z</time>
      </trkpt>
      <trkpt lat="49.43429" lon="1.1661">
        <ele>106.3</ele>
        <time>2022-02-27T09:44:36Z</time>
      </trkpt>
      <trkpt lat="49.43429" lon="1.16608">
        <ele>106.3</ele>
        <time>2022-02-27T09:44:37Z</time>
      </trkpt>
      <trkpt lat="49.43428" lon="1.16606">
        <ele>106.3</ele>
        <time>2022-02-27T09:44:38Z</time>
      </trkpt>
      <trkpt lat="49.43428" lon="1.16601">
        <ele>106.4</ele>
        <time>2022-02-27T09:44:39Z</time>
      </trkpt>
      <trkpt lat="49.43428" lon="1.16599">
        <ele>106.4</ele>
        <time>2022-02-27T09:44:40Z</time>
      </trkpt>
      <trkpt lat="49.43428" lon="1.16594">
        <ele>106.4</ele>
        <time>2022-02-27T09:44:41Z</time>
      </trkpt>
      <trkpt lat="49.43428" lon="1.16592">
        <ele>106.4</ele>
        <time>2022-02-27T09:44:42Z</time>
      </trkpt>
      <trkpt lat="49.43427" lon="1.16586">
        <ele>106.4</ele>
        <time>2022-02-27T09:44:43Z</time>
      </trkpt>
      <trkpt lat="49.43427" lon="1.16584">
        <ele>106.4</ele>
        <time>2022-02-27T09:44:44Z</time>
      </trkpt>
      <trkpt lat="49.43427" lon="1.16581">
        <ele>106.5</ele>
        <time>2022-02-27T09:44:45Z</time>
      </trkpt>
      <trkpt lat="49.43427" lon="1.16576">
        <ele>106.5</ele>
        <time>2022-02-27T09:44:47Z</time>
      </trkpt>
      <trkpt lat="49.43427" lon="1.16572">
        <ele>106.5</ele>
        <time>2022-02-27T09:44:48Z</time>
      </trkpt>
      <trkpt lat="49.43427" lon="1.16571">
        <ele>106.6</ele>
        <time>2022-02-27T09:44:49Z</time>
      </trkpt>
      <trkpt lat="49.43427" lon="1.16568">
        <ele>106.6</ele>
        <time>2022-02-27T09:44:50Z</time>
      </trkpt>
      <trkpt lat="49.43427" lon="1.16563">
        <ele>106.7</ele>
        <time>2022-02-27T09:44:52Z</time>
      </trkpt>
      <trkpt lat="49.43427" lon="1.16559">
        <ele>106.7</ele>
        <time>2022-02-27T09:44:53Z</time>
      </trkpt>
      <trkpt lat="49.43428" lon="1.16555">
        <ele>106.8</ele>
        <time>2022-02-27T09:44:55Z</time>
      </trkpt>
      <trkpt lat="49.43428" lon="1.16554">
        <ele>106.8</ele>
        <time>2022-02-27T09:44:56Z</time>
      </trkpt>
      <trkpt lat="49.43428" lon="1.16553">
        <ele>106.8</ele>
        <time>2022-02-27T09:44:57Z</time>
      </trkpt>
      <trkpt lat="49.43428" lon="1.16552">
        <ele>106.9</ele>
        <time>2022-02-27T09:44:58Z</time>
      </trkpt>
      <trkpt lat="49.43428" lon="1.16551">
        <ele>106.9</ele>
        <time>2022-02-27T09:44:59Z</time>
      </trkpt>
      <trkpt lat="49.43428" lon="1.16549">
        <ele>106.9</ele>
        <time>2022-02-27T09:45:00Z</time>
      </trkpt>
      <trkpt lat="49.43428" lon="1.16547">
        <ele>107</ele>
        <time>2022-02-27T09:45:02Z</time>
      </trkpt>
      <trkpt lat="49.43427" lon="1.16546">
        <ele>107</ele>
        <time>2022-02-27T09:45:03Z</time>
      </trkpt>
      <trkpt lat="49.43426" lon="1.16544">
        <ele>107</ele>
        <time>2022-02-27T09:45:04Z</time>
      </trkpt>
      <trkpt lat="49.43426" lon="1.16543">
        <ele>107.1</ele>
        <time>2022-02-27T09:45:05Z</time>
      </trkpt>
      <trkpt lat="49.43426" lon="1.16542">
        <ele>107.1</ele>
        <time>2022-02-27T09:45:06Z</time>
      </trkpt>
      <trkpt lat="49.43425" lon="1.16541">
        <ele>107.1</ele>
        <time>2022-02-27T09:45:08Z</time>
      </trkpt>
      <trkpt lat="49.43425" lon="1.1654">
        <ele>107.2</ele>
        <time>2022-02-27T09:45:09Z</time>
      </trkpt>
      <trkpt lat="49.43424" lon="1.16539">
        <ele>107.2</ele>
        <time>2022-02-27T09:45:10Z</time>
      </trkpt>
      <trkpt lat="49.43424" lon="1.16538">
        <ele>107.2</ele>
        <time>2022-02-27T09:45:11Z</time>
      </trkpt>
      <trkpt lat="49.43423" lon="1.16537">
        <ele>107.3</ele>
        <time>2022-02-27T09:45:12Z</time>
      </trkpt>
      <trkpt lat="49.43424" lon="1.16535">
        <ele>107.4</ele>
        <time>2022-02-27T09:45:14Z</time>
      </trkpt>
      <trkpt lat="49.43424" lon="1.16533">
        <ele>107.4</ele>
        <time>2022-02-27T09:45:15Z</time>
      </trkpt>
      <trkpt lat="49.43425" lon="1.16531">
        <ele>107.5</ele>
        <time>2022-02-27T09:45:16Z</time>
      </trkpt>
      <trkpt lat="49.43426" lon="1.16531">
        <ele>107.5</ele>
        <time>2022-02-27T09:45:17Z</time>
      </trkpt>
      <trkpt lat="49.43426" lon="1.16533">
        <ele>107.6</ele>
        <time>2022-02-27T09:45:18Z</time>
      </trkpt>
      <trkpt lat="49.43426" lon="1.16536">
        <ele>107.7</ele>
        <time>2022-02-27T09:45:19Z</time>
      </trkpt>
      <trkpt lat="49.43426" lon="1.16538">
        <ele>107.8</ele>
        <time>2022-02-27T09:45:20Z</time>
      </trkpt>
      <trkpt lat="49.43426" lon="1.16539">
        <ele>107.9</ele>
        <time>2022-02-27T09:45:21Z</time>
      </trkpt>
      <trkpt lat="49.43426" lon="1.1654">
        <ele>107.9</ele>
        <time>2022-02-27T09:45:22Z</time>
      </trkpt>
      <trkpt lat="49.43426" lon="1.1654">
        <ele>107.9</ele>
        <time>2022-02-27T09:45:23Z</time>
      </trkpt>
      <trkpt lat="49.43425" lon="1.1654">
        <ele>107.9</ele>
        <time>2022-02-27T09:45:24Z</time>
      </trkpt>
      <trkpt lat="49.43425" lon="1.1654">
        <ele>107.9</ele>
        <time>2022-02-27T09:45:25Z</time>
      </trkpt>
      <trkpt lat="49.43426" lon="1.16539">
        <ele>108</ele>
        <time>2022-02-27T09:45:27Z</time>
      </trkpt>
      <trkpt lat="49.43426" lon="1.16538">
        <ele>108</ele>
        <time>2022-02-27T09:45:28Z</time>
      </trkpt>
      <trkpt lat="49.43426" lon="1.16537">
        <ele>108</ele>
        <time>2022-02-27T09:45:29Z</time>
      </trkpt>
      <trkpt lat="49.43425" lon="1.16536">
        <ele>108.1</ele>
        <time>2022-02-27T09:45:30Z</time>
      </trkpt>
      <trkpt lat="49.43425" lon="1.16535">
        <ele>108.1</ele>
        <time>2022-02-27T09:45:31Z</time>
      </trkpt>
      <trkpt lat="49.43425" lon="1.16534">
        <ele>108.2</ele>
        <time>2022-02-27T09:45:32Z</time>
      </trkpt>
      <trkpt lat="49.43425" lon="1.16531">
        <ele>108.3</ele>
        <time>2022-02-27T09:45:34Z</time>
      </trkpt>
      <trkpt lat="49.43425" lon="1.1653">
        <ele>108.4</ele>
        <time>2022-02-27T09:45:35Z</time>
      </trkpt>
      <trkpt lat="49.43424" lon="1.16529">
        <ele>108.4</ele>
        <time>2022-02-27T09:45:36Z</time>
      </trkpt>
      <trkpt lat="49.43423" lon="1.16527">
        <ele>108.5</ele>
        <time>2022-02-27T09:45:38Z</time>
      </trkpt>
      <trkpt lat="49.43421" lon="1.16526">
        <ele>108.7</ele>
        <time>2022-02-27T09:45:39Z</time>
      </trkpt>
      <trkpt lat="49.43421" lon="1.16524">
        <ele>108.8</ele>
        <time>2022-02-27T09:45:40Z</time>
      </trkpt>
      <trkpt lat="49.43421" lon="1.16521">
        <ele>108.9</ele>
        <time>2022-02-27T09:45:41Z</time>
      </trkpt>
      <trkpt lat="49.43421" lon="1.16519">
        <ele>109</ele>
        <time>2022-02-27T09:45:42Z</time>
      </trkpt>
      <trkpt lat="49.43422" lon="1.16516">
        <ele>109.2</ele>
        <time>2022-02-27T09:45:43Z</time>
      </trkpt>
      <trkpt lat="49.43424" lon="1.16509">
        <ele>109.5</ele>
        <time>2022-02-27T09:45:45Z</time>
      </trkpt>
      <trkpt lat="49.43424" lon="1.16507">
        <ele>109.6</ele>
        <time>2022-02-27T09:45:46Z</time>
      </trkpt>
      <trkpt lat="49.43424" lon="1.16505">
        <ele>109.7</ele>
        <time>2022-02-27T09:45:47Z</time>
      </trkpt>
      <trkpt lat="49.43424" lon="1.16502">
        <ele>109.9</ele>
        <time>2022-02-27T09:45:48Z</time>
      </trkpt>
      <trkpt lat="49.43425" lon="1.165">
        <ele>110</ele>
        <time>2022-02-27T09:45:49Z</time>
      </trkpt>
      <trkpt lat="49.43425" lon="1.16496">
        <ele>110.1</ele>
        <time>2022-02-27T09:45:50Z</time>
      </trkpt>
      <trkpt lat="49.43425" lon="1.16495">
        <ele>110.2</ele>
        <time>2022-02-27T09:45:51Z</time>
      </trkpt>
      <trkpt lat="49.43425" lon="1.16494">
        <ele>110.2</ele>
        <time>2022-02-27T09:45:52Z</time>
      </trkpt>
      <trkpt lat="49.43426" lon="1.16493">
        <ele>110.3</ele>
        <time>2022-02-27T09:45:53Z</time>
      </trkpt>
      <trkpt lat="49.43426" lon="1.16492">
        <ele>110.3</ele>
        <time>2022-02-27T09:45:54Z</time>
      </trkpt>
      <trkpt lat="49.43426" lon="1.16491">
        <ele>110.4</ele>
        <time>2022-02-27T09:45:55Z</time>
      </trkpt>
      <trkpt lat="49.43425" lon="1.16489">
        <ele>110.4</ele>
        <time>2022-02-27T09:45:56Z</time>
      </trkpt>
      <trkpt lat="49.43425" lon="1.16488">
        <ele>110.5</ele>
        <time>2022-02-27T09:45:57Z</time>
      </trkpt>
      <trkpt lat="49.43425" lon="1.16487">
        <ele>110.5</ele>
        <time>2022-02-27T09:45:58Z</time>
      </trkpt>
      <trkpt lat="49.43425" lon="1.16486">
        <ele>110.6</ele>
        <time>2022-02-27T09:45:59Z</time>
      </trkpt>
      <trkpt lat="49.43425" lon="1.16486">
        <ele>110.6</ele>
        <time>2022-02-27T09:46:00Z</time>
      </trkpt>
      <trkpt lat="49.43425" lon="1.16485">
        <ele>110.6</ele>
        <time>2022-02-27T09:46:01Z</time>
      </trkpt>
      <trkpt lat="49.43425" lon="1.16485">
        <ele>110.6</ele>
        <time>2022-02-27T09:46:02Z</time>
      </trkpt>
      <trkpt lat="49.43425" lon="1.16484">
        <ele>110.6</ele>
        <time>2022-02-27T09:46:03Z</time>
      </trkpt>
      <trkpt lat="49.43426" lon="1.16484">
        <ele>110.7</ele>
        <time>2022-02-27T09:46:05Z</time>
      </trkpt>
      <trkpt lat="49.43426" lon="1.16483">
        <ele>110.7</ele>
        <time>2022-02-27T09:46:06Z</time>
      </trkpt>
      <trkpt lat="49.43426" lon="1.16483">
        <ele>110.7</ele>
        <time>2022-02-27T09:46:07Z</time>
      </trkpt>
      <trkpt lat="49.43426" lon="1.16482">
        <ele>110.7</ele>
        <time>2022-02-27T09:46:08Z</time>
      </trkpt>
      <trkpt lat="49.43426" lon="1.16481">
        <ele>110.8</ele>
        <time>2022-02-27T09:46:09Z</time>
      </trkpt>
      <trkpt lat="49.43427" lon="1.16479">
        <ele>110.9</ele>
        <time>2022-02-27T09:46:10Z</time>
      </trkpt>
      <trkpt lat="49.43427" lon="1.16476">
        <ele>111</ele>
        <time>2022-02-27T09:46:12Z</time>
      </trkpt>
      <trkpt lat="49.43427" lon="1.16474">
        <ele>111</ele>
        <time>2022-02-27T09:46:13Z</time>
      </trkpt>
      <trkpt lat="49.43427" lon="1.16471">
        <ele>111.1</ele>
        <time>2022-02-27T09:46:14Z</time>
      </trkpt>
      <trkpt lat="49.43428" lon="1.16468">
        <ele>111.2</ele>
        <time>2022-02-27T09:46:16Z</time>
      </trkpt>
      <trkpt lat="49.43428" lon="1.16467">
        <ele>111.3</ele>
        <time>2022-02-27T09:46:17Z</time>
      </trkpt>
      <trkpt lat="49.43429" lon="1.16465">
        <ele>111.3</ele>
        <time>2022-02-27T09:46:18Z</time>
      </trkpt>
      <trkpt lat="49.4343" lon="1.16462">
        <ele>111.4</ele>
        <time>2022-02-27T09:46:19Z</time>
      </trkpt>
      <trkpt lat="49.4343" lon="1.1646">
        <ele>111.4</ele>
        <time>2022-02-27T09:46:20Z</time>
      </trkpt>
      <trkpt lat="49.43432" lon="1.16455">
        <ele>111.5</ele>
        <time>2022-02-27T09:46:22Z</time>
      </trkpt>
      <trkpt lat="49.43433" lon="1.16452">
        <ele>111.6</ele>
        <time>2022-02-27T09:46:23Z</time>
      </trkpt>
      <trkpt lat="49.43434" lon="1.16451">
        <ele>111.6</ele>
        <time>2022-02-27T09:46:24Z</time>
      </trkpt>
      <trkpt lat="49.43434" lon="1.1645">
        <ele>111.6</ele>
        <time>2022-02-27T09:46:25Z</time>
      </trkpt>
      <trkpt lat="49.43435" lon="1.16447">
        <ele>111.6</ele>
        <time>2022-02-27T09:46:26Z</time>
      </trkpt>
      <trkpt lat="49.43436" lon="1.16442">
        <ele>111.6</ele>
        <time>2022-02-27T09:46:28Z</time>
      </trkpt>
      <trkpt lat="49.43438" lon="1.16438">
        <ele>111.7</ele>
        <time>2022-02-27T09:46:29Z</time>
      </trkpt>
      <trkpt lat="49.43439" lon="1.16433">
        <ele>111.7</ele>
        <time>2022-02-27T09:46:30Z</time>
      </trkpt>
      <trkpt lat="49.4344" lon="1.16428">
        <ele>111.7</ele>
        <time>2022-02-27T09:46:31Z</time>
      </trkpt>
      <trkpt lat="49.43441" lon="1.16421">
        <ele>111.7</ele>
        <time>2022-02-27T09:46:32Z</time>
      </trkpt>
      <trkpt lat="49.43442" lon="1.16415">
        <ele>111.7</ele>
        <time>2022-02-27T09:46:34Z</time>
      </trkpt>
      <trkpt lat="49.43443" lon="1.1641">
        <ele>111.8</ele>
        <time>2022-02-27T09:46:35Z</time>
      </trkpt>
      <trkpt lat="49.43444" lon="1.16405">
        <ele>111.8</ele>
        <time>2022-02-27T09:46:36Z</time>
      </trkpt>
      <trkpt lat="49.43444" lon="1.16401">
        <ele>111.8</ele>
        <time>2022-02-27T09:46:37Z</time>
      </trkpt>
      <trkpt lat="49.43444" lon="1.16395">
        <ele>111.9</ele>
        <time>2022-02-27T09:46:38Z</time>
      </trkpt>
      <trkpt lat="49.43444" lon="1.16392">
        <ele>111.9</ele>
        <time>2022-02-27T09:46:39Z</time>
      </trkpt>
      <trkpt lat="49.43444" lon="1.16387">
        <ele>111.9</ele>
        <time>2022-02-27T09:46:40Z</time>
      </trkpt>
      <trkpt lat="49.43444" lon="1.16385">
        <ele>112</ele>
        <time>2022-02-27T09:46:41Z</time>
      </trkpt>
      <trkpt lat="49.43444" lon="1.16379">
        <ele>112</ele>
        <time>2022-02-27T09:46:42Z</time>
      </trkpt>
      <trkpt lat="49.43444" lon="1.16377">
        <ele>112</ele>
        <time>2022-02-27T09:46:43Z</time>
      </trkpt>
      <trkpt lat="49.43444" lon="1.16372">
        <ele>112.1</ele>
        <time>2022-02-27T09:46:44Z</time>
      </trkpt>
      <trkpt lat="49.43444" lon="1.1637">
        <ele>112.1</ele>
        <time>2022-02-27T09:46:45Z</time>
      </trkpt>
      <trkpt lat="49.43444" lon="1.16365">
        <ele>112.1</ele>
        <time>2022-02-27T09:46:46Z</time>
      </trkpt>
      <trkpt lat="49.43444" lon="1.16364">
        <ele>112.1</ele>
        <time>2022-02-27T09:46:47Z</time>
      </trkpt>
      <trkpt lat="49.43444" lon="1.16358">
        <ele>112.1</ele>
        <time>2022-02-27T09:46:48Z</time>
      </trkpt>
      <trkpt lat="49.43445" lon="1.16353">
        <ele>112</ele>
        <time>2022-02-27T09:46:50Z</time>
      </trkpt>
      <trkpt lat="49.43445" lon="1.16351">
        <ele>112</ele>
        <time>2022-02-27T09:46:51Z</time>
      </trkpt>
      <trkpt lat="49.43445" lon="1.16347">
        <ele>112</ele>
        <time>2022-02-27T09:46:52Z</time>
      </trkpt>
      <trkpt lat="49.43445" lon="1.16346">
        <ele>112</ele>
        <time>2022-02-27T09:46:53Z</time>
      </trkpt>
      <trkpt lat="49.43446" lon="1.16341">
        <ele>111.9</ele>
        <time>2022-02-27T09:46:54Z</time>
      </trkpt>
      <trkpt lat="49.43446" lon="1.16339">
        <ele>111.9</ele>
        <time>2022-02-27T09:46:55Z</time>
      </trkpt>
      <trkpt lat="49.43447" lon="1.16335">
        <ele>111.8</ele>
        <time>2022-02-27T09:46:56Z</time>
      </trkpt>
      <trkpt lat="49.43447" lon="1.16334">
        <ele>111.7</ele>
        <time>2022-02-27T09:46:57Z</time>
      </trkpt>
      <trkpt lat="49.43447" lon="1.16332">
        <ele>111.7</ele>
        <time>2022-02-27T09:46:58Z</time>
      </trkpt>
      <trkpt lat="49.43448" lon="1.16328">
        <ele>111.5</ele>
        <time>2022-02-27T09:46:59Z</time>
      </trkpt>
      <trkpt lat="49.43448" lon="1.16324">
        <ele>111.4</ele>
        <time>2022-02-27T09:47:01Z</time>
      </trkpt>
      <trkpt lat="49.43448" lon="1.16322">
        <ele>111.3</ele>
        <time>2022-02-27T09:47:02Z</time>
      </trkpt>
      <trkpt lat="49.43448" lon="1.16317">
        <ele>111.1</ele>
        <time>2022-02-27T09:47:03Z</time>
      </trkpt>
      <trkpt lat="49.43448" lon="1.16316">
        <ele>111.1</ele>
        <time>2022-02-27T09:47:04Z</time>
      </trkpt>
      <trkpt lat="49.43449" lon="1.16309">
        <ele>110.8</ele>
        <time>2022-02-27T09:47:05Z</time>
      </trkpt>
      <trkpt lat="49.4345" lon="1.16298">
        <ele>110.4</ele>
        <time>2022-02-27T09:47:07Z</time>
      </trkpt>
      <trkpt lat="49.4345" lon="1.16291">
        <ele>110.1</ele>
        <time>2022-02-27T09:47:09Z</time>
      </trkpt>
      <trkpt lat="49.4345" lon="1.16285">
        <ele>109.9</ele>
        <time>2022-02-27T09:47:10Z</time>
      </trkpt>
      <trkpt lat="49.43451" lon="1.16277">
        <ele>109.7</ele>
        <time>2022-02-27T09:47:12Z</time>
      </trkpt>
      <trkpt lat="49.43451" lon="1.16272">
        <ele>109.5</ele>
        <time>2022-02-27T09:47:13Z</time>
      </trkpt>
      <trkpt lat="49.43451" lon="1.1627">
        <ele>109.5</ele>
        <time>2022-02-27T09:47:14Z</time>
      </trkpt>
      <trkpt lat="49.43452" lon="1.16265">
        <ele>109.4</ele>
        <time>2022-02-27T09:47:15Z</time>
      </trkpt>
      <trkpt lat="49.43453" lon="1.1626">
        <ele>109.3</ele>
        <time>2022-02-27T09:47:17Z</time>
      </trkpt>
      <trkpt lat="49.43454" lon="1.16254">
        <ele>109.2</ele>
        <time>2022-02-27T09:47:18Z</time>
      </trkpt>
      <trkpt lat="49.43455" lon="1.16246">
        <ele>109.1</ele>
        <time>2022-02-27T09:47:19Z</time>
      </trkpt>
      <trkpt lat="49.43458" lon="1.16237">
        <ele>109</ele>
        <time>2022-02-27T09:47:21Z</time>
      </trkpt>
      <trkpt lat="49.43459" lon="1.16231">
        <ele>108.9</ele>
        <time>2022-02-27T09:47:22Z</time>
      </trkpt>
      <trkpt lat="49.43458" lon="1.16224">
        <ele>108.9</ele>
        <time>2022-02-27T09:47:23Z</time>
      </trkpt>
      <trkpt lat="49.43459" lon="1.16219">
        <ele>109</ele>
        <time>2022-02-27T09:47:24Z</time>
      </trkpt>
      <trkpt lat="49.4346" lon="1.16215">
        <ele>109</ele>
        <time>2022-02-27T09:47:25Z</time>
      </trkpt>
      <trkpt lat="49.43461" lon="1.16209">
        <ele>109</ele>
        <time>2022-02-27T09:47:26Z</time>
      </trkpt>
      <trkpt lat="49.43462" lon="1.16206">
        <ele>109.1</ele>
        <time>2022-02-27T09:47:27Z</time>
      </trkpt>
      <trkpt lat="49.43462" lon="1.162">
        <ele>109.1</ele>
        <time>2022-02-27T09:47:28Z</time>
      </trkpt>
      <trkpt lat="49.43462" lon="1.16195">
        <ele>109.2</ele>
        <time>2022-02-27T09:47:29Z</time>
      </trkpt>
      <trkpt lat="49.43464" lon="1.16186">
        <ele>109.3</ele>
        <time>2022-02-27T09:47:31Z</time>
      </trkpt>
      <trkpt lat="49.43465" lon="1.1618">
        <ele>109.4</ele>
        <time>2022-02-27T09:47:32Z</time>
      </trkpt>
      <trkpt lat="49.43465" lon="1.16173">
        <ele>109.4</ele>
        <time>2022-02-27T09:47:33Z</time>
      </trkpt>
      <trkpt lat="49.43467" lon="1.16164">
        <ele>109.5</ele>
        <time>2022-02-27T09:47:35Z</time>
      </trkpt>
      <trkpt lat="49.43468" lon="1.16158">
        <ele>109.5</ele>
        <time>2022-02-27T09:47:36Z</time>
      </trkpt>
      <trkpt lat="49.43469" lon="1.16152">
        <ele>109.5</ele>
        <time>2022-02-27T09:47:37Z</time>
      </trkpt>
      <trkpt lat="49.4347" lon="1.1615">
        <ele>109.5</ele>
        <time>2022-02-27T09:47:38Z</time>
      </trkpt>
      <trkpt lat="49.43471" lon="1.16145">
        <ele>109.6</ele>
        <time>2022-02-27T09:47:39Z</time>
      </trkpt>
      <trkpt lat="49.43471" lon="1.16142">
        <ele>109.6</ele>
        <time>2022-02-27T09:47:40Z</time>
      </trkpt>
      <trkpt lat="49.43472" lon="1.16138">
        <ele>109.6</ele>
        <time>2022-02-27T09:47:41Z</time>
      </trkpt>
      <trkpt lat="49.43473" lon="1.16132">
        <ele>109.7</ele>
        <time>2022-02-27T09:47:42Z</time>
      </trkpt>
      <trkpt lat="49.43474" lon="1.16128">
        <ele>109.7</ele>
        <time>2022-02-27T09:47:43Z</time>
      </trkpt>
      <trkpt lat="49.43476" lon="1.16122">
        <ele>109.7</ele>
        <time>2022-02-27T09:47:44Z</time>
      </trkpt>
      <trkpt lat="49.43476" lon="1.16116">
        <ele>109.8</ele>
        <time>2022-02-27T09:47:45Z</time>
      </trkpt>
      <trkpt lat="49.43477" lon="1.1611">
        <ele>109.8</ele>
        <time>2022-02-27T09:47:46Z</time>
      </trkpt>
      <trkpt lat="49.43478" lon="1.16106">
        <ele>109.8</ele>
        <time>2022-02-27T09:47:47Z</time>
      </trkpt>
      <trkpt lat="49.4348" lon="1.16101">
        <ele>109.9</ele>
        <time>2022-02-27T09:47:48Z</time>
      </trkpt>
      <trkpt lat="49.43482" lon="1.16098">
        <ele>109.9</ele>
        <time>2022-02-27T09:47:49Z</time>
      </trkpt>
      <trkpt lat="49.43484" lon="1.16093">
        <ele>110</ele>
        <time>2022-02-27T09:47:50Z</time>
      </trkpt>
      <trkpt lat="49.43485" lon="1.16087">
        <ele>110</ele>
        <time>2022-02-27T09:47:51Z</time>
      </trkpt>
      <trkpt lat="49.43485" lon="1.16086">
        <ele>110</ele>
        <time>2022-02-27T09:47:52Z</time>
      </trkpt>
      <trkpt lat="49.43486" lon="1.1608">
        <ele>110.1</ele>
        <time>2022-02-27T09:47:53Z</time>
      </trkpt>
      <trkpt lat="49.43486" lon="1.16078">
        <ele>110.1</ele>
        <time>2022-02-27T09:47:54Z</time>
      </trkpt>
      <trkpt lat="49.43487" lon="1.16072">
        <ele>110.1</ele>
        <time>2022-02-27T09:47:56Z</time>
      </trkpt>
      <trkpt lat="49.43488" lon="1.16068">
        <ele>110.2</ele>
        <time>2022-02-27T09:47:57Z</time>
      </trkpt>
      <trkpt lat="49.4349" lon="1.16061">
        <ele>110.2</ele>
        <time>2022-02-27T09:47:58Z</time>
      </trkpt>
      <trkpt lat="49.43491" lon="1.16056">
        <ele>110.2</ele>
        <time>2022-02-27T09:47:59Z</time>
      </trkpt>
      <trkpt lat="49.43493" lon="1.1605">
        <ele>110.3</ele>
        <time>2022-02-27T09:48:01Z</time>
      </trkpt>
      <trkpt lat="49.43494" lon="1.16044">
        <ele>110.3</ele>
        <time>2022-02-27T09:48:02Z</time>
      </trkpt>
      <trkpt lat="49.43495" lon="1.16038">
        <ele>110.3</ele>
        <time>2022-02-27T09:48:03Z</time>
      </trkpt>
      <trkpt lat="49.43496" lon="1.16033">
        <ele>110.4</ele>
        <time>2022-02-27T09:48:05Z</time>
      </trkpt>
      <trkpt lat="49.43497" lon="1.16029">
        <ele>110.4</ele>
        <time>2022-02-27T09:48:06Z</time>
      </trkpt>
      <trkpt lat="49.43498" lon="1.16023">
        <ele>110.4</ele>
        <time>2022-02-27T09:48:08Z</time>
      </trkpt>
      <trkpt lat="49.435" lon="1.16017">
        <ele>110.4</ele>
        <time>2022-02-27T09:48:09Z</time>
      </trkpt>
      <trkpt lat="49.43501" lon="1.1601">
        <ele>110.5</ele>
        <time>2022-02-27T09:48:10Z</time>
      </trkpt>
      <trkpt lat="49.43502" lon="1.16004">
        <ele>110.5</ele>
        <time>2022-02-27T09:48:12Z</time>
      </trkpt>
      <trkpt lat="49.43504" lon="1.16">
        <ele>110.5</ele>
        <time>2022-02-27T09:48:13Z</time>
      </trkpt>
      <trkpt lat="49.43505" lon="1.15995">
        <ele>110.5</ele>
        <time>2022-02-27T09:48:14Z</time>
      </trkpt>
      <trkpt lat="49.43506" lon="1.15991">
        <ele>110.5</ele>
        <time>2022-02-27T09:48:15Z</time>
      </trkpt>
      <trkpt lat="49.43507" lon="1.15985">
        <ele>110.5</ele>
        <time>2022-02-27T09:48:16Z</time>
      </trkpt>
      <trkpt lat="49.43508" lon="1.15984">
        <ele>110.5</ele>
        <time>2022-02-27T09:48:17Z</time>
      </trkpt>
      <trkpt lat="49.4351" lon="1.15977">
        <ele>110.5</ele>
        <time>2022-02-27T09:48:18Z</time>
      </trkpt>
      <trkpt lat="49.43511" lon="1.15972">
        <ele>110.5</ele>
        <time>2022-02-27T09:48:20Z</time>
      </trkpt>
      <trkpt lat="49.43513" lon="1.15968">
        <ele>110.5</ele>
        <time>2022-02-27T09:48:21Z</time>
      </trkpt>
      <trkpt lat="49.43513" lon="1.15967">
        <ele>110.5</ele>
        <time>2022-02-27T09:48:22Z</time>
      </trkpt>
      <trkpt lat="49.43514" lon="1.15965">
        <ele>110.5</ele>
        <time>2022-02-27T09:48:23Z</time>
      </trkpt>
      <trkpt lat="49.43515" lon="1.15962">
        <ele>110.5</ele>
        <time>2022-02-27T09:48:25Z</time>
      </trkpt>
      <trkpt lat="49.43517" lon="1.1596">
        <ele>113.4</ele>
        <time>2022-02-27T09:48:27Z</time>
      </trkpt>
      <trkpt lat="49.43518" lon="1.15959">
        <ele>113.7</ele>
        <time>2022-02-27T09:48:28Z</time>
      </trkpt>
      <trkpt lat="49.43519" lon="1.15957">
        <ele>114.1</ele>
        <time>2022-02-27T09:48:30Z</time>
      </trkpt>
      <trkpt lat="49.43519" lon="1.15956">
        <ele>114.2</ele>
        <time>2022-02-27T09:48:31Z</time>
      </trkpt>
      <trkpt lat="49.43519" lon="1.15956">
        <ele>114.3</ele>
        <time>2022-02-27T09:48:32Z</time>
      </trkpt>
      <trkpt lat="49.4352" lon="1.15955">
        <ele>114.5</ele>
        <time>2022-02-27T09:48:33Z</time>
      </trkpt>
      <trkpt lat="49.43521" lon="1.15955">
        <ele>114.7</ele>
        <time>2022-02-27T09:48:34Z</time>
      </trkpt>
      <trkpt lat="49.43522" lon="1.15956">
        <ele>115</ele>
        <time>2022-02-27T09:48:35Z</time>
      </trkpt>
      <trkpt lat="49.43523" lon="1.15957">
        <ele>115.2</ele>
        <time>2022-02-27T09:48:36Z</time>
      </trkpt>
      <trkpt lat="49.43523" lon="1.15958">
        <ele>115.4</ele>
        <time>2022-02-27T09:48:37Z</time>
      </trkpt>
      <trkpt lat="49.43523" lon="1.1596">
        <ele>115.7</ele>
        <time>2022-02-27T09:48:38Z</time>
      </trkpt>
      <trkpt lat="49.43523" lon="1.15964">
        <ele>116.3</ele>
        <time>2022-02-27T09:48:40Z</time>
      </trkpt>
      <trkpt lat="49.43521" lon="1.15965">
        <ele>116.8</ele>
        <time>2022-02-27T09:48:41Z</time>
      </trkpt>
      <trkpt lat="49.4352" lon="1.15967">
        <ele>117.1</ele>
        <time>2022-02-27T09:48:42Z</time>
      </trkpt>
      <trkpt lat="49.4352" lon="1.15968">
        <ele>117.4</ele>
        <time>2022-02-27T09:48:43Z</time>
      </trkpt>
      <trkpt lat="49.43519" lon="1.15969">
        <ele>117.6</ele>
        <time>2022-02-27T09:48:45Z</time>
      </trkpt>
      <trkpt lat="49.4352" lon="1.15969">
        <ele>117.7</ele>
        <time>2022-02-27T09:48:46Z</time>
      </trkpt>
      <trkpt lat="49.4352" lon="1.15969">
        <ele>117.8</ele>
        <time>2022-02-27T09:48:47Z</time>
      </trkpt>
      <trkpt lat="49.43521" lon="1.15968">
        <ele>118</ele>
        <time>2022-02-27T09:48:48Z</time>
      </trkpt>
      <trkpt lat="49.43522" lon="1.15968">
        <ele>118.4</ele>
        <time>2022-02-27T09:48:49Z</time>
      </trkpt>
      <trkpt lat="49.43523" lon="1.15965">
        <ele>118.8</ele>
        <time>2022-02-27T09:48:51Z</time>
      </trkpt>
      <trkpt lat="49.43523" lon="1.15965">
        <ele>119</ele>
        <time>2022-02-27T09:48:52Z</time>
      </trkpt>
      <trkpt lat="49.43523" lon="1.15964">
        <ele>119.1</ele>
        <time>2022-02-27T09:48:54Z</time>
      </trkpt>
      <trkpt lat="49.43524" lon="1.15965">
        <ele>119.3</ele>
        <time>2022-02-27T09:48:55Z</time>
      </trkpt>
      <trkpt lat="49.43524" lon="1.15964">
        <ele>119.4</ele>
        <time>2022-02-27T09:48:56Z</time>
      </trkpt>
      <trkpt lat="49.43524" lon="1.15965">
        <ele>119.6</ele>
        <time>2022-02-27T09:48:58Z</time>
      </trkpt>
      <trkpt lat="49.43525" lon="1.15965">
        <ele>119.8</ele>
        <time>2022-02-27T09:48:59Z</time>
      </trkpt>
      <trkpt lat="49.43526" lon="1.15965">
        <ele>120.1</ele>
        <time>2022-02-27T09:49:00Z</time>
      </trkpt>
      <trkpt lat="49.43527" lon="1.15964">
        <ele>120.3</ele>
        <time>2022-02-27T09:49:01Z</time>
      </trkpt>
      <trkpt lat="49.43528" lon="1.15964">
        <ele>120.6</ele>
        <time>2022-02-27T09:49:02Z</time>
      </trkpt>
      <trkpt lat="49.43529" lon="1.15964">
        <ele>120.9</ele>
        <time>2022-02-27T09:49:04Z</time>
      </trkpt>
      <trkpt lat="49.43531" lon="1.15963">
        <ele>121.3</ele>
        <time>2022-02-27T09:49:05Z</time>
      </trkpt>
      <trkpt lat="49.43532" lon="1.15963">
        <ele>121.7</ele>
        <time>2022-02-27T09:49:07Z</time>
      </trkpt>
      <trkpt lat="49.43533" lon="1.15964">
        <ele>121.9</ele>
        <time>2022-02-27T09:49:08Z</time>
      </trkpt>
      <trkpt lat="49.43534" lon="1.15964">
        <ele>122.1</ele>
        <time>2022-02-27T09:49:09Z</time>
      </trkpt>
      <trkpt lat="49.43534" lon="1.15965">
        <ele>122.4</ele>
        <time>2022-02-27T09:49:10Z</time>
      </trkpt>
      <trkpt lat="49.43536" lon="1.15966">
        <ele>122.8</ele>
        <time>2022-02-27T09:49:12Z</time>
      </trkpt>
      <trkpt lat="49.43536" lon="1.15966">
        <ele>122.9</ele>
        <time>2022-02-27T09:49:13Z</time>
      </trkpt>
      <trkpt lat="49.43536" lon="1.15966">
        <ele>123</ele>
        <time>2022-02-27T09:49:14Z</time>
      </trkpt>
      <trkpt lat="49.43537" lon="1.15966">
        <ele>123.2</ele>
        <time>2022-02-27T09:49:15Z</time>
      </trkpt>
      <trkpt lat="49.43538" lon="1.15966">
        <ele>123.5</ele>
        <time>2022-02-27T09:49:17Z</time>
      </trkpt>
      <trkpt lat="49.43539" lon="1.15966">
        <ele>123.7</ele>
        <time>2022-02-27T09:49:18Z</time>
      </trkpt>
      <trkpt lat="49.4354" lon="1.15966">
        <ele>124</ele>
        <time>2022-02-27T09:49:19Z</time>
      </trkpt>
      <trkpt lat="49.4354" lon="1.15966">
        <ele>124.1</ele>
        <time>2022-02-27T09:49:20Z</time>
      </trkpt>
      <trkpt lat="49.43541" lon="1.15966">
        <ele>124.3</ele>
        <time>2022-02-27T09:49:21Z</time>
      </trkpt>
      <trkpt lat="49.43542" lon="1.15967">
        <ele>124.6</ele>
        <time>2022-02-27T09:49:23Z</time>
      </trkpt>
      <trkpt lat="49.43543" lon="1.15967">
        <ele>124.8</ele>
        <time>2022-02-27T09:49:24Z</time>
      </trkpt>
      <trkpt lat="49.43544" lon="1.15966">
        <ele>125</ele>
        <time>2022-02-27T09:49:25Z</time>
      </trkpt>
      <trkpt lat="49.43546" lon="1.15966">
        <ele>125.5</ele>
        <time>2022-02-27T09:49:27Z</time>
      </trkpt>
      <trkpt lat="49.43547" lon="1.15966">
        <ele>125.8</ele>
        <time>2022-02-27T09:49:28Z</time>
      </trkpt>
      <trkpt lat="49.43548" lon="1.15966">
        <ele>126.2</ele>
        <time>2022-02-27T09:49:29Z</time>
      </trkpt>
      <trkpt lat="49.43549" lon="1.15967">
        <ele>126.5</ele>
        <time>2022-02-27T09:49:30Z</time>
      </trkpt>
      <trkpt lat="49.4355" lon="1.15968">
        <ele>126.8</ele>
        <time>2022-02-27T09:49:31Z</time>
      </trkpt>
      <trkpt lat="49.43552" lon="1.15969">
        <ele>127.1</ele>
        <time>2022-02-27T09:49:32Z</time>
      </trkpt>
      <trkpt lat="49.43552" lon="1.15969">
        <ele>127.3</ele>
        <time>2022-02-27T09:49:33Z</time>
      </trkpt>
      <trkpt lat="49.43553" lon="1.1597">
        <ele>127.5</ele>
        <time>2022-02-27T09:49:34Z</time>
      </trkpt>
      <trkpt lat="49.43553" lon="1.15973">
        <ele>127.9</ele>
        <time>2022-02-27T09:49:35Z</time>
      </trkpt>
      <trkpt lat="49.43552" lon="1.15976">
        <ele>128.3</ele>
        <time>2022-02-27T09:49:37Z</time>
      </trkpt>
      <trkpt lat="49.43552" lon="1.15976">
        <ele>128.4</ele>
        <time>2022-02-27T09:49:38Z</time>
      </trkpt>
      <trkpt lat="49.43552" lon="1.15976">
        <ele>128.5</ele>
        <time>2022-02-27T09:49:39Z</time>
      </trkpt>
      <trkpt lat="49.43552" lon="1.15976">
        <ele>128.5</ele>
        <time>2022-02-27T09:49:40Z</time>
      </trkpt>
      <trkpt lat="49.43552" lon="1.15975">
        <ele>128.6</ele>
        <time>2022-02-27T09:49:41Z</time>
      </trkpt>
      <trkpt lat="49.43552" lon="1.15975">
        <ele>128.7</ele>
        <time>2022-02-27T09:49:42Z</time>
      </trkpt>
      <trkpt lat="49.43552" lon="1.15974">
        <ele>128.7</ele>
        <time>2022-02-27T09:49:43Z</time>
      </trkpt>
      <trkpt lat="49.43552" lon="1.15974">
        <ele>128.8</ele>
        <time>2022-02-27T09:49:44Z</time>
      </trkpt>
      <trkpt lat="49.43552" lon="1.15974">
        <ele>128.8</ele>
        <time>2022-02-27T09:49:45Z</time>
      </trkpt>
      <trkpt lat="49.43552" lon="1.15974">
        <ele>128.9</ele>
        <time>2022-02-27T09:49:46Z</time>
      </trkpt>
      <trkpt lat="49.43552" lon="1.15973">
        <ele>128.9</ele>
        <time>2022-02-27T09:49:47Z</time>
      </trkpt>
      <trkpt lat="49.43552" lon="1.15973">
        <ele>128.9</ele>
        <time>2022-02-27T09:49:48Z</time>
      </trkpt>
      <trkpt lat="49.43552" lon="1.15973">
        <ele>129</ele>
        <time>2022-02-27T09:49:49Z</time>
      </trkpt>
      <trkpt lat="49.43552" lon="1.15973">
        <ele>129</ele>
        <time>2022-02-27T09:49:50Z</time>
      </trkpt>
      <trkpt lat="49.43552" lon="1.15974">
        <ele>129.1</ele>
        <time>2022-02-27T09:49:51Z</time>
      </trkpt>
      <trkpt lat="49.43552" lon="1.15974">
        <ele>129.1</ele>
        <time>2022-02-27T09:49:52Z</time>
      </trkpt>
      <trkpt lat="49.43552" lon="1.15974">
        <ele>129.1</ele>
        <time>2022-02-27T09:49:53Z</time>
      </trkpt>
      <trkpt lat="49.43553" lon="1.15974">
        <ele>129.2</ele>
        <time>2022-02-27T09:49:54Z</time>
      </trkpt>
      <trkpt lat="49.43553" lon="1.15975">
        <ele>129.3</ele>
        <time>2022-02-27T09:49:55Z</time>
      </trkpt>
      <trkpt lat="49.43555" lon="1.15975">
        <ele>129.7</ele>
        <time>2022-02-27T09:49:57Z</time>
      </trkpt>
      <trkpt lat="49.43556" lon="1.15976">
        <ele>129.9</ele>
        <time>2022-02-27T09:49:58Z</time>
      </trkpt>
      <trkpt lat="49.43556" lon="1.15976">
        <ele>130.1</ele>
        <time>2022-02-27T09:49:59Z</time>
      </trkpt>
      <trkpt lat="49.43557" lon="1.15977">
        <ele>130.2</ele>
        <time>2022-02-27T09:50:00Z</time>
      </trkpt>
      <trkpt lat="49.43557" lon="1.15978">
        <ele>130.4</ele>
        <time>2022-02-27T09:50:01Z</time>
      </trkpt>
      <trkpt lat="49.43557" lon="1.15979">
        <ele>130.6</ele>
        <time>2022-02-27T09:50:02Z</time>
      </trkpt>
      <trkpt lat="49.43557" lon="1.1598">
        <ele>130.7</ele>
        <time>2022-02-27T09:50:03Z</time>
      </trkpt>
      <trkpt lat="49.43558" lon="1.1598">
        <ele>130.8</ele>
        <time>2022-02-27T09:50:04Z</time>
      </trkpt>
      <trkpt lat="49.43558" lon="1.15981">
        <ele>130.9</ele>
        <time>2022-02-27T09:50:05Z</time>
      </trkpt>
      <trkpt lat="49.43558" lon="1.15981">
        <ele>131</ele>
        <time>2022-02-27T09:50:06Z</time>
      </trkpt>
      <trkpt lat="49.43559" lon="1.15983">
        <ele>131</ele>
        <time>2022-02-27T09:50:07Z</time>
      </trkpt>
      <trkpt lat="49.4356" lon="1.15984">
        <ele>131.1</ele>
        <time>2022-02-27T09:50:08Z</time>
      </trkpt>
      <trkpt lat="49.43561" lon="1.15983">
        <ele>131.1</ele>
        <time>2022-02-27T09:50:10Z</time>
      </trkpt>
      <trkpt lat="49.43562" lon="1.15984">
        <ele>131.2</ele>
        <time>2022-02-27T09:50:12Z</time>
      </trkpt>
      <trkpt lat="49.43563" lon="1.15984">
        <ele>131.2</ele>
        <time>2022-02-27T09:50:13Z</time>
      </trkpt>
      <trkpt lat="49.43564" lon="1.15984">
        <ele>131.3</ele>
        <time>2022-02-27T09:50:14Z</time>
      </trkpt>
      <trkpt lat="49.43565" lon="1.15984">
        <ele>131.3</ele>
        <time>2022-02-27T09:50:15Z</time>
      </trkpt>
      <trkpt lat="49.43566" lon="1.15984">
        <ele>131.4</ele>
        <time>2022-02-27T09:50:17Z</time>
      </trkpt>
      <trkpt lat="49.43565" lon="1.15983">
        <ele>131.5</ele>
        <time>2022-02-27T09:50:18Z</time>
      </trkpt>
      <trkpt lat="49.43564" lon="1.15983">
        <ele>131.5</ele>
        <time>2022-02-27T09:50:19Z</time>
      </trkpt>
      <trkpt lat="49.43564" lon="1.15983">
        <ele>131.5</ele>
        <time>2022-02-27T09:50:20Z</time>
      </trkpt>
      <trkpt lat="49.43564" lon="1.15984">
        <ele>131.5</ele>
        <time>2022-02-27T09:50:22Z</time>
      </trkpt>
      <trkpt lat="49.43565" lon="1.15986">
        <ele>131.6</ele>
        <time>2022-02-27T09:50:23Z</time>
      </trkpt>
      <trkpt lat="49.43566" lon="1.15987">
        <ele>131.7</ele>
        <time>2022-02-27T09:50:25Z</time>
      </trkpt>
      <trkpt lat="49.43567" lon="1.15986">
        <ele>131.7</ele>
        <time>2022-02-27T09:50:26Z</time>
      </trkpt>
      <trkpt lat="49.43568" lon="1.15985">
        <ele>131.8</ele>
        <time>2022-02-27T09:50:27Z</time>
      </trkpt>
      <trkpt lat="49.43568" lon="1.15984">
        <ele>131.8</ele>
        <time>2022-02-27T09:50:28Z</time>
      </trkpt>
      <trkpt lat="49.43569" lon="1.15984">
        <ele>131.8</ele>
        <time>2022-02-27T09:50:29Z</time>
      </trkpt>
      <trkpt lat="49.4357" lon="1.15987">
        <ele>131.9</ele>
        <time>2022-02-27T09:50:30Z</time>
      </trkpt>
      <trkpt lat="49.4357" lon="1.15987">
        <ele>131.9</ele>
        <time>2022-02-27T09:50:31Z</time>
      </trkpt>
      <trkpt lat="49.43571" lon="1.15986">
        <ele>132</ele>
        <time>2022-02-27T09:50:32Z</time>
      </trkpt>
      <trkpt lat="49.43572" lon="1.15986">
        <ele>132</ele>
        <time>2022-02-27T09:50:33Z</time>
      </trkpt>
      <trkpt lat="49.43572" lon="1.15985">
        <ele>132</ele>
        <time>2022-02-27T09:50:34Z</time>
      </trkpt>
      <trkpt lat="49.43571" lon="1.15984">
        <ele>132</ele>
        <time>2022-02-27T09:50:35Z</time>
      </trkpt>
      <trkpt lat="49.43572" lon="1.15984">
        <ele>132</ele>
        <time>2022-02-27T09:50:36Z</time>
      </trkpt>
      <trkpt lat="49.43572" lon="1.15983">
        <ele>132.1</ele>
        <time>2022-02-27T09:50:37Z</time>
      </trkpt>
      <trkpt lat="49.43573" lon="1.15982">
        <ele>132.1</ele>
        <time>2022-02-27T09:50:38Z</time>
      </trkpt>
      <trkpt lat="49.43573" lon="1.15982">
        <ele>132.1</ele>
        <time>2022-02-27T09:50:39Z</time>
      </trkpt>
      <trkpt lat="49.43574" lon="1.15981">
        <ele>132.2</ele>
        <time>2022-02-27T09:50:41Z</time>
      </trkpt>
      <trkpt lat="49.43575" lon="1.15981">
        <ele>132.2</ele>
        <time>2022-02-27T09:50:42Z</time>
      </trkpt>
      <trkpt lat="49.43575" lon="1.15981">
        <ele>132.2</ele>
        <time>2022-02-27T09:50:43Z</time>
      </trkpt>
      <trkpt lat="49.43575" lon="1.1598">
        <ele>132.2</ele>
        <time>2022-02-27T09:50:44Z</time>
      </trkpt>
      <trkpt lat="49.43576" lon="1.1598">
        <ele>132.2</ele>
        <time>2022-02-27T09:50:46Z</time>
      </trkpt>
      <trkpt lat="49.43576" lon="1.1598">
        <ele>132.2</ele>
        <time>2022-02-27T09:50:47Z</time>
      </trkpt>
      <trkpt lat="49.43576" lon="1.1598">
        <ele>132.2</ele>
        <time>2022-02-27T09:50:48Z</time>
      </trkpt>
      <trkpt lat="49.43579" lon="1.15976">
        <ele>132.4</ele>
        <time>2022-02-27T09:51:02Z</time>
      </trkpt>
      <trkpt lat="49.43579" lon="1.15976">
        <ele>132.4</ele>
        <time>2022-02-27T09:51:03Z</time>
      </trkpt>
      <trkpt lat="49.4358" lon="1.15976">
        <ele>132.4</ele>
        <time>2022-02-27T09:51:04Z</time>
      </trkpt>
      <trkpt lat="49.43581" lon="1.15975">
        <ele>132.4</ele>
        <time>2022-02-27T09:51:05Z</time>
      </trkpt>
      <trkpt lat="49.43582" lon="1.15974">
        <ele>132.5</ele>
        <time>2022-02-27T09:51:07Z</time>
      </trkpt>
      <trkpt lat="49.43583" lon="1.15973">
        <ele>132.5</ele>
        <time>2022-02-27T09:51:08Z</time>
      </trkpt>
      <trkpt lat="49.43584" lon="1.15973">
        <ele>132.5</ele>
        <time>2022-02-27T09:51:09Z</time>
      </trkpt>
      <trkpt lat="49.43585" lon="1.15973">
        <ele>132.6</ele>
        <time>2022-02-27T09:51:10Z</time>
      </trkpt>
      <trkpt lat="49.43586" lon="1.15974">
        <ele>132.6</ele>
        <time>2022-02-27T09:51:11Z</time>
      </trkpt>
      <trkpt lat="49.43587" lon="1.15975">
        <ele>132.6</ele>
        <time>2022-02-27T09:51:13Z</time>
      </trkpt>
      <trkpt lat="49.43588" lon="1.15976">
        <ele>132.7</ele>
        <time>2022-02-27T09:51:14Z</time>
      </trkpt>
      <trkpt lat="49.43589" lon="1.15978">
        <ele>132.7</ele>
        <time>2022-02-27T09:51:15Z</time>
      </trkpt>
      <trkpt lat="49.4359" lon="1.15979">
        <ele>132.7</ele>
        <time>2022-02-27T09:51:17Z</time>
      </trkpt>
      <trkpt lat="49.4359" lon="1.15979">
        <ele>132.8</ele>
        <time>2022-02-27T09:51:18Z</time>
      </trkpt>
      <trkpt lat="49.43592" lon="1.15979">
        <ele>132.8</ele>
        <time>2022-02-27T09:51:19Z</time>
      </trkpt>
      <trkpt lat="49.43593" lon="1.1598">
        <ele>132.8</ele>
        <time>2022-02-27T09:51:21Z</time>
      </trkpt>
      <trkpt lat="49.43594" lon="1.15981">
        <ele>132.8</ele>
        <time>2022-02-27T09:51:22Z</time>
      </trkpt>
      <trkpt lat="49.43595" lon="1.15982">
        <ele>132.9</ele>
        <time>2022-02-27T09:51:23Z</time>
      </trkpt>
      <trkpt lat="49.43595" lon="1.15984">
        <ele>132.9</ele>
        <time>2022-02-27T09:51:24Z</time>
      </trkpt>
      <trkpt lat="49.43595" lon="1.15987">
        <ele>132.9</ele>
        <time>2022-02-27T09:51:25Z</time>
      </trkpt>
      <trkpt lat="49.43596" lon="1.15988">
        <ele>133</ele>
        <time>2022-02-27T09:51:26Z</time>
      </trkpt>
      <trkpt lat="49.43597" lon="1.1599">
        <ele>133</ele>
        <time>2022-02-27T09:51:28Z</time>
      </trkpt>
      <trkpt lat="49.43599" lon="1.15989">
        <ele>133</ele>
        <time>2022-02-27T09:51:29Z</time>
      </trkpt>
      <trkpt lat="49.43602" lon="1.15991">
        <ele>133.1</ele>
        <time>2022-02-27T09:51:30Z</time>
      </trkpt>
      <trkpt lat="49.43603" lon="1.15992">
        <ele>133.1</ele>
        <time>2022-02-27T09:51:31Z</time>
      </trkpt>
      <trkpt lat="49.43606" lon="1.15991">
        <ele>133.2</ele>
        <time>2022-02-27T09:51:33Z</time>
      </trkpt>
      <trkpt lat="49.43607" lon="1.15991">
        <ele>133.2</ele>
        <time>2022-02-27T09:51:34Z</time>
      </trkpt>
      <trkpt lat="49.43609" lon="1.15992">
        <ele>133.2</ele>
        <time>2022-02-27T09:51:35Z</time>
      </trkpt>
      <trkpt lat="49.4361" lon="1.15992">
        <ele>133.2</ele>
        <time>2022-02-27T09:51:36Z</time>
      </trkpt>
      <trkpt lat="49.43613" lon="1.15994">
        <ele>133.2</ele>
        <time>2022-02-27T09:51:37Z</time>
      </trkpt>
      <trkpt lat="49.43614" lon="1.15995">
        <ele>133.2</ele>
        <time>2022-02-27T09:51:38Z</time>
      </trkpt>
      <trkpt lat="49.43618" lon="1.15997">
        <ele>133.2</ele>
        <time>2022-02-27T09:51:39Z</time>
      </trkpt>
      <trkpt lat="49.43619" lon="1.15997">
        <ele>133.2</ele>
        <time>2022-02-27T09:51:40Z</time>
      </trkpt>
      <trkpt lat="49.43622" lon="1.16">
        <ele>133.2</ele>
        <time>2022-02-27T09:51:42Z</time>
      </trkpt>
      <trkpt lat="49.43625" lon="1.16001">
        <ele>133.2</ele>
        <time>2022-02-27T09:51:43Z</time>
      </trkpt>
      <trkpt lat="49.4363" lon="1.16002">
        <ele>133.2</ele>
        <time>2022-02-27T09:51:44Z</time>
      </trkpt>
      <trkpt lat="49.43633" lon="1.16003">
        <ele>133.3</ele>
        <time>2022-02-27T09:51:45Z</time>
      </trkpt>
      <trkpt lat="49.43637" lon="1.16004">
        <ele>133.3</ele>
        <time>2022-02-27T09:51:47Z</time>
      </trkpt>
      <trkpt lat="49.4364" lon="1.16005">
        <ele>133.3</ele>
        <time>2022-02-27T09:51:48Z</time>
      </trkpt>
      <trkpt lat="49.43645" lon="1.16006">
        <ele>133.3</ele>
        <time>2022-02-27T09:51:50Z</time>
      </trkpt>
      <trkpt lat="49.43648" lon="1.16006">
        <ele>133.4</ele>
        <time>2022-02-27T09:51:51Z</time>
      </trkpt>
      <trkpt lat="49.43651" lon="1.16007">
        <ele>133.4</ele>
        <time>2022-02-27T09:51:52Z</time>
      </trkpt>
      <trkpt lat="49.43652" lon="1.16007">
        <ele>133.4</ele>
        <time>2022-02-27T09:51:53Z</time>
      </trkpt>
      <trkpt lat="49.43657" lon="1.16007">
        <ele>133.5</ele>
        <time>2022-02-27T09:51:55Z</time>
      </trkpt>
      <trkpt lat="49.4366" lon="1.16008">
        <ele>133.5</ele>
        <time>2022-02-27T09:51:56Z</time>
      </trkpt>
      <trkpt lat="49.43663" lon="1.16008">
        <ele>133.6</ele>
        <time>2022-02-27T09:51:58Z</time>
      </trkpt>
      <trkpt lat="49.43664" lon="1.16008">
        <ele>133.6</ele>
        <time>2022-02-27T09:51:59Z</time>
      </trkpt>
      <trkpt lat="49.43667" lon="1.16009">
        <ele>133.6</ele>
        <time>2022-02-27T09:52:00Z</time>
      </trkpt>
      <trkpt lat="49.43668" lon="1.16009">
        <ele>133.7</ele>
        <time>2022-02-27T09:52:01Z</time>
      </trkpt>
      <trkpt lat="49.43669" lon="1.16008">
        <ele>133.7</ele>
        <time>2022-02-27T09:52:02Z</time>
      </trkpt>
      <trkpt lat="49.43671" lon="1.16007">
        <ele>133.7</ele>
        <time>2022-02-27T09:52:03Z</time>
      </trkpt>
      <trkpt lat="49.43671" lon="1.16005">
        <ele>133.7</ele>
        <time>2022-02-27T09:52:04Z</time>
      </trkpt>
      <trkpt lat="49.43672" lon="1.16004">
        <ele>133.7</ele>
        <time>2022-02-27T09:52:05Z</time>
      </trkpt>
      <trkpt lat="49.43672" lon="1.16003">
        <ele>133.8</ele>
        <time>2022-02-27T09:52:06Z</time>
      </trkpt>
      <trkpt lat="49.43673" lon="1.16002">
        <ele>133.8</ele>
        <time>2022-02-27T09:52:07Z</time>
      </trkpt>
      <trkpt lat="49.43674" lon="1.16002">
        <ele>133.8</ele>
        <time>2022-02-27T09:52:08Z</time>
      </trkpt>
      <trkpt lat="49.43675" lon="1.16002">
        <ele>133.8</ele>
        <time>2022-02-27T09:52:10Z</time>
      </trkpt>
      <trkpt lat="49.43676" lon="1.16001">
        <ele>133.8</ele>
        <time>2022-02-27T09:52:11Z</time>
      </trkpt>
      <trkpt lat="49.43677" lon="1.16">
        <ele>133.8</ele>
        <time>2022-02-27T09:52:13Z</time>
      </trkpt>
      <trkpt lat="49.43679" lon="1.15997">
        <ele>133.8</ele>
        <time>2022-02-27T09:52:15Z</time>
      </trkpt>
      <trkpt lat="49.43679" lon="1.15996">
        <ele>133.8</ele>
        <time>2022-02-27T09:52:16Z</time>
      </trkpt>
      <trkpt lat="49.4368" lon="1.15995">
        <ele>133.9</ele>
        <time>2022-02-27T09:52:17Z</time>
      </trkpt>
      <trkpt lat="49.43681" lon="1.15994">
        <ele>133.9</ele>
        <time>2022-02-27T09:52:18Z</time>
      </trkpt>
      <trkpt lat="49.43681" lon="1.15994">
        <ele>133.9</ele>
        <time>2022-02-27T09:52:20Z</time>
      </trkpt>
      <trkpt lat="49.43681" lon="1.15993">
        <ele>133.9</ele>
        <time>2022-02-27T09:52:21Z</time>
      </trkpt>
      <trkpt lat="49.43681" lon="1.15993">
        <ele>133.9</ele>
        <time>2022-02-27T09:52:22Z</time>
      </trkpt>
      <trkpt lat="49.43681" lon="1.15993">
        <ele>133.9</ele>
        <time>2022-02-27T09:52:23Z</time>
      </trkpt>
      <trkpt lat="49.43682" lon="1.15992">
        <ele>133.9</ele>
        <time>2022-02-27T09:52:25Z</time>
      </trkpt>
      <trkpt lat="49.43682" lon="1.15992">
        <ele>134</ele>
        <time>2022-02-27T09:52:26Z</time>
      </trkpt>
      <trkpt lat="49.43682" lon="1.15992">
        <ele>134</ele>
        <time>2022-02-27T09:52:27Z</time>
      </trkpt>
      <trkpt lat="49.43682" lon="1.15992">
        <ele>134</ele>
        <time>2022-02-27T09:52:28Z</time>
      </trkpt>
      <trkpt lat="49.43677" lon="1.15995">
        <ele>133.6</ele>
        <time>2022-02-27T09:55:43Z</time>
      </trkpt>
      <trkpt lat="49.43676" lon="1.15995">
        <ele>133.6</ele>
        <time>2022-02-27T09:55:44Z</time>
      </trkpt>
      <trkpt lat="49.43676" lon="1.15995">
        <ele>133.6</ele>
        <time>2022-02-27T09:55:45Z</time>
      </trkpt>
      <trkpt lat="49.43677" lon="1.15995">
        <ele>133.8</ele>
        <time>2022-02-27T09:55:46Z</time>
      </trkpt>
      <trkpt lat="49.43677" lon="1.15995">
        <ele>133.9</ele>
        <time>2022-02-27T09:55:47Z</time>
      </trkpt>
      <trkpt lat="49.43678" lon="1.15994">
        <ele>133.9</ele>
        <time>2022-02-27T09:55:48Z</time>
      </trkpt>
      <trkpt lat="49.43678" lon="1.15994">
        <ele>133.9</ele>
        <time>2022-02-27T09:55:49Z</time>
      </trkpt>
      <trkpt lat="49.4368" lon="1.15994">
        <ele>134.1</ele>
        <time>2022-02-27T09:55:50Z</time>
      </trkpt>
      <trkpt lat="49.43682" lon="1.15992">
        <ele>134.1</ele>
        <time>2022-02-27T09:55:52Z</time>
      </trkpt>
      <trkpt lat="49.43683" lon="1.15992">
        <ele>134.2</ele>
        <time>2022-02-27T09:55:53Z</time>
      </trkpt>
      <trkpt lat="49.43684" lon="1.1599">
        <ele>134.2</ele>
        <time>2022-02-27T09:55:54Z</time>
      </trkpt>
      <trkpt lat="49.43685" lon="1.15989">
        <ele>134.4</ele>
        <time>2022-02-27T09:55:55Z</time>
      </trkpt>
      <trkpt lat="49.43688" lon="1.15987">
        <ele>134.4</ele>
        <time>2022-02-27T09:55:57Z</time>
      </trkpt>
      <trkpt lat="49.4369" lon="1.15987">
        <ele>134.4</ele>
        <time>2022-02-27T09:55:58Z</time>
      </trkpt>
      <trkpt lat="49.43693" lon="1.15984">
        <ele>134.6</ele>
        <time>2022-02-27T09:55:59Z</time>
      </trkpt>
      <trkpt lat="49.43694" lon="1.15982">
        <ele>134.6</ele>
        <time>2022-02-27T09:56:00Z</time>
      </trkpt>
      <trkpt lat="49.43696" lon="1.15978">
        <ele>134.6</ele>
        <time>2022-02-27T09:56:01Z</time>
      </trkpt>
      <trkpt lat="49.43698" lon="1.15971">
        <ele>134.5</ele>
        <time>2022-02-27T09:56:02Z</time>
      </trkpt>
      <trkpt lat="49.437" lon="1.15967">
        <ele>134.5</ele>
        <time>2022-02-27T09:56:04Z</time>
      </trkpt>
      <trkpt lat="49.43702" lon="1.15963">
        <ele>134.4</ele>
        <time>2022-02-27T09:56:05Z</time>
      </trkpt>
      <trkpt lat="49.43705" lon="1.15957">
        <ele>134.3</ele>
        <time>2022-02-27T09:56:06Z</time>
      </trkpt>
      <trkpt lat="49.43708" lon="1.1595">
        <ele>134.2</ele>
        <time>2022-02-27T09:56:07Z</time>
      </trkpt>
      <trkpt lat="49.43712" lon="1.15943">
        <ele>134</ele>
        <time>2022-02-27T09:56:09Z</time>
      </trkpt>
      <trkpt lat="49.43714" lon="1.15937">
        <ele>133.9</ele>
        <time>2022-02-27T09:56:10Z</time>
      </trkpt>
      <trkpt lat="49.43716" lon="1.15932">
        <ele>133.8</ele>
        <time>2022-02-27T09:56:11Z</time>
      </trkpt>
      <trkpt lat="49.43718" lon="1.15928">
        <ele>133.7</ele>
        <time>2022-02-27T09:56:12Z</time>
      </trkpt>
      <trkpt lat="49.4372" lon="1.15924">
        <ele>133.6</ele>
        <time>2022-02-27T09:56:13Z</time>
      </trkpt>
      <trkpt lat="49.43722" lon="1.1592">
        <ele>133.6</ele>
        <time>2022-02-27T09:56:14Z</time>
      </trkpt>
      <trkpt lat="49.43724" lon="1.15917">
        <ele>133.5</ele>
        <time>2022-02-27T09:56:15Z</time>
      </trkpt>
      <trkpt lat="49.43726" lon="1.15914">
        <ele>133.5</ele>
        <time>2022-02-27T09:56:16Z</time>
      </trkpt>
      <trkpt lat="49.43728" lon="1.15911">
        <ele>133.5</ele>
        <time>2022-02-27T09:56:17Z</time>
      </trkpt>
      <trkpt lat="49.43731" lon="1.15905">
        <ele>133.5</ele>
        <time>2022-02-27T09:56:19Z</time>
      </trkpt>
      <trkpt lat="49.43734" lon="1.159">
        <ele>133.5</ele>
        <time>2022-02-27T09:56:20Z</time>
      </trkpt>
      <trkpt lat="49.43736" lon="1.15896">
        <ele>133.6</ele>
        <time>2022-02-27T09:56:22Z</time>
      </trkpt>
      <trkpt lat="49.43739" lon="1.15891">
        <ele>133.6</ele>
        <time>2022-02-27T09:56:24Z</time>
      </trkpt>
      <trkpt lat="49.4374" lon="1.15886">
        <ele>133.6</ele>
        <time>2022-02-27T09:56:25Z</time>
      </trkpt>
      <trkpt lat="49.43741" lon="1.15881">
        <ele>133.7</ele>
        <time>2022-02-27T09:56:26Z</time>
      </trkpt>
      <trkpt lat="49.43741" lon="1.1588">
        <ele>133.6</ele>
        <time>2022-02-27T09:56:27Z</time>
      </trkpt>
      <trkpt lat="49.43742" lon="1.15876">
        <ele>133.6</ele>
        <time>2022-02-27T09:56:28Z</time>
      </trkpt>
      <trkpt lat="49.43743" lon="1.15872">
        <ele>133.6</ele>
        <time>2022-02-27T09:56:29Z</time>
      </trkpt>
      <trkpt lat="49.43742" lon="1.15865">
        <ele>133.5</ele>
        <time>2022-02-27T09:56:31Z</time>
      </trkpt>
      <trkpt lat="49.43742" lon="1.15863">
        <ele>133.6</ele>
        <time>2022-02-27T09:56:32Z</time>
      </trkpt>
      <trkpt lat="49.43742" lon="1.15861">
        <ele>133.5</ele>
        <time>2022-02-27T09:56:33Z</time>
      </trkpt>
      <trkpt lat="49.43741" lon="1.15858">
        <ele>133.4</ele>
        <time>2022-02-27T09:56:34Z</time>
      </trkpt>
      <trkpt lat="49.43738" lon="1.15854">
        <ele>133.3</ele>
        <time>2022-02-27T09:56:36Z</time>
      </trkpt>
      <trkpt lat="49.43737" lon="1.15852">
        <ele>133.3</ele>
        <time>2022-02-27T09:56:37Z</time>
      </trkpt>
      <trkpt lat="49.43736" lon="1.1585">
        <ele>133.2</ele>
        <time>2022-02-27T09:56:38Z</time>
      </trkpt>
      <trkpt lat="49.43734" lon="1.15847">
        <ele>133.2</ele>
        <time>2022-02-27T09:56:39Z</time>
      </trkpt>
      <trkpt lat="49.43733" lon="1.15845">
        <ele>133.1</ele>
        <time>2022-02-27T09:56:40Z</time>
      </trkpt>
      <trkpt lat="49.43732" lon="1.15839">
        <ele>132.9</ele>
        <time>2022-02-27T09:56:41Z</time>
      </trkpt>
      <trkpt lat="49.43729" lon="1.15834">
        <ele>132.8</ele>
        <time>2022-02-27T09:56:42Z</time>
      </trkpt>
      <trkpt lat="49.43727" lon="1.15828">
        <ele>132.4</ele>
        <time>2022-02-27T09:56:44Z</time>
      </trkpt>
      <trkpt lat="49.43724" lon="1.15822">
        <ele>132.3</ele>
        <time>2022-02-27T09:56:46Z</time>
      </trkpt>
      <trkpt lat="49.43724" lon="1.15816">
        <ele>132.1</ele>
        <time>2022-02-27T09:56:47Z</time>
      </trkpt>
      <trkpt lat="49.43724" lon="1.15815">
        <ele>131.9</ele>
        <time>2022-02-27T09:56:48Z</time>
      </trkpt>
      <trkpt lat="49.43724" lon="1.1581">
        <ele>131.7</ele>
        <time>2022-02-27T09:56:49Z</time>
      </trkpt>
      <trkpt lat="49.43724" lon="1.15808">
        <ele>131.7</ele>
        <time>2022-02-27T09:56:50Z</time>
      </trkpt>
      <trkpt lat="49.43724" lon="1.15802">
        <ele>131.2</ele>
        <time>2022-02-27T09:56:51Z</time>
      </trkpt>
      <trkpt lat="49.43724" lon="1.15795">
        <ele>131</ele>
        <time>2022-02-27T09:56:52Z</time>
      </trkpt>
      <trkpt lat="49.43725" lon="1.1579">
        <ele>130.8</ele>
        <time>2022-02-27T09:56:54Z</time>
      </trkpt>
      <trkpt lat="49.43726" lon="1.15786">
        <ele>130.3</ele>
        <time>2022-02-27T09:56:55Z</time>
      </trkpt>
      <trkpt lat="49.43727" lon="1.1578">
        <ele>130.1</ele>
        <time>2022-02-27T09:56:57Z</time>
      </trkpt>
      <trkpt lat="49.43726" lon="1.15775">
        <ele>130</ele>
        <time>2022-02-27T09:56:59Z</time>
      </trkpt>
      <trkpt lat="49.43726" lon="1.15773">
        <ele>130</ele>
        <time>2022-02-27T09:57:00Z</time>
      </trkpt>
      <trkpt lat="49.43725" lon="1.15771">
        <ele>129.8</ele>
        <time>2022-02-27T09:57:01Z</time>
      </trkpt>
      <trkpt lat="49.43725" lon="1.1577">
        <ele>129.8</ele>
        <time>2022-02-27T09:57:02Z</time>
      </trkpt>
      <trkpt lat="49.43724" lon="1.15768">
        <ele>129.7</ele>
        <time>2022-02-27T09:57:04Z</time>
      </trkpt>
      <trkpt lat="49.43723" lon="1.15767">
        <ele>129.7</ele>
        <time>2022-02-27T09:57:05Z</time>
      </trkpt>
      <trkpt lat="49.43723" lon="1.15766">
        <ele>129.7</ele>
        <time>2022-02-27T09:57:06Z</time>
      </trkpt>
      <trkpt lat="49.43722" lon="1.15765">
        <ele>129.8</ele>
        <time>2022-02-27T09:57:07Z</time>
      </trkpt>
      <trkpt lat="49.43721" lon="1.15765">
        <ele>129.8</ele>
        <time>2022-02-27T09:57:08Z</time>
      </trkpt>
      <trkpt lat="49.4372" lon="1.15764">
        <ele>129.8</ele>
        <time>2022-02-27T09:57:09Z</time>
      </trkpt>
      <trkpt lat="49.43719" lon="1.15762">
        <ele>129.7</ele>
        <time>2022-02-27T09:57:10Z</time>
      </trkpt>
      <trkpt lat="49.43719" lon="1.1576">
        <ele>129.7</ele>
        <time>2022-02-27T09:57:12Z</time>
      </trkpt>
      <trkpt lat="49.43719" lon="1.15758">
        <ele>129.5</ele>
        <time>2022-02-27T09:57:13Z</time>
      </trkpt>
      <trkpt lat="49.43719" lon="1.15756">
        <ele>129.5</ele>
        <time>2022-02-27T09:57:15Z</time>
      </trkpt>
      <trkpt lat="49.43719" lon="1.15754">
        <ele>129.4</ele>
        <time>2022-02-27T09:57:16Z</time>
      </trkpt>
      <trkpt lat="49.43719" lon="1.15753">
        <ele>129.4</ele>
        <time>2022-02-27T09:57:17Z</time>
      </trkpt>
      <trkpt lat="49.43718" lon="1.15748">
        <ele>129.2</ele>
        <time>2022-02-27T09:57:18Z</time>
      </trkpt>
      <trkpt lat="49.43719" lon="1.15744">
        <ele>129.1</ele>
        <time>2022-02-27T09:57:20Z</time>
      </trkpt>
      <trkpt lat="49.43717" lon="1.15737">
        <ele>128.8</ele>
        <time>2022-02-27T09:57:21Z</time>
      </trkpt>
      <trkpt lat="49.43714" lon="1.15726">
        <ele>128.3</ele>
        <time>2022-02-27T09:57:22Z</time>
      </trkpt>
      <trkpt lat="49.43712" lon="1.15712">
        <ele>127.7</ele>
        <time>2022-02-27T09:57:23Z</time>
      </trkpt>
      <trkpt lat="49.4371" lon="1.15701">
        <ele>127.1</ele>
        <time>2022-02-27T09:57:24Z</time>
      </trkpt>
      <trkpt lat="49.43708" lon="1.15687">
        <ele>126.3</ele>
        <time>2022-02-27T09:57:25Z</time>
      </trkpt>
      <trkpt lat="49.43708" lon="1.15678">
        <ele>125.6</ele>
        <time>2022-02-27T09:57:27Z</time>
      </trkpt>
      <trkpt lat="49.43707" lon="1.15672">
        <ele>125</ele>
        <time>2022-02-27T09:57:28Z</time>
      </trkpt>
      <trkpt lat="49.43707" lon="1.15669">
        <ele>124.7</ele>
        <time>2022-02-27T09:57:29Z</time>
      </trkpt>
      <trkpt lat="49.43707" lon="1.15666">
        <ele>124.7</ele>
        <time>2022-02-27T09:57:30Z</time>
      </trkpt>
      <trkpt lat="49.43707" lon="1.15663">
        <ele>124.5</ele>
        <time>2022-02-27T09:57:31Z</time>
      </trkpt>
      <trkpt lat="49.43709" lon="1.1566">
        <ele>124.9</ele>
        <time>2022-02-27T09:57:32Z</time>
      </trkpt>
      <trkpt lat="49.43709" lon="1.15658">
        <ele>124.9</ele>
        <time>2022-02-27T09:57:33Z</time>
      </trkpt>
      <trkpt lat="49.43709" lon="1.15656">
        <ele>124.8</ele>
        <time>2022-02-27T09:57:34Z</time>
      </trkpt>
      <trkpt lat="49.4371" lon="1.15654">
        <ele>124.9</ele>
        <time>2022-02-27T09:57:35Z</time>
      </trkpt>
      <trkpt lat="49.4371" lon="1.15652">
        <ele>125.4</ele>
        <time>2022-02-27T09:57:36Z</time>
      </trkpt>
      <trkpt lat="49.43711" lon="1.15649">
        <ele>125.4</ele>
        <time>2022-02-27T09:57:37Z</time>
      </trkpt>
      <trkpt lat="49.43712" lon="1.15643">
        <ele>125.6</ele>
        <time>2022-02-27T09:57:39Z</time>
      </trkpt>
      <trkpt lat="49.43712" lon="1.15641">
        <ele>125.6</ele>
        <time>2022-02-27T09:57:40Z</time>
      </trkpt>
      <trkpt lat="49.43712" lon="1.15638">
        <ele>125.8</ele>
        <time>2022-02-27T09:57:41Z</time>
      </trkpt>
      <trkpt lat="49.43713" lon="1.15635">
        <ele>126.5</ele>
        <time>2022-02-27T09:57:42Z</time>
      </trkpt>
      <trkpt lat="49.43714" lon="1.15635">
        <ele>126.5</ele>
        <time>2022-02-27T09:57:43Z</time>
      </trkpt>
      <trkpt lat="49.43715" lon="1.15634">
        <ele>126.5</ele>
        <time>2022-02-27T09:57:44Z</time>
      </trkpt>
      <trkpt lat="49.43715" lon="1.15634">
        <ele>126.5</ele>
        <time>2022-02-27T09:57:45Z</time>
      </trkpt>
      <trkpt lat="49.43717" lon="1.15631">
        <ele>127</ele>
        <time>2022-02-27T09:57:46Z</time>
      </trkpt>
      <trkpt lat="49.43718" lon="1.1563">
        <ele>127.1</ele>
        <time>2022-02-27T09:57:47Z</time>
      </trkpt>
      <trkpt lat="49.43721" lon="1.15629">
        <ele>127.7</ele>
        <time>2022-02-27T09:57:48Z</time>
      </trkpt>
      <trkpt lat="49.43723" lon="1.15628">
        <ele>128.1</ele>
        <time>2022-02-27T09:57:49Z</time>
      </trkpt>
      <trkpt lat="49.43725" lon="1.15627">
        <ele>128.6</ele>
        <time>2022-02-27T09:57:50Z</time>
      </trkpt>
      <trkpt lat="49.43729" lon="1.15624">
        <ele>129</ele>
        <time>2022-02-27T09:57:52Z</time>
      </trkpt>
      <trkpt lat="49.43731" lon="1.15621">
        <ele>129.2</ele>
        <time>2022-02-27T09:57:53Z</time>
      </trkpt>
      <trkpt lat="49.43734" lon="1.15618">
        <ele>129.4</ele>
        <time>2022-02-27T09:57:54Z</time>
      </trkpt>
      <trkpt lat="49.43736" lon="1.15616">
        <ele>129.6</ele>
        <time>2022-02-27T09:57:55Z</time>
      </trkpt>
      <trkpt lat="49.43739" lon="1.15612">
        <ele>129.6</ele>
        <time>2022-02-27T09:57:56Z</time>
      </trkpt>
      <trkpt lat="49.43742" lon="1.15609">
        <ele>129.7</ele>
        <time>2022-02-27T09:57:57Z</time>
      </trkpt>
      <trkpt lat="49.43746" lon="1.15605">
        <ele>129.8</ele>
        <time>2022-02-27T09:57:59Z</time>
      </trkpt>
      <trkpt lat="49.43747" lon="1.15604">
        <ele>130.1</ele>
        <time>2022-02-27T09:58:00Z</time>
      </trkpt>
      <trkpt lat="49.43748" lon="1.15603">
        <ele>130.1</ele>
        <time>2022-02-27T09:58:01Z</time>
      </trkpt>
      <trkpt lat="49.43752" lon="1.15602">
        <ele>130.4</ele>
        <time>2022-02-27T09:58:02Z</time>
      </trkpt>
      <trkpt lat="49.43753" lon="1.15602">
        <ele>130.6</ele>
        <time>2022-02-27T09:58:03Z</time>
      </trkpt>
      <trkpt lat="49.43756" lon="1.15603">
        <ele>130.9</ele>
        <time>2022-02-27T09:58:04Z</time>
      </trkpt>
      <trkpt lat="49.43757" lon="1.15603">
        <ele>130.9</ele>
        <time>2022-02-27T09:58:05Z</time>
      </trkpt>
      <trkpt lat="49.43759" lon="1.15603">
        <ele>131.1</ele>
        <time>2022-02-27T09:58:06Z</time>
      </trkpt>
      <trkpt lat="49.43761" lon="1.15603">
        <ele>131.3</ele>
        <time>2022-02-27T09:58:07Z</time>
      </trkpt>
      <trkpt lat="49.43763" lon="1.15601">
        <ele>131.4</ele>
        <time>2022-02-27T09:58:08Z</time>
      </trkpt>
      <trkpt lat="49.43764" lon="1.156">
        <ele>131.4</ele>
        <time>2022-02-27T09:58:09Z</time>
      </trkpt>
      <trkpt lat="49.43766" lon="1.15596">
        <ele>131.2</ele>
        <time>2022-02-27T09:58:10Z</time>
      </trkpt>
      <trkpt lat="49.43767" lon="1.15594">
        <ele>131.4</ele>
        <time>2022-02-27T09:58:12Z</time>
      </trkpt>
      <trkpt lat="49.43768" lon="1.15592">
        <ele>131.3</ele>
        <time>2022-02-27T09:58:13Z</time>
      </trkpt>
      <trkpt lat="49.43768" lon="1.1559">
        <ele>131.3</ele>
        <time>2022-02-27T09:58:14Z</time>
      </trkpt>
      <trkpt lat="49.43773" lon="1.15588">
        <ele>131.5</ele>
        <time>2022-02-27T09:58:15Z</time>
      </trkpt>
      <trkpt lat="49.43776" lon="1.15586">
        <ele>131.7</ele>
        <time>2022-02-27T09:58:16Z</time>
      </trkpt>
      <trkpt lat="49.43781" lon="1.15582">
        <ele>132</ele>
        <time>2022-02-27T09:58:18Z</time>
      </trkpt>
      <trkpt lat="49.43784" lon="1.1558">
        <ele>132</ele>
        <time>2022-02-27T09:58:19Z</time>
      </trkpt>
      <trkpt lat="49.43787" lon="1.15578">
        <ele>132.2</ele>
        <time>2022-02-27T09:58:20Z</time>
      </trkpt>
      <trkpt lat="49.43788" lon="1.15577">
        <ele>132.2</ele>
        <time>2022-02-27T09:58:21Z</time>
      </trkpt>
      <trkpt lat="49.43791" lon="1.15576">
        <ele>132.4</ele>
        <time>2022-02-27T09:58:22Z</time>
      </trkpt>
      <trkpt lat="49.43792" lon="1.15576">
        <ele>132.6</ele>
        <time>2022-02-27T09:58:23Z</time>
      </trkpt>
      <trkpt lat="49.43794" lon="1.15575">
        <ele>132.5</ele>
        <time>2022-02-27T09:58:25Z</time>
      </trkpt>
      <trkpt lat="49.43794" lon="1.15574">
        <ele>132.6</ele>
        <time>2022-02-27T09:58:26Z</time>
      </trkpt>
      <trkpt lat="49.43795" lon="1.15574">
        <ele>132.7</ele>
        <time>2022-02-27T09:58:27Z</time>
      </trkpt>
      <trkpt lat="49.43796" lon="1.15574">
        <ele>132.7</ele>
        <time>2022-02-27T09:58:28Z</time>
      </trkpt>
      <trkpt lat="49.43796" lon="1.15573">
        <ele>132.7</ele>
        <time>2022-02-27T09:58:29Z</time>
      </trkpt>
      <trkpt lat="49.43797" lon="1.15573">
        <ele>132.7</ele>
        <time>2022-02-27T09:58:30Z</time>
      </trkpt>
      <trkpt lat="49.43797" lon="1.15573">
        <ele>132.9</ele>
        <time>2022-02-27T09:58:31Z</time>
      </trkpt>
      <trkpt lat="49.43797" lon="1.15572">
        <ele>132.9</ele>
        <time>2022-02-27T09:58:32Z</time>
      </trkpt>
      <trkpt lat="49.43797" lon="1.15572">
        <ele>132.9</ele>
        <time>2022-02-27T09:58:33Z</time>
      </trkpt>
      <trkpt lat="49.43797" lon="1.15572">
        <ele>132.9</ele>
        <time>2022-02-27T09:58:34Z</time>
      </trkpt>
      <trkpt lat="49.43798" lon="1.15571">
        <ele>132.9</ele>
        <time>2022-02-27T09:58:35Z</time>
      </trkpt>
      <trkpt lat="49.43798" lon="1.15571">
        <ele>132.8</ele>
        <time>2022-02-27T09:58:36Z</time>
      </trkpt>
      <trkpt lat="49.43798" lon="1.15571">
        <ele>132.8</ele>
        <time>2022-02-27T09:58:37Z</time>
      </trkpt>
      <trkpt lat="49.43798" lon="1.1557">
        <ele>132.8</ele>
        <time>2022-02-27T09:58:39Z</time>
      </trkpt>
      <trkpt lat="49.43799" lon="1.1557">
        <ele>132.8</ele>
        <time>2022-02-27T09:58:40Z</time>
      </trkpt>
      <trkpt lat="49.43799" lon="1.1557">
        <ele>132.9</ele>
        <time>2022-02-27T09:58:48Z</time>
      </trkpt>
      <trkpt lat="49.43799" lon="1.15569">
        <ele>132.9</ele>
        <time>2022-02-27T09:58:50Z</time>
      </trkpt>
      <trkpt lat="49.43799" lon="1.15569">
        <ele>132.9</ele>
        <time>2022-02-27T09:58:51Z</time>
      </trkpt>
      <trkpt lat="49.43799" lon="1.15569">
        <ele>132.9</ele>
        <time>2022-02-27T09:58:52Z</time>
      </trkpt>
      <trkpt lat="49.438" lon="1.15568">
        <ele>133.1</ele>
        <time>2022-02-27T09:58:53Z</time>
      </trkpt>
      <trkpt lat="49.438" lon="1.15568">
        <ele>133.1</ele>
        <time>2022-02-27T09:58:54Z</time>
      </trkpt>
      <trkpt lat="49.43799" lon="1.15565">
        <ele>132.8</ele>
        <time>2022-02-27T09:58:55Z</time>
      </trkpt>
      <trkpt lat="49.43799" lon="1.15563">
        <ele>132.8</ele>
        <time>2022-02-27T09:58:57Z</time>
      </trkpt>
      <trkpt lat="49.43801" lon="1.15562">
        <ele>132.8</ele>
        <time>2022-02-27T09:58:58Z</time>
      </trkpt>
      <trkpt lat="49.43802" lon="1.15562">
        <ele>132.9</ele>
        <time>2022-02-27T09:58:59Z</time>
      </trkpt>
      <trkpt lat="49.43804" lon="1.15562">
        <ele>133.1</ele>
        <time>2022-02-27T09:59:00Z</time>
      </trkpt>
      <trkpt lat="49.43807" lon="1.15561">
        <ele>133.3</ele>
        <time>2022-02-27T09:59:02Z</time>
      </trkpt>
      <trkpt lat="49.43811" lon="1.1556">
        <ele>133.7</ele>
        <time>2022-02-27T09:59:03Z</time>
      </trkpt>
      <trkpt lat="49.43812" lon="1.15559">
        <ele>133.7</ele>
        <time>2022-02-27T09:59:04Z</time>
      </trkpt>
      <trkpt lat="49.43813" lon="1.15555">
        <ele>133.5</ele>
        <time>2022-02-27T09:59:06Z</time>
      </trkpt>
      <trkpt lat="49.43813" lon="1.15553">
        <ele>133.4</ele>
        <time>2022-02-27T09:59:07Z</time>
      </trkpt>
      <trkpt lat="49.43814" lon="1.1555">
        <ele>133.6</ele>
        <time>2022-02-27T09:59:09Z</time>
      </trkpt>
      <trkpt lat="49.43814" lon="1.15546">
        <ele>133.4</ele>
        <time>2022-02-27T09:59:10Z</time>
      </trkpt>
      <trkpt lat="49.43815" lon="1.15544">
        <ele>133.2</ele>
        <time>2022-02-27T09:59:11Z</time>
      </trkpt>
      <trkpt lat="49.43814" lon="1.15541">
        <ele>133.2</ele>
        <time>2022-02-27T09:59:12Z</time>
      </trkpt>
      <trkpt lat="49.43814" lon="1.15539">
        <ele>132.9</ele>
        <time>2022-02-27T09:59:13Z</time>
      </trkpt>
      <trkpt lat="49.43814" lon="1.15536">
        <ele>132.6</ele>
        <time>2022-02-27T09:59:15Z</time>
      </trkpt>
      <trkpt lat="49.43814" lon="1.15535">
        <ele>132.6</ele>
        <time>2022-02-27T09:59:16Z</time>
      </trkpt>
      <trkpt lat="49.43813" lon="1.15532">
        <ele>132.2</ele>
        <time>2022-02-27T09:59:17Z</time>
      </trkpt>
      <trkpt lat="49.43813" lon="1.1553">
        <ele>132</ele>
        <time>2022-02-27T09:59:18Z</time>
      </trkpt>
      <trkpt lat="49.43812" lon="1.15529">
        <ele>132</ele>
        <time>2022-02-27T09:59:19Z</time>
      </trkpt>
      <trkpt lat="49.43812" lon="1.15526">
        <ele>131.5</ele>
        <time>2022-02-27T09:59:20Z</time>
      </trkpt>
      <trkpt lat="49.43812" lon="1.15523">
        <ele>130.9</ele>
        <time>2022-02-27T09:59:21Z</time>
      </trkpt>
      <trkpt lat="49.43812" lon="1.15521">
        <ele>130.9</ele>
        <time>2022-02-27T09:59:22Z</time>
      </trkpt>
      <trkpt lat="49.43812" lon="1.1552">
        <ele>131</ele>
        <time>2022-02-27T09:59:23Z</time>
      </trkpt>
      <trkpt lat="49.43812" lon="1.1552">
        <ele>131</ele>
        <time>2022-02-27T09:59:24Z</time>
      </trkpt>
      <trkpt lat="49.43812" lon="1.1552">
        <ele>130.4</ele>
        <time>2022-02-27T09:59:25Z</time>
      </trkpt>
      <trkpt lat="49.43812" lon="1.15519">
        <ele>130.4</ele>
        <time>2022-02-27T09:59:26Z</time>
      </trkpt>
      <trkpt lat="49.43812" lon="1.15519">
        <ele>130.4</ele>
        <time>2022-02-27T09:59:27Z</time>
      </trkpt>
      <trkpt lat="49.43812" lon="1.15519">
        <ele>130.4</ele>
        <time>2022-02-27T09:59:28Z</time>
      </trkpt>
      <trkpt lat="49.43812" lon="1.15519">
        <ele>130.4</ele>
        <time>2022-02-27T09:59:30Z</time>
      </trkpt>
      <trkpt lat="49.43812" lon="1.15519">
        <ele>130.4</ele>
        <time>2022-02-27T09:59:31Z</time>
      </trkpt>
      <trkpt lat="49.43812" lon="1.15519">
        <ele>130.5</ele>
        <time>2022-02-27T09:59:32Z</time>
      </trkpt>
      <trkpt lat="49.43812" lon="1.15519">
        <ele>130.5</ele>
        <time>2022-02-27T09:59:33Z</time>
      </trkpt>
      <trkpt lat="49.43812" lon="1.15519">
        <ele>130.5</ele>
        <time>2022-02-27T09:59:34Z</time>
      </trkpt>
      <trkpt lat="49.43812" lon="1.15519">
        <ele>130.5</ele>
        <time>2022-02-27T09:59:35Z</time>
      </trkpt>
      <trkpt lat="49.43812" lon="1.15519">
        <ele>130.5</ele>
        <time>2022-02-27T09:59:36Z</time>
      </trkpt>
      <trkpt lat="49.43812" lon="1.15519">
        <ele>130.5</ele>
        <time>2022-02-27T09:59:38Z</time>
      </trkpt>
      <trkpt lat="49.43812" lon="1.15514">
        <ele>129.9</ele>
        <time>2022-02-27T09:59:44Z</time>
      </trkpt>
      <trkpt lat="49.43812" lon="1.15511">
        <ele>129.9</ele>
        <time>2022-02-27T09:59:45Z</time>
      </trkpt>
      <trkpt lat="49.43814" lon="1.1551">
        <ele>129.5</ele>
        <time>2022-02-27T09:59:47Z</time>
      </trkpt>
      <trkpt lat="49.43815" lon="1.15511">
        <ele>129.5</ele>
        <time>2022-02-27T09:59:48Z</time>
      </trkpt>
      <trkpt lat="49.43815" lon="1.15511">
        <ele>130.2</ele>
        <time>2022-02-27T09:59:49Z</time>
      </trkpt>
      <trkpt lat="49.43815" lon="1.15512">
        <ele>130.2</ele>
        <time>2022-02-27T09:59:50Z</time>
      </trkpt>
      <trkpt lat="49.43815" lon="1.15512">
        <ele>130.2</ele>
        <time>2022-02-27T09:59:51Z</time>
      </trkpt>
      <trkpt lat="49.43815" lon="1.1551">
        <ele>129.6</ele>
        <time>2022-02-27T09:59:53Z</time>
      </trkpt>
      <trkpt lat="49.43816" lon="1.15513">
        <ele>130.2</ele>
        <time>2022-02-27T09:59:55Z</time>
      </trkpt>
      <trkpt lat="49.43816" lon="1.15515">
        <ele>130.5</ele>
        <time>2022-02-27T09:59:56Z</time>
      </trkpt>
      <trkpt lat="49.43817" lon="1.15516">
        <ele>131.1</ele>
        <time>2022-02-27T09:59:57Z</time>
      </trkpt>
      <trkpt lat="49.43818" lon="1.15516">
        <ele>131.2</ele>
        <time>2022-02-27T09:59:59Z</time>
      </trkpt>
      <trkpt lat="49.43818" lon="1.15516">
        <ele>131.2</ele>
        <time>2022-02-27T10:00:01Z</time>
      </trkpt>
      <trkpt lat="49.43818" lon="1.15517">
        <ele>131.2</ele>
        <time>2022-02-27T10:00:02Z</time>
      </trkpt>
      <trkpt lat="49.43818" lon="1.15517">
        <ele>131.2</ele>
        <time>2022-02-27T10:00:03Z</time>
      </trkpt>
      <trkpt lat="49.43816" lon="1.15517">
        <ele>131.2</ele>
        <time>2022-02-27T10:00:04Z</time>
      </trkpt>
      <trkpt lat="49.43816" lon="1.15518">
        <ele>131</ele>
        <time>2022-02-27T10:00:05Z</time>
      </trkpt>
      <trkpt lat="49.43816" lon="1.15518">
        <ele>131</ele>
        <time>2022-02-27T10:00:06Z</time>
      </trkpt>
      <trkpt lat="49.43815" lon="1.15518">
        <ele>131</ele>
        <time>2022-02-27T10:00:07Z</time>
      </trkpt>
      <trkpt lat="49.43815" lon="1.15518">
        <ele>131</ele>
        <time>2022-02-27T10:00:08Z</time>
      </trkpt>
      <trkpt lat="49.43815" lon="1.15519">
        <ele>131</ele>
        <time>2022-02-27T10:00:09Z</time>
      </trkpt>
      <trkpt lat="49.43815" lon="1.15519">
        <ele>131.1</ele>
        <time>2022-02-27T10:00:10Z</time>
      </trkpt>
      <trkpt lat="49.43815" lon="1.15519">
        <ele>131.1</ele>
        <time>2022-02-27T10:00:11Z</time>
      </trkpt>
      <trkpt lat="49.43815" lon="1.1552">
        <ele>131.7</ele>
        <time>2022-02-27T10:00:12Z</time>
      </trkpt>
      <trkpt lat="49.43816" lon="1.1552">
        <ele>131.7</ele>
        <time>2022-02-27T10:00:13Z</time>
      </trkpt>
      <trkpt lat="49.43816" lon="1.1552">
        <ele>131.7</ele>
        <time>2022-02-27T10:00:15Z</time>
      </trkpt>
      <trkpt lat="49.43816" lon="1.15521">
        <ele>131.7</ele>
        <time>2022-02-27T10:00:16Z</time>
      </trkpt>
      <trkpt lat="49.43816" lon="1.15521">
        <ele>131.7</ele>
        <time>2022-02-27T10:00:17Z</time>
      </trkpt>
      <trkpt lat="49.43816" lon="1.15521">
        <ele>131.7</ele>
        <time>2022-02-27T10:00:35Z</time>
      </trkpt>
      <trkpt lat="49.43816" lon="1.15522">
        <ele>131.8</ele>
        <time>2022-02-27T10:00:36Z</time>
      </trkpt>
      <trkpt lat="49.43816" lon="1.15522">
        <ele>131.8</ele>
        <time>2022-02-27T10:00:37Z</time>
      </trkpt>
      <trkpt lat="49.43816" lon="1.15522">
        <ele>132</ele>
        <time>2022-02-27T10:00:38Z</time>
      </trkpt>
      <trkpt lat="49.43816" lon="1.15523">
        <ele>132</ele>
        <time>2022-02-27T10:00:39Z</time>
      </trkpt>
      <trkpt lat="49.43816" lon="1.15523">
        <ele>132</ele>
        <time>2022-02-27T10:00:40Z</time>
      </trkpt>
      <trkpt lat="49.43817" lon="1.15523">
        <ele>132.1</ele>
        <time>2022-02-27T10:00:42Z</time>
      </trkpt>
      <trkpt lat="49.43817" lon="1.15524">
        <ele>132.1</ele>
        <time>2022-02-27T10:00:43Z</time>
      </trkpt>
      <trkpt lat="49.43817" lon="1.15524">
        <ele>132.6</ele>
        <time>2022-02-27T10:00:44Z</time>
      </trkpt>
      <trkpt lat="49.43819" lon="1.15523">
        <ele>132.3</ele>
        <time>2022-02-27T10:00:45Z</time>
      </trkpt>
      <trkpt lat="49.4382" lon="1.15524">
        <ele>132.3</ele>
        <time>2022-02-27T10:00:46Z</time>
      </trkpt>
      <trkpt lat="49.43827" lon="1.1552">
        <ele>133.1</ele>
        <time>2022-02-27T10:00:48Z</time>
      </trkpt>
      <trkpt lat="49.43833" lon="1.15516">
        <ele>133.1</ele>
        <time>2022-02-27T10:00:49Z</time>
      </trkpt>
      <trkpt lat="49.43844" lon="1.15507">
        <ele>133.5</ele>
        <time>2022-02-27T10:00:50Z</time>
      </trkpt>
      <trkpt lat="49.43849" lon="1.15503">
        <ele>133.3</ele>
        <time>2022-02-27T10:00:51Z</time>
      </trkpt>
      <trkpt lat="49.43852" lon="1.15502">
        <ele>133.1</ele>
        <time>2022-02-27T10:00:52Z</time>
      </trkpt>
      <trkpt lat="49.43854" lon="1.15502">
        <ele>133.5</ele>
        <time>2022-02-27T10:00:53Z</time>
      </trkpt>
      <trkpt lat="49.43857" lon="1.15502">
        <ele>133.8</ele>
        <time>2022-02-27T10:00:55Z</time>
      </trkpt>
      <trkpt lat="49.4386" lon="1.15501">
        <ele>134.2</ele>
        <time>2022-02-27T10:00:56Z</time>
      </trkpt>
      <trkpt lat="49.43863" lon="1.15496">
        <ele>133.8</ele>
        <time>2022-02-27T10:00:57Z</time>
      </trkpt>
      <trkpt lat="49.43868" lon="1.15491">
        <ele>133.6</ele>
        <time>2022-02-27T10:00:58Z</time>
      </trkpt>
      <trkpt lat="49.43879" lon="1.15482">
        <ele>132.9</ele>
        <time>2022-02-27T10:01:00Z</time>
      </trkpt>
      <trkpt lat="49.43885" lon="1.15478">
        <ele>132.5</ele>
        <time>2022-02-27T10:01:01Z</time>
      </trkpt>
      <trkpt lat="49.43888" lon="1.15475">
        <ele>131.8</ele>
        <time>2022-02-27T10:01:02Z</time>
      </trkpt>
      <trkpt lat="49.43892" lon="1.15472">
        <ele>131.1</ele>
        <time>2022-02-27T10:01:03Z</time>
      </trkpt>
      <trkpt lat="49.43897" lon="1.15469">
        <ele>131.1</ele>
        <time>2022-02-27T10:01:04Z</time>
      </trkpt>
      <trkpt lat="49.43903" lon="1.15461">
        <ele>129.5</ele>
        <time>2022-02-27T10:01:05Z</time>
      </trkpt>
      <trkpt lat="49.43907" lon="1.15457">
        <ele>128.8</ele>
        <time>2022-02-27T10:01:06Z</time>
      </trkpt>
      <trkpt lat="49.4391" lon="1.15453">
        <ele>128.2</ele>
        <time>2022-02-27T10:01:07Z</time>
      </trkpt>
      <trkpt lat="49.43913" lon="1.15449">
        <ele>127.4</ele>
        <time>2022-02-27T10:01:08Z</time>
      </trkpt>
      <trkpt lat="49.43914" lon="1.15448">
        <ele>127.3</ele>
        <time>2022-02-27T10:01:09Z</time>
      </trkpt>
      <trkpt lat="49.43916" lon="1.15444">
        <ele>126.7</ele>
        <time>2022-02-27T10:01:10Z</time>
      </trkpt>
      <trkpt lat="49.43917" lon="1.15441">
        <ele>125.7</ele>
        <time>2022-02-27T10:01:12Z</time>
      </trkpt>
      <trkpt lat="49.43918" lon="1.15439">
        <ele>125.7</ele>
        <time>2022-02-27T10:01:13Z</time>
      </trkpt>
      <trkpt lat="49.43919" lon="1.15436">
        <ele>125</ele>
        <time>2022-02-27T10:01:40Z</time>
      </trkpt>
      <trkpt lat="49.4392" lon="1.15433">
        <ele>123.9</ele>
        <time>2022-02-27T10:01:41Z</time>
      </trkpt>
      <trkpt lat="49.43921" lon="1.1543">
        <ele>123.9</ele>
        <time>2022-02-27T10:01:42Z</time>
      </trkpt>
      <trkpt lat="49.43925" lon="1.15433">
        <ele>123.2</ele>
        <time>2022-02-27T10:01:44Z</time>
      </trkpt>
      <trkpt lat="49.43929" lon="1.15435">
        <ele>123.7</ele>
        <time>2022-02-27T10:01:45Z</time>
      </trkpt>
      <trkpt lat="49.43934" lon="1.15438">
        <ele>123.8</ele>
        <time>2022-02-27T10:01:46Z</time>
      </trkpt>
      <trkpt lat="49.4394" lon="1.15442">
        <ele>123</ele>
        <time>2022-02-27T10:01:48Z</time>
      </trkpt>
      <trkpt lat="49.43944" lon="1.15444">
        <ele>123.2</ele>
        <time>2022-02-27T10:01:49Z</time>
      </trkpt>
      <trkpt lat="49.4395" lon="1.15449">
        <ele>122.7</ele>
        <time>2022-02-27T10:01:51Z</time>
      </trkpt>
      <trkpt lat="49.43954" lon="1.15453">
        <ele>122.2</ele>
        <time>2022-02-27T10:01:52Z</time>
      </trkpt>
      <trkpt lat="49.43958" lon="1.15457">
        <ele>122.1</ele>
        <time>2022-02-27T10:01:53Z</time>
      </trkpt>
      <trkpt lat="49.43963" lon="1.1546">
        <ele>121.9</ele>
        <time>2022-02-27T10:01:55Z</time>
      </trkpt>
      <trkpt lat="49.43967" lon="1.15463">
        <ele>121.1</ele>
        <time>2022-02-27T10:01:56Z</time>
      </trkpt>
      <trkpt lat="49.43971" lon="1.15465">
        <ele>121.3</ele>
        <time>2022-02-27T10:01:57Z</time>
      </trkpt>
      <trkpt lat="49.43976" lon="1.15467">
        <ele>120.5</ele>
        <time>2022-02-27T10:01:58Z</time>
      </trkpt>
      <trkpt lat="49.4398" lon="1.1547">
        <ele>120.7</ele>
        <time>2022-02-27T10:01:59Z</time>
      </trkpt>
      <trkpt lat="49.43985" lon="1.15475">
        <ele>120.3</ele>
        <time>2022-02-27T10:02:00Z</time>
      </trkpt>
      <trkpt lat="49.43992" lon="1.15479">
        <ele>120</ele>
        <time>2022-02-27T10:02:02Z</time>
      </trkpt>
      <trkpt lat="49.43997" lon="1.15481">
        <ele>119.3</ele>
        <time>2022-02-27T10:02:03Z</time>
      </trkpt>
      <trkpt lat="49.44004" lon="1.15484">
        <ele>117.1</ele>
        <time>2022-02-27T10:02:04Z</time>
      </trkpt>
      <trkpt lat="49.44009" lon="1.15486">
        <ele>116.3</ele>
        <time>2022-02-27T10:02:05Z</time>
      </trkpt>
      <trkpt lat="49.44017" lon="1.15489">
        <ele>114.9</ele>
        <time>2022-02-27T10:02:06Z</time>
      </trkpt>
      <trkpt lat="49.44023" lon="1.15492">
        <ele>112.9</ele>
        <time>2022-02-27T10:02:08Z</time>
      </trkpt>
      <trkpt lat="49.44028" lon="1.15495">
        <ele>112.4</ele>
        <time>2022-02-27T10:02:09Z</time>
      </trkpt>
      <trkpt lat="49.44035" lon="1.15499">
        <ele>110.2</ele>
        <time>2022-02-27T10:02:10Z</time>
      </trkpt>
      <trkpt lat="49.4404" lon="1.15501">
        <ele>108.5</ele>
        <time>2022-02-27T10:02:11Z</time>
      </trkpt>
      <trkpt lat="49.44046" lon="1.15504">
        <ele>107.4</ele>
        <time>2022-02-27T10:02:13Z</time>
      </trkpt>
      <trkpt lat="49.44073" lon="1.15518">
        <ele>101.2</ele>
        <time>2022-02-27T10:02:14Z</time>
      </trkpt>
      <trkpt lat="49.44077" lon="1.15519">
        <ele>99.7</ele>
        <time>2022-02-27T10:02:15Z</time>
      </trkpt>
      <trkpt lat="49.44084" lon="1.15522">
        <ele>98.6</ele>
        <time>2022-02-27T10:02:16Z</time>
      </trkpt>
      <trkpt lat="49.44088" lon="1.1552">
        <ele>97.1</ele>
        <time>2022-02-27T10:02:17Z</time>
      </trkpt>
      <trkpt lat="49.44091" lon="1.15521">
        <ele>96.4</ele>
        <time>2022-02-27T10:02:19Z</time>
      </trkpt>
      <trkpt lat="49.44093" lon="1.15524">
        <ele>96.3</ele>
        <time>2022-02-27T10:02:20Z</time>
      </trkpt>
      <trkpt lat="49.44095" lon="1.15527">
        <ele>95.7</ele>
        <time>2022-02-27T10:02:21Z</time>
      </trkpt>
      <trkpt lat="49.44096" lon="1.15528">
        <ele>95.7</ele>
        <time>2022-02-27T10:02:22Z</time>
      </trkpt>
      <trkpt lat="49.44097" lon="1.15529">
        <ele>96.2</ele>
        <time>2022-02-27T10:02:23Z</time>
      </trkpt>
      <trkpt lat="49.44098" lon="1.1553">
        <ele>96.2</ele>
        <time>2022-02-27T10:02:24Z</time>
      </trkpt>
      <trkpt lat="49.44099" lon="1.1553">
        <ele>95.7</ele>
        <time>2022-02-27T10:02:26Z</time>
      </trkpt>
      <trkpt lat="49.441" lon="1.1553">
        <ele>95.7</ele>
        <time>2022-02-27T10:02:27Z</time>
      </trkpt>
      <trkpt lat="49.44101" lon="1.15531">
        <ele>95.7</ele>
        <time>2022-02-27T10:02:30Z</time>
      </trkpt>
      <trkpt lat="49.44101" lon="1.15531">
        <ele>95.2</ele>
        <time>2022-02-27T10:02:32Z</time>
      </trkpt>
      <trkpt lat="49.44102" lon="1.15532">
        <ele>95.2</ele>
        <time>2022-02-27T10:02:33Z</time>
      </trkpt>
      <trkpt lat="49.44105" lon="1.15533">
        <ele>95.1</ele>
        <time>2022-02-27T10:02:34Z</time>
      </trkpt>
      <trkpt lat="49.44106" lon="1.15533">
        <ele>95.1</ele>
        <time>2022-02-27T10:02:35Z</time>
      </trkpt>
      <trkpt lat="49.44106" lon="1.15534">
        <ele>94.5</ele>
        <time>2022-02-27T10:02:36Z</time>
      </trkpt>
      <trkpt lat="49.44107" lon="1.15531">
        <ele>94.1</ele>
        <time>2022-02-27T10:02:38Z</time>
      </trkpt>
      <trkpt lat="49.44108" lon="1.1553">
        <ele>94.1</ele>
        <time>2022-02-27T10:02:39Z</time>
      </trkpt>
      <trkpt lat="49.44108" lon="1.15528">
        <ele>94.1</ele>
        <time>2022-02-27T10:02:40Z</time>
      </trkpt>
      <trkpt lat="49.44112" lon="1.15528">
        <ele>93.1</ele>
        <time>2022-02-27T10:02:41Z</time>
      </trkpt>
      <trkpt lat="49.44113" lon="1.15528">
        <ele>92.5</ele>
        <time>2022-02-27T10:02:42Z</time>
      </trkpt>
      <trkpt lat="49.44115" lon="1.15527">
        <ele>91.9</ele>
        <time>2022-02-27T10:02:43Z</time>
      </trkpt>
      <trkpt lat="49.44116" lon="1.15526">
        <ele>91.9</ele>
        <time>2022-02-27T10:02:44Z</time>
      </trkpt>
      <trkpt lat="49.44116" lon="1.15525">
        <ele>91.9</ele>
        <time>2022-02-27T10:02:45Z</time>
      </trkpt>
      <trkpt lat="49.44116" lon="1.15525">
        <ele>92</ele>
        <time>2022-02-27T10:02:46Z</time>
      </trkpt>
      <trkpt lat="49.44116" lon="1.15525">
        <ele>92</ele>
        <time>2022-02-27T10:02:47Z</time>
      </trkpt>
      <trkpt lat="49.44117" lon="1.15529">
        <ele>92.4</ele>
        <time>2022-02-27T10:02:48Z</time>
      </trkpt>
      <trkpt lat="49.44117" lon="1.1553">
        <ele>92.4</ele>
        <time>2022-02-27T10:02:49Z</time>
      </trkpt>
      <trkpt lat="49.44117" lon="1.15531">
        <ele>92.4</ele>
        <time>2022-02-27T10:02:50Z</time>
      </trkpt>
      <trkpt lat="49.44118" lon="1.15532">
        <ele>91.9</ele>
        <time>2022-02-27T10:02:51Z</time>
      </trkpt>
      <trkpt lat="49.44119" lon="1.15533">
        <ele>92.3</ele>
        <time>2022-02-27T10:02:52Z</time>
      </trkpt>
      <trkpt lat="49.44119" lon="1.15534">
        <ele>92.3</ele>
        <time>2022-02-27T10:02:53Z</time>
      </trkpt>
      <trkpt lat="49.4412" lon="1.15535">
        <ele>92.3</ele>
        <time>2022-02-27T10:02:55Z</time>
      </trkpt>
      <trkpt lat="49.4412" lon="1.15536">
        <ele>92.3</ele>
        <time>2022-02-27T10:02:56Z</time>
      </trkpt>
      <trkpt lat="49.44121" lon="1.15539">
        <ele>92.4</ele>
        <time>2022-02-27T10:02:57Z</time>
      </trkpt>
      <trkpt lat="49.44121" lon="1.1554">
        <ele>92.4</ele>
        <time>2022-02-27T10:02:58Z</time>
      </trkpt>
      <trkpt lat="49.44121" lon="1.15541">
        <ele>92.4</ele>
        <time>2022-02-27T10:02:59Z</time>
      </trkpt>
      <trkpt lat="49.44122" lon="1.15554">
        <ele>92.7</ele>
        <time>2022-02-27T10:03:00Z</time>
      </trkpt>
      <trkpt lat="49.44122" lon="1.15566">
        <ele>93</ele>
        <time>2022-02-27T10:03:01Z</time>
      </trkpt>
      <trkpt lat="49.44122" lon="1.15572">
        <ele>93.1</ele>
        <time>2022-02-27T10:03:02Z</time>
      </trkpt>
      <trkpt lat="49.44123" lon="1.15577">
        <ele>93.2</ele>
        <time>2022-02-27T10:03:03Z</time>
      </trkpt>
      <trkpt lat="49.44123" lon="1.15579">
        <ele>93.3</ele>
        <time>2022-02-27T10:03:04Z</time>
      </trkpt>
      <trkpt lat="49.44123" lon="1.1558">
        <ele>93.3</ele>
        <time>2022-02-27T10:03:05Z</time>
      </trkpt>
      <trkpt lat="49.44123" lon="1.15582">
        <ele>93.4</ele>
        <time>2022-02-27T10:03:06Z</time>
      </trkpt>
      <trkpt lat="49.44122" lon="1.15583">
        <ele>93.4</ele>
        <time>2022-02-27T10:03:07Z</time>
      </trkpt>
      <trkpt lat="49.4412" lon="1.15586">
        <ele>93.5</ele>
        <time>2022-02-27T10:03:09Z</time>
      </trkpt>
      <trkpt lat="49.44119" lon="1.15586">
        <ele>93.5</ele>
        <time>2022-02-27T10:03:10Z</time>
      </trkpt>
      <trkpt lat="49.44119" lon="1.15585">
        <ele>93.5</ele>
        <time>2022-02-27T10:03:11Z</time>
      </trkpt>
      <trkpt lat="49.44119" lon="1.15585">
        <ele>93.5</ele>
        <time>2022-02-27T10:03:13Z</time>
      </trkpt>
      <trkpt lat="49.44118" lon="1.15584">
        <ele>93.5</ele>
        <time>2022-02-27T10:03:14Z</time>
      </trkpt>
      <trkpt lat="49.44119" lon="1.15584">
        <ele>93.5</ele>
        <time>2022-02-27T10:03:15Z</time>
      </trkpt>
      <trkpt lat="49.44119" lon="1.15585">
        <ele>93.5</ele>
        <time>2022-02-27T10:03:16Z</time>
      </trkpt>
      <trkpt lat="49.44119" lon="1.15586">
        <ele>93.6</ele>
        <time>2022-02-27T10:03:17Z</time>
      </trkpt>
      <trkpt lat="49.4412" lon="1.15587">
        <ele>93.6</ele>
        <time>2022-02-27T10:03:19Z</time>
      </trkpt>
      <trkpt lat="49.4412" lon="1.15587">
        <ele>93.6</ele>
        <time>2022-02-27T10:03:20Z</time>
      </trkpt>
      <trkpt lat="49.4412" lon="1.15587">
        <ele>93.6</ele>
        <time>2022-02-27T10:03:21Z</time>
      </trkpt>
      <trkpt lat="49.4412" lon="1.15587">
        <ele>93.6</ele>
        <time>2022-02-27T10:03:22Z</time>
      </trkpt>
      <trkpt lat="49.44121" lon="1.15587">
        <ele>93.6</ele>
        <time>2022-02-27T10:03:23Z</time>
      </trkpt>
      <trkpt lat="49.44121" lon="1.15587">
        <ele>93.6</ele>
        <time>2022-02-27T10:03:24Z</time>
      </trkpt>
      <trkpt lat="49.44121" lon="1.15586">
        <ele>93.6</ele>
        <time>2022-02-27T10:03:25Z</time>
      </trkpt>
      <trkpt lat="49.44121" lon="1.15586">
        <ele>93.6</ele>
        <time>2022-02-27T10:03:26Z</time>
      </trkpt>
      <trkpt lat="49.44121" lon="1.15585">
        <ele>93.6</ele>
        <time>2022-02-27T10:03:27Z</time>
      </trkpt>
      <trkpt lat="49.44122" lon="1.15585">
        <ele>93.6</ele>
        <time>2022-02-27T10:03:29Z</time>
      </trkpt>
      <trkpt lat="49.44122" lon="1.15585">
        <ele>93.6</ele>
        <time>2022-02-27T10:03:30Z</time>
      </trkpt>
      <trkpt lat="49.44122" lon="1.15585">
        <ele>93.7</ele>
        <time>2022-02-27T10:03:31Z</time>
      </trkpt>
      <trkpt lat="49.44122" lon="1.15585">
        <ele>93.7</ele>
        <time>2022-02-27T10:03:32Z</time>
      </trkpt>
      <trkpt lat="49.44122" lon="1.15584">
        <ele>93.7</ele>
        <time>2022-02-27T10:03:33Z</time>
      </trkpt>
      <trkpt lat="49.44126" lon="1.15586">
        <ele>93.7</ele>
        <time>2022-02-27T10:04:57Z</time>
      </trkpt>
      <trkpt lat="49.44127" lon="1.1559">
        <ele>93.8</ele>
        <time>2022-02-27T10:04:58Z</time>
      </trkpt>
      <trkpt lat="49.44128" lon="1.15591">
        <ele>93.8</ele>
        <time>2022-02-27T10:04:59Z</time>
      </trkpt>
      <trkpt lat="49.44128" lon="1.15591">
        <ele>93.8</ele>
        <time>2022-02-27T10:05:00Z</time>
      </trkpt>
      <trkpt lat="49.44129" lon="1.15592">
        <ele>93.8</ele>
        <time>2022-02-27T10:05:01Z</time>
      </trkpt>
      <trkpt lat="49.44129" lon="1.15593">
        <ele>93.8</ele>
        <time>2022-02-27T10:05:02Z</time>
      </trkpt>
      <trkpt lat="49.44129" lon="1.15594">
        <ele>93.9</ele>
        <time>2022-02-27T10:05:03Z</time>
      </trkpt>
      <trkpt lat="49.44129" lon="1.15595">
        <ele>93.9</ele>
        <time>2022-02-27T10:05:04Z</time>
      </trkpt>
      <trkpt lat="49.44129" lon="1.15597">
        <ele>93.9</ele>
        <time>2022-02-27T10:05:05Z</time>
      </trkpt>
      <trkpt lat="49.4413" lon="1.15598">
        <ele>93.9</ele>
        <time>2022-02-27T10:05:06Z</time>
      </trkpt>
      <trkpt lat="49.4413" lon="1.156">
        <ele>93.9</ele>
        <time>2022-02-27T10:05:08Z</time>
      </trkpt>
      <trkpt lat="49.4413" lon="1.15601">
        <ele>93.9</ele>
        <time>2022-02-27T10:05:09Z</time>
      </trkpt>
      <trkpt lat="49.44131" lon="1.15603">
        <ele>93.9</ele>
        <time>2022-02-27T10:05:10Z</time>
      </trkpt>
      <trkpt lat="49.44131" lon="1.15605">
        <ele>94</ele>
        <time>2022-02-27T10:05:11Z</time>
      </trkpt>
      <trkpt lat="49.44131" lon="1.15608">
        <ele>94</ele>
        <time>2022-02-27T10:05:12Z</time>
      </trkpt>
      <trkpt lat="49.44131" lon="1.1561">
        <ele>94</ele>
        <time>2022-02-27T10:05:13Z</time>
      </trkpt>
      <trkpt lat="49.44132" lon="1.15612">
        <ele>94</ele>
        <time>2022-02-27T10:05:14Z</time>
      </trkpt>
      <trkpt lat="49.44131" lon="1.15614">
        <ele>94</ele>
        <time>2022-02-27T10:05:15Z</time>
      </trkpt>
      <trkpt lat="49.44131" lon="1.15617">
        <ele>94</ele>
        <time>2022-02-27T10:05:16Z</time>
      </trkpt>
      <trkpt lat="49.4413" lon="1.1562">
        <ele>94.1</ele>
        <time>2022-02-27T10:05:17Z</time>
      </trkpt>
      <trkpt lat="49.44129" lon="1.15624">
        <ele>94.1</ele>
        <time>2022-02-27T10:05:19Z</time>
      </trkpt>
      <trkpt lat="49.44126" lon="1.15629">
        <ele>94.1</ele>
        <time>2022-02-27T10:05:20Z</time>
      </trkpt>
      <trkpt lat="49.44125" lon="1.15633">
        <ele>94.2</ele>
        <time>2022-02-27T10:05:21Z</time>
      </trkpt>
      <trkpt lat="49.44124" lon="1.15637">
        <ele>94.2</ele>
        <time>2022-02-27T10:05:22Z</time>
      </trkpt>
      <trkpt lat="49.44125" lon="1.15643">
        <ele>94.2</ele>
        <time>2022-02-27T10:05:23Z</time>
      </trkpt>
      <trkpt lat="49.44125" lon="1.15645">
        <ele>94.2</ele>
        <time>2022-02-27T10:05:24Z</time>
      </trkpt>
      <trkpt lat="49.44124" lon="1.1565">
        <ele>94.3</ele>
        <time>2022-02-27T10:05:25Z</time>
      </trkpt>
      <trkpt lat="49.44124" lon="1.15652">
        <ele>94.3</ele>
        <time>2022-02-27T10:05:26Z</time>
      </trkpt>
      <trkpt lat="49.44122" lon="1.15656">
        <ele>94.3</ele>
        <time>2022-02-27T10:05:27Z</time>
      </trkpt>
      <trkpt lat="49.44122" lon="1.15658">
        <ele>94.3</ele>
        <time>2022-02-27T10:05:28Z</time>
      </trkpt>
      <trkpt lat="49.4412" lon="1.15662">
        <ele>94.4</ele>
        <time>2022-02-27T10:05:29Z</time>
      </trkpt>
      <trkpt lat="49.4412" lon="1.15663">
        <ele>94.4</ele>
        <time>2022-02-27T10:05:30Z</time>
      </trkpt>
      <trkpt lat="49.44119" lon="1.15667">
        <ele>94.4</ele>
        <time>2022-02-27T10:05:31Z</time>
      </trkpt>
      <trkpt lat="49.44119" lon="1.15669">
        <ele>94.5</ele>
        <time>2022-02-27T10:05:32Z</time>
      </trkpt>
      <trkpt lat="49.44118" lon="1.15674">
        <ele>94.5</ele>
        <time>2022-02-27T10:05:33Z</time>
      </trkpt>
      <trkpt lat="49.44117" lon="1.1568">
        <ele>94.6</ele>
        <time>2022-02-27T10:05:34Z</time>
      </trkpt>
      <trkpt lat="49.44116" lon="1.15686">
        <ele>94.7</ele>
        <time>2022-02-27T10:05:35Z</time>
      </trkpt>
      <trkpt lat="49.44115" lon="1.15692">
        <ele>94.8</ele>
        <time>2022-02-27T10:05:36Z</time>
      </trkpt>
      <trkpt lat="49.44114" lon="1.15698">
        <ele>94.9</ele>
        <time>2022-02-27T10:05:37Z</time>
      </trkpt>
      <trkpt lat="49.44114" lon="1.15701">
        <ele>94.9</ele>
        <time>2022-02-27T10:05:38Z</time>
      </trkpt>
      <trkpt lat="49.44113" lon="1.15708">
        <ele>95.1</ele>
        <time>2022-02-27T10:05:39Z</time>
      </trkpt>
      <trkpt lat="49.44112" lon="1.15713">
        <ele>95.2</ele>
        <time>2022-02-27T10:05:40Z</time>
      </trkpt>
      <trkpt lat="49.44111" lon="1.15719">
        <ele>95.4</ele>
        <time>2022-02-27T10:05:41Z</time>
      </trkpt>
      <trkpt lat="49.4411" lon="1.15724">
        <ele>95.5</ele>
        <time>2022-02-27T10:05:42Z</time>
      </trkpt>
      <trkpt lat="49.44109" lon="1.15728">
        <ele>95.6</ele>
        <time>2022-02-27T10:05:43Z</time>
      </trkpt>
      <trkpt lat="49.44109" lon="1.15733">
        <ele>95.8</ele>
        <time>2022-02-27T10:05:44Z</time>
      </trkpt>
      <trkpt lat="49.44108" lon="1.15739">
        <ele>96</ele>
        <time>2022-02-27T10:05:45Z</time>
      </trkpt>
      <trkpt lat="49.44108" lon="1.15742">
        <ele>96</ele>
        <time>2022-02-27T10:05:46Z</time>
      </trkpt>
      <trkpt lat="49.44106" lon="1.15753">
        <ele>96.4</ele>
        <time>2022-02-27T10:05:48Z</time>
      </trkpt>
      <trkpt lat="49.44105" lon="1.15756">
        <ele>96.5</ele>
        <time>2022-02-27T10:05:50Z</time>
      </trkpt>
      <trkpt lat="49.44104" lon="1.15757">
        <ele>96.5</ele>
        <time>2022-02-27T10:05:51Z</time>
      </trkpt>
      <trkpt lat="49.44104" lon="1.15758">
        <ele>96.6</ele>
        <time>2022-02-27T10:05:52Z</time>
      </trkpt>
      <trkpt lat="49.44104" lon="1.1576">
        <ele>96.6</ele>
        <time>2022-02-27T10:05:54Z</time>
      </trkpt>
      <trkpt lat="49.44104" lon="1.15761">
        <ele>96.6</ele>
        <time>2022-02-27T10:05:55Z</time>
      </trkpt>
      <trkpt lat="49.44104" lon="1.15761">
        <ele>96.6</ele>
        <time>2022-02-27T10:05:56Z</time>
      </trkpt>
      <trkpt lat="49.44105" lon="1.15761">
        <ele>96.7</ele>
        <time>2022-02-27T10:05:57Z</time>
      </trkpt>
      <trkpt lat="49.44105" lon="1.15761">
        <ele>96.7</ele>
        <time>2022-02-27T10:05:58Z</time>
      </trkpt>
      <trkpt lat="49.44106" lon="1.15762">
        <ele>96.7</ele>
        <time>2022-02-27T10:05:59Z</time>
      </trkpt>
      <trkpt lat="49.44106" lon="1.15762">
        <ele>96.8</ele>
        <time>2022-02-27T10:06:00Z</time>
      </trkpt>
      <trkpt lat="49.44107" lon="1.15763">
        <ele>96.8</ele>
        <time>2022-02-27T10:06:01Z</time>
      </trkpt>
      <trkpt lat="49.44107" lon="1.15763">
        <ele>96.8</ele>
        <time>2022-02-27T10:06:02Z</time>
      </trkpt>
      <trkpt lat="49.44107" lon="1.15763">
        <ele>96.8</ele>
        <time>2022-02-27T10:06:04Z</time>
      </trkpt>
      <trkpt lat="49.44107" lon="1.15763">
        <ele>96.8</ele>
        <time>2022-02-27T10:06:05Z</time>
      </trkpt>
      <trkpt lat="49.44107" lon="1.15763">
        <ele>96.8</ele>
        <time>2022-02-27T10:06:07Z</time>
      </trkpt>
      <trkpt lat="49.44107" lon="1.15762">
        <ele>96.8</ele>
        <time>2022-02-27T10:06:09Z</time>
      </trkpt>
      <trkpt lat="49.44107" lon="1.15762">
        <ele>96.8</ele>
        <time>2022-02-27T10:06:10Z</time>
      </trkpt>
      <trkpt lat="49.44107" lon="1.15762">
        <ele>96.8</ele>
        <time>2022-02-27T10:06:11Z</time>
      </trkpt>
      <trkpt lat="49.44108" lon="1.15762">
        <ele>96.8</ele>
        <time>2022-02-27T10:06:12Z</time>
      </trkpt>
      <trkpt lat="49.44108" lon="1.15762">
        <ele>96.8</ele>
        <time>2022-02-27T10:06:13Z</time>
      </trkpt>
      <trkpt lat="49.44107" lon="1.15763">
        <ele>96.9</ele>
        <time>2022-02-27T10:06:14Z</time>
      </trkpt>
      <trkpt lat="49.44107" lon="1.15763">
        <ele>96.9</ele>
        <time>2022-02-27T10:06:15Z</time>
      </trkpt>
      <trkpt lat="49.44107" lon="1.15763">
        <ele>96.9</ele>
        <time>2022-02-27T10:06:16Z</time>
      </trkpt>
      <trkpt lat="49.44107" lon="1.15763">
        <ele>96.9</ele>
        <time>2022-02-27T10:06:17Z</time>
      </trkpt>
      <trkpt lat="49.44106" lon="1.15763">
        <ele>96.9</ele>
        <time>2022-02-27T10:06:18Z</time>
      </trkpt>
      <trkpt lat="49.44106" lon="1.15762">
        <ele>96.9</ele>
        <time>2022-02-27T10:06:19Z</time>
      </trkpt>
      <trkpt lat="49.44106" lon="1.15762">
        <ele>96.9</ele>
        <time>2022-02-27T10:06:20Z</time>
      </trkpt>
      <trkpt lat="49.44106" lon="1.15762">
        <ele>97</ele>
        <time>2022-02-27T10:06:21Z</time>
      </trkpt>
      <trkpt lat="49.44105" lon="1.15762">
        <ele>97</ele>
        <time>2022-02-27T10:06:22Z</time>
      </trkpt>
      <trkpt lat="49.44105" lon="1.15762">
        <ele>97</ele>
        <time>2022-02-27T10:06:23Z</time>
      </trkpt>
      <trkpt lat="49.44105" lon="1.15762">
        <ele>97</ele>
        <time>2022-02-27T10:06:24Z</time>
      </trkpt>
      <trkpt lat="49.44105" lon="1.15761">
        <ele>97</ele>
        <time>2022-02-27T10:06:25Z</time>
      </trkpt>
      <trkpt lat="49.44105" lon="1.15761">
        <ele>97</ele>
        <time>2022-02-27T10:06:26Z</time>
      </trkpt>
      <trkpt lat="49.44105" lon="1.15761">
        <ele>97</ele>
        <time>2022-02-27T10:06:27Z</time>
      </trkpt>
      <trkpt lat="49.44105" lon="1.15761">
        <ele>97</ele>
        <time>2022-02-27T10:06:28Z</time>
      </trkpt>
      <trkpt lat="49.44105" lon="1.1576">
        <ele>97</ele>
        <time>2022-02-27T10:06:29Z</time>
      </trkpt>
      <trkpt lat="49.44105" lon="1.1576">
        <ele>97</ele>
        <time>2022-02-27T10:06:30Z</time>
      </trkpt>
      <trkpt lat="49.44104" lon="1.1576">
        <ele>97</ele>
        <time>2022-02-27T10:06:31Z</time>
      </trkpt>
      <trkpt lat="49.44104" lon="1.1576">
        <ele>97</ele>
        <time>2022-02-27T10:06:32Z</time>
      </trkpt>
      <trkpt lat="49.44098" lon="1.15768">
        <ele>97.3</ele>
        <time>2022-02-27T10:08:38Z</time>
      </trkpt>
      <trkpt lat="49.44098" lon="1.1577">
        <ele>97.3</ele>
        <time>2022-02-27T10:08:39Z</time>
      </trkpt>
      <trkpt lat="49.44099" lon="1.15771">
        <ele>97.4</ele>
        <time>2022-02-27T10:08:40Z</time>
      </trkpt>
      <trkpt lat="49.44099" lon="1.15771">
        <ele>97.4</ele>
        <time>2022-02-27T10:08:41Z</time>
      </trkpt>
      <trkpt lat="49.44098" lon="1.15771">
        <ele>97.4</ele>
        <time>2022-02-27T10:08:42Z</time>
      </trkpt>
      <trkpt lat="49.44098" lon="1.15771">
        <ele>97.4</ele>
        <time>2022-02-27T10:08:43Z</time>
      </trkpt>
      <trkpt lat="49.44098" lon="1.15771">
        <ele>97.4</ele>
        <time>2022-02-27T10:08:44Z</time>
      </trkpt>
      <trkpt lat="49.44099" lon="1.15771">
        <ele>97.4</ele>
        <time>2022-02-27T10:08:46Z</time>
      </trkpt>
      <trkpt lat="49.44099" lon="1.15771">
        <ele>97.4</ele>
        <time>2022-02-27T10:08:47Z</time>
      </trkpt>
      <trkpt lat="49.44099" lon="1.15771">
        <ele>97.4</ele>
        <time>2022-02-27T10:08:48Z</time>
      </trkpt>
      <trkpt lat="49.44099" lon="1.15771">
        <ele>97.4</ele>
        <time>2022-02-27T10:08:49Z</time>
      </trkpt>
      <trkpt lat="49.44099" lon="1.1577">
        <ele>97.4</ele>
        <time>2022-02-27T10:08:50Z</time>
      </trkpt>
      <trkpt lat="49.44099" lon="1.1577">
        <ele>97.4</ele>
        <time>2022-02-27T10:08:51Z</time>
      </trkpt>
      <trkpt lat="49.44099" lon="1.15771">
        <ele>97.4</ele>
        <time>2022-02-27T10:08:53Z</time>
      </trkpt>
      <trkpt lat="49.44099" lon="1.15772">
        <ele>97.4</ele>
        <time>2022-02-27T10:08:54Z</time>
      </trkpt>
      <trkpt lat="49.44099" lon="1.15772">
        <ele>97.5</ele>
        <time>2022-02-27T10:08:55Z</time>
      </trkpt>
      <trkpt lat="49.44099" lon="1.15773">
        <ele>97.5</ele>
        <time>2022-02-27T10:08:56Z</time>
      </trkpt>
      <trkpt lat="49.44098" lon="1.15775">
        <ele>97.5</ele>
        <time>2022-02-27T10:08:57Z</time>
      </trkpt>
      <trkpt lat="49.44097" lon="1.15778">
        <ele>97.6</ele>
        <time>2022-02-27T10:08:58Z</time>
      </trkpt>
      <trkpt lat="49.44095" lon="1.15782">
        <ele>97.6</ele>
        <time>2022-02-27T10:08:59Z</time>
      </trkpt>
      <trkpt lat="49.44093" lon="1.15786">
        <ele>97.7</ele>
        <time>2022-02-27T10:09:01Z</time>
      </trkpt>
      <trkpt lat="49.44091" lon="1.15788">
        <ele>97.7</ele>
        <time>2022-02-27T10:09:02Z</time>
      </trkpt>
      <trkpt lat="49.4409" lon="1.15789">
        <ele>97.7</ele>
        <time>2022-02-27T10:09:03Z</time>
      </trkpt>
      <trkpt lat="49.44089" lon="1.15791">
        <ele>97.7</ele>
        <time>2022-02-27T10:09:04Z</time>
      </trkpt>
      <trkpt lat="49.44088" lon="1.15793">
        <ele>97.8</ele>
        <time>2022-02-27T10:09:05Z</time>
      </trkpt>
      <trkpt lat="49.44087" lon="1.15794">
        <ele>97.8</ele>
        <time>2022-02-27T10:09:06Z</time>
      </trkpt>
      <trkpt lat="49.44085" lon="1.15795">
        <ele>97.8</ele>
        <time>2022-02-27T10:09:07Z</time>
      </trkpt>
      <trkpt lat="49.44082" lon="1.15797">
        <ele>98.9</ele>
        <time>2022-02-27T10:09:09Z</time>
      </trkpt>
      <trkpt lat="49.44082" lon="1.15798">
        <ele>99.4</ele>
        <time>2022-02-27T10:09:10Z</time>
      </trkpt>
      <trkpt lat="49.4408" lon="1.15798">
        <ele>100.2</ele>
        <time>2022-02-27T10:09:11Z</time>
      </trkpt>
      <trkpt lat="49.44079" lon="1.158">
        <ele>101</ele>
        <time>2022-02-27T10:09:12Z</time>
      </trkpt>
      <trkpt lat="49.44078" lon="1.15803">
        <ele>102</ele>
        <time>2022-02-27T10:09:13Z</time>
      </trkpt>
      <trkpt lat="49.44076" lon="1.15808">
        <ele>103.5</ele>
        <time>2022-02-27T10:09:15Z</time>
      </trkpt>
      <trkpt lat="49.44075" lon="1.15812">
        <ele>104.8</ele>
        <time>2022-02-27T10:09:16Z</time>
      </trkpt>
      <trkpt lat="49.44075" lon="1.15813">
        <ele>105.3</ele>
        <time>2022-02-27T10:09:17Z</time>
      </trkpt>
      <trkpt lat="49.44074" lon="1.15817">
        <ele>105</ele>
        <time>2022-02-27T10:09:19Z</time>
      </trkpt>
      <trkpt lat="49.44073" lon="1.15822">
        <ele>104.7</ele>
        <time>2022-02-27T10:09:20Z</time>
      </trkpt>
      <trkpt lat="49.44073" lon="1.15828">
        <ele>104.4</ele>
        <time>2022-02-27T10:09:21Z</time>
      </trkpt>
      <trkpt lat="49.44072" lon="1.15832">
        <ele>104.1</ele>
        <time>2022-02-27T10:09:22Z</time>
      </trkpt>
      <trkpt lat="49.44072" lon="1.15838">
        <ele>103.7</ele>
        <time>2022-02-27T10:09:24Z</time>
      </trkpt>
      <trkpt lat="49.44072" lon="1.15842">
        <ele>103.4</ele>
        <time>2022-02-27T10:09:25Z</time>
      </trkpt>
      <trkpt lat="49.44071" lon="1.15848">
        <ele>102.9</ele>
        <time>2022-02-27T10:09:26Z</time>
      </trkpt>
      <trkpt lat="49.44071" lon="1.1585">
        <ele>102.7</ele>
        <time>2022-02-27T10:09:27Z</time>
      </trkpt>
      <trkpt lat="49.4407" lon="1.15855">
        <ele>102.4</ele>
        <time>2022-02-27T10:09:28Z</time>
      </trkpt>
      <trkpt lat="49.44069" lon="1.15859">
        <ele>102.1</ele>
        <time>2022-02-27T10:09:29Z</time>
      </trkpt>
      <trkpt lat="49.44068" lon="1.15863">
        <ele>101.7</ele>
        <time>2022-02-27T10:09:30Z</time>
      </trkpt>
      <trkpt lat="49.44067" lon="1.15867">
        <ele>101.4</ele>
        <time>2022-02-27T10:09:31Z</time>
      </trkpt>
      <trkpt lat="49.44068" lon="1.1587">
        <ele>101.1</ele>
        <time>2022-02-27T10:09:32Z</time>
      </trkpt>
      <trkpt lat="49.44068" lon="1.15872">
        <ele>101</ele>
        <time>2022-02-27T10:09:33Z</time>
      </trkpt>
      <trkpt lat="49.44067" lon="1.15877">
        <ele>100.5</ele>
        <time>2022-02-27T10:09:34Z</time>
      </trkpt>
      <trkpt lat="49.44066" lon="1.15879">
        <ele>100.4</ele>
        <time>2022-02-27T10:09:35Z</time>
      </trkpt>
      <trkpt lat="49.44064" lon="1.15883">
        <ele>100</ele>
        <time>2022-02-27T10:09:36Z</time>
      </trkpt>
      <trkpt lat="49.4406" lon="1.15922">
        <ele>97.4</ele>
        <time>2022-02-27T10:09:37Z</time>
      </trkpt>
      <trkpt lat="49.44059" lon="1.15926">
        <ele>97.3</ele>
        <time>2022-02-27T10:09:38Z</time>
      </trkpt>
      <trkpt lat="49.44058" lon="1.15931">
        <ele>97.1</ele>
        <time>2022-02-27T10:09:39Z</time>
      </trkpt>
      <trkpt lat="49.44058" lon="1.15932">
        <ele>97.1</ele>
        <time>2022-02-27T10:09:40Z</time>
      </trkpt>
      <trkpt lat="49.44059" lon="1.15933">
        <ele>97.1</ele>
        <time>2022-02-27T10:09:42Z</time>
      </trkpt>
      <trkpt lat="49.44058" lon="1.15935">
        <ele>97</ele>
        <time>2022-02-27T10:09:43Z</time>
      </trkpt>
      <trkpt lat="49.44057" lon="1.15936">
        <ele>97</ele>
        <time>2022-02-27T10:09:44Z</time>
      </trkpt>
      <trkpt lat="49.44061" lon="1.15934">
        <ele>96.8</ele>
        <time>2022-02-27T10:09:45Z</time>
      </trkpt>
      <trkpt lat="49.44064" lon="1.1593">
        <ele>96.6</ele>
        <time>2022-02-27T10:09:46Z</time>
      </trkpt>
      <trkpt lat="49.44068" lon="1.15926">
        <ele>96.4</ele>
        <time>2022-02-27T10:09:47Z</time>
      </trkpt>
      <trkpt lat="49.44071" lon="1.15923">
        <ele>96.2</ele>
        <time>2022-02-27T10:09:48Z</time>
      </trkpt>
      <trkpt lat="49.44073" lon="1.15919">
        <ele>96</ele>
        <time>2022-02-27T10:09:49Z</time>
      </trkpt>
      <trkpt lat="49.44077" lon="1.15917">
        <ele>95.8</ele>
        <time>2022-02-27T10:09:50Z</time>
      </trkpt>
      <trkpt lat="49.4408" lon="1.15916">
        <ele>95.7</ele>
        <time>2022-02-27T10:09:51Z</time>
      </trkpt>
      <trkpt lat="49.44085" lon="1.15914">
        <ele>95.5</ele>
        <time>2022-02-27T10:09:52Z</time>
      </trkpt>
      <trkpt lat="49.44084" lon="1.15913">
        <ele>95.5</ele>
        <time>2022-02-27T10:09:53Z</time>
      </trkpt>
      <trkpt lat="49.44083" lon="1.15913">
        <ele>95.4</ele>
        <time>2022-02-27T10:09:54Z</time>
      </trkpt>
      <trkpt lat="49.44082" lon="1.15912">
        <ele>95.4</ele>
        <time>2022-02-27T10:09:55Z</time>
      </trkpt>
      <trkpt lat="49.44081" lon="1.15912">
        <ele>95.3</ele>
        <time>2022-02-27T10:09:56Z</time>
      </trkpt>
      <trkpt lat="49.4408" lon="1.15914">
        <ele>95.2</ele>
        <time>2022-02-27T10:09:57Z</time>
      </trkpt>
      <trkpt lat="49.4408" lon="1.15915">
        <ele>95.2</ele>
        <time>2022-02-27T10:09:58Z</time>
      </trkpt>
      <trkpt lat="49.44079" lon="1.15916">
        <ele>95.2</ele>
        <time>2022-02-27T10:09:59Z</time>
      </trkpt>
      <trkpt lat="49.44079" lon="1.15917">
        <ele>95.1</ele>
        <time>2022-02-27T10:10:00Z</time>
      </trkpt>
      <trkpt lat="49.44078" lon="1.15918">
        <ele>95.1</ele>
        <time>2022-02-27T10:10:01Z</time>
      </trkpt>
      <trkpt lat="49.44078" lon="1.15919">
        <ele>95</ele>
        <time>2022-02-27T10:10:02Z</time>
      </trkpt>
      <trkpt lat="49.44077" lon="1.1592">
        <ele>95</ele>
        <time>2022-02-27T10:10:03Z</time>
      </trkpt>
      <trkpt lat="49.44076" lon="1.15921">
        <ele>95</ele>
        <time>2022-02-27T10:10:04Z</time>
      </trkpt>
      <trkpt lat="49.44076" lon="1.15922">
        <ele>94.9</ele>
        <time>2022-02-27T10:10:05Z</time>
      </trkpt>
      <trkpt lat="49.44075" lon="1.15923">
        <ele>94.9</ele>
        <time>2022-02-27T10:10:06Z</time>
      </trkpt>
      <trkpt lat="49.44075" lon="1.15924">
        <ele>94.8</ele>
        <time>2022-02-27T10:10:12Z</time>
      </trkpt>
      <trkpt lat="49.44074" lon="1.15925">
        <ele>94.8</ele>
        <time>2022-02-27T10:10:13Z</time>
      </trkpt>
      <trkpt lat="49.44074" lon="1.15926">
        <ele>94.8</ele>
        <time>2022-02-27T10:10:14Z</time>
      </trkpt>
      <trkpt lat="49.44072" lon="1.15931">
        <ele>94.6</ele>
        <time>2022-02-27T10:10:15Z</time>
      </trkpt>
      <trkpt lat="49.4407" lon="1.15936">
        <ele>94.4</ele>
        <time>2022-02-27T10:10:16Z</time>
      </trkpt>
      <trkpt lat="49.4407" lon="1.15932">
        <ele>94.3</ele>
        <time>2022-02-27T10:10:17Z</time>
      </trkpt>
      <trkpt lat="49.44071" lon="1.15931">
        <ele>94.2</ele>
        <time>2022-02-27T10:10:18Z</time>
      </trkpt>
      <trkpt lat="49.44071" lon="1.1593">
        <ele>94.2</ele>
        <time>2022-02-27T10:10:19Z</time>
      </trkpt>
      <trkpt lat="49.44072" lon="1.15931">
        <ele>94.2</ele>
        <time>2022-02-27T10:10:20Z</time>
      </trkpt>
      <trkpt lat="49.44072" lon="1.15932">
        <ele>94.1</ele>
        <time>2022-02-27T10:10:21Z</time>
      </trkpt>
      <trkpt lat="49.44073" lon="1.15933">
        <ele>94.1</ele>
        <time>2022-02-27T10:10:22Z</time>
      </trkpt>
      <trkpt lat="49.44073" lon="1.15934">
        <ele>94.1</ele>
        <time>2022-02-27T10:10:23Z</time>
      </trkpt>
      <trkpt lat="49.44074" lon="1.15934">
        <ele>94</ele>
        <time>2022-02-27T10:10:24Z</time>
      </trkpt>
      <trkpt lat="49.44074" lon="1.15935">
        <ele>94</ele>
        <time>2022-02-27T10:10:25Z</time>
      </trkpt>
      <trkpt lat="49.44075" lon="1.15936">
        <ele>94</ele>
        <time>2022-02-27T10:10:38Z</time>
      </trkpt>
      <trkpt lat="49.44075" lon="1.15937">
        <ele>93.9</ele>
        <time>2022-02-27T10:10:39Z</time>
      </trkpt>
      <trkpt lat="49.44076" lon="1.15938">
        <ele>93.9</ele>
        <time>2022-02-27T10:10:40Z</time>
      </trkpt>
      <trkpt lat="49.44078" lon="1.15941">
        <ele>93.8</ele>
        <time>2022-02-27T10:10:41Z</time>
      </trkpt>
      <trkpt lat="49.44079" lon="1.15942">
        <ele>93.7</ele>
        <time>2022-02-27T10:10:42Z</time>
      </trkpt>
      <trkpt lat="49.44082" lon="1.15945">
        <ele>93.6</ele>
        <time>2022-02-27T10:10:43Z</time>
      </trkpt>
      <trkpt lat="49.44083" lon="1.15945">
        <ele>93.6</ele>
        <time>2022-02-27T10:10:44Z</time>
      </trkpt>
      <trkpt lat="49.44086" lon="1.15944">
        <ele>93.4</ele>
        <time>2022-02-27T10:10:45Z</time>
      </trkpt>
      <trkpt lat="49.4409" lon="1.15942">
        <ele>93.2</ele>
        <time>2022-02-27T10:10:46Z</time>
      </trkpt>
      <trkpt lat="49.44099" lon="1.15934">
        <ele>92.1</ele>
        <time>2022-02-27T10:10:47Z</time>
      </trkpt>
      <trkpt lat="49.44105" lon="1.15927">
        <ele>91.5</ele>
        <time>2022-02-27T10:10:48Z</time>
      </trkpt>
      <trkpt lat="49.4411" lon="1.1592">
        <ele>90.9</ele>
        <time>2022-02-27T10:10:49Z</time>
      </trkpt>
      <trkpt lat="49.44114" lon="1.15913">
        <ele>90.3</ele>
        <time>2022-02-27T10:10:50Z</time>
      </trkpt>
      <trkpt lat="49.44118" lon="1.15907">
        <ele>89.9</ele>
        <time>2022-02-27T10:10:51Z</time>
      </trkpt>
      <trkpt lat="49.44122" lon="1.15901">
        <ele>89.4</ele>
        <time>2022-02-27T10:10:52Z</time>
      </trkpt>
      <trkpt lat="49.44127" lon="1.15893">
        <ele>88.8</ele>
        <time>2022-02-27T10:10:53Z</time>
      </trkpt>
      <trkpt lat="49.44133" lon="1.15886">
        <ele>88.2</ele>
        <time>2022-02-27T10:10:54Z</time>
      </trkpt>
      <trkpt lat="49.44138" lon="1.15881">
        <ele>87.7</ele>
        <time>2022-02-27T10:10:55Z</time>
      </trkpt>
      <trkpt lat="49.44143" lon="1.15876">
        <ele>87.1</ele>
        <time>2022-02-27T10:10:56Z</time>
      </trkpt>
      <trkpt lat="49.44147" lon="1.15871">
        <ele>86.6</ele>
        <time>2022-02-27T10:10:57Z</time>
      </trkpt>
      <trkpt lat="49.44151" lon="1.15867">
        <ele>86.3</ele>
        <time>2022-02-27T10:10:58Z</time>
      </trkpt>
      <trkpt lat="49.44155" lon="1.15863">
        <ele>85.9</ele>
        <time>2022-02-27T10:10:59Z</time>
      </trkpt>
      <trkpt lat="49.4416" lon="1.1586">
        <ele>85.4</ele>
        <time>2022-02-27T10:11:00Z</time>
      </trkpt>
      <trkpt lat="49.44164" lon="1.15854">
        <ele>84.9</ele>
        <time>2022-02-27T10:11:01Z</time>
      </trkpt>
      <trkpt lat="49.44167" lon="1.15848">
        <ele>84.5</ele>
        <time>2022-02-27T10:11:02Z</time>
      </trkpt>
      <trkpt lat="49.44171" lon="1.15841">
        <ele>84</ele>
        <time>2022-02-27T10:11:03Z</time>
      </trkpt>
      <trkpt lat="49.44174" lon="1.15834">
        <ele>83.5</ele>
        <time>2022-02-27T10:11:04Z</time>
      </trkpt>
      <trkpt lat="49.44177" lon="1.15827">
        <ele>83.1</ele>
        <time>2022-02-27T10:11:05Z</time>
      </trkpt>
      <trkpt lat="49.4418" lon="1.15818">
        <ele>82.7</ele>
        <time>2022-02-27T10:11:06Z</time>
      </trkpt>
      <trkpt lat="49.44184" lon="1.15808">
        <ele>82.6</ele>
        <time>2022-02-27T10:11:07Z</time>
      </trkpt>
      <trkpt lat="49.44188" lon="1.15798">
        <ele>82.3</ele>
        <time>2022-02-27T10:11:08Z</time>
      </trkpt>
      <trkpt lat="49.44192" lon="1.15788">
        <ele>81.8</ele>
        <time>2022-02-27T10:11:09Z</time>
      </trkpt>
      <trkpt lat="49.44196" lon="1.15778">
        <ele>81.2</ele>
        <time>2022-02-27T10:11:10Z</time>
      </trkpt>
      <trkpt lat="49.442" lon="1.15769">
        <ele>80.7</ele>
        <time>2022-02-27T10:11:11Z</time>
      </trkpt>
      <trkpt lat="49.44203" lon="1.15762">
        <ele>80.3</ele>
        <time>2022-02-27T10:11:12Z</time>
      </trkpt>
      <trkpt lat="49.44206" lon="1.15756">
        <ele>79.9</ele>
        <time>2022-02-27T10:11:13Z</time>
      </trkpt>
      <trkpt lat="49.4421" lon="1.15749">
        <ele>79.4</ele>
        <time>2022-02-27T10:11:14Z</time>
      </trkpt>
      <trkpt lat="49.44214" lon="1.15744">
        <ele>79</ele>
        <time>2022-02-27T10:11:15Z</time>
      </trkpt>
      <trkpt lat="49.44218" lon="1.15738">
        <ele>78.6</ele>
        <time>2022-02-27T10:11:16Z</time>
      </trkpt>
      <trkpt lat="49.44223" lon="1.15733">
        <ele>78.2</ele>
        <time>2022-02-27T10:11:17Z</time>
      </trkpt>
      <trkpt lat="49.44227" lon="1.15728">
        <ele>77.8</ele>
        <time>2022-02-27T10:11:18Z</time>
      </trkpt>
      <trkpt lat="49.44232" lon="1.15723">
        <ele>77.4</ele>
        <time>2022-02-27T10:11:19Z</time>
      </trkpt>
      <trkpt lat="49.44236" lon="1.15718">
        <ele>77</ele>
        <time>2022-02-27T10:11:20Z</time>
      </trkpt>
      <trkpt lat="49.44241" lon="1.15713">
        <ele>76.7</ele>
        <time>2022-02-27T10:11:21Z</time>
      </trkpt>
      <trkpt lat="49.44244" lon="1.15709">
        <ele>76.3</ele>
        <time>2022-02-27T10:11:22Z</time>
      </trkpt>
      <trkpt lat="49.44247" lon="1.15706">
        <ele>76.1</ele>
        <time>2022-02-27T10:11:23Z</time>
      </trkpt>
      <trkpt lat="49.4425" lon="1.15704">
        <ele>75.9</ele>
        <time>2022-02-27T10:11:24Z</time>
      </trkpt>
      <trkpt lat="49.44254" lon="1.15704">
        <ele>75.6</ele>
        <time>2022-02-27T10:11:25Z</time>
      </trkpt>
      <trkpt lat="49.44255" lon="1.15705">
        <ele>75.5</ele>
        <time>2022-02-27T10:11:26Z</time>
      </trkpt>
      <trkpt lat="49.44255" lon="1.15705">
        <ele>75.5</ele>
        <time>2022-02-27T10:11:27Z</time>
      </trkpt>
      <trkpt lat="49.44255" lon="1.15705">
        <ele>75.5</ele>
        <time>2022-02-27T10:11:28Z</time>
      </trkpt>
      <trkpt lat="49.44255" lon="1.15706">
        <ele>75.4</ele>
        <time>2022-02-27T10:11:29Z</time>
      </trkpt>
      <trkpt lat="49.44256" lon="1.15705">
        <ele>75.3</ele>
        <time>2022-02-27T10:11:30Z</time>
      </trkpt>
      <trkpt lat="49.44257" lon="1.15703">
        <ele>75.2</ele>
        <time>2022-02-27T10:11:31Z</time>
      </trkpt>
      <trkpt lat="49.44259" lon="1.15698">
        <ele>74.9</ele>
        <time>2022-02-27T10:11:32Z</time>
      </trkpt>
      <trkpt lat="49.44259" lon="1.15696">
        <ele>74.8</ele>
        <time>2022-02-27T10:11:33Z</time>
      </trkpt>
      <trkpt lat="49.44259" lon="1.15692">
        <ele>74.7</ele>
        <time>2022-02-27T10:11:34Z</time>
      </trkpt>
      <trkpt lat="49.44261" lon="1.15685">
        <ele>74.3</ele>
        <time>2022-02-27T10:11:36Z</time>
      </trkpt>
      <trkpt lat="49.44266" lon="1.15673">
        <ele>73.6</ele>
        <time>2022-02-27T10:11:37Z</time>
      </trkpt>
      <trkpt lat="49.44269" lon="1.15665">
        <ele>73.2</ele>
        <time>2022-02-27T10:11:38Z</time>
      </trkpt>
      <trkpt lat="49.44272" lon="1.15658">
        <ele>72.9</ele>
        <time>2022-02-27T10:11:39Z</time>
      </trkpt>
      <trkpt lat="49.44275" lon="1.1565">
        <ele>72.5</ele>
        <time>2022-02-27T10:11:40Z</time>
      </trkpt>
      <trkpt lat="49.44279" lon="1.15641">
        <ele>72</ele>
        <time>2022-02-27T10:11:41Z</time>
      </trkpt>
      <trkpt lat="49.44284" lon="1.1563">
        <ele>71.5</ele>
        <time>2022-02-27T10:11:42Z</time>
      </trkpt>
      <trkpt lat="49.44288" lon="1.1562">
        <ele>71.1</ele>
        <time>2022-02-27T10:11:43Z</time>
      </trkpt>
      <trkpt lat="49.4429" lon="1.15607">
        <ele>70.8</ele>
        <time>2022-02-27T10:11:44Z</time>
      </trkpt>
      <trkpt lat="49.44291" lon="1.15595">
        <ele>70.7</ele>
        <time>2022-02-27T10:11:45Z</time>
      </trkpt>
      <trkpt lat="49.44293" lon="1.15584">
        <ele>70.5</ele>
        <time>2022-02-27T10:11:46Z</time>
      </trkpt>
      <trkpt lat="49.44295" lon="1.15572">
        <ele>69.9</ele>
        <time>2022-02-27T10:11:47Z</time>
      </trkpt>
      <trkpt lat="49.44298" lon="1.1556">
        <ele>69.3</ele>
        <time>2022-02-27T10:11:48Z</time>
      </trkpt>
      <trkpt lat="49.443" lon="1.15548">
        <ele>68.7</ele>
        <time>2022-02-27T10:11:49Z</time>
      </trkpt>
      <trkpt lat="49.44303" lon="1.15536">
        <ele>68.1</ele>
        <time>2022-02-27T10:11:50Z</time>
      </trkpt>
      <trkpt lat="49.44305" lon="1.15523">
        <ele>67.4</ele>
        <time>2022-02-27T10:11:51Z</time>
      </trkpt>
      <trkpt lat="49.44306" lon="1.15511">
        <ele>66.8</ele>
        <time>2022-02-27T10:11:52Z</time>
      </trkpt>
      <trkpt lat="49.44305" lon="1.15499">
        <ele>66.2</ele>
        <time>2022-02-27T10:11:53Z</time>
      </trkpt>
      <trkpt lat="49.44304" lon="1.15487">
        <ele>65.6</ele>
        <time>2022-02-27T10:11:54Z</time>
      </trkpt>
      <trkpt lat="49.44301" lon="1.15476">
        <ele>64.9</ele>
        <time>2022-02-27T10:11:55Z</time>
      </trkpt>
      <trkpt lat="49.44298" lon="1.15465">
        <ele>64.3</ele>
        <time>2022-02-27T10:11:56Z</time>
      </trkpt>
      <trkpt lat="49.44295" lon="1.15454">
        <ele>63.6</ele>
        <time>2022-02-27T10:11:57Z</time>
      </trkpt>
      <trkpt lat="49.4429" lon="1.15442">
        <ele>62.9</ele>
        <time>2022-02-27T10:11:58Z</time>
      </trkpt>
      <trkpt lat="49.44283" lon="1.15432">
        <ele>62.2</ele>
        <time>2022-02-27T10:11:59Z</time>
      </trkpt>
      <trkpt lat="49.44275" lon="1.15423">
        <ele>61.4</ele>
        <time>2022-02-27T10:12:00Z</time>
      </trkpt>
      <trkpt lat="49.44269" lon="1.15413">
        <ele>60.7</ele>
        <time>2022-02-27T10:12:01Z</time>
      </trkpt>
      <trkpt lat="49.44264" lon="1.15402">
        <ele>60</ele>
        <time>2022-02-27T10:12:02Z</time>
      </trkpt>
      <trkpt lat="49.44257" lon="1.15392">
        <ele>59.3</ele>
        <time>2022-02-27T10:12:03Z</time>
      </trkpt>
      <trkpt lat="49.44251" lon="1.15382">
        <ele>58.5</ele>
        <time>2022-02-27T10:12:04Z</time>
      </trkpt>
      <trkpt lat="49.44244" lon="1.1537">
        <ele>57.7</ele>
        <time>2022-02-27T10:12:05Z</time>
      </trkpt>
      <trkpt lat="49.44236" lon="1.1536">
        <ele>56.9</ele>
        <time>2022-02-27T10:12:06Z</time>
      </trkpt>
      <trkpt lat="49.4423" lon="1.1535">
        <ele>56.1</ele>
        <time>2022-02-27T10:12:07Z</time>
      </trkpt>
      <trkpt lat="49.44224" lon="1.15339">
        <ele>55.3</ele>
        <time>2022-02-27T10:12:08Z</time>
      </trkpt>
      <trkpt lat="49.44218" lon="1.15327">
        <ele>54.5</ele>
        <time>2022-02-27T10:12:09Z</time>
      </trkpt>
      <trkpt lat="49.44214" lon="1.15313">
        <ele>53.7</ele>
        <time>2022-02-27T10:12:10Z</time>
      </trkpt>
      <trkpt lat="49.44211" lon="1.153">
        <ele>52.9</ele>
        <time>2022-02-27T10:12:11Z</time>
      </trkpt>
      <trkpt lat="49.44207" lon="1.15287">
        <ele>52.2</ele>
        <time>2022-02-27T10:12:12Z</time>
      </trkpt>
      <trkpt lat="49.44204" lon="1.15274">
        <ele>51.4</ele>
        <time>2022-02-27T10:12:13Z</time>
      </trkpt>
      <trkpt lat="49.44202" lon="1.1526">
        <ele>50.7</ele>
        <time>2022-02-27T10:12:14Z</time>
      </trkpt>
      <trkpt lat="49.442" lon="1.15246">
        <ele>50</ele>
        <time>2022-02-27T10:12:15Z</time>
      </trkpt>
      <trkpt lat="49.44198" lon="1.15233">
        <ele>49.3</ele>
        <time>2022-02-27T10:12:16Z</time>
      </trkpt>
      <trkpt lat="49.44198" lon="1.15222">
        <ele>48.8</ele>
        <time>2022-02-27T10:12:17Z</time>
      </trkpt>
      <trkpt lat="49.44199" lon="1.15212">
        <ele>48.3</ele>
        <time>2022-02-27T10:12:18Z</time>
      </trkpt>
      <trkpt lat="49.44201" lon="1.15203">
        <ele>48</ele>
        <time>2022-02-27T10:12:19Z</time>
      </trkpt>
      <trkpt lat="49.44204" lon="1.15195">
        <ele>48</ele>
        <time>2022-02-27T10:12:20Z</time>
      </trkpt>
      <trkpt lat="49.44206" lon="1.1519">
        <ele>47.9</ele>
        <time>2022-02-27T10:12:21Z</time>
      </trkpt>
      <trkpt lat="49.44207" lon="1.15183">
        <ele>47.7</ele>
        <time>2022-02-27T10:12:22Z</time>
      </trkpt>
      <trkpt lat="49.44209" lon="1.15175">
        <ele>47.5</ele>
        <time>2022-02-27T10:12:23Z</time>
      </trkpt>
      <trkpt lat="49.44211" lon="1.15167">
        <ele>47.3</ele>
        <time>2022-02-27T10:12:24Z</time>
      </trkpt>
      <trkpt lat="49.44213" lon="1.15159">
        <ele>47</ele>
        <time>2022-02-27T10:12:25Z</time>
      </trkpt>
      <trkpt lat="49.44215" lon="1.15151">
        <ele>46.8</ele>
        <time>2022-02-27T10:12:26Z</time>
      </trkpt>
      <trkpt lat="49.44217" lon="1.15143">
        <ele>46.5</ele>
        <time>2022-02-27T10:12:27Z</time>
      </trkpt>
      <trkpt lat="49.44219" lon="1.15135">
        <ele>46.2</ele>
        <time>2022-02-27T10:12:28Z</time>
      </trkpt>
      <trkpt lat="49.4422" lon="1.15126">
        <ele>46</ele>
        <time>2022-02-27T10:12:29Z</time>
      </trkpt>
      <trkpt lat="49.44222" lon="1.15119">
        <ele>45.5</ele>
        <time>2022-02-27T10:12:30Z</time>
      </trkpt>
      <trkpt lat="49.44225" lon="1.15112">
        <ele>44.9</ele>
        <time>2022-02-27T10:12:31Z</time>
      </trkpt>
      <trkpt lat="49.44229" lon="1.15108">
        <ele>44.3</ele>
        <time>2022-02-27T10:12:32Z</time>
      </trkpt>
      <trkpt lat="49.44234" lon="1.15106">
        <ele>43.7</ele>
        <time>2022-02-27T10:12:33Z</time>
      </trkpt>
      <trkpt lat="49.44237" lon="1.15105">
        <ele>43.3</ele>
        <time>2022-02-27T10:12:34Z</time>
      </trkpt>
      <trkpt lat="49.44243" lon="1.15108">
        <ele>42.6</ele>
        <time>2022-02-27T10:12:35Z</time>
      </trkpt>
      <trkpt lat="49.44249" lon="1.15112">
        <ele>41.7</ele>
        <time>2022-02-27T10:12:36Z</time>
      </trkpt>
      <trkpt lat="49.44256" lon="1.15118">
        <ele>41.2</ele>
        <time>2022-02-27T10:12:37Z</time>
      </trkpt>
      <trkpt lat="49.44263" lon="1.15122">
        <ele>40.8</ele>
        <time>2022-02-27T10:12:38Z</time>
      </trkpt>
      <trkpt lat="49.44269" lon="1.15127">
        <ele>40.4</ele>
        <time>2022-02-27T10:12:39Z</time>
      </trkpt>
      <trkpt lat="49.44276" lon="1.15132">
        <ele>40</ele>
        <time>2022-02-27T10:12:40Z</time>
      </trkpt>
      <trkpt lat="49.44284" lon="1.15135">
        <ele>39.6</ele>
        <time>2022-02-27T10:12:41Z</time>
      </trkpt>
      <trkpt lat="49.44291" lon="1.15139">
        <ele>39.3</ele>
        <time>2022-02-27T10:12:42Z</time>
      </trkpt>
      <trkpt lat="49.44298" lon="1.1514">
        <ele>39</ele>
        <time>2022-02-27T10:12:43Z</time>
      </trkpt>
      <trkpt lat="49.44304" lon="1.1514">
        <ele>38.8</ele>
        <time>2022-02-27T10:12:44Z</time>
      </trkpt>
      <trkpt lat="49.44308" lon="1.15134">
        <ele>38.5</ele>
        <time>2022-02-27T10:12:45Z</time>
      </trkpt>
      <trkpt lat="49.4431" lon="1.15127">
        <ele>38.3</ele>
        <time>2022-02-27T10:12:46Z</time>
      </trkpt>
      <trkpt lat="49.44313" lon="1.15118">
        <ele>38</ele>
        <time>2022-02-27T10:12:47Z</time>
      </trkpt>
      <trkpt lat="49.44314" lon="1.1511">
        <ele>37.7</ele>
        <time>2022-02-27T10:12:48Z</time>
      </trkpt>
      <trkpt lat="49.44314" lon="1.15105">
        <ele>37.5</ele>
        <time>2022-02-27T10:12:49Z</time>
      </trkpt>
      <trkpt lat="49.44312" lon="1.15098">
        <ele>37.3</ele>
        <time>2022-02-27T10:12:50Z</time>
      </trkpt>
      <trkpt lat="49.44308" lon="1.15092">
        <ele>37</ele>
        <time>2022-02-27T10:12:51Z</time>
      </trkpt>
      <trkpt lat="49.44303" lon="1.15086">
        <ele>36.7</ele>
        <time>2022-02-27T10:12:52Z</time>
      </trkpt>
      <trkpt lat="49.44299" lon="1.1508">
        <ele>36.4</ele>
        <time>2022-02-27T10:12:53Z</time>
      </trkpt>
      <trkpt lat="49.44295" lon="1.15073">
        <ele>36.1</ele>
        <time>2022-02-27T10:12:54Z</time>
      </trkpt>
      <trkpt lat="49.4429" lon="1.15067">
        <ele>35.8</ele>
        <time>2022-02-27T10:12:55Z</time>
      </trkpt>
      <trkpt lat="49.44285" lon="1.15062">
        <ele>35.4</ele>
        <time>2022-02-27T10:12:56Z</time>
      </trkpt>
      <trkpt lat="49.44281" lon="1.15054">
        <ele>35.1</ele>
        <time>2022-02-27T10:12:57Z</time>
      </trkpt>
      <trkpt lat="49.44279" lon="1.15047">
        <ele>34.9</ele>
        <time>2022-02-27T10:12:58Z</time>
      </trkpt>
      <trkpt lat="49.44274" lon="1.15042">
        <ele>34.5</ele>
        <time>2022-02-27T10:12:59Z</time>
      </trkpt>
      <trkpt lat="49.44267" lon="1.15038">
        <ele>34.2</ele>
        <time>2022-02-27T10:13:00Z</time>
      </trkpt>
      <trkpt lat="49.44261" lon="1.15036">
        <ele>33.8</ele>
        <time>2022-02-27T10:13:01Z</time>
      </trkpt>
      <trkpt lat="49.44255" lon="1.15035">
        <ele>33.5</ele>
        <time>2022-02-27T10:13:02Z</time>
      </trkpt>
      <trkpt lat="49.44251" lon="1.15036">
        <ele>33.3</ele>
        <time>2022-02-27T10:13:03Z</time>
      </trkpt>
      <trkpt lat="49.44245" lon="1.15035">
        <ele>33</ele>
        <time>2022-02-27T10:13:04Z</time>
      </trkpt>
      <trkpt lat="49.44241" lon="1.15035">
        <ele>32.8</ele>
        <time>2022-02-27T10:13:05Z</time>
      </trkpt>
      <trkpt lat="49.44235" lon="1.15031">
        <ele>32.5</ele>
        <time>2022-02-27T10:13:07Z</time>
      </trkpt>
      <trkpt lat="49.44229" lon="1.15029">
        <ele>32.3</ele>
        <time>2022-02-27T10:13:08Z</time>
      </trkpt>
      <trkpt lat="49.44221" lon="1.15022">
        <ele>31.9</ele>
        <time>2022-02-27T10:13:09Z</time>
      </trkpt>
      <trkpt lat="49.44216" lon="1.15011">
        <ele>31.6</ele>
        <time>2022-02-27T10:13:10Z</time>
      </trkpt>
      <trkpt lat="49.44212" lon="1.15004">
        <ele>31.3</ele>
        <time>2022-02-27T10:13:11Z</time>
      </trkpt>
      <trkpt lat="49.44206" lon="1.14997">
        <ele>31.1</ele>
        <time>2022-02-27T10:13:12Z</time>
      </trkpt>
      <trkpt lat="49.44201" lon="1.14995">
        <ele>30.9</ele>
        <time>2022-02-27T10:13:13Z</time>
      </trkpt>
      <trkpt lat="49.44196" lon="1.14992">
        <ele>30.6</ele>
        <time>2022-02-27T10:13:14Z</time>
      </trkpt>
      <trkpt lat="49.44191" lon="1.14988">
        <ele>30.4</ele>
        <time>2022-02-27T10:13:15Z</time>
      </trkpt>
      <trkpt lat="49.44186" lon="1.14983">
        <ele>30.2</ele>
        <time>2022-02-27T10:13:16Z</time>
      </trkpt>
      <trkpt lat="49.44176" lon="1.1497">
        <ele>29.9</ele>
        <time>2022-02-27T10:13:18Z</time>
      </trkpt>
      <trkpt lat="49.44171" lon="1.14966">
        <ele>29.8</ele>
        <time>2022-02-27T10:13:19Z</time>
      </trkpt>
      <trkpt lat="49.44165" lon="1.14964">
        <ele>29.7</ele>
        <time>2022-02-27T10:13:20Z</time>
      </trkpt>
      <trkpt lat="49.4416" lon="1.1496">
        <ele>29.5</ele>
        <time>2022-02-27T10:13:21Z</time>
      </trkpt>
      <trkpt lat="49.44154" lon="1.1495">
        <ele>29.3</ele>
        <time>2022-02-27T10:13:22Z</time>
      </trkpt>
      <trkpt lat="49.44147" lon="1.14942">
        <ele>29</ele>
        <time>2022-02-27T10:13:23Z</time>
      </trkpt>
      <trkpt lat="49.44142" lon="1.14934">
        <ele>28.8</ele>
        <time>2022-02-27T10:13:24Z</time>
      </trkpt>
      <trkpt lat="49.44136" lon="1.1493">
        <ele>28.6</ele>
        <time>2022-02-27T10:13:25Z</time>
      </trkpt>
      <trkpt lat="49.44132" lon="1.14929">
        <ele>28.4</ele>
        <time>2022-02-27T10:13:26Z</time>
      </trkpt>
      <trkpt lat="49.44129" lon="1.14928">
        <ele>28.3</ele>
        <time>2022-02-27T10:13:27Z</time>
      </trkpt>
      <trkpt lat="49.44126" lon="1.14925">
        <ele>28.2</ele>
        <time>2022-02-27T10:13:28Z</time>
      </trkpt>
      <trkpt lat="49.44126" lon="1.14918">
        <ele>28</ele>
        <time>2022-02-27T10:13:30Z</time>
      </trkpt>
      <trkpt lat="49.44127" lon="1.14911">
        <ele>27.9</ele>
        <time>2022-02-27T10:13:31Z</time>
      </trkpt>
      <trkpt lat="49.44127" lon="1.14903">
        <ele>27.7</ele>
        <time>2022-02-27T10:13:32Z</time>
      </trkpt>
      <trkpt lat="49.44127" lon="1.14895">
        <ele>27.4</ele>
        <time>2022-02-27T10:13:33Z</time>
      </trkpt>
      <trkpt lat="49.44125" lon="1.14887">
        <ele>27</ele>
        <time>2022-02-27T10:13:34Z</time>
      </trkpt>
      <trkpt lat="49.44121" lon="1.14878">
        <ele>26.6</ele>
        <time>2022-02-27T10:13:35Z</time>
      </trkpt>
      <trkpt lat="49.44117" lon="1.14867">
        <ele>26.1</ele>
        <time>2022-02-27T10:13:36Z</time>
      </trkpt>
      <trkpt lat="49.44115" lon="1.14857">
        <ele>25.7</ele>
        <time>2022-02-27T10:13:37Z</time>
      </trkpt>
      <trkpt lat="49.44112" lon="1.14847">
        <ele>25.3</ele>
        <time>2022-02-27T10:13:38Z</time>
      </trkpt>
      <trkpt lat="49.4411" lon="1.14837">
        <ele>24.9</ele>
        <time>2022-02-27T10:13:39Z</time>
      </trkpt>
      <trkpt lat="49.44108" lon="1.14826">
        <ele>24.7</ele>
        <time>2022-02-27T10:13:40Z</time>
      </trkpt>
      <trkpt lat="49.44107" lon="1.14817">
        <ele>24.5</ele>
        <time>2022-02-27T10:13:41Z</time>
      </trkpt>
      <trkpt lat="49.44104" lon="1.14807">
        <ele>24.4</ele>
        <time>2022-02-27T10:13:42Z</time>
      </trkpt>
      <trkpt lat="49.44103" lon="1.14798">
        <ele>24.2</ele>
        <time>2022-02-27T10:13:43Z</time>
      </trkpt>
      <trkpt lat="49.44101" lon="1.14787">
        <ele>24.1</ele>
        <time>2022-02-27T10:13:44Z</time>
      </trkpt>
      <trkpt lat="49.441" lon="1.14777">
        <ele>24</ele>
        <time>2022-02-27T10:13:45Z</time>
      </trkpt>
      <trkpt lat="49.44099" lon="1.14768">
        <ele>24</ele>
        <time>2022-02-27T10:13:46Z</time>
      </trkpt>
      <trkpt lat="49.44099" lon="1.14759">
        <ele>23.9</ele>
        <time>2022-02-27T10:13:47Z</time>
      </trkpt>
      <trkpt lat="49.44098" lon="1.14753">
        <ele>23.9</ele>
        <time>2022-02-27T10:13:48Z</time>
      </trkpt>
      <trkpt lat="49.44098" lon="1.14751">
        <ele>23.9</ele>
        <time>2022-02-27T10:13:49Z</time>
      </trkpt>
      <trkpt lat="49.44097" lon="1.14747">
        <ele>23.8</ele>
        <time>2022-02-27T10:13:50Z</time>
      </trkpt>
      <trkpt lat="49.44097" lon="1.14746">
        <ele>23.8</ele>
        <time>2022-02-27T10:13:51Z</time>
      </trkpt>
      <trkpt lat="49.44097" lon="1.14743">
        <ele>23.8</ele>
        <time>2022-02-27T10:13:52Z</time>
      </trkpt>
      <trkpt lat="49.44097" lon="1.1474">
        <ele>23.8</ele>
        <time>2022-02-27T10:13:53Z</time>
      </trkpt>
      <trkpt lat="49.44097" lon="1.14738">
        <ele>23.8</ele>
        <time>2022-02-27T10:13:54Z</time>
      </trkpt>
      <trkpt lat="49.44097" lon="1.14735">
        <ele>23.8</ele>
        <time>2022-02-27T10:13:55Z</time>
      </trkpt>
      <trkpt lat="49.44097" lon="1.14733">
        <ele>23.8</ele>
        <time>2022-02-27T10:13:56Z</time>
      </trkpt>
      <trkpt lat="49.44097" lon="1.1473">
        <ele>23.8</ele>
        <time>2022-02-27T10:13:57Z</time>
      </trkpt>
      <trkpt lat="49.44097" lon="1.14727">
        <ele>23.8</ele>
        <time>2022-02-27T10:13:58Z</time>
      </trkpt>
      <trkpt lat="49.44097" lon="1.14725">
        <ele>23.8</ele>
        <time>2022-02-27T10:13:59Z</time>
      </trkpt>
      <trkpt lat="49.44097" lon="1.14724">
        <ele>23.8</ele>
        <time>2022-02-27T10:14:00Z</time>
      </trkpt>
      <trkpt lat="49.44096" lon="1.14721">
        <ele>23.8</ele>
        <time>2022-02-27T10:14:01Z</time>
      </trkpt>
      <trkpt lat="49.44096" lon="1.14719">
        <ele>23.7</ele>
        <time>2022-02-27T10:14:02Z</time>
      </trkpt>
      <trkpt lat="49.44096" lon="1.14716">
        <ele>23.7</ele>
        <time>2022-02-27T10:14:03Z</time>
      </trkpt>
      <trkpt lat="49.44096" lon="1.14716">
        <ele>23.7</ele>
        <time>2022-02-27T10:14:04Z</time>
      </trkpt>
      <trkpt lat="49.44098" lon="1.14716">
        <ele>23.7</ele>
        <time>2022-02-27T10:14:06Z</time>
      </trkpt>
      <trkpt lat="49.44098" lon="1.14715">
        <ele>23.7</ele>
        <time>2022-02-27T10:14:07Z</time>
      </trkpt>
      <trkpt lat="49.44097" lon="1.14715">
        <ele>23.7</ele>
        <time>2022-02-27T10:14:08Z</time>
      </trkpt>
      <trkpt lat="49.44096" lon="1.14714">
        <ele>23.7</ele>
        <time>2022-02-27T10:14:09Z</time>
      </trkpt>
      <trkpt lat="49.44094" lon="1.14713">
        <ele>23.7</ele>
        <time>2022-02-27T10:14:11Z</time>
      </trkpt>
      <trkpt lat="49.44093" lon="1.14712">
        <ele>23.6</ele>
        <time>2022-02-27T10:14:12Z</time>
      </trkpt>
      <trkpt lat="49.44092" lon="1.14712">
        <ele>23.6</ele>
        <time>2022-02-27T10:14:13Z</time>
      </trkpt>
      <trkpt lat="49.44091" lon="1.14711">
        <ele>23.6</ele>
        <time>2022-02-27T10:14:29Z</time>
      </trkpt>
      <trkpt lat="49.4409" lon="1.1471">
        <ele>23.6</ele>
        <time>2022-02-27T10:14:30Z</time>
      </trkpt>
      <trkpt lat="49.44086" lon="1.1471">
        <ele>23.6</ele>
        <time>2022-02-27T10:14:31Z</time>
      </trkpt>
      <trkpt lat="49.44085" lon="1.14711">
        <ele>23.6</ele>
        <time>2022-02-27T10:14:32Z</time>
      </trkpt>
      <trkpt lat="49.44083" lon="1.14712">
        <ele>23.6</ele>
        <time>2022-02-27T10:14:33Z</time>
      </trkpt>
      <trkpt lat="49.44079" lon="1.14713">
        <ele>23.6</ele>
        <time>2022-02-27T10:14:35Z</time>
      </trkpt>
      <trkpt lat="49.44075" lon="1.14712">
        <ele>23.5</ele>
        <time>2022-02-27T10:14:36Z</time>
      </trkpt>
      <trkpt lat="49.4407" lon="1.1471">
        <ele>23.4</ele>
        <time>2022-02-27T10:14:37Z</time>
      </trkpt>
      <trkpt lat="49.44065" lon="1.14708">
        <ele>23.3</ele>
        <time>2022-02-27T10:14:38Z</time>
      </trkpt>
      <trkpt lat="49.44054" lon="1.14701">
        <ele>23</ele>
        <time>2022-02-27T10:14:39Z</time>
      </trkpt>
      <trkpt lat="49.44047" lon="1.14697">
        <ele>22.8</ele>
        <time>2022-02-27T10:14:41Z</time>
      </trkpt>
      <trkpt lat="49.44042" lon="1.14693">
        <ele>22.7</ele>
        <time>2022-02-27T10:14:42Z</time>
      </trkpt>
      <trkpt lat="49.44038" lon="1.14691">
        <ele>22.7</ele>
        <time>2022-02-27T10:14:43Z</time>
      </trkpt>
      <trkpt lat="49.44032" lon="1.14685">
        <ele>22.6</ele>
        <time>2022-02-27T10:14:44Z</time>
      </trkpt>
      <trkpt lat="49.44027" lon="1.14681">
        <ele>22.5</ele>
        <time>2022-02-27T10:14:45Z</time>
      </trkpt>
      <trkpt lat="49.44021" lon="1.14678">
        <ele>22.4</ele>
        <time>2022-02-27T10:14:46Z</time>
      </trkpt>
      <trkpt lat="49.44015" lon="1.14675">
        <ele>22.4</ele>
        <time>2022-02-27T10:14:47Z</time>
      </trkpt>
      <trkpt lat="49.44009" lon="1.14672">
        <ele>22.3</ele>
        <time>2022-02-27T10:14:48Z</time>
      </trkpt>
      <trkpt lat="49.44004" lon="1.1467">
        <ele>22.2</ele>
        <time>2022-02-27T10:14:49Z</time>
      </trkpt>
      <trkpt lat="49.44" lon="1.1467">
        <ele>22.2</ele>
        <time>2022-02-27T10:14:50Z</time>
      </trkpt>
      <trkpt lat="49.43995" lon="1.14666">
        <ele>22.2</ele>
        <time>2022-02-27T10:14:51Z</time>
      </trkpt>
      <trkpt lat="49.43991" lon="1.14664">
        <ele>22.1</ele>
        <time>2022-02-27T10:14:52Z</time>
      </trkpt>
      <trkpt lat="49.43986" lon="1.14661">
        <ele>22.1</ele>
        <time>2022-02-27T10:14:53Z</time>
      </trkpt>
      <trkpt lat="49.43982" lon="1.14659">
        <ele>22</ele>
        <time>2022-02-27T10:14:54Z</time>
      </trkpt>
      <trkpt lat="49.43978" lon="1.14656">
        <ele>22</ele>
        <time>2022-02-27T10:14:55Z</time>
      </trkpt>
      <trkpt lat="49.43974" lon="1.14656">
        <ele>21.9</ele>
        <time>2022-02-27T10:14:57Z</time>
      </trkpt>
      <trkpt lat="49.43971" lon="1.14656">
        <ele>21.9</ele>
        <time>2022-02-27T10:14:58Z</time>
      </trkpt>
      <trkpt lat="49.43967" lon="1.14657">
        <ele>21.8</ele>
        <time>2022-02-27T10:14:59Z</time>
      </trkpt>
      <trkpt lat="49.43963" lon="1.14658">
        <ele>21.7</ele>
        <time>2022-02-27T10:15:00Z</time>
      </trkpt>
      <trkpt lat="49.43958" lon="1.14659">
        <ele>21.6</ele>
        <time>2022-02-27T10:15:01Z</time>
      </trkpt>
      <trkpt lat="49.43953" lon="1.1466">
        <ele>21.5</ele>
        <time>2022-02-27T10:15:02Z</time>
      </trkpt>
      <trkpt lat="49.43948" lon="1.14662">
        <ele>21.4</ele>
        <time>2022-02-27T10:15:03Z</time>
      </trkpt>
      <trkpt lat="49.43939" lon="1.14668">
        <ele>21.3</ele>
        <time>2022-02-27T10:15:04Z</time>
      </trkpt>
      <trkpt lat="49.43933" lon="1.1467">
        <ele>21.3</ele>
        <time>2022-02-27T10:15:05Z</time>
      </trkpt>
      <trkpt lat="49.43928" lon="1.14673">
        <ele>21.3</ele>
        <time>2022-02-27T10:15:06Z</time>
      </trkpt>
      <trkpt lat="49.43922" lon="1.14675">
        <ele>21.2</ele>
        <time>2022-02-27T10:15:07Z</time>
      </trkpt>
      <trkpt lat="49.43916" lon="1.14676">
        <ele>21.2</ele>
        <time>2022-02-27T10:15:08Z</time>
      </trkpt>
      <trkpt lat="49.4391" lon="1.14678">
        <ele>21.2</ele>
        <time>2022-02-27T10:15:09Z</time>
      </trkpt>
      <trkpt lat="49.43905" lon="1.1468">
        <ele>21.1</ele>
        <time>2022-02-27T10:15:10Z</time>
      </trkpt>
      <trkpt lat="49.43899" lon="1.14682">
        <ele>21</ele>
        <time>2022-02-27T10:15:11Z</time>
      </trkpt>
      <trkpt lat="49.43894" lon="1.14686">
        <ele>20.9</ele>
        <time>2022-02-27T10:15:12Z</time>
      </trkpt>
      <trkpt lat="49.43889" lon="1.1469">
        <ele>20.8</ele>
        <time>2022-02-27T10:15:13Z</time>
      </trkpt>
      <trkpt lat="49.43884" lon="1.14695">
        <ele>20.8</ele>
        <time>2022-02-27T10:15:14Z</time>
      </trkpt>
      <trkpt lat="49.43879" lon="1.14701">
        <ele>20.7</ele>
        <time>2022-02-27T10:15:15Z</time>
      </trkpt>
      <trkpt lat="49.43874" lon="1.14707">
        <ele>20.6</ele>
        <time>2022-02-27T10:15:16Z</time>
      </trkpt>
      <trkpt lat="49.43869" lon="1.14712">
        <ele>20.6</ele>
        <time>2022-02-27T10:15:17Z</time>
      </trkpt>
      <trkpt lat="49.43864" lon="1.14717">
        <ele>20.5</ele>
        <time>2022-02-27T10:15:18Z</time>
      </trkpt>
      <trkpt lat="49.43859" lon="1.14722">
        <ele>20.5</ele>
        <time>2022-02-27T10:15:19Z</time>
      </trkpt>
      <trkpt lat="49.43855" lon="1.14727">
        <ele>20.4</ele>
        <time>2022-02-27T10:15:20Z</time>
      </trkpt>
      <trkpt lat="49.4385" lon="1.14731">
        <ele>20.4</ele>
        <time>2022-02-27T10:15:21Z</time>
      </trkpt>
      <trkpt lat="49.43846" lon="1.14736">
        <ele>20.3</ele>
        <time>2022-02-27T10:15:22Z</time>
      </trkpt>
      <trkpt lat="49.43842" lon="1.14741">
        <ele>20.2</ele>
        <time>2022-02-27T10:15:23Z</time>
      </trkpt>
      <trkpt lat="49.4384" lon="1.14744">
        <ele>20.2</ele>
        <time>2022-02-27T10:15:24Z</time>
      </trkpt>
      <trkpt lat="49.43837" lon="1.14746">
        <ele>20.2</ele>
        <time>2022-02-27T10:15:25Z</time>
      </trkpt>
      <trkpt lat="49.43836" lon="1.14746">
        <ele>20.2</ele>
        <time>2022-02-27T10:15:26Z</time>
      </trkpt>
      <trkpt lat="49.43833" lon="1.14744">
        <ele>20.2</ele>
        <time>2022-02-27T10:15:27Z</time>
      </trkpt>
      <trkpt lat="49.43831" lon="1.14741">
        <ele>20.2</ele>
        <time>2022-02-27T10:15:28Z</time>
      </trkpt>
      <trkpt lat="49.43826" lon="1.14739">
        <ele>20.2</ele>
        <time>2022-02-27T10:15:29Z</time>
      </trkpt>
      <trkpt lat="49.43823" lon="1.14738">
        <ele>20.2</ele>
        <time>2022-02-27T10:15:30Z</time>
      </trkpt>
      <trkpt lat="49.43819" lon="1.14737">
        <ele>20.2</ele>
        <time>2022-02-27T10:15:31Z</time>
      </trkpt>
      <trkpt lat="49.43818" lon="1.14736">
        <ele>20.2</ele>
        <time>2022-02-27T10:15:32Z</time>
      </trkpt>
      <trkpt lat="49.43814" lon="1.14734">
        <ele>20.2</ele>
        <time>2022-02-27T10:15:33Z</time>
      </trkpt>
      <trkpt lat="49.4381" lon="1.14731">
        <ele>20.2</ele>
        <time>2022-02-27T10:15:34Z</time>
      </trkpt>
      <trkpt lat="49.43804" lon="1.14729">
        <ele>20.2</ele>
        <time>2022-02-27T10:15:35Z</time>
      </trkpt>
      <trkpt lat="49.43799" lon="1.14727">
        <ele>20.2</ele>
        <time>2022-02-27T10:15:36Z</time>
      </trkpt>
      <trkpt lat="49.43789" lon="1.14727">
        <ele>20.1</ele>
        <time>2022-02-27T10:15:38Z</time>
      </trkpt>
      <trkpt lat="49.43785" lon="1.14726">
        <ele>20.1</ele>
        <time>2022-02-27T10:15:39Z</time>
      </trkpt>
      <trkpt lat="49.43784" lon="1.14726">
        <ele>20.1</ele>
        <time>2022-02-27T10:15:40Z</time>
      </trkpt>
      <trkpt lat="49.4378" lon="1.14722">
        <ele>20.1</ele>
        <time>2022-02-27T10:15:42Z</time>
      </trkpt>
      <trkpt lat="49.43775" lon="1.14716">
        <ele>20.2</ele>
        <time>2022-02-27T10:15:43Z</time>
      </trkpt>
      <trkpt lat="49.4377" lon="1.14709">
        <ele>20.2</ele>
        <time>2022-02-27T10:15:44Z</time>
      </trkpt>
      <trkpt lat="49.43769" lon="1.14702">
        <ele>20.2</ele>
        <time>2022-02-27T10:15:45Z</time>
      </trkpt>
      <trkpt lat="49.4377" lon="1.14696">
        <ele>20.2</ele>
        <time>2022-02-27T10:15:46Z</time>
      </trkpt>
      <trkpt lat="49.43768" lon="1.14681">
        <ele>20.1</ele>
        <time>2022-02-27T10:15:48Z</time>
      </trkpt>
      <trkpt lat="49.43768" lon="1.14673">
        <ele>20</ele>
        <time>2022-02-27T10:15:49Z</time>
      </trkpt>
      <trkpt lat="49.43768" lon="1.14664">
        <ele>20</ele>
        <time>2022-02-27T10:15:50Z</time>
      </trkpt>
      <trkpt lat="49.43769" lon="1.14656">
        <ele>19.9</ele>
        <time>2022-02-27T10:15:51Z</time>
      </trkpt>
      <trkpt lat="49.43769" lon="1.14647">
        <ele>19.9</ele>
        <time>2022-02-27T10:15:52Z</time>
      </trkpt>
      <trkpt lat="49.4377" lon="1.14638">
        <ele>19.9</ele>
        <time>2022-02-27T10:15:53Z</time>
      </trkpt>
      <trkpt lat="49.4377" lon="1.14629">
        <ele>19.8</ele>
        <time>2022-02-27T10:15:54Z</time>
      </trkpt>
      <trkpt lat="49.43771" lon="1.1462">
        <ele>19.8</ele>
        <time>2022-02-27T10:15:55Z</time>
      </trkpt>
      <trkpt lat="49.43772" lon="1.1461">
        <ele>19.8</ele>
        <time>2022-02-27T10:15:56Z</time>
      </trkpt>
      <trkpt lat="49.43773" lon="1.14602">
        <ele>19.8</ele>
        <time>2022-02-27T10:15:57Z</time>
      </trkpt>
      <trkpt lat="49.43773" lon="1.14594">
        <ele>19.8</ele>
        <time>2022-02-27T10:15:58Z</time>
      </trkpt>
      <trkpt lat="49.43772" lon="1.14586">
        <ele>19.8</ele>
        <time>2022-02-27T10:15:59Z</time>
      </trkpt>
      <trkpt lat="49.43772" lon="1.14577">
        <ele>19.8</ele>
        <time>2022-02-27T10:16:00Z</time>
      </trkpt>
      <trkpt lat="49.43772" lon="1.1457">
        <ele>19.8</ele>
        <time>2022-02-27T10:16:01Z</time>
      </trkpt>
      <trkpt lat="49.43772" lon="1.14562">
        <ele>19.8</ele>
        <time>2022-02-27T10:16:02Z</time>
      </trkpt>
      <trkpt lat="49.43772" lon="1.14555">
        <ele>19.7</ele>
        <time>2022-02-27T10:16:03Z</time>
      </trkpt>
      <trkpt lat="49.43771" lon="1.1455">
        <ele>19.7</ele>
        <time>2022-02-27T10:16:04Z</time>
      </trkpt>
      <trkpt lat="49.4377" lon="1.14543">
        <ele>19.7</ele>
        <time>2022-02-27T10:16:05Z</time>
      </trkpt>
      <trkpt lat="49.43769" lon="1.14536">
        <ele>19.7</ele>
        <time>2022-02-27T10:16:06Z</time>
      </trkpt>
      <trkpt lat="49.43768" lon="1.14531">
        <ele>19.7</ele>
        <time>2022-02-27T10:16:07Z</time>
      </trkpt>
      <trkpt lat="49.43768" lon="1.14525">
        <ele>19.7</ele>
        <time>2022-02-27T10:16:08Z</time>
      </trkpt>
      <trkpt lat="49.43767" lon="1.14519">
        <ele>19.7</ele>
        <time>2022-02-27T10:16:09Z</time>
      </trkpt>
      <trkpt lat="49.43765" lon="1.14502">
        <ele>19.7</ele>
        <time>2022-02-27T10:16:11Z</time>
      </trkpt>
      <trkpt lat="49.43763" lon="1.14493">
        <ele>19.7</ele>
        <time>2022-02-27T10:16:12Z</time>
      </trkpt>
      <trkpt lat="49.43762" lon="1.14484">
        <ele>19.7</ele>
        <time>2022-02-27T10:16:13Z</time>
      </trkpt>
      <trkpt lat="49.43761" lon="1.14475">
        <ele>19.7</ele>
        <time>2022-02-27T10:16:14Z</time>
      </trkpt>
      <trkpt lat="49.4376" lon="1.14467">
        <ele>19.7</ele>
        <time>2022-02-27T10:16:15Z</time>
      </trkpt>
      <trkpt lat="49.43759" lon="1.14458">
        <ele>19.7</ele>
        <time>2022-02-27T10:16:16Z</time>
      </trkpt>
      <trkpt lat="49.43758" lon="1.1445">
        <ele>19.7</ele>
        <time>2022-02-27T10:16:17Z</time>
      </trkpt>
      <trkpt lat="49.43756" lon="1.14442">
        <ele>19.6</ele>
        <time>2022-02-27T10:16:18Z</time>
      </trkpt>
      <trkpt lat="49.43753" lon="1.14434">
        <ele>19.6</ele>
        <time>2022-02-27T10:16:19Z</time>
      </trkpt>
      <trkpt lat="49.43751" lon="1.14427">
        <ele>19.6</ele>
        <time>2022-02-27T10:16:20Z</time>
      </trkpt>
      <trkpt lat="49.43748" lon="1.14418">
        <ele>19.6</ele>
        <time>2022-02-27T10:16:21Z</time>
      </trkpt>
      <trkpt lat="49.43744" lon="1.14409">
        <ele>19.5</ele>
        <time>2022-02-27T10:16:22Z</time>
      </trkpt>
      <trkpt lat="49.4374" lon="1.14402">
        <ele>19.4</ele>
        <time>2022-02-27T10:16:23Z</time>
      </trkpt>
      <trkpt lat="49.43738" lon="1.14393">
        <ele>19.4</ele>
        <time>2022-02-27T10:16:24Z</time>
      </trkpt>
      <trkpt lat="49.43735" lon="1.14384">
        <ele>19.3</ele>
        <time>2022-02-27T10:16:25Z</time>
      </trkpt>
      <trkpt lat="49.43731" lon="1.14377">
        <ele>19.3</ele>
        <time>2022-02-27T10:16:26Z</time>
      </trkpt>
      <trkpt lat="49.43727" lon="1.14371">
        <ele>19.2</ele>
        <time>2022-02-27T10:16:27Z</time>
      </trkpt>
      <trkpt lat="49.43724" lon="1.14364">
        <ele>19.2</ele>
        <time>2022-02-27T10:16:28Z</time>
      </trkpt>
      <trkpt lat="49.4372" lon="1.14358">
        <ele>19.1</ele>
        <time>2022-02-27T10:16:29Z</time>
      </trkpt>
      <trkpt lat="49.43717" lon="1.14351">
        <ele>19.1</ele>
        <time>2022-02-27T10:16:30Z</time>
      </trkpt>
      <trkpt lat="49.43715" lon="1.14343">
        <ele>19</ele>
        <time>2022-02-27T10:16:31Z</time>
      </trkpt>
      <trkpt lat="49.43714" lon="1.14336">
        <ele>19</ele>
        <time>2022-02-27T10:16:32Z</time>
      </trkpt>
      <trkpt lat="49.43714" lon="1.14332">
        <ele>19</ele>
        <time>2022-02-27T10:16:33Z</time>
      </trkpt>
      <trkpt lat="49.43715" lon="1.14326">
        <ele>19.2</ele>
        <time>2022-02-27T10:16:34Z</time>
      </trkpt>
      <trkpt lat="49.43715" lon="1.14325">
        <ele>19.2</ele>
        <time>2022-02-27T10:16:35Z</time>
      </trkpt>
      <trkpt lat="49.43716" lon="1.14321">
        <ele>19.2</ele>
        <time>2022-02-27T10:16:36Z</time>
      </trkpt>
      <trkpt lat="49.43717" lon="1.1432">
        <ele>19.2</ele>
        <time>2022-02-27T10:16:37Z</time>
      </trkpt>
      <trkpt lat="49.43716" lon="1.14315">
        <ele>19.2</ele>
        <time>2022-02-27T10:16:39Z</time>
      </trkpt>
      <trkpt lat="49.4372" lon="1.14312">
        <ele>19.3</ele>
        <time>2022-02-27T10:16:40Z</time>
      </trkpt>
      <trkpt lat="49.43722" lon="1.14308">
        <ele>19.3</ele>
        <time>2022-02-27T10:16:41Z</time>
      </trkpt>
      <trkpt lat="49.43724" lon="1.14304">
        <ele>19.4</ele>
        <time>2022-02-27T10:16:42Z</time>
      </trkpt>
      <trkpt lat="49.43724" lon="1.14303">
        <ele>19.4</ele>
        <time>2022-02-27T10:16:43Z</time>
      </trkpt>
      <trkpt lat="49.43725" lon="1.14302">
        <ele>19.4</ele>
        <time>2022-02-27T10:16:44Z</time>
      </trkpt>
      <trkpt lat="49.43726" lon="1.14301">
        <ele>19.4</ele>
        <time>2022-02-27T10:16:45Z</time>
      </trkpt>
      <trkpt lat="49.43727" lon="1.143">
        <ele>19.4</ele>
        <time>2022-02-27T10:16:46Z</time>
      </trkpt>
      <trkpt lat="49.43728" lon="1.14299">
        <ele>19.4</ele>
        <time>2022-02-27T10:16:47Z</time>
      </trkpt>
      <trkpt lat="49.43728" lon="1.14297">
        <ele>19.4</ele>
        <time>2022-02-27T10:16:48Z</time>
      </trkpt>
      <trkpt lat="49.43728" lon="1.14296">
        <ele>19.4</ele>
        <time>2022-02-27T10:16:49Z</time>
      </trkpt>
      <trkpt lat="49.43729" lon="1.14294">
        <ele>19.4</ele>
        <time>2022-02-27T10:16:50Z</time>
      </trkpt>
      <trkpt lat="49.43729" lon="1.14292">
        <ele>19.4</ele>
        <time>2022-02-27T10:16:51Z</time>
      </trkpt>
      <trkpt lat="49.4373" lon="1.14291">
        <ele>19.4</ele>
        <time>2022-02-27T10:16:52Z</time>
      </trkpt>
      <trkpt lat="49.4373" lon="1.14289">
        <ele>19.5</ele>
        <time>2022-02-27T10:16:53Z</time>
      </trkpt>
      <trkpt lat="49.4373" lon="1.14288">
        <ele>19.5</ele>
        <time>2022-02-27T10:17:31Z</time>
      </trkpt>
      <trkpt lat="49.43731" lon="1.14286">
        <ele>19.5</ele>
        <time>2022-02-27T10:17:32Z</time>
      </trkpt>
      <trkpt lat="49.43731" lon="1.14284">
        <ele>19.5</ele>
        <time>2022-02-27T10:17:33Z</time>
      </trkpt>
      <trkpt lat="49.43733" lon="1.14278">
        <ele>19.5</ele>
        <time>2022-02-27T10:17:34Z</time>
      </trkpt>
      <trkpt lat="49.43734" lon="1.14271">
        <ele>19.6</ele>
        <time>2022-02-27T10:17:35Z</time>
      </trkpt>
      <trkpt lat="49.43735" lon="1.1426">
        <ele>19.7</ele>
        <time>2022-02-27T10:17:37Z</time>
      </trkpt>
      <trkpt lat="49.43736" lon="1.14251">
        <ele>19.8</ele>
        <time>2022-02-27T10:17:38Z</time>
      </trkpt>
      <trkpt lat="49.43739" lon="1.14239">
        <ele>19.7</ele>
        <time>2022-02-27T10:17:39Z</time>
      </trkpt>
      <trkpt lat="49.43741" lon="1.14231">
        <ele>19.7</ele>
        <time>2022-02-27T10:17:40Z</time>
      </trkpt>
      <trkpt lat="49.43745" lon="1.14221">
        <ele>19.7</ele>
        <time>2022-02-27T10:17:41Z</time>
      </trkpt>
      <trkpt lat="49.43746" lon="1.14209">
        <ele>19.6</ele>
        <time>2022-02-27T10:17:42Z</time>
      </trkpt>
      <trkpt lat="49.43748" lon="1.14197">
        <ele>19.6</ele>
        <time>2022-02-27T10:17:43Z</time>
      </trkpt>
      <trkpt lat="49.43749" lon="1.14186">
        <ele>19.5</ele>
        <time>2022-02-27T10:17:44Z</time>
      </trkpt>
      <trkpt lat="49.43751" lon="1.14175">
        <ele>19.5</ele>
        <time>2022-02-27T10:17:45Z</time>
      </trkpt>
      <trkpt lat="49.43753" lon="1.14165">
        <ele>19.5</ele>
        <time>2022-02-27T10:17:46Z</time>
      </trkpt>
      <trkpt lat="49.43753" lon="1.14156">
        <ele>19.5</ele>
        <time>2022-02-27T10:17:47Z</time>
      </trkpt>
      <trkpt lat="49.43753" lon="1.14143">
        <ele>19.5</ele>
        <time>2022-02-27T10:17:48Z</time>
      </trkpt>
      <trkpt lat="49.43755" lon="1.14133">
        <ele>19.6</ele>
        <time>2022-02-27T10:17:49Z</time>
      </trkpt>
      <trkpt lat="49.43756" lon="1.14124">
        <ele>19.6</ele>
        <time>2022-02-27T10:17:50Z</time>
      </trkpt>
      <trkpt lat="49.43754" lon="1.14122">
        <ele>19.6</ele>
        <time>2022-02-27T10:17:51Z</time>
      </trkpt>
      <trkpt lat="49.43753" lon="1.14119">
        <ele>19.6</ele>
        <time>2022-02-27T10:17:52Z</time>
      </trkpt>
      <trkpt lat="49.43755" lon="1.14113">
        <ele>19.7</ele>
        <time>2022-02-27T10:17:53Z</time>
      </trkpt>
      <trkpt lat="49.43761" lon="1.14099">
        <ele>19.8</ele>
        <time>2022-02-27T10:17:54Z</time>
      </trkpt>
      <trkpt lat="49.43765" lon="1.14088">
        <ele>19.9</ele>
        <time>2022-02-27T10:17:55Z</time>
      </trkpt>
      <trkpt lat="49.43767" lon="1.14079">
        <ele>20</ele>
        <time>2022-02-27T10:17:56Z</time>
      </trkpt>
      <trkpt lat="49.43769" lon="1.14073">
        <ele>20</ele>
        <time>2022-02-27T10:17:57Z</time>
      </trkpt>
      <trkpt lat="49.4377" lon="1.14065">
        <ele>20.1</ele>
        <time>2022-02-27T10:17:58Z</time>
      </trkpt>
      <trkpt lat="49.43773" lon="1.14058">
        <ele>20.2</ele>
        <time>2022-02-27T10:17:59Z</time>
      </trkpt>
      <trkpt lat="49.43775" lon="1.14051">
        <ele>20.2</ele>
        <time>2022-02-27T10:18:00Z</time>
      </trkpt>
      <trkpt lat="49.43775" lon="1.14049">
        <ele>20.3</ele>
        <time>2022-02-27T10:18:01Z</time>
      </trkpt>
      <trkpt lat="49.43778" lon="1.14042">
        <ele>20.3</ele>
        <time>2022-02-27T10:18:03Z</time>
      </trkpt>
      <trkpt lat="49.43782" lon="1.1403">
        <ele>20.4</ele>
        <time>2022-02-27T10:18:05Z</time>
      </trkpt>
      <trkpt lat="49.43785" lon="1.14023">
        <ele>20.4</ele>
        <time>2022-02-27T10:18:06Z</time>
      </trkpt>
      <trkpt lat="49.43787" lon="1.14013">
        <ele>20.5</ele>
        <time>2022-02-27T10:18:07Z</time>
      </trkpt>
      <trkpt lat="49.43789" lon="1.14007">
        <ele>20.5</ele>
        <time>2022-02-27T10:18:08Z</time>
      </trkpt>
      <trkpt lat="49.43789" lon="1.14008">
        <ele>20.5</ele>
        <time>2022-02-27T10:18:09Z</time>
      </trkpt>
      <trkpt lat="49.43785" lon="1.13998">
        <ele>20.5</ele>
        <time>2022-02-27T10:18:11Z</time>
      </trkpt>
      <trkpt lat="49.43767" lon="1.13981">
        <ele>20</ele>
        <time>2022-02-27T10:18:12Z</time>
      </trkpt>
      <trkpt lat="49.43759" lon="1.13973">
        <ele>19.6</ele>
        <time>2022-02-27T10:18:13Z</time>
      </trkpt>
      <trkpt lat="49.43751" lon="1.13965">
        <ele>19.3</ele>
        <time>2022-02-27T10:18:14Z</time>
      </trkpt>
      <trkpt lat="49.43746" lon="1.13957">
        <ele>19</ele>
        <time>2022-02-27T10:18:15Z</time>
      </trkpt>
      <trkpt lat="49.4374" lon="1.13951">
        <ele>18.8</ele>
        <time>2022-02-27T10:18:16Z</time>
      </trkpt>
      <trkpt lat="49.43735" lon="1.13944">
        <ele>18.7</ele>
        <time>2022-02-27T10:18:17Z</time>
      </trkpt>
      <trkpt lat="49.43731" lon="1.13937">
        <ele>18.6</ele>
        <time>2022-02-27T10:18:18Z</time>
      </trkpt>
      <trkpt lat="49.43728" lon="1.1393">
        <ele>18.6</ele>
        <time>2022-02-27T10:18:19Z</time>
      </trkpt>
      <trkpt lat="49.43725" lon="1.13921">
        <ele>18.6</ele>
        <time>2022-02-27T10:18:20Z</time>
      </trkpt>
      <trkpt lat="49.43724" lon="1.13913">
        <ele>18.5</ele>
        <time>2022-02-27T10:18:21Z</time>
      </trkpt>
      <trkpt lat="49.43724" lon="1.13904">
        <ele>18.5</ele>
        <time>2022-02-27T10:18:22Z</time>
      </trkpt>
      <trkpt lat="49.43726" lon="1.13894">
        <ele>18.5</ele>
        <time>2022-02-27T10:18:23Z</time>
      </trkpt>
      <trkpt lat="49.43728" lon="1.13885">
        <ele>18.5</ele>
        <time>2022-02-27T10:18:24Z</time>
      </trkpt>
      <trkpt lat="49.43729" lon="1.13877">
        <ele>18.5</ele>
        <time>2022-02-27T10:18:25Z</time>
      </trkpt>
      <trkpt lat="49.43729" lon="1.13869">
        <ele>18.4</ele>
        <time>2022-02-27T10:18:26Z</time>
      </trkpt>
      <trkpt lat="49.43732" lon="1.13862">
        <ele>18.4</ele>
        <time>2022-02-27T10:18:27Z</time>
      </trkpt>
      <trkpt lat="49.43734" lon="1.13855">
        <ele>18.4</ele>
        <time>2022-02-27T10:18:28Z</time>
      </trkpt>
      <trkpt lat="49.43736" lon="1.1385">
        <ele>18.3</ele>
        <time>2022-02-27T10:18:29Z</time>
      </trkpt>
      <trkpt lat="49.43739" lon="1.13843">
        <ele>18.3</ele>
        <time>2022-02-27T10:18:30Z</time>
      </trkpt>
      <trkpt lat="49.43742" lon="1.13836">
        <ele>18.2</ele>
        <time>2022-02-27T10:18:31Z</time>
      </trkpt>
      <trkpt lat="49.43744" lon="1.13833">
        <ele>18.2</ele>
        <time>2022-02-27T10:18:32Z</time>
      </trkpt>
      <trkpt lat="49.43748" lon="1.13827">
        <ele>18.1</ele>
        <time>2022-02-27T10:18:33Z</time>
      </trkpt>
      <trkpt lat="49.43751" lon="1.13819">
        <ele>18</ele>
        <time>2022-02-27T10:18:34Z</time>
      </trkpt>
      <trkpt lat="49.43753" lon="1.13814">
        <ele>18</ele>
        <time>2022-02-27T10:18:35Z</time>
      </trkpt>
      <trkpt lat="49.43754" lon="1.1381">
        <ele>18</ele>
        <time>2022-02-27T10:18:36Z</time>
      </trkpt>
      <trkpt lat="49.43757" lon="1.13802">
        <ele>17.9</ele>
        <time>2022-02-27T10:18:37Z</time>
      </trkpt>
      <trkpt lat="49.43759" lon="1.13794">
        <ele>17.9</ele>
        <time>2022-02-27T10:18:38Z</time>
      </trkpt>
      <trkpt lat="49.43761" lon="1.13784">
        <ele>18</ele>
        <time>2022-02-27T10:18:39Z</time>
      </trkpt>
      <trkpt lat="49.43761" lon="1.13776">
        <ele>18</ele>
        <time>2022-02-27T10:18:40Z</time>
      </trkpt>
      <trkpt lat="49.43763" lon="1.13767">
        <ele>18</ele>
        <time>2022-02-27T10:18:41Z</time>
      </trkpt>
      <trkpt lat="49.43764" lon="1.13759">
        <ele>18</ele>
        <time>2022-02-27T10:18:42Z</time>
      </trkpt>
      <trkpt lat="49.43766" lon="1.1375">
        <ele>18.1</ele>
        <time>2022-02-27T10:18:43Z</time>
      </trkpt>
      <trkpt lat="49.43767" lon="1.13739">
        <ele>18.1</ele>
        <time>2022-02-27T10:18:44Z</time>
      </trkpt>
      <trkpt lat="49.43769" lon="1.13729">
        <ele>18.2</ele>
        <time>2022-02-27T10:18:45Z</time>
      </trkpt>
      <trkpt lat="49.43771" lon="1.1372">
        <ele>18.2</ele>
        <time>2022-02-27T10:18:46Z</time>
      </trkpt>
      <trkpt lat="49.43773" lon="1.13713">
        <ele>18.2</ele>
        <time>2022-02-27T10:18:47Z</time>
      </trkpt>
      <trkpt lat="49.43774" lon="1.13709">
        <ele>18.2</ele>
        <time>2022-02-27T10:18:48Z</time>
      </trkpt>
      <trkpt lat="49.43776" lon="1.13703">
        <ele>18.2</ele>
        <time>2022-02-27T10:18:50Z</time>
      </trkpt>
      <trkpt lat="49.43777" lon="1.13696">
        <ele>18.2</ele>
        <time>2022-02-27T10:18:51Z</time>
      </trkpt>
      <trkpt lat="49.43779" lon="1.13689">
        <ele>18.2</ele>
        <time>2022-02-27T10:18:52Z</time>
      </trkpt>
      <trkpt lat="49.4378" lon="1.13683">
        <ele>18.2</ele>
        <time>2022-02-27T10:18:53Z</time>
      </trkpt>
      <trkpt lat="49.43782" lon="1.13679">
        <ele>18.2</ele>
        <time>2022-02-27T10:18:54Z</time>
      </trkpt>
      <trkpt lat="49.43783" lon="1.13672">
        <ele>18.2</ele>
        <time>2022-02-27T10:18:55Z</time>
      </trkpt>
      <trkpt lat="49.43784" lon="1.13664">
        <ele>18.2</ele>
        <time>2022-02-27T10:18:56Z</time>
      </trkpt>
      <trkpt lat="49.43786" lon="1.13656">
        <ele>18.2</ele>
        <time>2022-02-27T10:18:57Z</time>
      </trkpt>
      <trkpt lat="49.43786" lon="1.13641">
        <ele>18.1</ele>
        <time>2022-02-27T10:18:58Z</time>
      </trkpt>
      <trkpt lat="49.43786" lon="1.13635">
        <ele>18.1</ele>
        <time>2022-02-27T10:18:59Z</time>
      </trkpt>
      <trkpt lat="49.43784" lon="1.1363">
        <ele>18.1</ele>
        <time>2022-02-27T10:19:00Z</time>
      </trkpt>
      <trkpt lat="49.43786" lon="1.13625">
        <ele>18.1</ele>
        <time>2022-02-27T10:19:01Z</time>
      </trkpt>
      <trkpt lat="49.43789" lon="1.13619">
        <ele>18.1</ele>
        <time>2022-02-27T10:19:02Z</time>
      </trkpt>
      <trkpt lat="49.43793" lon="1.13604">
        <ele>18</ele>
        <time>2022-02-27T10:19:03Z</time>
      </trkpt>
      <trkpt lat="49.43794" lon="1.13594">
        <ele>18</ele>
        <time>2022-02-27T10:19:04Z</time>
      </trkpt>
      <trkpt lat="49.43797" lon="1.13584">
        <ele>18</ele>
        <time>2022-02-27T10:19:05Z</time>
      </trkpt>
      <trkpt lat="49.43799" lon="1.13575">
        <ele>18</ele>
        <time>2022-02-27T10:19:06Z</time>
      </trkpt>
      <trkpt lat="49.43802" lon="1.13568">
        <ele>18</ele>
        <time>2022-02-27T10:19:07Z</time>
      </trkpt>
      <trkpt lat="49.43806" lon="1.1356">
        <ele>18</ele>
        <time>2022-02-27T10:19:08Z</time>
      </trkpt>
      <trkpt lat="49.4381" lon="1.1355">
        <ele>18</ele>
        <time>2022-02-27T10:19:09Z</time>
      </trkpt>
      <trkpt lat="49.43813" lon="1.13539">
        <ele>18.1</ele>
        <time>2022-02-27T10:19:10Z</time>
      </trkpt>
      <trkpt lat="49.43815" lon="1.13531">
        <ele>18.1</ele>
        <time>2022-02-27T10:19:11Z</time>
      </trkpt>
      <trkpt lat="49.43817" lon="1.13523">
        <ele>18</ele>
        <time>2022-02-27T10:19:12Z</time>
      </trkpt>
      <trkpt lat="49.4382" lon="1.13517">
        <ele>18</ele>
        <time>2022-02-27T10:19:13Z</time>
      </trkpt>
      <trkpt lat="49.43824" lon="1.13511">
        <ele>18</ele>
        <time>2022-02-27T10:19:14Z</time>
      </trkpt>
      <trkpt lat="49.43828" lon="1.13506">
        <ele>18</ele>
        <time>2022-02-27T10:19:15Z</time>
      </trkpt>
      <trkpt lat="49.43832" lon="1.135">
        <ele>18</ele>
        <time>2022-02-27T10:19:16Z</time>
      </trkpt>
      <trkpt lat="49.43834" lon="1.13493">
        <ele>17.9</ele>
        <time>2022-02-27T10:19:17Z</time>
      </trkpt>
      <trkpt lat="49.43837" lon="1.13487">
        <ele>17.9</ele>
        <time>2022-02-27T10:19:18Z</time>
      </trkpt>
      <trkpt lat="49.43841" lon="1.1348">
        <ele>17.9</ele>
        <time>2022-02-27T10:19:19Z</time>
      </trkpt>
      <trkpt lat="49.43844" lon="1.13473">
        <ele>17.9</ele>
        <time>2022-02-27T10:19:20Z</time>
      </trkpt>
      <trkpt lat="49.43846" lon="1.13468">
        <ele>17.9</ele>
        <time>2022-02-27T10:19:21Z</time>
      </trkpt>
      <trkpt lat="49.43849" lon="1.1346">
        <ele>17.9</ele>
        <time>2022-02-27T10:19:22Z</time>
      </trkpt>
      <trkpt lat="49.43851" lon="1.13451">
        <ele>17.9</ele>
        <time>2022-02-27T10:19:23Z</time>
      </trkpt>
      <trkpt lat="49.43853" lon="1.13444">
        <ele>17.9</ele>
        <time>2022-02-27T10:19:24Z</time>
      </trkpt>
      <trkpt lat="49.43855" lon="1.13438">
        <ele>17.9</ele>
        <time>2022-02-27T10:19:25Z</time>
      </trkpt>
      <trkpt lat="49.43856" lon="1.13433">
        <ele>17.9</ele>
        <time>2022-02-27T10:19:26Z</time>
      </trkpt>
      <trkpt lat="49.43859" lon="1.13424">
        <ele>17.8</ele>
        <time>2022-02-27T10:19:27Z</time>
      </trkpt>
      <trkpt lat="49.43862" lon="1.13417">
        <ele>17.8</ele>
        <time>2022-02-27T10:19:29Z</time>
      </trkpt>
      <trkpt lat="49.43863" lon="1.13411">
        <ele>17.8</ele>
        <time>2022-02-27T10:19:30Z</time>
      </trkpt>
      <trkpt lat="49.43863" lon="1.1341">
        <ele>17.8</ele>
        <time>2022-02-27T10:19:31Z</time>
      </trkpt>
      <trkpt lat="49.4386" lon="1.13402">
        <ele>17.8</ele>
        <time>2022-02-27T10:19:32Z</time>
      </trkpt>
      <trkpt lat="49.43858" lon="1.13397">
        <ele>17.6</ele>
        <time>2022-02-27T10:19:33Z</time>
      </trkpt>
      <trkpt lat="49.43859" lon="1.13386">
        <ele>17.6</ele>
        <time>2022-02-27T10:19:35Z</time>
      </trkpt>
      <trkpt lat="49.43859" lon="1.13379">
        <ele>17.5</ele>
        <time>2022-02-27T10:19:36Z</time>
      </trkpt>
      <trkpt lat="49.4386" lon="1.13372">
        <ele>17.5</ele>
        <time>2022-02-27T10:19:37Z</time>
      </trkpt>
      <trkpt lat="49.43862" lon="1.13363">
        <ele>17.5</ele>
        <time>2022-02-27T10:19:38Z</time>
      </trkpt>
      <trkpt lat="49.43863" lon="1.13356">
        <ele>17.5</ele>
        <time>2022-02-27T10:19:39Z</time>
      </trkpt>
      <trkpt lat="49.43866" lon="1.13344">
        <ele>17.5</ele>
        <time>2022-02-27T10:19:41Z</time>
      </trkpt>
      <trkpt lat="49.43869" lon="1.13338">
        <ele>17.5</ele>
        <time>2022-02-27T10:19:42Z</time>
      </trkpt>
      <trkpt lat="49.43871" lon="1.13332">
        <ele>17.5</ele>
        <time>2022-02-27T10:19:43Z</time>
      </trkpt>
      <trkpt lat="49.43872" lon="1.13327">
        <ele>17.5</ele>
        <time>2022-02-27T10:19:44Z</time>
      </trkpt>
      <trkpt lat="49.43874" lon="1.13322">
        <ele>17.5</ele>
        <time>2022-02-27T10:19:45Z</time>
      </trkpt>
      <trkpt lat="49.43875" lon="1.1332">
        <ele>17.5</ele>
        <time>2022-02-27T10:19:46Z</time>
      </trkpt>
      <trkpt lat="49.43875" lon="1.13316">
        <ele>17.5</ele>
        <time>2022-02-27T10:19:47Z</time>
      </trkpt>
      <trkpt lat="49.43875" lon="1.13314">
        <ele>17.5</ele>
        <time>2022-02-27T10:19:48Z</time>
      </trkpt>
      <trkpt lat="49.43877" lon="1.13309">
        <ele>17.5</ele>
        <time>2022-02-27T10:19:49Z</time>
      </trkpt>
      <trkpt lat="49.43878" lon="1.13307">
        <ele>17.5</ele>
        <time>2022-02-27T10:19:50Z</time>
      </trkpt>
      <trkpt lat="49.43879" lon="1.13302">
        <ele>17.5</ele>
        <time>2022-02-27T10:19:51Z</time>
      </trkpt>
      <trkpt lat="49.4388" lon="1.13301">
        <ele>17.5</ele>
        <time>2022-02-27T10:19:52Z</time>
      </trkpt>
      <trkpt lat="49.43882" lon="1.13297">
        <ele>17.5</ele>
        <time>2022-02-27T10:19:53Z</time>
      </trkpt>
      <trkpt lat="49.43883" lon="1.13296">
        <ele>17.5</ele>
        <time>2022-02-27T10:19:54Z</time>
      </trkpt>
      <trkpt lat="49.43884" lon="1.13292">
        <ele>17.5</ele>
        <time>2022-02-27T10:19:55Z</time>
      </trkpt>
      <trkpt lat="49.43886" lon="1.13288">
        <ele>17.5</ele>
        <time>2022-02-27T10:19:56Z</time>
      </trkpt>
      <trkpt lat="49.43888" lon="1.13284">
        <ele>17.5</ele>
        <time>2022-02-27T10:19:57Z</time>
      </trkpt>
      <trkpt lat="49.4389" lon="1.13279">
        <ele>17.5</ele>
        <time>2022-02-27T10:19:58Z</time>
      </trkpt>
      <trkpt lat="49.43892" lon="1.13274">
        <ele>17.5</ele>
        <time>2022-02-27T10:19:59Z</time>
      </trkpt>
      <trkpt lat="49.43896" lon="1.13267">
        <ele>17.5</ele>
        <time>2022-02-27T10:20:00Z</time>
      </trkpt>
      <trkpt lat="49.43899" lon="1.13261">
        <ele>17.5</ele>
        <time>2022-02-27T10:20:02Z</time>
      </trkpt>
      <trkpt lat="49.43901" lon="1.13255">
        <ele>17.5</ele>
        <time>2022-02-27T10:20:03Z</time>
      </trkpt>
      <trkpt lat="49.43904" lon="1.13246">
        <ele>17.5</ele>
        <time>2022-02-27T10:20:04Z</time>
      </trkpt>
      <trkpt lat="49.43906" lon="1.1324">
        <ele>17.5</ele>
        <time>2022-02-27T10:20:05Z</time>
      </trkpt>
      <trkpt lat="49.43908" lon="1.13235">
        <ele>17.5</ele>
        <time>2022-02-27T10:20:06Z</time>
      </trkpt>
      <trkpt lat="49.4391" lon="1.13229">
        <ele>17.5</ele>
        <time>2022-02-27T10:20:07Z</time>
      </trkpt>
      <trkpt lat="49.43913" lon="1.13224">
        <ele>17.5</ele>
        <time>2022-02-27T10:20:08Z</time>
      </trkpt>
      <trkpt lat="49.43917" lon="1.13216">
        <ele>17.5</ele>
        <time>2022-02-27T10:20:09Z</time>
      </trkpt>
      <trkpt lat="49.43921" lon="1.1321">
        <ele>17.5</ele>
        <time>2022-02-27T10:20:11Z</time>
      </trkpt>
      <trkpt lat="49.43926" lon="1.13195">
        <ele>17.4</ele>
        <time>2022-02-27T10:20:12Z</time>
      </trkpt>
      <trkpt lat="49.43931" lon="1.13187">
        <ele>17.4</ele>
        <time>2022-02-27T10:20:13Z</time>
      </trkpt>
      <trkpt lat="49.43935" lon="1.13179">
        <ele>17.4</ele>
        <time>2022-02-27T10:20:14Z</time>
      </trkpt>
      <trkpt lat="49.43938" lon="1.13172">
        <ele>17.3</ele>
        <time>2022-02-27T10:20:15Z</time>
      </trkpt>
      <trkpt lat="49.4394" lon="1.13167">
        <ele>17.3</ele>
        <time>2022-02-27T10:20:16Z</time>
      </trkpt>
      <trkpt lat="49.43942" lon="1.1316">
        <ele>17.3</ele>
        <time>2022-02-27T10:20:17Z</time>
      </trkpt>
      <trkpt lat="49.43944" lon="1.13152">
        <ele>17.3</ele>
        <time>2022-02-27T10:20:18Z</time>
      </trkpt>
      <trkpt lat="49.43947" lon="1.13143">
        <ele>17.3</ele>
        <time>2022-02-27T10:20:19Z</time>
      </trkpt>
      <trkpt lat="49.4395" lon="1.13135">
        <ele>17.3</ele>
        <time>2022-02-27T10:20:20Z</time>
      </trkpt>
      <trkpt lat="49.43949" lon="1.13126">
        <ele>17.3</ele>
        <time>2022-02-27T10:20:21Z</time>
      </trkpt>
      <trkpt lat="49.43949" lon="1.13118">
        <ele>17.3</ele>
        <time>2022-02-27T10:20:22Z</time>
      </trkpt>
      <trkpt lat="49.4395" lon="1.13113">
        <ele>17.3</ele>
        <time>2022-02-27T10:20:23Z</time>
      </trkpt>
      <trkpt lat="49.43953" lon="1.13108">
        <ele>17.3</ele>
        <time>2022-02-27T10:20:24Z</time>
      </trkpt>
      <trkpt lat="49.43954" lon="1.13103">
        <ele>17.3</ele>
        <time>2022-02-27T10:20:25Z</time>
      </trkpt>
      <trkpt lat="49.43956" lon="1.13097">
        <ele>17.3</ele>
        <time>2022-02-27T10:20:26Z</time>
      </trkpt>
      <trkpt lat="49.43958" lon="1.13089">
        <ele>17.3</ele>
        <time>2022-02-27T10:20:27Z</time>
      </trkpt>
      <trkpt lat="49.4396" lon="1.13082">
        <ele>17.3</ele>
        <time>2022-02-27T10:20:28Z</time>
      </trkpt>
      <trkpt lat="49.43964" lon="1.13068">
        <ele>17.3</ele>
        <time>2022-02-27T10:20:29Z</time>
      </trkpt>
      <trkpt lat="49.43965" lon="1.13058">
        <ele>17.3</ele>
        <time>2022-02-27T10:20:30Z</time>
      </trkpt>
      <trkpt lat="49.43966" lon="1.1305">
        <ele>17.2</ele>
        <time>2022-02-27T10:20:31Z</time>
      </trkpt>
      <trkpt lat="49.43966" lon="1.13042">
        <ele>17.2</ele>
        <time>2022-02-27T10:20:32Z</time>
      </trkpt>
      <trkpt lat="49.43966" lon="1.13031">
        <ele>17.2</ele>
        <time>2022-02-27T10:20:33Z</time>
      </trkpt>
      <trkpt lat="49.43966" lon="1.13021">
        <ele>17.2</ele>
        <time>2022-02-27T10:20:34Z</time>
      </trkpt>
      <trkpt lat="49.43966" lon="1.13011">
        <ele>17.1</ele>
        <time>2022-02-27T10:20:35Z</time>
      </trkpt>
      <trkpt lat="49.43967" lon="1.13001">
        <ele>17.1</ele>
        <time>2022-02-27T10:20:36Z</time>
      </trkpt>
      <trkpt lat="49.43968" lon="1.1299">
        <ele>17.1</ele>
        <time>2022-02-27T10:20:37Z</time>
      </trkpt>
      <trkpt lat="49.43968" lon="1.12981">
        <ele>17</ele>
        <time>2022-02-27T10:20:38Z</time>
      </trkpt>
      <trkpt lat="49.43967" lon="1.12971">
        <ele>17</ele>
        <time>2022-02-27T10:20:39Z</time>
      </trkpt>
      <trkpt lat="49.43964" lon="1.12963">
        <ele>17</ele>
        <time>2022-02-27T10:20:40Z</time>
      </trkpt>
      <trkpt lat="49.4396" lon="1.12955">
        <ele>16.9</ele>
        <time>2022-02-27T10:20:41Z</time>
      </trkpt>
      <trkpt lat="49.43957" lon="1.12948">
        <ele>16.9</ele>
        <time>2022-02-27T10:20:42Z</time>
      </trkpt>
      <trkpt lat="49.43952" lon="1.12942">
        <ele>16.8</ele>
        <time>2022-02-27T10:20:43Z</time>
      </trkpt>
      <trkpt lat="49.43943" lon="1.12938">
        <ele>16.7</ele>
        <time>2022-02-27T10:20:44Z</time>
      </trkpt>
      <trkpt lat="49.43935" lon="1.12936">
        <ele>16.7</ele>
        <time>2022-02-27T10:20:45Z</time>
      </trkpt>
      <trkpt lat="49.43928" lon="1.12935">
        <ele>16.5</ele>
        <time>2022-02-27T10:20:46Z</time>
      </trkpt>
      <trkpt lat="49.43923" lon="1.12931">
        <ele>16.4</ele>
        <time>2022-02-27T10:20:47Z</time>
      </trkpt>
      <trkpt lat="49.43917" lon="1.12926">
        <ele>16.3</ele>
        <time>2022-02-27T10:20:48Z</time>
      </trkpt>
      <trkpt lat="49.43911" lon="1.12921">
        <ele>16.2</ele>
        <time>2022-02-27T10:20:49Z</time>
      </trkpt>
      <trkpt lat="49.43905" lon="1.12917">
        <ele>15.9</ele>
        <time>2022-02-27T10:20:50Z</time>
      </trkpt>
      <trkpt lat="49.43899" lon="1.12913">
        <ele>15.7</ele>
        <time>2022-02-27T10:20:51Z</time>
      </trkpt>
      <trkpt lat="49.43893" lon="1.12907">
        <ele>15.5</ele>
        <time>2022-02-27T10:20:52Z</time>
      </trkpt>
      <trkpt lat="49.43889" lon="1.12896">
        <ele>15.2</ele>
        <time>2022-02-27T10:20:53Z</time>
      </trkpt>
      <trkpt lat="49.43885" lon="1.12886">
        <ele>15</ele>
        <time>2022-02-27T10:20:54Z</time>
      </trkpt>
      <trkpt lat="49.43881" lon="1.12876">
        <ele>14.9</ele>
        <time>2022-02-27T10:20:55Z</time>
      </trkpt>
      <trkpt lat="49.43879" lon="1.12865">
        <ele>14.7</ele>
        <time>2022-02-27T10:20:56Z</time>
      </trkpt>
      <trkpt lat="49.43875" lon="1.12855">
        <ele>14.6</ele>
        <time>2022-02-27T10:20:57Z</time>
      </trkpt>
      <trkpt lat="49.43872" lon="1.12844">
        <ele>14.5</ele>
        <time>2022-02-27T10:20:58Z</time>
      </trkpt>
      <trkpt lat="49.43871" lon="1.12834">
        <ele>14.5</ele>
        <time>2022-02-27T10:20:59Z</time>
      </trkpt>
      <trkpt lat="49.43872" lon="1.12823">
        <ele>14.5</ele>
        <time>2022-02-27T10:21:00Z</time>
      </trkpt>
      <trkpt lat="49.43875" lon="1.12813">
        <ele>14.5</ele>
        <time>2022-02-27T10:21:01Z</time>
      </trkpt>
      <trkpt lat="49.43878" lon="1.12803">
        <ele>14.6</ele>
        <time>2022-02-27T10:21:02Z</time>
      </trkpt>
      <trkpt lat="49.43882" lon="1.12795">
        <ele>14.7</ele>
        <time>2022-02-27T10:21:03Z</time>
      </trkpt>
      <trkpt lat="49.43884" lon="1.12787">
        <ele>14.8</ele>
        <time>2022-02-27T10:21:04Z</time>
      </trkpt>
      <trkpt lat="49.43887" lon="1.12779">
        <ele>15</ele>
        <time>2022-02-27T10:21:05Z</time>
      </trkpt>
      <trkpt lat="49.4389" lon="1.12773">
        <ele>15.2</ele>
        <time>2022-02-27T10:21:06Z</time>
      </trkpt>
      <trkpt lat="49.43891" lon="1.12769">
        <ele>15.3</ele>
        <time>2022-02-27T10:21:07Z</time>
      </trkpt>
      <trkpt lat="49.43894" lon="1.12764">
        <ele>15.5</ele>
        <time>2022-02-27T10:21:08Z</time>
      </trkpt>
      <trkpt lat="49.43895" lon="1.12763">
        <ele>15.5</ele>
        <time>2022-02-27T10:21:09Z</time>
      </trkpt>
      <trkpt lat="49.43897" lon="1.12759">
        <ele>15.7</ele>
        <time>2022-02-27T10:21:10Z</time>
      </trkpt>
      <trkpt lat="49.43899" lon="1.12756">
        <ele>15.8</ele>
        <time>2022-02-27T10:21:11Z</time>
      </trkpt>
      <trkpt lat="49.439" lon="1.12751">
        <ele>15.9</ele>
        <time>2022-02-27T10:21:13Z</time>
      </trkpt>
      <trkpt lat="49.43901" lon="1.12749">
        <ele>16</ele>
        <time>2022-02-27T10:21:14Z</time>
      </trkpt>
      <trkpt lat="49.43903" lon="1.12745">
        <ele>16.1</ele>
        <time>2022-02-27T10:21:15Z</time>
      </trkpt>
      <trkpt lat="49.43904" lon="1.12741">
        <ele>16.2</ele>
        <time>2022-02-27T10:21:16Z</time>
      </trkpt>
      <trkpt lat="49.43906" lon="1.12733">
        <ele>16.3</ele>
        <time>2022-02-27T10:21:18Z</time>
      </trkpt>
      <trkpt lat="49.43908" lon="1.12729">
        <ele>16.4</ele>
        <time>2022-02-27T10:21:19Z</time>
      </trkpt>
      <trkpt lat="49.43909" lon="1.12724">
        <ele>16.4</ele>
        <time>2022-02-27T10:21:20Z</time>
      </trkpt>
      <trkpt lat="49.4391" lon="1.12721">
        <ele>16.5</ele>
        <time>2022-02-27T10:21:21Z</time>
      </trkpt>
      <trkpt lat="49.43911" lon="1.12716">
        <ele>16.5</ele>
        <time>2022-02-27T10:21:23Z</time>
      </trkpt>
      <trkpt lat="49.4391" lon="1.12717">
        <ele>16.5</ele>
        <time>2022-02-27T10:21:25Z</time>
      </trkpt>
      <trkpt lat="49.4391" lon="1.12716">
        <ele>16.5</ele>
        <time>2022-02-27T10:21:26Z</time>
      </trkpt>
      <trkpt lat="49.4391" lon="1.12716">
        <ele>16.5</ele>
        <time>2022-02-27T10:21:27Z</time>
      </trkpt>
      <trkpt lat="49.4391" lon="1.12716">
        <ele>16.5</ele>
        <time>2022-02-27T10:21:28Z</time>
      </trkpt>
      <trkpt lat="49.4391" lon="1.12717">
        <ele>16.5</ele>
        <time>2022-02-27T10:21:29Z</time>
      </trkpt>
      <trkpt lat="49.4391" lon="1.12717">
        <ele>16.5</ele>
        <time>2022-02-27T10:21:30Z</time>
      </trkpt>
      <trkpt lat="49.4391" lon="1.12717">
        <ele>16.5</ele>
        <time>2022-02-27T10:21:31Z</time>
      </trkpt>
      <trkpt lat="49.43913" lon="1.12709">
        <ele>16.6</ele>
        <time>2022-02-27T10:21:35Z</time>
      </trkpt>
      <trkpt lat="49.43915" lon="1.12705">
        <ele>16.6</ele>
        <time>2022-02-27T10:21:36Z</time>
      </trkpt>
      <trkpt lat="49.43917" lon="1.12697">
        <ele>16.6</ele>
        <time>2022-02-27T10:21:37Z</time>
      </trkpt>
      <trkpt lat="49.4392" lon="1.1269">
        <ele>16.6</ele>
        <time>2022-02-27T10:21:39Z</time>
      </trkpt>
      <trkpt lat="49.43923" lon="1.12686">
        <ele>16.6</ele>
        <time>2022-02-27T10:21:40Z</time>
      </trkpt>
      <trkpt lat="49.43924" lon="1.12684">
        <ele>16.6</ele>
        <time>2022-02-27T10:21:41Z</time>
      </trkpt>
      <trkpt lat="49.43925" lon="1.12681">
        <ele>16.6</ele>
        <time>2022-02-27T10:21:42Z</time>
      </trkpt>
      <trkpt lat="49.43926" lon="1.1268">
        <ele>16.6</ele>
        <time>2022-02-27T10:21:43Z</time>
      </trkpt>
      <trkpt lat="49.43929" lon="1.12675">
        <ele>16.6</ele>
        <time>2022-02-27T10:21:44Z</time>
      </trkpt>
      <trkpt lat="49.43931" lon="1.12672">
        <ele>16.5</ele>
        <time>2022-02-27T10:21:45Z</time>
      </trkpt>
      <trkpt lat="49.43952" lon="1.1264">
        <ele>16.4</ele>
        <time>2022-02-27T10:21:46Z</time>
      </trkpt>
      <trkpt lat="49.43955" lon="1.12634">
        <ele>16.4</ele>
        <time>2022-02-27T10:21:47Z</time>
      </trkpt>
      <trkpt lat="49.4396" lon="1.12625">
        <ele>16.4</ele>
        <time>2022-02-27T10:21:48Z</time>
      </trkpt>
      <trkpt lat="49.43965" lon="1.12617">
        <ele>16.3</ele>
        <time>2022-02-27T10:21:49Z</time>
      </trkpt>
      <trkpt lat="49.43969" lon="1.12609">
        <ele>16.3</ele>
        <time>2022-02-27T10:21:50Z</time>
      </trkpt>
      <trkpt lat="49.43973" lon="1.12599">
        <ele>16.3</ele>
        <time>2022-02-27T10:21:51Z</time>
      </trkpt>
      <trkpt lat="49.43975" lon="1.12592">
        <ele>16.2</ele>
        <time>2022-02-27T10:21:52Z</time>
      </trkpt>
      <trkpt lat="49.43978" lon="1.12585">
        <ele>16.2</ele>
        <time>2022-02-27T10:21:53Z</time>
      </trkpt>
      <trkpt lat="49.43981" lon="1.12577">
        <ele>16.2</ele>
        <time>2022-02-27T10:21:54Z</time>
      </trkpt>
      <trkpt lat="49.43985" lon="1.12568">
        <ele>16.2</ele>
        <time>2022-02-27T10:21:55Z</time>
      </trkpt>
      <trkpt lat="49.43987" lon="1.1256">
        <ele>16.2</ele>
        <time>2022-02-27T10:21:56Z</time>
      </trkpt>
      <trkpt lat="49.4399" lon="1.12552">
        <ele>16.2</ele>
        <time>2022-02-27T10:21:57Z</time>
      </trkpt>
      <trkpt lat="49.43991" lon="1.12544">
        <ele>16.2</ele>
        <time>2022-02-27T10:21:58Z</time>
      </trkpt>
      <trkpt lat="49.43992" lon="1.12537">
        <ele>16.2</ele>
        <time>2022-02-27T10:21:59Z</time>
      </trkpt>
      <trkpt lat="49.43992" lon="1.12532">
        <ele>16.2</ele>
        <time>2022-02-27T10:22:00Z</time>
      </trkpt>
      <trkpt lat="49.43993" lon="1.12525">
        <ele>16.2</ele>
        <time>2022-02-27T10:22:01Z</time>
      </trkpt>
      <trkpt lat="49.43994" lon="1.12518">
        <ele>16.3</ele>
        <time>2022-02-27T10:22:02Z</time>
      </trkpt>
      <trkpt lat="49.43995" lon="1.12509">
        <ele>16.3</ele>
        <time>2022-02-27T10:22:03Z</time>
      </trkpt>
      <trkpt lat="49.43996" lon="1.12501">
        <ele>16.3</ele>
        <time>2022-02-27T10:22:04Z</time>
      </trkpt>
      <trkpt lat="49.43996" lon="1.12494">
        <ele>16.3</ele>
        <time>2022-02-27T10:22:05Z</time>
      </trkpt>
      <trkpt lat="49.43997" lon="1.12489">
        <ele>16.3</ele>
        <time>2022-02-27T10:22:06Z</time>
      </trkpt>
      <trkpt lat="49.43999" lon="1.12478">
        <ele>16.3</ele>
        <time>2022-02-27T10:22:08Z</time>
      </trkpt>
      <trkpt lat="49.44001" lon="1.12467">
        <ele>16.3</ele>
        <time>2022-02-27T10:22:10Z</time>
      </trkpt>
      <trkpt lat="49.44006" lon="1.12454">
        <ele>16.3</ele>
        <time>2022-02-27T10:22:11Z</time>
      </trkpt>
      <trkpt lat="49.44006" lon="1.12447">
        <ele>16.2</ele>
        <time>2022-02-27T10:22:12Z</time>
      </trkpt>
      <trkpt lat="49.44005" lon="1.12442">
        <ele>16.2</ele>
        <time>2022-02-27T10:22:13Z</time>
      </trkpt>
      <trkpt lat="49.44007" lon="1.1243">
        <ele>16.2</ele>
        <time>2022-02-27T10:22:15Z</time>
      </trkpt>
      <trkpt lat="49.44009" lon="1.12423">
        <ele>16.1</ele>
        <time>2022-02-27T10:22:16Z</time>
      </trkpt>
      <trkpt lat="49.4401" lon="1.12415">
        <ele>16.1</ele>
        <time>2022-02-27T10:22:17Z</time>
      </trkpt>
      <trkpt lat="49.44012" lon="1.12403">
        <ele>16</ele>
        <time>2022-02-27T10:22:19Z</time>
      </trkpt>
      <trkpt lat="49.44013" lon="1.12388">
        <ele>15.9</ele>
        <time>2022-02-27T10:22:20Z</time>
      </trkpt>
      <trkpt lat="49.44014" lon="1.12378">
        <ele>15.9</ele>
        <time>2022-02-27T10:22:21Z</time>
      </trkpt>
      <trkpt lat="49.44014" lon="1.12368">
        <ele>15.8</ele>
        <time>2022-02-27T10:22:22Z</time>
      </trkpt>
      <trkpt lat="49.44015" lon="1.12359">
        <ele>15.8</ele>
        <time>2022-02-27T10:22:23Z</time>
      </trkpt>
      <trkpt lat="49.44016" lon="1.1235">
        <ele>15.8</ele>
        <time>2022-02-27T10:22:24Z</time>
      </trkpt>
      <trkpt lat="49.44018" lon="1.12341">
        <ele>15.8</ele>
        <time>2022-02-27T10:22:25Z</time>
      </trkpt>
      <trkpt lat="49.4402" lon="1.12334">
        <ele>15.8</ele>
        <time>2022-02-27T10:22:26Z</time>
      </trkpt>
      <trkpt lat="49.44021" lon="1.1233">
        <ele>15.8</ele>
        <time>2022-02-27T10:22:27Z</time>
      </trkpt>
      <trkpt lat="49.44022" lon="1.12324">
        <ele>15.9</ele>
        <time>2022-02-27T10:22:28Z</time>
      </trkpt>
      <trkpt lat="49.44024" lon="1.12318">
        <ele>15.9</ele>
        <time>2022-02-27T10:22:29Z</time>
      </trkpt>
      <trkpt lat="49.44027" lon="1.12306">
        <ele>16</ele>
        <time>2022-02-27T10:22:30Z</time>
      </trkpt>
      <trkpt lat="49.44027" lon="1.12301">
        <ele>16</ele>
        <time>2022-02-27T10:22:31Z</time>
      </trkpt>
      <trkpt lat="49.44026" lon="1.12294">
        <ele>16</ele>
        <time>2022-02-27T10:22:32Z</time>
      </trkpt>
      <trkpt lat="49.44027" lon="1.12287">
        <ele>16.1</ele>
        <time>2022-02-27T10:22:33Z</time>
      </trkpt>
      <trkpt lat="49.44028" lon="1.12279">
        <ele>16.1</ele>
        <time>2022-02-27T10:22:34Z</time>
      </trkpt>
      <trkpt lat="49.44029" lon="1.12272">
        <ele>16.2</ele>
        <time>2022-02-27T10:22:35Z</time>
      </trkpt>
      <trkpt lat="49.44031" lon="1.12264">
        <ele>16.3</ele>
        <time>2022-02-27T10:22:36Z</time>
      </trkpt>
      <trkpt lat="49.44031" lon="1.12258">
        <ele>16.3</ele>
        <time>2022-02-27T10:22:37Z</time>
      </trkpt>
      <trkpt lat="49.44032" lon="1.12254">
        <ele>16.3</ele>
        <time>2022-02-27T10:22:38Z</time>
      </trkpt>
      <trkpt lat="49.44034" lon="1.12247">
        <ele>16.3</ele>
        <time>2022-02-27T10:22:39Z</time>
      </trkpt>
      <trkpt lat="49.44036" lon="1.12242">
        <ele>16.3</ele>
        <time>2022-02-27T10:22:40Z</time>
      </trkpt>
      <trkpt lat="49.44037" lon="1.12236">
        <ele>16.3</ele>
        <time>2022-02-27T10:22:41Z</time>
      </trkpt>
      <trkpt lat="49.4404" lon="1.12226">
        <ele>16.3</ele>
        <time>2022-02-27T10:22:43Z</time>
      </trkpt>
      <trkpt lat="49.44041" lon="1.1222">
        <ele>16.3</ele>
        <time>2022-02-27T10:22:44Z</time>
      </trkpt>
      <trkpt lat="49.44043" lon="1.12211">
        <ele>16.3</ele>
        <time>2022-02-27T10:22:45Z</time>
      </trkpt>
      <trkpt lat="49.44046" lon="1.12198">
        <ele>16.3</ele>
        <time>2022-02-27T10:22:47Z</time>
      </trkpt>
      <trkpt lat="49.44046" lon="1.12188">
        <ele>16.2</ele>
        <time>2022-02-27T10:22:48Z</time>
      </trkpt>
      <trkpt lat="49.44046" lon="1.12187">
        <ele>16.2</ele>
        <time>2022-02-27T10:22:49Z</time>
      </trkpt>
      <trkpt lat="49.44046" lon="1.12183">
        <ele>16.2</ele>
        <time>2022-02-27T10:22:50Z</time>
      </trkpt>
      <trkpt lat="49.44048" lon="1.12166">
        <ele>16.2</ele>
        <time>2022-02-27T10:22:51Z</time>
      </trkpt>
      <trkpt lat="49.4405" lon="1.12152">
        <ele>16.2</ele>
        <time>2022-02-27T10:22:53Z</time>
      </trkpt>
      <trkpt lat="49.44051" lon="1.12141">
        <ele>16.2</ele>
        <time>2022-02-27T10:22:54Z</time>
      </trkpt>
      <trkpt lat="49.44052" lon="1.12133">
        <ele>16.2</ele>
        <time>2022-02-27T10:22:55Z</time>
      </trkpt>
      <trkpt lat="49.44053" lon="1.12126">
        <ele>16.2</ele>
        <time>2022-02-27T10:22:56Z</time>
      </trkpt>
      <trkpt lat="49.44056" lon="1.12123">
        <ele>16.2</ele>
        <time>2022-02-27T10:22:57Z</time>
      </trkpt>
      <trkpt lat="49.44062" lon="1.12104">
        <ele>16.2</ele>
        <time>2022-02-27T10:22:59Z</time>
      </trkpt>
      <trkpt lat="49.44065" lon="1.12096">
        <ele>16.2</ele>
        <time>2022-02-27T10:23:00Z</time>
      </trkpt>
      <trkpt lat="49.44067" lon="1.1209">
        <ele>16.2</ele>
        <time>2022-02-27T10:23:01Z</time>
      </trkpt>
      <trkpt lat="49.44068" lon="1.12085">
        <ele>16.1</ele>
        <time>2022-02-27T10:23:02Z</time>
      </trkpt>
      <trkpt lat="49.44069" lon="1.1208">
        <ele>16.1</ele>
        <time>2022-02-27T10:23:03Z</time>
      </trkpt>
      <trkpt lat="49.44074" lon="1.12067">
        <ele>16.1</ele>
        <time>2022-02-27T10:23:04Z</time>
      </trkpt>
      <trkpt lat="49.44076" lon="1.12059">
        <ele>16.1</ele>
        <time>2022-02-27T10:23:05Z</time>
      </trkpt>
      <trkpt lat="49.44079" lon="1.1205">
        <ele>16.1</ele>
        <time>2022-02-27T10:23:06Z</time>
      </trkpt>
      <trkpt lat="49.44081" lon="1.12042">
        <ele>16</ele>
        <time>2022-02-27T10:23:07Z</time>
      </trkpt>
      <trkpt lat="49.44083" lon="1.12035">
        <ele>16</ele>
        <time>2022-02-27T10:23:08Z</time>
      </trkpt>
      <trkpt lat="49.44085" lon="1.12027">
        <ele>15.9</ele>
        <time>2022-02-27T10:23:09Z</time>
      </trkpt>
      <trkpt lat="49.44087" lon="1.1202">
        <ele>15.8</ele>
        <time>2022-02-27T10:23:10Z</time>
      </trkpt>
      <trkpt lat="49.44089" lon="1.12013">
        <ele>15.8</ele>
        <time>2022-02-27T10:23:11Z</time>
      </trkpt>
      <trkpt lat="49.4409" lon="1.12006">
        <ele>15.7</ele>
        <time>2022-02-27T10:23:12Z</time>
      </trkpt>
      <trkpt lat="49.44092" lon="1.12">
        <ele>15.6</ele>
        <time>2022-02-27T10:23:13Z</time>
      </trkpt>
      <trkpt lat="49.44094" lon="1.11994">
        <ele>15.5</ele>
        <time>2022-02-27T10:23:14Z</time>
      </trkpt>
      <trkpt lat="49.44098" lon="1.11987">
        <ele>15.5</ele>
        <time>2022-02-27T10:23:15Z</time>
      </trkpt>
      <trkpt lat="49.44101" lon="1.11981">
        <ele>15.5</ele>
        <time>2022-02-27T10:23:16Z</time>
      </trkpt>
      <trkpt lat="49.44107" lon="1.11971">
        <ele>15.5</ele>
        <time>2022-02-27T10:23:19Z</time>
      </trkpt>
      <trkpt lat="49.44111" lon="1.11961">
        <ele>15.5</ele>
        <time>2022-02-27T10:23:20Z</time>
      </trkpt>
      <trkpt lat="49.44116" lon="1.11953">
        <ele>15.5</ele>
        <time>2022-02-27T10:23:21Z</time>
      </trkpt>
      <trkpt lat="49.44119" lon="1.11944">
        <ele>15.5</ele>
        <time>2022-02-27T10:23:22Z</time>
      </trkpt>
      <trkpt lat="49.44121" lon="1.11938">
        <ele>15.5</ele>
        <time>2022-02-27T10:23:23Z</time>
      </trkpt>
      <trkpt lat="49.44124" lon="1.11927">
        <ele>15.5</ele>
        <time>2022-02-27T10:23:24Z</time>
      </trkpt>
      <trkpt lat="49.44127" lon="1.11916">
        <ele>15.5</ele>
        <time>2022-02-27T10:23:25Z</time>
      </trkpt>
      <trkpt lat="49.44129" lon="1.11907">
        <ele>15.6</ele>
        <time>2022-02-27T10:23:26Z</time>
      </trkpt>
      <trkpt lat="49.44131" lon="1.11898">
        <ele>15.6</ele>
        <time>2022-02-27T10:23:27Z</time>
      </trkpt>
      <trkpt lat="49.44135" lon="1.1189">
        <ele>15.6</ele>
        <time>2022-02-27T10:23:28Z</time>
      </trkpt>
      <trkpt lat="49.44139" lon="1.11883">
        <ele>15.6</ele>
        <time>2022-02-27T10:23:29Z</time>
      </trkpt>
      <trkpt lat="49.44142" lon="1.11875">
        <ele>15.6</ele>
        <time>2022-02-27T10:23:30Z</time>
      </trkpt>
      <trkpt lat="49.44145" lon="1.11868">
        <ele>15.7</ele>
        <time>2022-02-27T10:23:31Z</time>
      </trkpt>
      <trkpt lat="49.44148" lon="1.11863">
        <ele>15.7</ele>
        <time>2022-02-27T10:23:32Z</time>
      </trkpt>
      <trkpt lat="49.44145" lon="1.11859">
        <ele>15.7</ele>
        <time>2022-02-27T10:23:34Z</time>
      </trkpt>
      <trkpt lat="49.44144" lon="1.11853">
        <ele>15.7</ele>
        <time>2022-02-27T10:23:35Z</time>
      </trkpt>
      <trkpt lat="49.44145" lon="1.1185">
        <ele>15.7</ele>
        <time>2022-02-27T10:23:36Z</time>
      </trkpt>
      <trkpt lat="49.44145" lon="1.11849">
        <ele>15.7</ele>
        <time>2022-02-27T10:23:37Z</time>
      </trkpt>
      <trkpt lat="49.44145" lon="1.11848">
        <ele>15.7</ele>
        <time>2022-02-27T10:23:38Z</time>
      </trkpt>
      <trkpt lat="49.44146" lon="1.11847">
        <ele>15.7</ele>
        <time>2022-02-27T10:23:39Z</time>
      </trkpt>
      <trkpt lat="49.44146" lon="1.11846">
        <ele>15.7</ele>
        <time>2022-02-27T10:23:40Z</time>
      </trkpt>
      <trkpt lat="49.44146" lon="1.11843">
        <ele>15.7</ele>
        <time>2022-02-27T10:23:41Z</time>
      </trkpt>
      <trkpt lat="49.44146" lon="1.11831">
        <ele>15.8</ele>
        <time>2022-02-27T10:23:42Z</time>
      </trkpt>
      <trkpt lat="49.44147" lon="1.11819">
        <ele>15.8</ele>
        <time>2022-02-27T10:23:43Z</time>
      </trkpt>
      <trkpt lat="49.44149" lon="1.11808">
        <ele>15.9</ele>
        <time>2022-02-27T10:23:44Z</time>
      </trkpt>
      <trkpt lat="49.44152" lon="1.11791">
        <ele>16</ele>
        <time>2022-02-27T10:23:45Z</time>
      </trkpt>
      <trkpt lat="49.44155" lon="1.11777">
        <ele>15.9</ele>
        <time>2022-02-27T10:23:47Z</time>
      </trkpt>
      <trkpt lat="49.44157" lon="1.11769">
        <ele>15.9</ele>
        <time>2022-02-27T10:23:48Z</time>
      </trkpt>
      <trkpt lat="49.4416" lon="1.11753">
        <ele>15.9</ele>
        <time>2022-02-27T10:23:49Z</time>
      </trkpt>
      <trkpt lat="49.44163" lon="1.11739">
        <ele>15.9</ele>
        <time>2022-02-27T10:23:51Z</time>
      </trkpt>
      <trkpt lat="49.44164" lon="1.11732">
        <ele>15.9</ele>
        <time>2022-02-27T10:23:52Z</time>
      </trkpt>
      <trkpt lat="49.44166" lon="1.11724">
        <ele>15.9</ele>
        <time>2022-02-27T10:23:53Z</time>
      </trkpt>
      <trkpt lat="49.44167" lon="1.11717">
        <ele>15.9</ele>
        <time>2022-02-27T10:23:54Z</time>
      </trkpt>
      <trkpt lat="49.44169" lon="1.11708">
        <ele>15.9</ele>
        <time>2022-02-27T10:23:55Z</time>
      </trkpt>
      <trkpt lat="49.4417" lon="1.117">
        <ele>15.9</ele>
        <time>2022-02-27T10:23:56Z</time>
      </trkpt>
      <trkpt lat="49.44172" lon="1.11693">
        <ele>15.9</ele>
        <time>2022-02-27T10:23:57Z</time>
      </trkpt>
      <trkpt lat="49.44173" lon="1.11683">
        <ele>16</ele>
        <time>2022-02-27T10:23:58Z</time>
      </trkpt>
      <trkpt lat="49.44175" lon="1.1167">
        <ele>16</ele>
        <time>2022-02-27T10:24:00Z</time>
      </trkpt>
      <trkpt lat="49.44176" lon="1.11663">
        <ele>16</ele>
        <time>2022-02-27T10:24:01Z</time>
      </trkpt>
      <trkpt lat="49.44176" lon="1.11655">
        <ele>16</ele>
        <time>2022-02-27T10:24:02Z</time>
      </trkpt>
      <trkpt lat="49.44176" lon="1.11646">
        <ele>16</ele>
        <time>2022-02-27T10:24:03Z</time>
      </trkpt>
      <trkpt lat="49.44177" lon="1.1164">
        <ele>16</ele>
        <time>2022-02-27T10:24:04Z</time>
      </trkpt>
      <trkpt lat="49.44178" lon="1.11633">
        <ele>16</ele>
        <time>2022-02-27T10:24:05Z</time>
      </trkpt>
      <trkpt lat="49.44178" lon="1.11626">
        <ele>16</ele>
        <time>2022-02-27T10:24:06Z</time>
      </trkpt>
      <trkpt lat="49.44178" lon="1.11614">
        <ele>15.9</ele>
        <time>2022-02-27T10:24:08Z</time>
      </trkpt>
      <trkpt lat="49.44177" lon="1.11607">
        <ele>15.9</ele>
        <time>2022-02-27T10:24:09Z</time>
      </trkpt>
      <trkpt lat="49.44177" lon="1.116">
        <ele>15.9</ele>
        <time>2022-02-27T10:24:10Z</time>
      </trkpt>
      <trkpt lat="49.44176" lon="1.11593">
        <ele>15.9</ele>
        <time>2022-02-27T10:24:11Z</time>
      </trkpt>
      <trkpt lat="49.44175" lon="1.11586">
        <ele>15.9</ele>
        <time>2022-02-27T10:24:12Z</time>
      </trkpt>
      <trkpt lat="49.44174" lon="1.1158">
        <ele>15.9</ele>
        <time>2022-02-27T10:24:13Z</time>
      </trkpt>
      <trkpt lat="49.44173" lon="1.11577">
        <ele>15.9</ele>
        <time>2022-02-27T10:24:14Z</time>
      </trkpt>
      <trkpt lat="49.44173" lon="1.11575">
        <ele>15.8</ele>
        <time>2022-02-27T10:24:15Z</time>
      </trkpt>
      <trkpt lat="49.44172" lon="1.11573">
        <ele>15.8</ele>
        <time>2022-02-27T10:24:16Z</time>
      </trkpt>
      <trkpt lat="49.44171" lon="1.11572">
        <ele>15.8</ele>
        <time>2022-02-27T10:24:17Z</time>
      </trkpt>
      <trkpt lat="49.44171" lon="1.11571">
        <ele>15.8</ele>
        <time>2022-02-27T10:24:18Z</time>
      </trkpt>
      <trkpt lat="49.44171" lon="1.1157">
        <ele>15.8</ele>
        <time>2022-02-27T10:24:19Z</time>
      </trkpt>
      <trkpt lat="49.4417" lon="1.1157">
        <ele>15.8</ele>
        <time>2022-02-27T10:24:20Z</time>
      </trkpt>
      <trkpt lat="49.4417" lon="1.1157">
        <ele>15.8</ele>
        <time>2022-02-27T10:24:21Z</time>
      </trkpt>
      <trkpt lat="49.44169" lon="1.11569">
        <ele>15.8</ele>
        <time>2022-02-27T10:24:22Z</time>
      </trkpt>
      <trkpt lat="49.44169" lon="1.11569">
        <ele>15.8</ele>
        <time>2022-02-27T10:24:23Z</time>
      </trkpt>
      <trkpt lat="49.44169" lon="1.11568">
        <ele>15.8</ele>
        <time>2022-02-27T10:24:24Z</time>
      </trkpt>
      <trkpt lat="49.44168" lon="1.11568">
        <ele>15.8</ele>
        <time>2022-02-27T10:24:25Z</time>
      </trkpt>
      <trkpt lat="49.44168" lon="1.11567">
        <ele>15.8</ele>
        <time>2022-02-27T10:24:27Z</time>
      </trkpt>
      <trkpt lat="49.44168" lon="1.11567">
        <ele>15.8</ele>
        <time>2022-02-27T10:24:33Z</time>
      </trkpt>
      <trkpt lat="49.44167" lon="1.11567">
        <ele>15.8</ele>
        <time>2022-02-27T10:24:34Z</time>
      </trkpt>
      <trkpt lat="49.44167" lon="1.11566">
        <ele>15.8</ele>
        <time>2022-02-27T10:24:35Z</time>
      </trkpt>
      <trkpt lat="49.44166" lon="1.11566">
        <ele>15.8</ele>
        <time>2022-02-27T10:24:36Z</time>
      </trkpt>
      <trkpt lat="49.44165" lon="1.11561">
        <ele>15.8</ele>
        <time>2022-02-27T10:24:37Z</time>
      </trkpt>
      <trkpt lat="49.44165" lon="1.11559">
        <ele>15.8</ele>
        <time>2022-02-27T10:24:38Z</time>
      </trkpt>
      <trkpt lat="49.44164" lon="1.11549">
        <ele>15.8</ele>
        <time>2022-02-27T10:24:40Z</time>
      </trkpt>
      <trkpt lat="49.44162" lon="1.11541">
        <ele>15.7</ele>
        <time>2022-02-27T10:24:41Z</time>
      </trkpt>
      <trkpt lat="49.4416" lon="1.11531">
        <ele>15.7</ele>
        <time>2022-02-27T10:24:42Z</time>
      </trkpt>
      <trkpt lat="49.4416" lon="1.11522">
        <ele>16.4</ele>
        <time>2022-02-27T10:24:43Z</time>
      </trkpt>
      <trkpt lat="49.4416" lon="1.11517">
        <ele>16.9</ele>
        <time>2022-02-27T10:24:44Z</time>
      </trkpt>
      <trkpt lat="49.44161" lon="1.11516">
        <ele>17</ele>
        <time>2022-02-27T10:24:45Z</time>
      </trkpt>
      <trkpt lat="49.44161" lon="1.11516">
        <ele>17</ele>
        <time>2022-02-27T10:24:47Z</time>
      </trkpt>
      <trkpt lat="49.44162" lon="1.11516">
        <ele>17</ele>
        <time>2022-02-27T10:24:48Z</time>
      </trkpt>
      <trkpt lat="49.44162" lon="1.11515">
        <ele>17.1</ele>
        <time>2022-02-27T10:24:49Z</time>
      </trkpt>
      <trkpt lat="49.44163" lon="1.11515">
        <ele>17.1</ele>
        <time>2022-02-27T10:24:50Z</time>
      </trkpt>
      <trkpt lat="49.44164" lon="1.11514">
        <ele>17.1</ele>
        <time>2022-02-27T10:24:51Z</time>
      </trkpt>
      <trkpt lat="49.44164" lon="1.11514">
        <ele>17.2</ele>
        <time>2022-02-27T10:24:52Z</time>
      </trkpt>
      <trkpt lat="49.44165" lon="1.11513">
        <ele>17.2</ele>
        <time>2022-02-27T10:24:53Z</time>
      </trkpt>
      <trkpt lat="49.44168" lon="1.1151">
        <ele>17.4</ele>
        <time>2022-02-27T10:24:55Z</time>
      </trkpt>
      <trkpt lat="49.44172" lon="1.11507">
        <ele>17.7</ele>
        <time>2022-02-27T10:24:56Z</time>
      </trkpt>
      <trkpt lat="49.4418" lon="1.11501">
        <ele>18.2</ele>
        <time>2022-02-27T10:24:57Z</time>
      </trkpt>
      <trkpt lat="49.44188" lon="1.11497">
        <ele>18.8</ele>
        <time>2022-02-27T10:24:58Z</time>
      </trkpt>
      <trkpt lat="49.44195" lon="1.11497">
        <ele>19.3</ele>
        <time>2022-02-27T10:24:59Z</time>
      </trkpt>
      <trkpt lat="49.442" lon="1.11497">
        <ele>19.7</ele>
        <time>2022-02-27T10:25:00Z</time>
      </trkpt>
      <trkpt lat="49.44205" lon="1.11494">
        <ele>20</ele>
        <time>2022-02-27T10:25:01Z</time>
      </trkpt>
      <trkpt lat="49.44209" lon="1.11485">
        <ele>20.1</ele>
        <time>2022-02-27T10:25:03Z</time>
      </trkpt>
      <trkpt lat="49.44214" lon="1.11476">
        <ele>20.1</ele>
        <time>2022-02-27T10:25:04Z</time>
      </trkpt>
      <trkpt lat="49.44217" lon="1.1147">
        <ele>20.1</ele>
        <time>2022-02-27T10:25:05Z</time>
      </trkpt>
      <trkpt lat="49.44218" lon="1.11462">
        <ele>20.1</ele>
        <time>2022-02-27T10:25:06Z</time>
      </trkpt>
      <trkpt lat="49.44219" lon="1.11456">
        <ele>20.2</ele>
        <time>2022-02-27T10:25:07Z</time>
      </trkpt>
      <trkpt lat="49.44219" lon="1.11446">
        <ele>20.2</ele>
        <time>2022-02-27T10:25:08Z</time>
      </trkpt>
      <trkpt lat="49.4422" lon="1.11439">
        <ele>20.2</ele>
        <time>2022-02-27T10:25:10Z</time>
      </trkpt>
      <trkpt lat="49.4422" lon="1.11433">
        <ele>20.2</ele>
        <time>2022-02-27T10:25:11Z</time>
      </trkpt>
      <trkpt lat="49.44221" lon="1.11428">
        <ele>20.2</ele>
        <time>2022-02-27T10:25:12Z</time>
      </trkpt>
      <trkpt lat="49.44222" lon="1.11421">
        <ele>20.2</ele>
        <time>2022-02-27T10:25:13Z</time>
      </trkpt>
      <trkpt lat="49.44223" lon="1.11414">
        <ele>20.2</ele>
        <time>2022-02-27T10:25:14Z</time>
      </trkpt>
      <trkpt lat="49.44223" lon="1.11406">
        <ele>20.2</ele>
        <time>2022-02-27T10:25:16Z</time>
      </trkpt>
      <trkpt lat="49.44223" lon="1.11398">
        <ele>20.3</ele>
        <time>2022-02-27T10:25:17Z</time>
      </trkpt>
      <trkpt lat="49.44221" lon="1.11395">
        <ele>20.3</ele>
        <time>2022-02-27T10:25:18Z</time>
      </trkpt>
      <trkpt lat="49.44221" lon="1.11394">
        <ele>20.3</ele>
        <time>2022-02-27T10:25:19Z</time>
      </trkpt>
      <trkpt lat="49.44221" lon="1.11393">
        <ele>20.3</ele>
        <time>2022-02-27T10:25:20Z</time>
      </trkpt>
      <trkpt lat="49.44222" lon="1.11374">
        <ele>20.3</ele>
        <time>2022-02-27T10:25:22Z</time>
      </trkpt>
      <trkpt lat="49.44223" lon="1.11357">
        <ele>20.4</ele>
        <time>2022-02-27T10:25:23Z</time>
      </trkpt>
      <trkpt lat="49.44224" lon="1.11343">
        <ele>20.5</ele>
        <time>2022-02-27T10:25:24Z</time>
      </trkpt>
      <trkpt lat="49.44224" lon="1.1133">
        <ele>20.6</ele>
        <time>2022-02-27T10:25:25Z</time>
      </trkpt>
      <trkpt lat="49.44224" lon="1.11318">
        <ele>20.6</ele>
        <time>2022-02-27T10:25:26Z</time>
      </trkpt>
      <trkpt lat="49.44227" lon="1.11308">
        <ele>20.5</ele>
        <time>2022-02-27T10:25:27Z</time>
      </trkpt>
      <trkpt lat="49.44231" lon="1.11297">
        <ele>20.7</ele>
        <time>2022-02-27T10:25:28Z</time>
      </trkpt>
      <trkpt lat="49.44234" lon="1.11287">
        <ele>20.8</ele>
        <time>2022-02-27T10:25:29Z</time>
      </trkpt>
      <trkpt lat="49.44234" lon="1.11276">
        <ele>20.9</ele>
        <time>2022-02-27T10:25:30Z</time>
      </trkpt>
      <trkpt lat="49.44233" lon="1.11265">
        <ele>20.9</ele>
        <time>2022-02-27T10:25:31Z</time>
      </trkpt>
      <trkpt lat="49.44228" lon="1.11257">
        <ele>20.8</ele>
        <time>2022-02-27T10:25:32Z</time>
      </trkpt>
      <trkpt lat="49.44222" lon="1.1125">
        <ele>20.6</ele>
        <time>2022-02-27T10:25:33Z</time>
      </trkpt>
      <trkpt lat="49.44216" lon="1.11243">
        <ele>20.2</ele>
        <time>2022-02-27T10:25:34Z</time>
      </trkpt>
      <trkpt lat="49.44214" lon="1.11234">
        <ele>20.2</ele>
        <time>2022-02-27T10:25:35Z</time>
      </trkpt>
      <trkpt lat="49.44214" lon="1.11227">
        <ele>20.2</ele>
        <time>2022-02-27T10:25:36Z</time>
      </trkpt>
      <trkpt lat="49.44214" lon="1.11215">
        <ele>20.1</ele>
        <time>2022-02-27T10:25:37Z</time>
      </trkpt>
      <trkpt lat="49.44215" lon="1.11203">
        <ele>19.9</ele>
        <time>2022-02-27T10:25:38Z</time>
      </trkpt>
      <trkpt lat="49.44219" lon="1.11192">
        <ele>19.8</ele>
        <time>2022-02-27T10:25:39Z</time>
      </trkpt>
      <trkpt lat="49.44221" lon="1.11182">
        <ele>19.6</ele>
        <time>2022-02-27T10:25:40Z</time>
      </trkpt>
      <trkpt lat="49.44221" lon="1.11174">
        <ele>19.6</ele>
        <time>2022-02-27T10:25:41Z</time>
      </trkpt>
      <trkpt lat="49.44222" lon="1.11166">
        <ele>19.5</ele>
        <time>2022-02-27T10:25:42Z</time>
      </trkpt>
      <trkpt lat="49.44222" lon="1.11155">
        <ele>19.3</ele>
        <time>2022-02-27T10:25:43Z</time>
      </trkpt>
      <trkpt lat="49.44223" lon="1.11144">
        <ele>19.2</ele>
        <time>2022-02-27T10:25:44Z</time>
      </trkpt>
      <trkpt lat="49.44223" lon="1.11134">
        <ele>19.1</ele>
        <time>2022-02-27T10:25:45Z</time>
      </trkpt>
      <trkpt lat="49.44224" lon="1.11124">
        <ele>19.1</ele>
        <time>2022-02-27T10:25:46Z</time>
      </trkpt>
      <trkpt lat="49.44225" lon="1.11115">
        <ele>19</ele>
        <time>2022-02-27T10:25:47Z</time>
      </trkpt>
      <trkpt lat="49.44225" lon="1.11107">
        <ele>18.9</ele>
        <time>2022-02-27T10:25:48Z</time>
      </trkpt>
      <trkpt lat="49.44227" lon="1.11098">
        <ele>18.8</ele>
        <time>2022-02-27T10:25:49Z</time>
      </trkpt>
      <trkpt lat="49.44227" lon="1.11089">
        <ele>18.7</ele>
        <time>2022-02-27T10:25:50Z</time>
      </trkpt>
      <trkpt lat="49.44228" lon="1.11079">
        <ele>18.6</ele>
        <time>2022-02-27T10:25:51Z</time>
      </trkpt>
      <trkpt lat="49.44229" lon="1.11071">
        <ele>18.5</ele>
        <time>2022-02-27T10:25:52Z</time>
      </trkpt>
      <trkpt lat="49.4423" lon="1.11062">
        <ele>18.5</ele>
        <time>2022-02-27T10:25:53Z</time>
      </trkpt>
      <trkpt lat="49.44231" lon="1.11054">
        <ele>18.4</ele>
        <time>2022-02-27T10:25:54Z</time>
      </trkpt>
      <trkpt lat="49.44232" lon="1.11046">
        <ele>18.4</ele>
        <time>2022-02-27T10:25:55Z</time>
      </trkpt>
      <trkpt lat="49.44233" lon="1.11038">
        <ele>18.3</ele>
        <time>2022-02-27T10:25:56Z</time>
      </trkpt>
      <trkpt lat="49.44232" lon="1.11029">
        <ele>18.2</ele>
        <time>2022-02-27T10:25:57Z</time>
      </trkpt>
      <trkpt lat="49.44232" lon="1.11023">
        <ele>18.2</ele>
        <time>2022-02-27T10:25:58Z</time>
      </trkpt>
      <trkpt lat="49.44233" lon="1.11016">
        <ele>18.2</ele>
        <time>2022-02-27T10:25:59Z</time>
      </trkpt>
      <trkpt lat="49.44233" lon="1.11011">
        <ele>18.1</ele>
        <time>2022-02-27T10:26:00Z</time>
      </trkpt>
      <trkpt lat="49.44233" lon="1.11003">
        <ele>18.1</ele>
        <time>2022-02-27T10:26:01Z</time>
      </trkpt>
      <trkpt lat="49.44233" lon="1.10997">
        <ele>18</ele>
        <time>2022-02-27T10:26:02Z</time>
      </trkpt>
      <trkpt lat="49.44233" lon="1.10993">
        <ele>18</ele>
        <time>2022-02-27T10:26:03Z</time>
      </trkpt>
      <trkpt lat="49.44233" lon="1.1099">
        <ele>18</ele>
        <time>2022-02-27T10:26:04Z</time>
      </trkpt>
      <trkpt lat="49.44234" lon="1.10975">
        <ele>17.9</ele>
        <time>2022-02-27T10:26:05Z</time>
      </trkpt>
      <trkpt lat="49.44234" lon="1.10964">
        <ele>17.8</ele>
        <time>2022-02-27T10:26:06Z</time>
      </trkpt>
      <trkpt lat="49.44233" lon="1.10953">
        <ele>17.8</ele>
        <time>2022-02-27T10:26:07Z</time>
      </trkpt>
      <trkpt lat="49.44234" lon="1.10942">
        <ele>17.7</ele>
        <time>2022-02-27T10:26:08Z</time>
      </trkpt>
      <trkpt lat="49.44235" lon="1.10932">
        <ele>17.7</ele>
        <time>2022-02-27T10:26:09Z</time>
      </trkpt>
      <trkpt lat="49.44235" lon="1.10921">
        <ele>17.6</ele>
        <time>2022-02-27T10:26:10Z</time>
      </trkpt>
      <trkpt lat="49.44236" lon="1.10911">
        <ele>17.6</ele>
        <time>2022-02-27T10:26:11Z</time>
      </trkpt>
      <trkpt lat="49.44236" lon="1.10901">
        <ele>17.5</ele>
        <time>2022-02-27T10:26:12Z</time>
      </trkpt>
      <trkpt lat="49.44237" lon="1.10891">
        <ele>17.5</ele>
        <time>2022-02-27T10:26:13Z</time>
      </trkpt>
      <trkpt lat="49.44237" lon="1.10882">
        <ele>17.4</ele>
        <time>2022-02-27T10:26:14Z</time>
      </trkpt>
      <trkpt lat="49.44235" lon="1.10872">
        <ele>17.4</ele>
        <time>2022-02-27T10:26:15Z</time>
      </trkpt>
      <trkpt lat="49.44236" lon="1.10864">
        <ele>17.4</ele>
        <time>2022-02-27T10:26:16Z</time>
      </trkpt>
      <trkpt lat="49.44237" lon="1.10855">
        <ele>17.4</ele>
        <time>2022-02-27T10:26:17Z</time>
      </trkpt>
      <trkpt lat="49.44237" lon="1.10846">
        <ele>17.4</ele>
        <time>2022-02-27T10:26:18Z</time>
      </trkpt>
      <trkpt lat="49.44237" lon="1.10837">
        <ele>17.4</ele>
        <time>2022-02-27T10:26:19Z</time>
      </trkpt>
      <trkpt lat="49.44236" lon="1.10829">
        <ele>17.4</ele>
        <time>2022-02-27T10:26:20Z</time>
      </trkpt>
      <trkpt lat="49.44236" lon="1.10821">
        <ele>17.4</ele>
        <time>2022-02-27T10:26:21Z</time>
      </trkpt>
      <trkpt lat="49.44237" lon="1.10811">
        <ele>17.4</ele>
        <time>2022-02-27T10:26:22Z</time>
      </trkpt>
      <trkpt lat="49.44237" lon="1.10804">
        <ele>17.4</ele>
        <time>2022-02-27T10:26:23Z</time>
      </trkpt>
      <trkpt lat="49.44237" lon="1.10795">
        <ele>17.4</ele>
        <time>2022-02-27T10:26:24Z</time>
      </trkpt>
      <trkpt lat="49.4424" lon="1.10786">
        <ele>17.3</ele>
        <time>2022-02-27T10:26:25Z</time>
      </trkpt>
      <trkpt lat="49.44242" lon="1.10777">
        <ele>17.3</ele>
        <time>2022-02-27T10:26:26Z</time>
      </trkpt>
      <trkpt lat="49.44243" lon="1.10768">
        <ele>17.3</ele>
        <time>2022-02-27T10:26:27Z</time>
      </trkpt>
      <trkpt lat="49.44245" lon="1.10761">
        <ele>17.3</ele>
        <time>2022-02-27T10:26:28Z</time>
      </trkpt>
      <trkpt lat="49.44246" lon="1.10756">
        <ele>17.2</ele>
        <time>2022-02-27T10:26:29Z</time>
      </trkpt>
      <trkpt lat="49.44245" lon="1.10751">
        <ele>17.2</ele>
        <time>2022-02-27T10:26:30Z</time>
      </trkpt>
      <trkpt lat="49.44244" lon="1.1074">
        <ele>17.2</ele>
        <time>2022-02-27T10:26:32Z</time>
      </trkpt>
      <trkpt lat="49.44245" lon="1.10727">
        <ele>17.2</ele>
        <time>2022-02-27T10:26:33Z</time>
      </trkpt>
      <trkpt lat="49.44246" lon="1.1072">
        <ele>17.2</ele>
        <time>2022-02-27T10:26:34Z</time>
      </trkpt>
      <trkpt lat="49.44248" lon="1.10713">
        <ele>17.2</ele>
        <time>2022-02-27T10:26:35Z</time>
      </trkpt>
      <trkpt lat="49.44245" lon="1.10702">
        <ele>17.2</ele>
        <time>2022-02-27T10:26:36Z</time>
      </trkpt>
      <trkpt lat="49.44245" lon="1.10693">
        <ele>17.2</ele>
        <time>2022-02-27T10:26:37Z</time>
      </trkpt>
      <trkpt lat="49.44245" lon="1.10684">
        <ele>17.1</ele>
        <time>2022-02-27T10:26:38Z</time>
      </trkpt>
      <trkpt lat="49.44245" lon="1.10675">
        <ele>17.1</ele>
        <time>2022-02-27T10:26:39Z</time>
      </trkpt>
      <trkpt lat="49.44245" lon="1.10666">
        <ele>17.1</ele>
        <time>2022-02-27T10:26:40Z</time>
      </trkpt>
      <trkpt lat="49.44246" lon="1.10659">
        <ele>17.1</ele>
        <time>2022-02-27T10:26:41Z</time>
      </trkpt>
      <trkpt lat="49.44247" lon="1.1065">
        <ele>17</ele>
        <time>2022-02-27T10:26:42Z</time>
      </trkpt>
      <trkpt lat="49.44248" lon="1.10642">
        <ele>17</ele>
        <time>2022-02-27T10:26:43Z</time>
      </trkpt>
      <trkpt lat="49.44249" lon="1.10636">
        <ele>17.4</ele>
        <time>2022-02-27T10:26:44Z</time>
      </trkpt>
      <trkpt lat="49.44251" lon="1.10633">
        <ele>17.5</ele>
        <time>2022-02-27T10:26:45Z</time>
      </trkpt>
      <trkpt lat="49.44253" lon="1.10628">
        <ele>17.5</ele>
        <time>2022-02-27T10:26:46Z</time>
      </trkpt>
      <trkpt lat="49.44255" lon="1.10624">
        <ele>17.4</ele>
        <time>2022-02-27T10:26:47Z</time>
      </trkpt>
      <trkpt lat="49.44256" lon="1.10623">
        <ele>17.4</ele>
        <time>2022-02-27T10:26:48Z</time>
      </trkpt>
      <trkpt lat="49.44258" lon="1.10617">
        <ele>17.4</ele>
        <time>2022-02-27T10:26:49Z</time>
      </trkpt>
      <trkpt lat="49.44259" lon="1.10615">
        <ele>17.4</ele>
        <time>2022-02-27T10:26:50Z</time>
      </trkpt>
      <trkpt lat="49.44265" lon="1.10603">
        <ele>17.3</ele>
        <time>2022-02-27T10:26:51Z</time>
      </trkpt>
      <trkpt lat="49.44269" lon="1.10595">
        <ele>17.2</ele>
        <time>2022-02-27T10:26:52Z</time>
      </trkpt>
      <trkpt lat="49.44274" lon="1.10588">
        <ele>17.2</ele>
        <time>2022-02-27T10:26:53Z</time>
      </trkpt>
      <trkpt lat="49.44277" lon="1.10579">
        <ele>17.2</ele>
        <time>2022-02-27T10:26:54Z</time>
      </trkpt>
      <trkpt lat="49.44281" lon="1.10574">
        <ele>17.3</ele>
        <time>2022-02-27T10:26:55Z</time>
      </trkpt>
      <trkpt lat="49.44285" lon="1.10568">
        <ele>17.3</ele>
        <time>2022-02-27T10:26:56Z</time>
      </trkpt>
      <trkpt lat="49.44288" lon="1.10559">
        <ele>17.4</ele>
        <time>2022-02-27T10:26:57Z</time>
      </trkpt>
      <trkpt lat="49.4429" lon="1.10551">
        <ele>17.4</ele>
        <time>2022-02-27T10:26:58Z</time>
      </trkpt>
      <trkpt lat="49.44293" lon="1.10545">
        <ele>17.5</ele>
        <time>2022-02-27T10:26:59Z</time>
      </trkpt>
      <trkpt lat="49.44294" lon="1.10539">
        <ele>17.5</ele>
        <time>2022-02-27T10:27:00Z</time>
      </trkpt>
      <trkpt lat="49.44295" lon="1.10528">
        <ele>17.6</ele>
        <time>2022-02-27T10:27:01Z</time>
      </trkpt>
      <trkpt lat="49.44296" lon="1.10516">
        <ele>17.7</ele>
        <time>2022-02-27T10:27:02Z</time>
      </trkpt>
      <trkpt lat="49.443" lon="1.10508">
        <ele>17.7</ele>
        <time>2022-02-27T10:27:03Z</time>
      </trkpt>
      <trkpt lat="49.44304" lon="1.10502">
        <ele>17.8</ele>
        <time>2022-02-27T10:27:04Z</time>
      </trkpt>
      <trkpt lat="49.44306" lon="1.10497">
        <ele>17.8</ele>
        <time>2022-02-27T10:27:05Z</time>
      </trkpt>
      <trkpt lat="49.44308" lon="1.10487">
        <ele>17.9</ele>
        <time>2022-02-27T10:27:06Z</time>
      </trkpt>
      <trkpt lat="49.4431" lon="1.10483">
        <ele>17.9</ele>
        <time>2022-02-27T10:27:07Z</time>
      </trkpt>
      <trkpt lat="49.44313" lon="1.10483">
        <ele>17.9</ele>
        <time>2022-02-27T10:27:08Z</time>
      </trkpt>
      <trkpt lat="49.44314" lon="1.10481">
        <ele>18</ele>
        <time>2022-02-27T10:27:09Z</time>
      </trkpt>
      <trkpt lat="49.44316" lon="1.10475">
        <ele>18</ele>
        <time>2022-02-27T10:27:10Z</time>
      </trkpt>
      <trkpt lat="49.44319" lon="1.1047">
        <ele>18</ele>
        <time>2022-02-27T10:27:11Z</time>
      </trkpt>
      <trkpt lat="49.44321" lon="1.10465">
        <ele>18</ele>
        <time>2022-02-27T10:27:12Z</time>
      </trkpt>
      <trkpt lat="49.44322" lon="1.10462">
        <ele>18</ele>
        <time>2022-02-27T10:27:13Z</time>
      </trkpt>
      <trkpt lat="49.44324" lon="1.10456">
        <ele>18.1</ele>
        <time>2022-02-27T10:27:14Z</time>
      </trkpt>
      <trkpt lat="49.44325" lon="1.10454">
        <ele>18.1</ele>
        <time>2022-02-27T10:27:15Z</time>
      </trkpt>
      <trkpt lat="49.44326" lon="1.10449">
        <ele>18.2</ele>
        <time>2022-02-27T10:27:16Z</time>
      </trkpt>
      <trkpt lat="49.44327" lon="1.10444">
        <ele>18.2</ele>
        <time>2022-02-27T10:27:17Z</time>
      </trkpt>
      <trkpt lat="49.44329" lon="1.10439">
        <ele>18.2</ele>
        <time>2022-02-27T10:27:18Z</time>
      </trkpt>
      <trkpt lat="49.44333" lon="1.10434">
        <ele>18.3</ele>
        <time>2022-02-27T10:27:19Z</time>
      </trkpt>
      <trkpt lat="49.44335" lon="1.1043">
        <ele>18.4</ele>
        <time>2022-02-27T10:27:20Z</time>
      </trkpt>
      <trkpt lat="49.44337" lon="1.10425">
        <ele>18.4</ele>
        <time>2022-02-27T10:27:21Z</time>
      </trkpt>
      <trkpt lat="49.44341" lon="1.10414">
        <ele>18.6</ele>
        <time>2022-02-27T10:27:23Z</time>
      </trkpt>
      <trkpt lat="49.44343" lon="1.10406">
        <ele>18.7</ele>
        <time>2022-02-27T10:27:24Z</time>
      </trkpt>
      <trkpt lat="49.44344" lon="1.104">
        <ele>18.8</ele>
        <time>2022-02-27T10:27:25Z</time>
      </trkpt>
      <trkpt lat="49.44347" lon="1.10389">
        <ele>18.9</ele>
        <time>2022-02-27T10:27:27Z</time>
      </trkpt>
      <trkpt lat="49.4435" lon="1.10378">
        <ele>19.1</ele>
        <time>2022-02-27T10:27:28Z</time>
      </trkpt>
      <trkpt lat="49.4435" lon="1.10374">
        <ele>19.1</ele>
        <time>2022-02-27T10:27:29Z</time>
      </trkpt>
      <trkpt lat="49.44352" lon="1.10365">
        <ele>19.3</ele>
        <time>2022-02-27T10:27:31Z</time>
      </trkpt>
      <trkpt lat="49.44354" lon="1.10356">
        <ele>19.4</ele>
        <time>2022-02-27T10:27:32Z</time>
      </trkpt>
      <trkpt lat="49.44356" lon="1.10341">
        <ele>19.5</ele>
        <time>2022-02-27T10:27:33Z</time>
      </trkpt>
      <trkpt lat="49.44358" lon="1.10325">
        <ele>19.7</ele>
        <time>2022-02-27T10:27:34Z</time>
      </trkpt>
      <trkpt lat="49.4436" lon="1.10312">
        <ele>19.8</ele>
        <time>2022-02-27T10:27:35Z</time>
      </trkpt>
      <trkpt lat="49.44362" lon="1.103">
        <ele>19.9</ele>
        <time>2022-02-27T10:27:36Z</time>
      </trkpt>
      <trkpt lat="49.44363" lon="1.10288">
        <ele>20</ele>
        <time>2022-02-27T10:27:37Z</time>
      </trkpt>
      <trkpt lat="49.44365" lon="1.10275">
        <ele>20.1</ele>
        <time>2022-02-27T10:27:38Z</time>
      </trkpt>
      <trkpt lat="49.44368" lon="1.10265">
        <ele>20.2</ele>
        <time>2022-02-27T10:27:39Z</time>
      </trkpt>
      <trkpt lat="49.44371" lon="1.10256">
        <ele>20.2</ele>
        <time>2022-02-27T10:27:40Z</time>
      </trkpt>
      <trkpt lat="49.44374" lon="1.10249">
        <ele>20.3</ele>
        <time>2022-02-27T10:27:41Z</time>
      </trkpt>
      <trkpt lat="49.44373" lon="1.10241">
        <ele>20.3</ele>
        <time>2022-02-27T10:27:42Z</time>
      </trkpt>
      <trkpt lat="49.44374" lon="1.10229">
        <ele>20.5</ele>
        <time>2022-02-27T10:27:43Z</time>
      </trkpt>
      <trkpt lat="49.44375" lon="1.10217">
        <ele>20.6</ele>
        <time>2022-02-27T10:27:44Z</time>
      </trkpt>
      <trkpt lat="49.44376" lon="1.10207">
        <ele>20.7</ele>
        <time>2022-02-27T10:27:45Z</time>
      </trkpt>
      <trkpt lat="49.44378" lon="1.102">
        <ele>20.7</ele>
        <time>2022-02-27T10:27:46Z</time>
      </trkpt>
      <trkpt lat="49.44378" lon="1.10194">
        <ele>20.8</ele>
        <time>2022-02-27T10:27:47Z</time>
      </trkpt>
      <trkpt lat="49.44379" lon="1.10187">
        <ele>21</ele>
        <time>2022-02-27T10:27:49Z</time>
      </trkpt>
      <trkpt lat="49.4438" lon="1.10179">
        <ele>21.2</ele>
        <time>2022-02-27T10:27:50Z</time>
      </trkpt>
      <trkpt lat="49.44383" lon="1.10166">
        <ele>21.5</ele>
        <time>2022-02-27T10:27:51Z</time>
      </trkpt>
      <trkpt lat="49.44385" lon="1.10159">
        <ele>21.6</ele>
        <time>2022-02-27T10:27:52Z</time>
      </trkpt>
      <trkpt lat="49.44387" lon="1.10151">
        <ele>21.8</ele>
        <time>2022-02-27T10:27:53Z</time>
      </trkpt>
      <trkpt lat="49.44389" lon="1.10143">
        <ele>22</ele>
        <time>2022-02-27T10:27:54Z</time>
      </trkpt>
      <trkpt lat="49.44391" lon="1.10137">
        <ele>22.2</ele>
        <time>2022-02-27T10:27:55Z</time>
      </trkpt>
      <trkpt lat="49.44392" lon="1.10132">
        <ele>22.3</ele>
        <time>2022-02-27T10:27:56Z</time>
      </trkpt>
      <trkpt lat="49.44391" lon="1.1013">
        <ele>22.4</ele>
        <time>2022-02-27T10:27:57Z</time>
      </trkpt>
      <trkpt lat="49.44391" lon="1.10127">
        <ele>22.5</ele>
        <time>2022-02-27T10:27:58Z</time>
      </trkpt>
      <trkpt lat="49.44397" lon="1.10115">
        <ele>22.8</ele>
        <time>2022-02-27T10:27:59Z</time>
      </trkpt>
      <trkpt lat="49.44402" lon="1.10106">
        <ele>23</ele>
        <time>2022-02-27T10:28:01Z</time>
      </trkpt>
      <trkpt lat="49.44403" lon="1.101">
        <ele>23.1</ele>
        <time>2022-02-27T10:28:02Z</time>
      </trkpt>
      <trkpt lat="49.44404" lon="1.10092">
        <ele>23.3</ele>
        <time>2022-02-27T10:28:04Z</time>
      </trkpt>
      <trkpt lat="49.44407" lon="1.10083">
        <ele>23.4</ele>
        <time>2022-02-27T10:28:05Z</time>
      </trkpt>
      <trkpt lat="49.44415" lon="1.10058">
        <ele>23.7</ele>
        <time>2022-02-27T10:28:06Z</time>
      </trkpt>
      <trkpt lat="49.44417" lon="1.10055">
        <ele>23.8</ele>
        <time>2022-02-27T10:28:07Z</time>
      </trkpt>
      <trkpt lat="49.44416" lon="1.10051">
        <ele>23.8</ele>
        <time>2022-02-27T10:28:08Z</time>
      </trkpt>
      <trkpt lat="49.44421" lon="1.1004">
        <ele>24</ele>
        <time>2022-02-27T10:28:10Z</time>
      </trkpt>
      <trkpt lat="49.44425" lon="1.10033">
        <ele>24.1</ele>
        <time>2022-02-27T10:28:11Z</time>
      </trkpt>
      <trkpt lat="49.44429" lon="1.10025">
        <ele>24.2</ele>
        <time>2022-02-27T10:28:12Z</time>
      </trkpt>
      <trkpt lat="49.44435" lon="1.10014">
        <ele>24.4</ele>
        <time>2022-02-27T10:28:13Z</time>
      </trkpt>
      <trkpt lat="49.44438" lon="1.10008">
        <ele>24.5</ele>
        <time>2022-02-27T10:28:14Z</time>
      </trkpt>
      <trkpt lat="49.44444" lon="1.09996">
        <ele>24.8</ele>
        <time>2022-02-27T10:28:16Z</time>
      </trkpt>
      <trkpt lat="49.44444" lon="1.09995">
        <ele>24.8</ele>
        <time>2022-02-27T10:28:17Z</time>
      </trkpt>
      <trkpt lat="49.44445" lon="1.09994">
        <ele>24.8</ele>
        <time>2022-02-27T10:28:19Z</time>
      </trkpt>
      <trkpt lat="49.44446" lon="1.09992">
        <ele>24.9</ele>
        <time>2022-02-27T10:28:20Z</time>
      </trkpt>
      <trkpt lat="49.44449" lon="1.09989">
        <ele>24.9</ele>
        <time>2022-02-27T10:28:21Z</time>
      </trkpt>
      <trkpt lat="49.4445" lon="1.09987">
        <ele>25</ele>
        <time>2022-02-27T10:28:22Z</time>
      </trkpt>
      <trkpt lat="49.44452" lon="1.09985">
        <ele>25</ele>
        <time>2022-02-27T10:28:23Z</time>
      </trkpt>
      <trkpt lat="49.44454" lon="1.09981">
        <ele>25.1</ele>
        <time>2022-02-27T10:28:25Z</time>
      </trkpt>
      <trkpt lat="49.44456" lon="1.09977">
        <ele>25.1</ele>
        <time>2022-02-27T10:28:26Z</time>
      </trkpt>
      <trkpt lat="49.44456" lon="1.09976">
        <ele>25.1</ele>
        <time>2022-02-27T10:28:27Z</time>
      </trkpt>
      <trkpt lat="49.44457" lon="1.0997">
        <ele>25.1</ele>
        <time>2022-02-27T10:28:28Z</time>
      </trkpt>
      <trkpt lat="49.44457" lon="1.09967">
        <ele>25.1</ele>
        <time>2022-02-27T10:28:29Z</time>
      </trkpt>
      <trkpt lat="49.44457" lon="1.09963">
        <ele>25.1</ele>
        <time>2022-02-27T10:28:30Z</time>
      </trkpt>
      <trkpt lat="49.44457" lon="1.0996">
        <ele>25.1</ele>
        <time>2022-02-27T10:28:31Z</time>
      </trkpt>
      <trkpt lat="49.44458" lon="1.09958">
        <ele>25.1</ele>
        <time>2022-02-27T10:28:32Z</time>
      </trkpt>
      <trkpt lat="49.44459" lon="1.09954">
        <ele>25.1</ele>
        <time>2022-02-27T10:28:34Z</time>
      </trkpt>
      <trkpt lat="49.44464" lon="1.09945">
        <ele>25</ele>
        <time>2022-02-27T10:28:36Z</time>
      </trkpt>
      <trkpt lat="49.44466" lon="1.09941">
        <ele>25.7</ele>
        <time>2022-02-27T10:28:37Z</time>
      </trkpt>
      <trkpt lat="49.44468" lon="1.09937">
        <ele>25.9</ele>
        <time>2022-02-27T10:28:38Z</time>
      </trkpt>
      <trkpt lat="49.4447" lon="1.09933">
        <ele>26.2</ele>
        <time>2022-02-27T10:28:39Z</time>
      </trkpt>
      <trkpt lat="49.44473" lon="1.09928">
        <ele>26.5</ele>
        <time>2022-02-27T10:28:40Z</time>
      </trkpt>
      <trkpt lat="49.44475" lon="1.09924">
        <ele>26.7</ele>
        <time>2022-02-27T10:28:41Z</time>
      </trkpt>
      <trkpt lat="49.44476" lon="1.0992">
        <ele>26.9</ele>
        <time>2022-02-27T10:28:42Z</time>
      </trkpt>
      <trkpt lat="49.4448" lon="1.09913">
        <ele>27.2</ele>
        <time>2022-02-27T10:28:44Z</time>
      </trkpt>
      <trkpt lat="49.44485" lon="1.09906">
        <ele>27.5</ele>
        <time>2022-02-27T10:28:45Z</time>
      </trkpt>
      <trkpt lat="49.44488" lon="1.09901">
        <ele>27.7</ele>
        <time>2022-02-27T10:28:46Z</time>
      </trkpt>
      <trkpt lat="49.44491" lon="1.09895">
        <ele>28</ele>
        <time>2022-02-27T10:28:47Z</time>
      </trkpt>
      <trkpt lat="49.44496" lon="1.09886">
        <ele>28.4</ele>
        <time>2022-02-27T10:28:49Z</time>
      </trkpt>
      <trkpt lat="49.44502" lon="1.09873">
        <ele>28.8</ele>
        <time>2022-02-27T10:28:50Z</time>
      </trkpt>
      <trkpt lat="49.44511" lon="1.09854">
        <ele>29.3</ele>
        <time>2022-02-27T10:28:52Z</time>
      </trkpt>
      <trkpt lat="49.44518" lon="1.09839">
        <ele>29.6</ele>
        <time>2022-02-27T10:28:53Z</time>
      </trkpt>
      <trkpt lat="49.44522" lon="1.0983">
        <ele>29.8</ele>
        <time>2022-02-27T10:28:54Z</time>
      </trkpt>
      <trkpt lat="49.44525" lon="1.09822">
        <ele>29.9</ele>
        <time>2022-02-27T10:28:55Z</time>
      </trkpt>
      <trkpt lat="49.44528" lon="1.09816">
        <ele>30.1</ele>
        <time>2022-02-27T10:28:57Z</time>
      </trkpt>
      <trkpt lat="49.44531" lon="1.09811">
        <ele>30.1</ele>
        <time>2022-02-27T10:28:58Z</time>
      </trkpt>
      <trkpt lat="49.44534" lon="1.09806">
        <ele>30.2</ele>
        <time>2022-02-27T10:28:59Z</time>
      </trkpt>
      <trkpt lat="49.44538" lon="1.09801">
        <ele>30.3</ele>
        <time>2022-02-27T10:29:00Z</time>
      </trkpt>
      <trkpt lat="49.44542" lon="1.09792">
        <ele>30.3</ele>
        <time>2022-02-27T10:29:01Z</time>
      </trkpt>
      <trkpt lat="49.44547" lon="1.09783">
        <ele>30.3</ele>
        <time>2022-02-27T10:29:03Z</time>
      </trkpt>
      <trkpt lat="49.44549" lon="1.09775">
        <ele>30.2</ele>
        <time>2022-02-27T10:29:04Z</time>
      </trkpt>
      <trkpt lat="49.44552" lon="1.09766">
        <ele>30.2</ele>
        <time>2022-02-27T10:29:05Z</time>
      </trkpt>
      <trkpt lat="49.44553" lon="1.09759">
        <ele>30.2</ele>
        <time>2022-02-27T10:29:06Z</time>
      </trkpt>
      <trkpt lat="49.44555" lon="1.09753">
        <ele>30.1</ele>
        <time>2022-02-27T10:29:07Z</time>
      </trkpt>
      <trkpt lat="49.44556" lon="1.09746">
        <ele>30.1</ele>
        <time>2022-02-27T10:29:09Z</time>
      </trkpt>
      <trkpt lat="49.44556" lon="1.09743">
        <ele>30.1</ele>
        <time>2022-02-27T10:29:10Z</time>
      </trkpt>
      <trkpt lat="49.44549" lon="1.09734">
        <ele>30.1</ele>
        <time>2022-02-27T10:29:12Z</time>
      </trkpt>
      <trkpt lat="49.44547" lon="1.09731">
        <ele>30.1</ele>
        <time>2022-02-27T10:29:13Z</time>
      </trkpt>
      <trkpt lat="49.44544" lon="1.09727">
        <ele>30</ele>
        <time>2022-02-27T10:29:14Z</time>
      </trkpt>
      <trkpt lat="49.44543" lon="1.09726">
        <ele>30</ele>
        <time>2022-02-27T10:29:15Z</time>
      </trkpt>
      <trkpt lat="49.44542" lon="1.09724">
        <ele>30</ele>
        <time>2022-02-27T10:29:17Z</time>
      </trkpt>
      <trkpt lat="49.4454" lon="1.09724">
        <ele>30</ele>
        <time>2022-02-27T10:29:18Z</time>
      </trkpt>
      <trkpt lat="49.4454" lon="1.09723">
        <ele>30</ele>
        <time>2022-02-27T10:29:19Z</time>
      </trkpt>
      <trkpt lat="49.44525" lon="1.09705">
        <ele>29.2</ele>
        <time>2022-02-27T10:29:27Z</time>
      </trkpt>
      <trkpt lat="49.44523" lon="1.09699">
        <ele>29</ele>
        <time>2022-02-27T10:29:28Z</time>
      </trkpt>
      <trkpt lat="49.44515" lon="1.09692">
        <ele>28.5</ele>
        <time>2022-02-27T10:29:29Z</time>
      </trkpt>
      <trkpt lat="49.44513" lon="1.09684">
        <ele>28</ele>
        <time>2022-02-27T10:29:31Z</time>
      </trkpt>
      <trkpt lat="49.44512" lon="1.09678">
        <ele>28.1</ele>
        <time>2022-02-27T10:29:32Z</time>
      </trkpt>
      <trkpt lat="49.4451" lon="1.09673">
        <ele>28.1</ele>
        <time>2022-02-27T10:29:33Z</time>
      </trkpt>
      <trkpt lat="49.44508" lon="1.09665">
        <ele>28.2</ele>
        <time>2022-02-27T10:29:34Z</time>
      </trkpt>
      <trkpt lat="49.44507" lon="1.0966">
        <ele>28.2</ele>
        <time>2022-02-27T10:29:36Z</time>
      </trkpt>
      <trkpt lat="49.44507" lon="1.09655">
        <ele>28.2</ele>
        <time>2022-02-27T10:29:37Z</time>
      </trkpt>
      <trkpt lat="49.44505" lon="1.0965">
        <ele>28.3</ele>
        <time>2022-02-27T10:29:38Z</time>
      </trkpt>
      <trkpt lat="49.44505" lon="1.09648">
        <ele>28.3</ele>
        <time>2022-02-27T10:29:39Z</time>
      </trkpt>
      <trkpt lat="49.44504" lon="1.09645">
        <ele>28.3</ele>
        <time>2022-02-27T10:29:40Z</time>
      </trkpt>
      <trkpt lat="49.44503" lon="1.09642">
        <ele>28.3</ele>
        <time>2022-02-27T10:29:42Z</time>
      </trkpt>
      <trkpt lat="49.44502" lon="1.09641">
        <ele>28.3</ele>
        <time>2022-02-27T10:29:43Z</time>
      </trkpt>
      <trkpt lat="49.44502" lon="1.09642">
        <ele>28.3</ele>
        <time>2022-02-27T10:29:44Z</time>
      </trkpt>
      <trkpt lat="49.44503" lon="1.09643">
        <ele>28.3</ele>
        <time>2022-02-27T10:29:45Z</time>
      </trkpt>
      <trkpt lat="49.44504" lon="1.09644">
        <ele>28.3</ele>
        <time>2022-02-27T10:29:47Z</time>
      </trkpt>
      <trkpt lat="49.44504" lon="1.09645">
        <ele>28.3</ele>
        <time>2022-02-27T10:29:48Z</time>
      </trkpt>
      <trkpt lat="49.44504" lon="1.09645">
        <ele>28.3</ele>
        <time>2022-02-27T10:29:49Z</time>
      </trkpt>
      <trkpt lat="49.44504" lon="1.09646">
        <ele>28.3</ele>
        <time>2022-02-27T10:29:50Z</time>
      </trkpt>
      <trkpt lat="49.44515" lon="1.09621">
        <ele>28.2</ele>
        <time>2022-02-27T10:32:56Z</time>
      </trkpt>
      <trkpt lat="49.44517" lon="1.09615">
        <ele>28.2</ele>
        <time>2022-02-27T10:32:57Z</time>
      </trkpt>
      <trkpt lat="49.44519" lon="1.09608">
        <ele>28.2</ele>
        <time>2022-02-27T10:32:58Z</time>
      </trkpt>
      <trkpt lat="49.44522" lon="1.09596">
        <ele>28.2</ele>
        <time>2022-02-27T10:33:00Z</time>
      </trkpt>
      <trkpt lat="49.44525" lon="1.09587">
        <ele>28.2</ele>
        <time>2022-02-27T10:33:01Z</time>
      </trkpt>
      <trkpt lat="49.44529" lon="1.09576">
        <ele>28.2</ele>
        <time>2022-02-27T10:33:02Z</time>
      </trkpt>
      <trkpt lat="49.44534" lon="1.09564">
        <ele>28.2</ele>
        <time>2022-02-27T10:33:04Z</time>
      </trkpt>
      <trkpt lat="49.44536" lon="1.09558">
        <ele>28.2</ele>
        <time>2022-02-27T10:33:06Z</time>
      </trkpt>
      <trkpt lat="49.44538" lon="1.09551">
        <ele>28.3</ele>
        <time>2022-02-27T10:33:07Z</time>
      </trkpt>
      <trkpt lat="49.4454" lon="1.09545">
        <ele>28.2</ele>
        <time>2022-02-27T10:33:08Z</time>
      </trkpt>
      <trkpt lat="49.44542" lon="1.0954">
        <ele>28.2</ele>
        <time>2022-02-27T10:33:09Z</time>
      </trkpt>
      <trkpt lat="49.44548" lon="1.09532">
        <ele>28.1</ele>
        <time>2022-02-27T10:33:11Z</time>
      </trkpt>
      <trkpt lat="49.4455" lon="1.09524">
        <ele>28.1</ele>
        <time>2022-02-27T10:33:12Z</time>
      </trkpt>
      <trkpt lat="49.44552" lon="1.09518">
        <ele>28</ele>
        <time>2022-02-27T10:33:13Z</time>
      </trkpt>
      <trkpt lat="49.44554" lon="1.09512">
        <ele>28</ele>
        <time>2022-02-27T10:33:14Z</time>
      </trkpt>
      <trkpt lat="49.44556" lon="1.09507">
        <ele>27.9</ele>
        <time>2022-02-27T10:33:15Z</time>
      </trkpt>
      <trkpt lat="49.44559" lon="1.09503">
        <ele>27.9</ele>
        <time>2022-02-27T10:33:16Z</time>
      </trkpt>
      <trkpt lat="49.4456" lon="1.09498">
        <ele>27.9</ele>
        <time>2022-02-27T10:33:17Z</time>
      </trkpt>
      <trkpt lat="49.44564" lon="1.09489">
        <ele>27.9</ele>
        <time>2022-02-27T10:33:18Z</time>
      </trkpt>
      <trkpt lat="49.44569" lon="1.09478">
        <ele>27.9</ele>
        <time>2022-02-27T10:33:19Z</time>
      </trkpt>
      <trkpt lat="49.44571" lon="1.09477">
        <ele>27.9</ele>
        <time>2022-02-27T10:33:20Z</time>
      </trkpt>
      <trkpt lat="49.44572" lon="1.09477">
        <ele>28.8</ele>
        <time>2022-02-27T10:33:21Z</time>
      </trkpt>
      <trkpt lat="49.44574" lon="1.09476">
        <ele>29</ele>
        <time>2022-02-27T10:33:23Z</time>
      </trkpt>
      <trkpt lat="49.44575" lon="1.09479">
        <ele>29.2</ele>
        <time>2022-02-27T10:33:24Z</time>
      </trkpt>
      <trkpt lat="49.44578" lon="1.09482">
        <ele>29.5</ele>
        <time>2022-02-27T10:33:25Z</time>
      </trkpt>
      <trkpt lat="49.44581" lon="1.09485">
        <ele>29.8</ele>
        <time>2022-02-27T10:33:26Z</time>
      </trkpt>
      <trkpt lat="49.44583" lon="1.09488">
        <ele>30.1</ele>
        <time>2022-02-27T10:33:28Z</time>
      </trkpt>
      <trkpt lat="49.44587" lon="1.09493">
        <ele>30.5</ele>
        <time>2022-02-27T10:33:29Z</time>
      </trkpt>
      <trkpt lat="49.44591" lon="1.09497">
        <ele>31</ele>
        <time>2022-02-27T10:33:30Z</time>
      </trkpt>
      <trkpt lat="49.44594" lon="1.095">
        <ele>31.4</ele>
        <time>2022-02-27T10:33:31Z</time>
      </trkpt>
      <trkpt lat="49.44598" lon="1.09503">
        <ele>31.7</ele>
        <time>2022-02-27T10:33:32Z</time>
      </trkpt>
      <trkpt lat="49.44601" lon="1.09504">
        <ele>32</ele>
        <time>2022-02-27T10:33:33Z</time>
      </trkpt>
      <trkpt lat="49.44607" lon="1.09506">
        <ele>32.6</ele>
        <time>2022-02-27T10:33:34Z</time>
      </trkpt>
      <trkpt lat="49.44613" lon="1.09508">
        <ele>33.2</ele>
        <time>2022-02-27T10:33:35Z</time>
      </trkpt>
      <trkpt lat="49.44618" lon="1.09508">
        <ele>33.3</ele>
        <time>2022-02-27T10:33:37Z</time>
      </trkpt>
      <trkpt lat="49.44621" lon="1.09508">
        <ele>33.4</ele>
        <time>2022-02-27T10:33:38Z</time>
      </trkpt>
      <trkpt lat="49.44624" lon="1.09507">
        <ele>33.5</ele>
        <time>2022-02-27T10:33:39Z</time>
      </trkpt>
      <trkpt lat="49.44626" lon="1.09507">
        <ele>33.5</ele>
        <time>2022-02-27T10:33:40Z</time>
      </trkpt>
      <trkpt lat="49.44629" lon="1.09506">
        <ele>33.6</ele>
        <time>2022-02-27T10:33:42Z</time>
      </trkpt>
      <trkpt lat="49.4463" lon="1.09506">
        <ele>33.6</ele>
        <time>2022-02-27T10:33:43Z</time>
      </trkpt>
      <trkpt lat="49.44634" lon="1.09505">
        <ele>33.7</ele>
        <time>2022-02-27T10:33:44Z</time>
      </trkpt>
      <trkpt lat="49.44636" lon="1.09505">
        <ele>33.8</ele>
        <time>2022-02-27T10:33:45Z</time>
      </trkpt>
      <trkpt lat="49.44642" lon="1.09504">
        <ele>34</ele>
        <time>2022-02-27T10:33:46Z</time>
      </trkpt>
      <trkpt lat="49.44645" lon="1.09504">
        <ele>34.2</ele>
        <time>2022-02-27T10:33:47Z</time>
      </trkpt>
      <trkpt lat="49.44647" lon="1.09504">
        <ele>34.2</ele>
        <time>2022-02-27T10:33:48Z</time>
      </trkpt>
      <trkpt lat="49.44649" lon="1.09503">
        <ele>34.3</ele>
        <time>2022-02-27T10:33:49Z</time>
      </trkpt>
      <trkpt lat="49.44648" lon="1.09503">
        <ele>34.4</ele>
        <time>2022-02-27T10:33:51Z</time>
      </trkpt>
      <trkpt lat="49.44648" lon="1.09503">
        <ele>34.4</ele>
        <time>2022-02-27T10:33:52Z</time>
      </trkpt>
      <trkpt lat="49.44648" lon="1.09503">
        <ele>34.4</ele>
        <time>2022-02-27T10:33:53Z</time>
      </trkpt>
      <trkpt lat="49.44648" lon="1.09503">
        <ele>34.4</ele>
        <time>2022-02-27T10:33:55Z</time>
      </trkpt>
      <trkpt lat="49.4465" lon="1.09504">
        <ele>34.5</ele>
        <time>2022-02-27T10:33:56Z</time>
      </trkpt>
      <trkpt lat="49.44654" lon="1.09503">
        <ele>34.7</ele>
        <time>2022-02-27T10:33:57Z</time>
      </trkpt>
      <trkpt lat="49.44656" lon="1.09503">
        <ele>34.8</ele>
        <time>2022-02-27T10:33:58Z</time>
      </trkpt>
      <trkpt lat="49.44661" lon="1.09503">
        <ele>35</ele>
        <time>2022-02-27T10:33:59Z</time>
      </trkpt>
      <trkpt lat="49.44667" lon="1.09505">
        <ele>35.3</ele>
        <time>2022-02-27T10:34:01Z</time>
      </trkpt>
      <trkpt lat="49.44672" lon="1.09506">
        <ele>35.6</ele>
        <time>2022-02-27T10:34:02Z</time>
      </trkpt>
      <trkpt lat="49.44675" lon="1.09507">
        <ele>35.7</ele>
        <time>2022-02-27T10:34:03Z</time>
      </trkpt>
      <trkpt lat="49.44679" lon="1.09508">
        <ele>35.9</ele>
        <time>2022-02-27T10:34:04Z</time>
      </trkpt>
      <trkpt lat="49.44683" lon="1.09509">
        <ele>36.1</ele>
        <time>2022-02-27T10:34:05Z</time>
      </trkpt>
      <trkpt lat="49.44687" lon="1.09509">
        <ele>36.3</ele>
        <time>2022-02-27T10:34:07Z</time>
      </trkpt>
      <trkpt lat="49.44689" lon="1.0951">
        <ele>36.4</ele>
        <time>2022-02-27T10:34:08Z</time>
      </trkpt>
      <trkpt lat="49.4469" lon="1.0951">
        <ele>36.5</ele>
        <time>2022-02-27T10:34:09Z</time>
      </trkpt>
      <trkpt lat="49.44692" lon="1.0951">
        <ele>36.6</ele>
        <time>2022-02-27T10:34:10Z</time>
      </trkpt>
      <trkpt lat="49.44694" lon="1.09511">
        <ele>36.7</ele>
        <time>2022-02-27T10:34:11Z</time>
      </trkpt>
      <trkpt lat="49.44695" lon="1.09512">
        <ele>36.8</ele>
        <time>2022-02-27T10:34:12Z</time>
      </trkpt>
      <trkpt lat="49.44696" lon="1.09513">
        <ele>36.8</ele>
        <time>2022-02-27T10:34:13Z</time>
      </trkpt>
      <trkpt lat="49.44698" lon="1.09515">
        <ele>37</ele>
        <time>2022-02-27T10:34:14Z</time>
      </trkpt>
      <trkpt lat="49.44699" lon="1.09516">
        <ele>37</ele>
        <time>2022-02-27T10:34:15Z</time>
      </trkpt>
      <trkpt lat="49.447" lon="1.09517">
        <ele>37.1</ele>
        <time>2022-02-27T10:34:16Z</time>
      </trkpt>
      <trkpt lat="49.44701" lon="1.09517">
        <ele>37.1</ele>
        <time>2022-02-27T10:34:17Z</time>
      </trkpt>
      <trkpt lat="49.44703" lon="1.09518">
        <ele>37.3</ele>
        <time>2022-02-27T10:34:18Z</time>
      </trkpt>
      <trkpt lat="49.44705" lon="1.09518">
        <ele>37.3</ele>
        <time>2022-02-27T10:34:19Z</time>
      </trkpt>
      <trkpt lat="49.44706" lon="1.09519">
        <ele>37.4</ele>
        <time>2022-02-27T10:34:20Z</time>
      </trkpt>
      <trkpt lat="49.44708" lon="1.09519">
        <ele>37.5</ele>
        <time>2022-02-27T10:34:21Z</time>
      </trkpt>
      <trkpt lat="49.4471" lon="1.0952">
        <ele>37.6</ele>
        <time>2022-02-27T10:34:22Z</time>
      </trkpt>
      <trkpt lat="49.44711" lon="1.0952">
        <ele>37.7</ele>
        <time>2022-02-27T10:34:23Z</time>
      </trkpt>
      <trkpt lat="49.44713" lon="1.09521">
        <ele>37.8</ele>
        <time>2022-02-27T10:34:57Z</time>
      </trkpt>
      <trkpt lat="49.44715" lon="1.09521">
        <ele>37.8</ele>
        <time>2022-02-27T10:34:58Z</time>
      </trkpt>
      <trkpt lat="49.44717" lon="1.09521">
        <ele>37.9</ele>
        <time>2022-02-27T10:34:59Z</time>
      </trkpt>
      <trkpt lat="49.44717" lon="1.09521">
        <ele>37.9</ele>
        <time>2022-02-27T10:35:00Z</time>
      </trkpt>
      <trkpt lat="49.44721" lon="1.09522">
        <ele>38.1</ele>
        <time>2022-02-27T10:35:02Z</time>
      </trkpt>
      <trkpt lat="49.44722" lon="1.09524">
        <ele>38.1</ele>
        <time>2022-02-27T10:35:03Z</time>
      </trkpt>
      <trkpt lat="49.44726" lon="1.09527">
        <ele>38.2</ele>
        <time>2022-02-27T10:35:04Z</time>
      </trkpt>
      <trkpt lat="49.44727" lon="1.09528">
        <ele>38.3</ele>
        <time>2022-02-27T10:35:05Z</time>
      </trkpt>
      <trkpt lat="49.44732" lon="1.09531">
        <ele>38.3</ele>
        <time>2022-02-27T10:35:07Z</time>
      </trkpt>
      <trkpt lat="49.44734" lon="1.09531">
        <ele>38.4</ele>
        <time>2022-02-27T10:35:08Z</time>
      </trkpt>
      <trkpt lat="49.44735" lon="1.09532">
        <ele>38.4</ele>
        <time>2022-02-27T10:35:09Z</time>
      </trkpt>
      <trkpt lat="49.44739" lon="1.09532">
        <ele>38.5</ele>
        <time>2022-02-27T10:35:10Z</time>
      </trkpt>
      <trkpt lat="49.44741" lon="1.09533">
        <ele>38.5</ele>
        <time>2022-02-27T10:35:11Z</time>
      </trkpt>
      <trkpt lat="49.44743" lon="1.09534">
        <ele>38.5</ele>
        <time>2022-02-27T10:35:12Z</time>
      </trkpt>
      <trkpt lat="49.44746" lon="1.09536">
        <ele>38.6</ele>
        <time>2022-02-27T10:35:14Z</time>
      </trkpt>
      <trkpt lat="49.44753" lon="1.0954">
        <ele>38.7</ele>
        <time>2022-02-27T10:35:15Z</time>
      </trkpt>
      <trkpt lat="49.44758" lon="1.09542">
        <ele>38.8</ele>
        <time>2022-02-27T10:35:16Z</time>
      </trkpt>
      <trkpt lat="49.44761" lon="1.09543">
        <ele>38.9</ele>
        <time>2022-02-27T10:35:17Z</time>
      </trkpt>
      <trkpt lat="49.44778" lon="1.09542">
        <ele>39.3</ele>
        <time>2022-02-27T10:35:18Z</time>
      </trkpt>
      <trkpt lat="49.44779" lon="1.0954">
        <ele>39.3</ele>
        <time>2022-02-27T10:35:19Z</time>
      </trkpt>
      <trkpt lat="49.44759" lon="1.09537">
        <ele>39.8</ele>
        <time>2022-02-27T10:35:20Z</time>
      </trkpt>
      <trkpt lat="49.44764" lon="1.09537">
        <ele>39.9</ele>
        <time>2022-02-27T10:35:22Z</time>
      </trkpt>
      <trkpt lat="49.44771" lon="1.0954">
        <ele>40.1</ele>
        <time>2022-02-27T10:35:23Z</time>
      </trkpt>
      <trkpt lat="49.44783" lon="1.09545">
        <ele>40.4</ele>
        <time>2022-02-27T10:35:25Z</time>
      </trkpt>
      <trkpt lat="49.44794" lon="1.09547">
        <ele>40.6</ele>
        <time>2022-02-27T10:35:26Z</time>
      </trkpt>
      <trkpt lat="49.44812" lon="1.09549">
        <ele>41</ele>
        <time>2022-02-27T10:35:28Z</time>
      </trkpt>
      <trkpt lat="49.44824" lon="1.09551">
        <ele>41.3</ele>
        <time>2022-02-27T10:35:29Z</time>
      </trkpt>
      <trkpt lat="49.4483" lon="1.09553">
        <ele>41.5</ele>
        <time>2022-02-27T10:35:30Z</time>
      </trkpt>
      <trkpt lat="49.44836" lon="1.09553">
        <ele>41.6</ele>
        <time>2022-02-27T10:35:31Z</time>
      </trkpt>
      <trkpt lat="49.44843" lon="1.09553">
        <ele>41.8</ele>
        <time>2022-02-27T10:35:32Z</time>
      </trkpt>
      <trkpt lat="49.4485" lon="1.09553">
        <ele>42</ele>
        <time>2022-02-27T10:35:34Z</time>
      </trkpt>
      <trkpt lat="49.44856" lon="1.09554">
        <ele>42.1</ele>
        <time>2022-02-27T10:35:35Z</time>
      </trkpt>
      <trkpt lat="49.44861" lon="1.09556">
        <ele>42.2</ele>
        <time>2022-02-27T10:35:37Z</time>
      </trkpt>
      <trkpt lat="49.44862" lon="1.09557">
        <ele>42.3</ele>
        <time>2022-02-27T10:35:38Z</time>
      </trkpt>
      <trkpt lat="49.44864" lon="1.09558">
        <ele>42.3</ele>
        <time>2022-02-27T10:35:39Z</time>
      </trkpt>
    </trkseg>
  </trk>
</gpx>